<?xml version="1.0" encoding="UTF-8" standalone="no" ?>
<gpx xmlns="http://www.topografix.com/GPX/1/1" creator="MapSource 6.16.3" version="1.1" xmlns:xsi="http://www.w3.org/2001/XMLSchema-instance" xsi:schemaLocation="http://www.topografix.com/GPX/1/1 http://www.topografix.com/GPX/1/1/gpx.xsd">

  <metadata>
    <link href="http://www.garmin.com">
      <text>Garmin International</text>
    </link>
    <time>2015-01-17T13:35:44Z</time>
    <bounds maxlat="46.613551145419478" maxlon="7.202908443287015" minlat="46.581284170970321" minlon="7.054912112653256"/>
  </metadata>

  <trk>
    <name>Bulle-Bovatey</name>
    <trkseg>
      <trkpt lat="46.61267071031034" lon="7.058536028489471">
        <ele>759</ele>
        <time>2014-11-14T12:38:50Z</time>
      </trkpt>
      <trkpt lat="46.612627878785133" lon="7.058673826977611">
        <ele>758.79998779296875</ele>
        <time>2014-11-14T12:38:52Z</time>
      </trkpt>
      <trkpt lat="46.612606840208173" lon="7.058843141421676">
        <ele>758.4000244140625</ele>
        <time>2014-11-14T12:38:54Z</time>
      </trkpt>
      <trkpt lat="46.612563924863935" lon="7.059207502752543">
        <ele>757.79998779296875</ele>
        <time>2014-11-14T12:38:58Z</time>
      </trkpt>
      <trkpt lat="46.612558728083968" lon="7.059303727000952">
        <ele>757.79998779296875</ele>
        <time>2014-11-14T12:38:59Z</time>
      </trkpt>
      <trkpt lat="46.612501060590148" lon="7.059771604835987">
        <ele>756.79998779296875</ele>
        <time>2014-11-14T12:39:04Z</time>
      </trkpt>
      <trkpt lat="46.612480860203505" lon="7.059872606769204">
        <ele>756.79998779296875</ele>
        <time>2014-11-14T12:39:05Z</time>
      </trkpt>
      <trkpt lat="46.612410368397832" lon="7.060316596180201">
        <ele>756.20001220703125</ele>
        <time>2014-11-14T12:39:09Z</time>
      </trkpt>
      <trkpt lat="46.612396370619535" lon="7.060424890369177">
        <ele>756</ele>
        <time>2014-11-14T12:39:10Z</time>
      </trkpt>
      <trkpt lat="46.612344151362777" lon="7.060889331623912">
        <ele>756</ele>
        <time>2014-11-14T12:39:15Z</time>
      </trkpt>
      <trkpt lat="46.612303582951427" lon="7.060995697975159">
        <ele>755.79998779296875</ele>
        <time>2014-11-14T12:39:17Z</time>
      </trkpt>
      <trkpt lat="46.612268462777138" lon="7.061031404882669">
        <ele>755.79998779296875</ele>
        <time>2014-11-14T12:39:18Z</time>
      </trkpt>
      <trkpt lat="46.612233091145754" lon="7.061067363247275">
        <ele>755.79998779296875</ele>
        <time>2014-11-14T12:39:19Z</time>
      </trkpt>
      <trkpt lat="46.612048353999853" lon="7.061315719038248">
        <ele>755.4000244140625</ele>
        <time>2014-11-14T12:39:24Z</time>
      </trkpt>
      <trkpt lat="46.611929247155786" lon="7.061539851129055">
        <ele>755.4000244140625</ele>
        <time>2014-11-14T12:39:28Z</time>
      </trkpt>
      <trkpt lat="46.611907370388508" lon="7.061601458117366">
        <ele>755.20001220703125</ele>
        <time>2014-11-14T12:39:29Z</time>
      </trkpt>
      <trkpt lat="46.611871160566807" lon="7.061812430620194">
        <ele>755</ele>
        <time>2014-11-14T12:39:32Z</time>
      </trkpt>
      <trkpt lat="46.611852552741766" lon="7.061982750892639">
        <ele>754.5999755859375</ele>
        <time>2014-11-14T12:39:34Z</time>
      </trkpt>
      <trkpt lat="46.611836459487677" lon="7.062310231849551">
        <ele>753.4000244140625</ele>
        <time>2014-11-14T12:39:37Z</time>
      </trkpt>
      <trkpt lat="46.611809385940433" lon="7.062631342560053">
        <ele>752.5999755859375</ele>
        <time>2014-11-14T12:39:40Z</time>
      </trkpt>
      <trkpt lat="46.611797818914056" lon="7.062841728329659">
        <ele>752.4000244140625</ele>
        <time>2014-11-14T12:39:42Z</time>
      </trkpt>
      <trkpt lat="46.611772840842605" lon="7.063149763271213">
        <ele>751.4000244140625</ele>
        <time>2014-11-14T12:39:45Z</time>
      </trkpt>
      <trkpt lat="46.611759010702372" lon="7.063237689435482">
        <ele>751</ele>
        <time>2014-11-14T12:39:46Z</time>
      </trkpt>
      <trkpt lat="46.611711820587516" lon="7.063431311398745">
        <ele>750</ele>
        <time>2014-11-14T12:39:49Z</time>
      </trkpt>
      <trkpt lat="46.611701846122742" lon="7.06348093226552">
        <ele>750</ele>
        <time>2014-11-14T12:39:50Z</time>
      </trkpt>
      <trkpt lat="46.611672509461641" lon="7.063702549785376">
        <ele>749.5999755859375</ele>
        <time>2014-11-14T12:39:54Z</time>
      </trkpt>
      <trkpt lat="46.611663876101375" lon="7.06376239657402">
        <ele>749.5999755859375</ele>
        <time>2014-11-14T12:39:55Z</time>
      </trkpt>
      <trkpt lat="46.611626576632261" lon="7.064011758193374">
        <ele>749.20001220703125</ele>
        <time>2014-11-14T12:39:59Z</time>
      </trkpt>
      <trkpt lat="46.611588438972831" lon="7.064149053767324">
        <ele>749.20001220703125</ele>
        <time>2014-11-14T12:40:01Z</time>
      </trkpt>
      <trkpt lat="46.611576117575169" lon="7.064221976324916">
        <ele>749</ele>
        <time>2014-11-14T12:40:02Z</time>
      </trkpt>
      <trkpt lat="46.611565807834268" lon="7.064378215000033">
        <ele>748.79998779296875</ele>
        <time>2014-11-14T12:40:04Z</time>
      </trkpt>
      <trkpt lat="46.611552815884352" lon="7.064537974074483">
        <ele>748.5999755859375</ele>
        <time>2014-11-14T12:40:06Z</time>
      </trkpt>
      <trkpt lat="46.611520210281014" lon="7.064942568540573">
        <ele>747.79998779296875</ele>
        <time>2014-11-14T12:40:11Z</time>
      </trkpt>
      <trkpt lat="46.611511660739779" lon="7.065112888813019">
        <ele>747.5999755859375</ele>
        <time>2014-11-14T12:40:13Z</time>
      </trkpt>
      <trkpt lat="46.61147310398519" lon="7.065719403326511">
        <ele>747</ele>
        <time>2014-11-14T12:40:20Z</time>
      </trkpt>
      <trkpt lat="46.611469415947795" lon="7.065895842388272">
        <ele>746.5999755859375</ele>
        <time>2014-11-14T12:40:22Z</time>
      </trkpt>
      <trkpt lat="46.611462961882353" lon="7.066418789327145">
        <ele>745.79998779296875</ele>
        <time>2014-11-14T12:40:28Z</time>
      </trkpt>
      <trkpt lat="46.611458687111735" lon="7.066500596702099">
        <ele>745.5999755859375</ele>
        <time>2014-11-14T12:40:29Z</time>
      </trkpt>
      <trkpt lat="46.611416023224592" lon="7.066822294145823">
        <ele>745.20001220703125</ele>
        <time>2014-11-14T12:40:33Z</time>
      </trkpt>
      <trkpt lat="46.611391883343458" lon="7.066896138712764">
        <ele>745</ele>
        <time>2014-11-14T12:40:34Z</time>
      </trkpt>
      <trkpt lat="46.611322145909071" lon="7.067015832290053">
        <ele>744.5999755859375</ele>
        <time>2014-11-14T12:40:36Z</time>
      </trkpt>
      <trkpt lat="46.611233381554484" lon="7.067108117043972">
        <ele>744.20001220703125</ele>
        <time>2014-11-14T12:40:38Z</time>
      </trkpt>
      <trkpt lat="46.611185604706407" lon="7.067151535302401">
        <ele>744</ele>
        <time>2014-11-14T12:40:39Z</time>
      </trkpt>
      <trkpt lat="46.61094487644732" lon="7.067393604665995">
        <ele>743.5999755859375</ele>
        <time>2014-11-14T12:40:44Z</time>
      </trkpt>
      <trkpt lat="46.610896848142147" lon="7.067439453676343">
        <ele>743.20001220703125</ele>
        <time>2014-11-14T12:40:45Z</time>
      </trkpt>
      <trkpt lat="46.610855106264353" lon="7.067487314343453">
        <ele>743</ele>
        <time>2014-11-14T12:40:46Z</time>
      </trkpt>
      <trkpt lat="46.610777154564857" lon="7.067647241055965">
        <ele>742.79998779296875</ele>
        <time>2014-11-14T12:40:49Z</time>
      </trkpt>
      <trkpt lat="46.61081051453948" lon="7.067851843312383">
        <ele>742.5999755859375</ele>
        <time>2014-11-14T12:40:52Z</time>
      </trkpt>
      <trkpt lat="46.610803054645658" lon="7.067914791405201">
        <ele>742.4000244140625</ele>
        <time>2014-11-14T12:40:53Z</time>
      </trkpt>
      <trkpt lat="46.61075041629374" lon="7.068032892420888">
        <ele>742</ele>
        <time>2014-11-14T12:40:55Z</time>
      </trkpt>
      <trkpt lat="46.610718229785562" lon="7.068087793886662">
        <ele>741.79998779296875</ele>
        <time>2014-11-14T12:40:56Z</time>
      </trkpt>
      <trkpt lat="46.610554782673717" lon="7.068330030888319">
        <ele>741.4000244140625</ele>
        <time>2014-11-14T12:41:00Z</time>
      </trkpt>
      <trkpt lat="46.610510693863034" lon="7.068396247923374">
        <ele>741.20001220703125</ele>
        <time>2014-11-14T12:41:01Z</time>
      </trkpt>
      <trkpt lat="46.610223026946187" lon="7.068789023905993">
        <ele>740.4000244140625</ele>
        <time>2014-11-14T12:41:07Z</time>
      </trkpt>
      <trkpt lat="46.610174160450697" lon="7.068850714713335">
        <ele>740.20001220703125</ele>
        <time>2014-11-14T12:41:08Z</time>
      </trkpt>
      <trkpt lat="46.609980203211308" lon="7.069096136838198">
        <ele>739</ele>
        <time>2014-11-14T12:41:12Z</time>
      </trkpt>
      <trkpt lat="46.609777947887778" lon="7.069346085190773">
        <ele>738.20001220703125</ele>
        <time>2014-11-14T12:41:16Z</time>
      </trkpt>
      <trkpt lat="46.609678538516164" lon="7.069461168721318">
        <ele>738</ele>
        <time>2014-11-14T12:41:18Z</time>
      </trkpt>
      <trkpt lat="46.609394056722522" lon="7.06983600743115">
        <ele>737.20001220703125</ele>
        <time>2014-11-14T12:41:24Z</time>
      </trkpt>
      <trkpt lat="46.60921024158597" lon="7.070017978549004">
        <ele>736.79998779296875</ele>
        <time>2014-11-14T12:41:28Z</time>
      </trkpt>
      <trkpt lat="46.609032796695828" lon="7.070201123133302">
        <ele>737</ele>
        <time>2014-11-14T12:41:32Z</time>
      </trkpt>
      <trkpt lat="46.608996754512191" lon="7.070240266621113">
        <ele>736.79998779296875</ele>
        <time>2014-11-14T12:41:33Z</time>
      </trkpt>
      <trkpt lat="46.608971357345581" lon="7.070284942165017">
        <ele>736.79998779296875</ele>
        <time>2014-11-14T12:41:34Z</time>
      </trkpt>
      <trkpt lat="46.608965154737234" lon="7.070335987955332">
        <ele>736.79998779296875</ele>
        <time>2014-11-14T12:41:35Z</time>
      </trkpt>
      <trkpt lat="46.609026258811355" lon="7.070478815585375">
        <ele>736.5999755859375</ele>
        <time>2014-11-14T12:41:38Z</time>
      </trkpt>
      <trkpt lat="46.609131619334221" lon="7.070671180263162">
        <ele>736.79998779296875</ele>
        <time>2014-11-14T12:41:42Z</time>
      </trkpt>
      <trkpt lat="46.609154250472784" lon="7.070806212723255">
        <ele>736.5999755859375</ele>
        <time>2014-11-14T12:41:44Z</time>
      </trkpt>
      <trkpt lat="46.609157100319862" lon="7.071020621806383">
        <ele>736.4000244140625</ele>
        <time>2014-11-14T12:41:47Z</time>
      </trkpt>
      <trkpt lat="46.609164224937558" lon="7.071254057809711">
        <ele>736.20001220703125</ele>
        <time>2014-11-14T12:41:50Z</time>
      </trkpt>
      <trkpt lat="46.609147125855088" lon="7.071512555703521">
        <ele>735.79998779296875</ele>
        <time>2014-11-14T12:41:53Z</time>
      </trkpt>
      <trkpt lat="46.609136732295156" lon="7.071595285087824">
        <ele>735.79998779296875</ele>
        <time>2014-11-14T12:41:54Z</time>
      </trkpt>
      <trkpt lat="46.609098762273788" lon="7.071759486570954">
        <ele>735.5999755859375</ele>
        <time>2014-11-14T12:41:56Z</time>
      </trkpt>
      <trkpt lat="46.608986277133226" lon="7.072100881487131">
        <ele>734.79998779296875</ele>
        <time>2014-11-14T12:42:00Z</time>
      </trkpt>
      <trkpt lat="46.60889751277864" lon="7.07233339548111">
        <ele>734.20001220703125</ele>
        <time>2014-11-14T12:42:03Z</time>
      </trkpt>
      <trkpt lat="46.608788045123219" lon="7.072573201730847">
        <ele>733.5999755859375</ele>
        <time>2014-11-14T12:42:06Z</time>
      </trkpt>
      <trkpt lat="46.608686288818717" lon="7.072805045172572">
        <ele>733.20001220703125</ele>
        <time>2014-11-14T12:42:09Z</time>
      </trkpt>
      <trkpt lat="46.608564499765635" lon="7.073096400126815">
        <ele>732.5999755859375</ele>
        <time>2014-11-14T12:42:13Z</time>
      </trkpt>
      <trkpt lat="46.608522422611713" lon="7.073246520012617">
        <ele>732.79998779296875</ele>
        <time>2014-11-14T12:42:15Z</time>
      </trkpt>
      <trkpt lat="46.608497109264135" lon="7.07339714281261">
        <ele>732.5999755859375</ele>
        <time>2014-11-14T12:42:17Z</time>
      </trkpt>
      <trkpt lat="46.608495684340596" lon="7.073570396751165">
        <ele>732.5999755859375</ele>
        <time>2014-11-14T12:42:19Z</time>
      </trkpt>
      <trkpt lat="46.608497947454453" lon="7.073660250753164">
        <ele>732.5999755859375</ele>
        <time>2014-11-14T12:42:20Z</time>
      </trkpt>
      <trkpt lat="46.608470203354955" lon="7.074216809123755">
        <ele>732</ele>
        <time>2014-11-14T12:42:26Z</time>
      </trkpt>
      <trkpt lat="46.608435837551951" lon="7.074404647573829">
        <ele>731.4000244140625</ele>
        <time>2014-11-14T12:42:28Z</time>
      </trkpt>
      <trkpt lat="46.608402812853456" lon="7.074756603688002">
        <ele>731.79998779296875</ele>
        <time>2014-11-14T12:42:32Z</time>
      </trkpt>
      <trkpt lat="46.608404405415058" lon="7.074912339448929">
        <ele>731.79998779296875</ele>
        <time>2014-11-14T12:42:34Z</time>
      </trkpt>
      <trkpt lat="46.608424941077828" lon="7.075114427134395">
        <ele>732.4000244140625</ele>
        <time>2014-11-14T12:42:37Z</time>
      </trkpt>
      <trkpt lat="46.608449164777994" lon="7.075205286964774">
        <ele>732.5999755859375</ele>
        <time>2014-11-14T12:42:39Z</time>
      </trkpt>
      <trkpt lat="46.60847925581038" lon="7.07527250982821">
        <ele>733</ele>
        <time>2014-11-14T12:42:41Z</time>
      </trkpt>
      <trkpt lat="46.608541868627071" lon="7.075410643592477">
        <ele>733.79998779296875</ele>
        <time>2014-11-14T12:42:45Z</time>
      </trkpt>
      <trkpt lat="46.608560979366302" lon="7.07544794306159">
        <ele>734.20001220703125</ele>
        <time>2014-11-14T12:42:46Z</time>
      </trkpt>
      <trkpt lat="46.608667932450771" lon="7.075633769854903">
        <ele>734.79998779296875</ele>
        <time>2014-11-14T12:42:51Z</time>
      </trkpt>
      <trkpt lat="46.608712943270802" lon="7.075710212811828">
        <ele>735</ele>
        <time>2014-11-14T12:42:53Z</time>
      </trkpt>
      <trkpt lat="46.608782764524221" lon="7.075915904715657">
        <ele>736</ele>
        <time>2014-11-14T12:42:57Z</time>
      </trkpt>
      <trkpt lat="46.608795337378979" lon="7.076026126742363">
        <ele>736.4000244140625</ele>
        <time>2014-11-14T12:42:59Z</time>
      </trkpt>
      <trkpt lat="46.608784943819046" lon="7.076120004057884">
        <ele>737</ele>
        <time>2014-11-14T12:43:01Z</time>
      </trkpt>
      <trkpt lat="46.608756696805358" lon="7.076239110901952">
        <ele>737.79998779296875</ele>
        <time>2014-11-14T12:43:04Z</time>
      </trkpt>
      <trkpt lat="46.608730042353272" lon="7.076315553858876">
        <ele>738.20001220703125</ele>
        <time>2014-11-14T12:43:06Z</time>
      </trkpt>
      <trkpt lat="46.608683187514544" lon="7.076460560783744">
        <ele>739.4000244140625</ele>
        <time>2014-11-14T12:43:10Z</time>
      </trkpt>
      <trkpt lat="46.608669692650437" lon="7.076674131676555">
        <ele>740.4000244140625</ele>
        <time>2014-11-14T12:43:15Z</time>
      </trkpt>
      <trkpt lat="46.608674135059118" lon="7.07672324962914">
        <ele>740.5999755859375</ele>
        <time>2014-11-14T12:43:16Z</time>
      </trkpt>
      <trkpt lat="46.608703387901187" lon="7.076907986775041">
        <ele>741.4000244140625</ele>
        <time>2014-11-14T12:43:20Z</time>
      </trkpt>
      <trkpt lat="46.608717301860452" lon="7.077003456652165">
        <ele>741.5999755859375</ele>
        <time>2014-11-14T12:43:22Z</time>
      </trkpt>
      <trkpt lat="46.608752002939582" lon="7.077283328399062">
        <ele>742.5999755859375</ele>
        <time>2014-11-14T12:43:27Z</time>
      </trkpt>
      <trkpt lat="46.608759379014373" lon="7.077390365302563">
        <ele>742.79998779296875</ele>
        <time>2014-11-14T12:43:29Z</time>
      </trkpt>
      <trkpt lat="46.608779411762953" lon="7.077662190422416">
        <ele>743.5999755859375</ele>
        <time>2014-11-14T12:43:34Z</time>
      </trkpt>
      <trkpt lat="46.608794583007693" lon="7.077849190682173">
        <ele>744</ele>
        <time>2014-11-14T12:43:37Z</time>
      </trkpt>
      <trkpt lat="46.608819728717208" lon="7.078126380220056">
        <ele>744.20001220703125</ele>
        <time>2014-11-14T12:43:41Z</time>
      </trkpt>
      <trkpt lat="46.608829954639077" lon="7.078253030776978">
        <ele>744.5999755859375</ele>
        <time>2014-11-14T12:43:43Z</time>
      </trkpt>
      <trkpt lat="46.608820986002684" lon="7.07830935716629">
        <ele>744.79998779296875</ele>
        <time>2014-11-14T12:43:44Z</time>
      </trkpt>
      <trkpt lat="46.608788296580315" lon="7.078551175072789">
        <ele>745.4000244140625</ele>
        <time>2014-11-14T12:43:49Z</time>
      </trkpt>
      <trkpt lat="46.608695592731237" lon="7.078879745677114">
        <ele>745.79998779296875</ele>
        <time>2014-11-14T12:43:55Z</time>
      </trkpt>
      <trkpt lat="46.608630046248436" lon="7.079213093966246">
        <ele>746.20001220703125</ele>
        <time>2014-11-14T12:44:01Z</time>
      </trkpt>
      <trkpt lat="46.608655191957951" lon="7.079577706754208">
        <ele>746.5999755859375</ele>
        <time>2014-11-14T12:44:07Z</time>
      </trkpt>
      <trkpt lat="46.608758373185992" lon="7.079980289563537">
        <ele>746</ele>
        <time>2014-11-14T12:44:13Z</time>
      </trkpt>
      <trkpt lat="46.608851328492165" lon="7.080470798537135">
        <ele>744.5999755859375</ele>
        <time>2014-11-14T12:44:18Z</time>
      </trkpt>
      <trkpt lat="46.608859961852431" lon="7.080839099362493">
        <ele>743.20001220703125</ele>
        <time>2014-11-14T12:44:21Z</time>
      </trkpt>
      <trkpt lat="46.608857782557607" lon="7.081086114048958">
        <ele>741.4000244140625</ele>
        <time>2014-11-14T12:44:23Z</time>
      </trkpt>
      <trkpt lat="46.608872031792998" lon="7.081442596390843">
        <ele>740</ele>
        <time>2014-11-14T12:44:26Z</time>
      </trkpt>
      <trkpt lat="46.608852166682482" lon="7.081657256931067">
        <ele>738.5999755859375</ele>
        <time>2014-11-14T12:44:28Z</time>
      </trkpt>
      <trkpt lat="46.608777986839414" lon="7.081828080117703">
        <ele>737.4000244140625</ele>
        <time>2014-11-14T12:44:30Z</time>
      </trkpt>
      <trkpt lat="46.608718223869801" lon="7.081883484497666">
        <ele>736.79998779296875</ele>
        <time>2014-11-14T12:44:31Z</time>
      </trkpt>
      <trkpt lat="46.608644714578986" lon="7.081914665177465">
        <ele>736</ele>
        <time>2014-11-14T12:44:32Z</time>
      </trkpt>
      <trkpt lat="46.608465509489179" lon="7.081931596621871">
        <ele>735</ele>
        <time>2014-11-14T12:44:34Z</time>
      </trkpt>
      <trkpt lat="46.608374314382672" lon="7.081924304366112">
        <ele>734.4000244140625</ele>
        <time>2014-11-14T12:44:35Z</time>
      </trkpt>
      <trkpt lat="46.608288483694196" lon="7.081904942169786">
        <ele>734</ele>
        <time>2014-11-14T12:44:36Z</time>
      </trkpt>
      <trkpt lat="46.608022442087531" lon="7.081862613558769">
        <ele>732.5999755859375</ele>
        <time>2014-11-14T12:44:39Z</time>
      </trkpt>
      <trkpt lat="46.607930073514581" lon="7.081857416778803">
        <ele>732.20001220703125</ele>
        <time>2014-11-14T12:44:40Z</time>
      </trkpt>
      <trkpt lat="46.60775606520474" lon="7.081859679892659">
        <ele>731.4000244140625</ele>
        <time>2014-11-14T12:44:42Z</time>
      </trkpt>
      <trkpt lat="46.60758750513196" lon="7.08190904930234">
        <ele>730.4000244140625</ele>
        <time>2014-11-14T12:44:44Z</time>
      </trkpt>
      <trkpt lat="46.607505613937974" lon="7.081952802836895">
        <ele>729.79998779296875</ele>
        <time>2014-11-14T12:44:45Z</time>
      </trkpt>
      <trkpt lat="46.607359014451504" lon="7.082087164744735">
        <ele>727.79998779296875</ele>
        <time>2014-11-14T12:44:47Z</time>
      </trkpt>
      <trkpt lat="46.607186179608107" lon="7.082355720922351">
        <ele>727.20001220703125</ele>
        <time>2014-11-14T12:44:50Z</time>
      </trkpt>
      <trkpt lat="46.607142174616456" lon="7.082463763654232">
        <ele>727.20001220703125</ele>
        <time>2014-11-14T12:44:51Z</time>
      </trkpt>
      <trkpt lat="46.607103534042835" lon="7.082578763365746">
        <ele>727.20001220703125</ele>
        <time>2014-11-14T12:44:52Z</time>
      </trkpt>
      <trkpt lat="46.607035472989082" lon="7.083018142729998">
        <ele>727.4000244140625</ele>
        <time>2014-11-14T12:44:55Z</time>
      </trkpt>
      <trkpt lat="46.606941260397434" lon="7.083430113270879">
        <ele>728.79998779296875</ele>
        <time>2014-11-14T12:44:59Z</time>
      </trkpt>
      <trkpt lat="46.606895998120308" lon="7.083671595901251">
        <ele>729.79998779296875</ele>
        <time>2014-11-14T12:45:02Z</time>
      </trkpt>
      <trkpt lat="46.606879150494933" lon="7.08381031639874">
        <ele>730.4000244140625</ele>
        <time>2014-11-14T12:45:04Z</time>
      </trkpt>
      <trkpt lat="46.606873786076903" lon="7.083934703841806">
        <ele>730.79998779296875</ele>
        <time>2014-11-14T12:45:06Z</time>
      </trkpt>
      <trkpt lat="46.606849059462547" lon="7.084136959165335">
        <ele>731.5999755859375</ele>
        <time>2014-11-14T12:45:10Z</time>
      </trkpt>
      <trkpt lat="46.606832547113299" lon="7.08437031134963">
        <ele>731.79998779296875</ele>
        <time>2014-11-14T12:45:14Z</time>
      </trkpt>
      <trkpt lat="46.606846544891596" lon="7.084463350474834">
        <ele>731.79998779296875</ele>
        <time>2014-11-14T12:45:15Z</time>
      </trkpt>
      <trkpt lat="46.606854842975736" lon="7.084551109001041">
        <ele>731.5999755859375</ele>
        <time>2014-11-14T12:45:16Z</time>
      </trkpt>
      <trkpt lat="46.606860039755702" lon="7.084929468110204">
        <ele>731.4000244140625</ele>
        <time>2014-11-14T12:45:21Z</time>
      </trkpt>
      <trkpt lat="46.606855178251863" lon="7.085001636296511">
        <ele>731.5999755859375</ele>
        <time>2014-11-14T12:45:22Z</time>
      </trkpt>
      <trkpt lat="46.606796337291598" lon="7.085251500830054">
        <ele>731.4000244140625</ele>
        <time>2014-11-14T12:45:26Z</time>
      </trkpt>
      <trkpt lat="46.606749566271901" lon="7.085366919636726">
        <ele>731.20001220703125</ele>
        <time>2014-11-14T12:45:28Z</time>
      </trkpt>
      <trkpt lat="46.606613779440522" lon="7.085600439459086">
        <ele>730.5999755859375</ele>
        <time>2014-11-14T12:45:32Z</time>
      </trkpt>
      <trkpt lat="46.606493247672915" lon="7.085802610963583">
        <ele>729.4000244140625</ele>
        <time>2014-11-14T12:45:35Z</time>
      </trkpt>
      <trkpt lat="46.606320329010487" lon="7.086089104413986">
        <ele>728</ele>
        <time>2014-11-14T12:45:39Z</time>
      </trkpt>
      <trkpt lat="46.606278587132692" lon="7.086167810484767">
        <ele>728</ele>
        <time>2014-11-14T12:45:40Z</time>
      </trkpt>
      <trkpt lat="46.606151098385453" lon="7.086420021951199">
        <ele>727</ele>
        <time>2014-11-14T12:45:43Z</time>
      </trkpt>
      <trkpt lat="46.606113547459245" lon="7.086516665294766">
        <ele>726.5999755859375</ele>
        <time>2014-11-14T12:45:44Z</time>
      </trkpt>
      <trkpt lat="46.606039367616177" lon="7.086736103519797">
        <ele>725.5999755859375</ele>
        <time>2014-11-14T12:45:46Z</time>
      </trkpt>
      <trkpt lat="46.605946244671941" lon="7.08705578930676">
        <ele>724.5999755859375</ele>
        <time>2014-11-14T12:45:49Z</time>
      </trkpt>
      <trkpt lat="46.605882877483964" lon="7.087251339107752">
        <ele>724.20001220703125</ele>
        <time>2014-11-14T12:45:51Z</time>
      </trkpt>
      <trkpt lat="46.605865778401494" lon="7.087349994108081">
        <ele>724</ele>
        <time>2014-11-14T12:45:52Z</time>
      </trkpt>
      <trkpt lat="46.605845661833882" lon="7.087548058480024">
        <ele>723.4000244140625</ele>
        <time>2014-11-14T12:45:54Z</time>
      </trkpt>
      <trkpt lat="46.605815151706338" lon="7.087745619937778">
        <ele>723.20001220703125</ele>
        <time>2014-11-14T12:45:56Z</time>
      </trkpt>
      <trkpt lat="46.605768296867609" lon="7.087935134768486">
        <ele>723</ele>
        <time>2014-11-14T12:45:58Z</time>
      </trkpt>
      <trkpt lat="46.605737954378128" lon="7.088033370673657">
        <ele>722.4000244140625</ele>
        <time>2014-11-14T12:45:59Z</time>
      </trkpt>
      <trkpt lat="46.605673665180802" lon="7.088227914646268">
        <ele>722.20001220703125</ele>
        <time>2014-11-14T12:46:01Z</time>
      </trkpt>
      <trkpt lat="46.605637622997165" lon="7.088313158601522">
        <ele>722</ele>
        <time>2014-11-14T12:46:02Z</time>
      </trkpt>
      <trkpt lat="46.605500159785151" lon="7.088517257943749">
        <ele>722</ele>
        <time>2014-11-14T12:46:05Z</time>
      </trkpt>
      <trkpt lat="46.605315003544092" lon="7.088698809966445">
        <ele>723</ele>
        <time>2014-11-14T12:46:09Z</time>
      </trkpt>
      <trkpt lat="46.605274016037583" lon="7.088736528530717">
        <ele>723.4000244140625</ele>
        <time>2014-11-14T12:46:10Z</time>
      </trkpt>
      <trkpt lat="46.605232441797853" lon="7.088770559057593">
        <ele>723.5999755859375</ele>
        <time>2014-11-14T12:46:11Z</time>
      </trkpt>
      <trkpt lat="46.605147365480661" lon="7.088829400017858">
        <ele>723.79998779296875</ele>
        <time>2014-11-14T12:46:13Z</time>
      </trkpt>
      <trkpt lat="46.605026749894023" lon="7.088905507698655">
        <ele>724.20001220703125</ele>
        <time>2014-11-14T12:46:16Z</time>
      </trkpt>
      <trkpt lat="46.604987438768148" lon="7.088937778025866">
        <ele>724</ele>
        <time>2014-11-14T12:46:17Z</time>
      </trkpt>
      <trkpt lat="46.60494745709002" lon="7.088975664228201">
        <ele>724</ele>
        <time>2014-11-14T12:46:18Z</time>
      </trkpt>
      <trkpt lat="46.604806641116738" lon="7.089082030579448">
        <ele>723.79998779296875</ele>
        <time>2014-11-14T12:46:21Z</time>
      </trkpt>
      <trkpt lat="46.604759199544787" lon="7.089118994772434">
        <ele>723.79998779296875</ele>
        <time>2014-11-14T12:46:22Z</time>
      </trkpt>
      <trkpt lat="46.604713099077344" lon="7.089165262877941">
        <ele>723.5999755859375</ele>
        <time>2014-11-14T12:46:23Z</time>
      </trkpt>
      <trkpt lat="46.6045892983675" lon="7.08933818154037">
        <ele>722.5999755859375</ele>
        <time>2014-11-14T12:46:26Z</time>
      </trkpt>
      <trkpt lat="46.60454923287034" lon="7.089388808235526">
        <ele>722.20001220703125</ele>
        <time>2014-11-14T12:46:27Z</time>
      </trkpt>
      <trkpt lat="46.604447979480028" lon="7.089445721358061">
        <ele>721.4000244140625</ele>
        <time>2014-11-14T12:46:29Z</time>
      </trkpt>
      <trkpt lat="46.604395760223269" lon="7.08944421261549">
        <ele>720.5999755859375</ele>
        <time>2014-11-14T12:46:30Z</time>
      </trkpt>
      <trkpt lat="46.604336583986878" lon="7.089427784085274">
        <ele>720.20001220703125</ele>
        <time>2014-11-14T12:46:31Z</time>
      </trkpt>
      <trkpt lat="46.604221081361175" lon="7.089337510988116">
        <ele>719.20001220703125</ele>
        <time>2014-11-14T12:46:33Z</time>
      </trkpt>
      <trkpt lat="46.604178166016936" lon="7.089288225397468">
        <ele>718.79998779296875</ele>
        <time>2014-11-14T12:46:34Z</time>
      </trkpt>
      <trkpt lat="46.604137010872364" lon="7.089235922321677">
        <ele>718.4000244140625</ele>
        <time>2014-11-14T12:46:35Z</time>
      </trkpt>
      <trkpt lat="46.604093676432967" lon="7.089188983663917">
        <ele>717.79998779296875</ele>
        <time>2014-11-14T12:46:36Z</time>
      </trkpt>
      <trkpt lat="46.60404447466135" lon="7.089145565405488">
        <ele>717.4000244140625</ele>
        <time>2014-11-14T12:46:37Z</time>
      </trkpt>
      <trkpt lat="46.603997619822621" lon="7.089104577898979">
        <ele>717.20001220703125</ele>
        <time>2014-11-14T12:46:38Z</time>
      </trkpt>
      <trkpt lat="46.603877088055015" lon="7.089059818536043">
        <ele>716.5999755859375</ele>
        <time>2014-11-14T12:46:40Z</time>
      </trkpt>
      <trkpt lat="46.603760998696089" lon="7.089061578735709">
        <ele>715.4000244140625</ele>
        <time>2014-11-14T12:46:42Z</time>
      </trkpt>
      <trkpt lat="46.603606687858701" lon="7.08912025205791">
        <ele>714.20001220703125</ele>
        <time>2014-11-14T12:46:45Z</time>
      </trkpt>
      <trkpt lat="46.603541811928153" lon="7.089184205979109">
        <ele>713.4000244140625</ele>
        <time>2014-11-14T12:46:47Z</time>
      </trkpt>
      <trkpt lat="46.603515576571226" lon="7.089219493791461">
        <ele>713.20001220703125</ele>
        <time>2014-11-14T12:46:48Z</time>
      </trkpt>
      <trkpt lat="46.603489341214299" lon="7.089256290346384">
        <ele>712.5999755859375</ele>
        <time>2014-11-14T12:46:49Z</time>
      </trkpt>
      <trkpt lat="46.603432763367891" lon="7.089350754395127">
        <ele>711.79998779296875</ele>
        <time>2014-11-14T12:46:51Z</time>
      </trkpt>
      <trkpt lat="46.603405606001616" lon="7.089406494051218">
        <ele>711.5999755859375</ele>
        <time>2014-11-14T12:46:52Z</time>
      </trkpt>
      <trkpt lat="46.603360679000616" lon="7.089516296982765">
        <ele>710.79998779296875</ele>
        <time>2014-11-14T12:46:54Z</time>
      </trkpt>
      <trkpt lat="46.603313237428665" lon="7.089640852063894">
        <ele>710</ele>
        <time>2014-11-14T12:46:56Z</time>
      </trkpt>
      <trkpt lat="46.603292366489768" lon="7.089706230908632">
        <ele>709.5999755859375</ele>
        <time>2014-11-14T12:46:57Z</time>
      </trkpt>
      <trkpt lat="46.603275435045362" lon="7.089771693572402">
        <ele>709.4000244140625</ele>
        <time>2014-11-14T12:46:58Z</time>
      </trkpt>
      <trkpt lat="46.603250373154879" lon="7.089987611398101">
        <ele>708.4000244140625</ele>
        <time>2014-11-14T12:47:01Z</time>
      </trkpt>
      <trkpt lat="46.603222377598286" lon="7.090171510353684">
        <ele>707</ele>
        <time>2014-11-14T12:47:04Z</time>
      </trkpt>
      <trkpt lat="46.60318985581398" lon="7.090305788442493">
        <ele>706.20001220703125</ele>
        <time>2014-11-14T12:47:06Z</time>
      </trkpt>
      <trkpt lat="46.603167643770576" lon="7.090365048497915">
        <ele>706</ele>
        <time>2014-11-14T12:47:07Z</time>
      </trkpt>
      <trkpt lat="46.603145264089108" lon="7.090422213077545">
        <ele>705.5999755859375</ele>
        <time>2014-11-14T12:47:08Z</time>
      </trkpt>
      <trkpt lat="46.603055410087109" lon="7.090611224994063">
        <ele>704.20001220703125</ele>
        <time>2014-11-14T12:47:11Z</time>
      </trkpt>
      <trkpt lat="46.603039735928178" lon="7.09076352417469">
        <ele>703.5999755859375</ele>
        <time>2014-11-14T12:47:13Z</time>
      </trkpt>
      <trkpt lat="46.603068318217993" lon="7.090927055105567">
        <ele>703.20001220703125</ele>
        <time>2014-11-14T12:47:15Z</time>
      </trkpt>
      <trkpt lat="46.603084243834019" lon="7.091016322374344">
        <ele>702.79998779296875</ele>
        <time>2014-11-14T12:47:16Z</time>
      </trkpt>
      <trkpt lat="46.603114837780595" lon="7.091108523309231">
        <ele>702.4000244140625</ele>
        <time>2014-11-14T12:47:17Z</time>
      </trkpt>
      <trkpt lat="46.603151550516486" lon="7.091196198016405">
        <ele>702</ele>
        <time>2014-11-14T12:47:18Z</time>
      </trkpt>
      <trkpt lat="46.603184239938855" lon="7.091290997341275">
        <ele>701.20001220703125</ele>
        <time>2014-11-14T12:47:19Z</time>
      </trkpt>
      <trkpt lat="46.60320988856256" lon="7.091393759474158">
        <ele>700.4000244140625</ele>
        <time>2014-11-14T12:47:20Z</time>
      </trkpt>
      <trkpt lat="46.603220701217651" lon="7.091495851054788">
        <ele>699.5999755859375</ele>
        <time>2014-11-14T12:47:21Z</time>
      </trkpt>
      <trkpt lat="46.603217935189605" lon="7.091592745855451">
        <ele>699.20001220703125</ele>
        <time>2014-11-14T12:47:22Z</time>
      </trkpt>
      <trkpt lat="46.603204440325499" lon="7.091690059751272">
        <ele>698.79998779296875</ele>
        <time>2014-11-14T12:47:23Z</time>
      </trkpt>
      <trkpt lat="46.603137888014317" lon="7.091874964535236">
        <ele>697.79998779296875</ele>
        <time>2014-11-14T12:47:25Z</time>
      </trkpt>
      <trkpt lat="46.602970082312822" lon="7.09210429340601">
        <ele>696.79998779296875</ele>
        <time>2014-11-14T12:47:28Z</time>
      </trkpt>
      <trkpt lat="46.602893052622676" lon="7.092165565118194">
        <ele>696.20001220703125</ele>
        <time>2014-11-14T12:47:29Z</time>
      </trkpt>
      <trkpt lat="46.602810490876436" lon="7.092223819345236">
        <ele>695.5999755859375</ele>
        <time>2014-11-14T12:47:30Z</time>
      </trkpt>
      <trkpt lat="46.602729102596641" lon="7.092279642820358">
        <ele>695.20001220703125</ele>
        <time>2014-11-14T12:47:31Z</time>
      </trkpt>
      <trkpt lat="46.602652575820684" lon="7.092334628105164">
        <ele>694.4000244140625</ele>
        <time>2014-11-14T12:47:32Z</time>
      </trkpt>
      <trkpt lat="46.602535145357251" lon="7.092441665008664">
        <ele>693.4000244140625</ele>
        <time>2014-11-14T12:47:34Z</time>
      </trkpt>
      <trkpt lat="46.602383684366941" lon="7.092586839571595">
        <ele>692.20001220703125</ele>
        <time>2014-11-14T12:47:38Z</time>
      </trkpt>
      <trkpt lat="46.60234889946878" lon="7.092628413811326">
        <ele>691.5999755859375</ele>
        <time>2014-11-14T12:48:01Z</time>
      </trkpt>
      <trkpt lat="46.602356191724539" lon="7.092668060213327">
        <ele>691.5999755859375</ele>
        <time>2014-11-14T12:48:03Z</time>
      </trkpt>
      <trkpt lat="46.602376224473119" lon="7.092734025791287">
        <ele>691.5999755859375</ele>
        <time>2014-11-14T12:48:05Z</time>
      </trkpt>
      <trkpt lat="46.6024134401232" lon="7.092797812074423">
        <ele>691.5999755859375</ele>
        <time>2014-11-14T12:48:07Z</time>
      </trkpt>
      <trkpt lat="46.602559452876449" lon="7.093053879216313">
        <ele>691.5999755859375</ele>
        <time>2014-11-14T12:48:13Z</time>
      </trkpt>
      <trkpt lat="46.60264260135591" lon="7.093209279701114">
        <ele>691.5999755859375</ele>
        <time>2014-11-14T12:48:16Z</time>
      </trkpt>
      <trkpt lat="46.602744273841381" lon="7.093379599973559">
        <ele>691.5999755859375</ele>
        <time>2014-11-14T12:48:19Z</time>
      </trkpt>
      <trkpt lat="46.602935884147882" lon="7.093705656006932">
        <ele>691.20001220703125</ele>
        <time>2014-11-14T12:48:24Z</time>
      </trkpt>
      <trkpt lat="46.603058092296124" lon="7.093921238556504">
        <ele>690.79998779296875</ele>
        <time>2014-11-14T12:48:27Z</time>
      </trkpt>
      <trkpt lat="46.603257330134511" lon="7.094368161633611">
        <ele>691.4000244140625</ele>
        <time>2014-11-14T12:48:33Z</time>
      </trkpt>
      <trkpt lat="46.603279542177916" lon="7.094442509114742">
        <ele>691.79998779296875</ele>
        <time>2014-11-14T12:48:34Z</time>
      </trkpt>
      <trkpt lat="46.603310639038682" lon="7.094591204077005">
        <ele>692.20001220703125</ele>
        <time>2014-11-14T12:48:36Z</time>
      </trkpt>
      <trkpt lat="46.603325139731169" lon="7.094732187688351">
        <ele>692.79998779296875</ele>
        <time>2014-11-14T12:48:38Z</time>
      </trkpt>
      <trkpt lat="46.603326816111803" lon="7.094861604273319">
        <ele>693.4000244140625</ele>
        <time>2014-11-14T12:48:40Z</time>
      </trkpt>
      <trkpt lat="46.603321535512805" lon="7.095043575391173">
        <ele>694.4000244140625</ele>
        <time>2014-11-14T12:48:43Z</time>
      </trkpt>
      <trkpt lat="46.603316254913807" lon="7.095102081075311">
        <ele>694.4000244140625</ele>
        <time>2014-11-14T12:48:44Z</time>
      </trkpt>
      <trkpt lat="46.603301418945193" lon="7.095263684168458">
        <ele>695.5999755859375</ele>
        <time>2014-11-14T12:48:47Z</time>
      </trkpt>
      <trkpt lat="46.60329001955688" lon="7.095457557588816">
        <ele>696.5999755859375</ele>
        <time>2014-11-14T12:48:51Z</time>
      </trkpt>
      <trkpt lat="46.603283900767565" lon="7.095550680533052">
        <ele>697</ele>
        <time>2014-11-14T12:48:53Z</time>
      </trkpt>
      <trkpt lat="46.603277614340186" lon="7.095692167058587">
        <ele>697.79998779296875</ele>
        <time>2014-11-14T12:48:56Z</time>
      </trkpt>
      <trkpt lat="46.603262107819319" lon="7.09587162360549">
        <ele>699</ele>
        <time>2014-11-14T12:49:00Z</time>
      </trkpt>
      <trkpt lat="46.603257413953543" lon="7.095913700759411">
        <ele>699.20001220703125</ele>
        <time>2014-11-14T12:49:01Z</time>
      </trkpt>
      <trkpt lat="46.603252468630672" lon="7.096074633300304">
        <ele>700.20001220703125</ele>
        <time>2014-11-14T12:49:05Z</time>
      </trkpt>
      <trkpt lat="46.603235453367233" lon="7.096269764006138">
        <ele>701.20001220703125</ele>
        <time>2014-11-14T12:49:10Z</time>
      </trkpt>
      <trkpt lat="46.60322941839695" lon="7.096440754830837">
        <ele>702.4000244140625</ele>
        <time>2014-11-14T12:49:14Z</time>
      </trkpt>
      <trkpt lat="46.60322405397892" lon="7.096512755379081">
        <ele>702.79998779296875</ele>
        <time>2014-11-14T12:49:16Z</time>
      </trkpt>
      <trkpt lat="46.603219863027334" lon="7.096586599946022">
        <ele>703.4000244140625</ele>
        <time>2014-11-14T12:49:18Z</time>
      </trkpt>
      <trkpt lat="46.603203434497118" lon="7.096795309334993">
        <ele>704.4000244140625</ele>
        <time>2014-11-14T12:49:24Z</time>
      </trkpt>
      <trkpt lat="46.603184910491109" lon="7.096974430605769">
        <ele>705.79998779296875</ele>
        <time>2014-11-14T12:49:29Z</time>
      </trkpt>
      <trkpt lat="46.603170828893781" lon="7.097118515521288">
        <ele>706.4000244140625</ele>
        <time>2014-11-14T12:49:33Z</time>
      </trkpt>
      <trkpt lat="46.603160183876753" lon="7.097190851345658">
        <ele>707.20001220703125</ele>
        <time>2014-11-14T12:49:35Z</time>
      </trkpt>
      <trkpt lat="46.603151299059391" lon="7.097370140254498">
        <ele>708.20001220703125</ele>
        <time>2014-11-14T12:49:40Z</time>
      </trkpt>
      <trkpt lat="46.603151215240359" lon="7.097440045326948">
        <ele>708.5999755859375</ele>
        <time>2014-11-14T12:49:42Z</time>
      </trkpt>
      <trkpt lat="46.603141827508807" lon="7.097545238211751">
        <ele>709.4000244140625</ele>
        <time>2014-11-14T12:49:45Z</time>
      </trkpt>
      <trkpt lat="46.60313512198627" lon="7.0976981241256">
        <ele>710.4000244140625</ele>
        <time>2014-11-14T12:49:49Z</time>
      </trkpt>
      <trkpt lat="46.603135205805302" lon="7.097738776355982">
        <ele>710.5999755859375</ele>
        <time>2014-11-14T12:49:50Z</time>
      </trkpt>
      <trkpt lat="46.603144928812981" lon="7.097933320328593">
        <ele>711.79998779296875</ele>
        <time>2014-11-14T12:49:55Z</time>
      </trkpt>
      <trkpt lat="46.603164207190275" lon="7.098087882623076">
        <ele>712.79998779296875</ele>
        <time>2014-11-14T12:49:59Z</time>
      </trkpt>
      <trkpt lat="46.603186503052711" lon="7.098249904811382">
        <ele>713.79998779296875</ele>
        <time>2014-11-14T12:50:03Z</time>
      </trkpt>
      <trkpt lat="46.603198740631342" lon="7.098366664722562">
        <ele>714.20001220703125</ele>
        <time>2014-11-14T12:50:06Z</time>
      </trkpt>
      <trkpt lat="46.603207709267735" lon="7.098453417420387">
        <ele>714.79998779296875</ele>
        <time>2014-11-14T12:50:08Z</time>
      </trkpt>
      <trkpt lat="46.603229837492108" lon="7.098629269748926">
        <ele>715.4000244140625</ele>
        <time>2014-11-14T12:50:12Z</time>
      </trkpt>
      <trkpt lat="46.603246936574578" lon="7.098777629435062">
        <ele>716</ele>
        <time>2014-11-14T12:50:15Z</time>
      </trkpt>
      <trkpt lat="46.603272752836347" lon="7.099034953862429">
        <ele>716.79998779296875</ele>
        <time>2014-11-14T12:50:20Z</time>
      </trkpt>
      <trkpt lat="46.603279625996947" lon="7.099253972992301">
        <ele>717</ele>
        <time>2014-11-14T12:50:24Z</time>
      </trkpt>
      <trkpt lat="46.603275602683425" lon="7.099475925788283">
        <ele>717.4000244140625</ele>
        <time>2014-11-14T12:50:28Z</time>
      </trkpt>
      <trkpt lat="46.603207625448704" lon="7.099884543567896">
        <ele>718</ele>
        <time>2014-11-14T12:50:35Z</time>
      </trkpt>
      <trkpt lat="46.603180970996618" lon="7.10000398568809">
        <ele>718.20001220703125</ele>
        <time>2014-11-14T12:50:37Z</time>
      </trkpt>
      <trkpt lat="46.603148197755218" lon="7.100130720064044">
        <ele>718.20001220703125</ele>
        <time>2014-11-14T12:50:39Z</time>
      </trkpt>
      <trkpt lat="46.603123974055052" lon="7.100191656500101">
        <ele>718.20001220703125</ele>
        <time>2014-11-14T12:50:40Z</time>
      </trkpt>
      <trkpt lat="46.602876959368587" lon="7.100698929280043">
        <ele>718.79998779296875</ele>
        <time>2014-11-14T12:50:49Z</time>
      </trkpt>
      <trkpt lat="46.602817615494132" lon="7.100799344480038">
        <ele>719</ele>
        <time>2014-11-14T12:50:51Z</time>
      </trkpt>
      <trkpt lat="46.602708483114839" lon="7.10089179687202">
        <ele>719</ele>
        <time>2014-11-14T12:50:54Z</time>
      </trkpt>
      <trkpt lat="46.602659951895475" lon="7.100902860984206">
        <ele>719.20001220703125</ele>
        <time>2014-11-14T12:50:55Z</time>
      </trkpt>
      <trkpt lat="46.60252433270216" lon="7.100978465750814">
        <ele>719.4000244140625</ele>
        <time>2014-11-14T12:50:58Z</time>
      </trkpt>
      <trkpt lat="46.602482758462429" lon="7.101014507934451">
        <ele>719.4000244140625</ele>
        <time>2014-11-14T12:50:59Z</time>
      </trkpt>
      <trkpt lat="46.602298691868782" lon="7.10122212767601">
        <ele>719.20001220703125</ele>
        <time>2014-11-14T12:51:04Z</time>
      </trkpt>
      <trkpt lat="46.602144129574299" lon="7.101399656385183">
        <ele>719.5999755859375</ele>
        <time>2014-11-14T12:51:08Z</time>
      </trkpt>
      <trkpt lat="46.602040696889162" lon="7.101533515378833">
        <ele>718.79998779296875</ele>
        <time>2014-11-14T12:51:11Z</time>
      </trkpt>
      <trkpt lat="46.601797454059124" lon="7.101835012435913">
        <ele>720</ele>
        <time>2014-11-14T12:51:18Z</time>
      </trkpt>
      <trkpt lat="46.601758981123567" lon="7.101868540048599">
        <ele>719.79998779296875</ele>
        <time>2014-11-14T12:51:19Z</time>
      </trkpt>
      <trkpt lat="46.601678095757961" lon="7.101922854781151">
        <ele>719.79998779296875</ele>
        <time>2014-11-14T12:51:21Z</time>
      </trkpt>
      <trkpt lat="46.601591175422072" lon="7.101945821195841">
        <ele>719.79998779296875</ele>
        <time>2014-11-14T12:51:23Z</time>
      </trkpt>
      <trkpt lat="46.601504758000374" lon="7.101973062381148">
        <ele>720</ele>
        <time>2014-11-14T12:51:25Z</time>
      </trkpt>
      <trkpt lat="46.601370479911566" lon="7.102025952190161">
        <ele>720</ele>
        <time>2014-11-14T12:51:28Z</time>
      </trkpt>
      <trkpt lat="46.601276183500886" lon="7.102098790928721">
        <ele>719.5999755859375</ele>
        <time>2014-11-14T12:51:30Z</time>
      </trkpt>
      <trkpt lat="46.601172415539622" lon="7.102278750389814">
        <ele>719.4000244140625</ele>
        <time>2014-11-14T12:51:33Z</time>
      </trkpt>
      <trkpt lat="46.601033695042133" lon="7.102578403428197">
        <ele>720</ele>
        <time>2014-11-14T12:51:39Z</time>
      </trkpt>
      <trkpt lat="46.600860608741641" lon="7.102867159992456">
        <ele>720.20001220703125</ele>
        <time>2014-11-14T12:51:45Z</time>
      </trkpt>
      <trkpt lat="46.600790619850159" lon="7.102939998731017">
        <ele>720</ele>
        <time>2014-11-14T12:51:47Z</time>
      </trkpt>
      <trkpt lat="46.600707387551665" lon="7.102989619597793">
        <ele>719.79998779296875</ele>
        <time>2014-11-14T12:51:49Z</time>
      </trkpt>
      <trkpt lat="46.600583083927631" lon="7.103075869381428">
        <ele>719.4000244140625</ele>
        <time>2014-11-14T12:51:52Z</time>
      </trkpt>
      <trkpt lat="46.600384935736656" lon="7.103196065872908">
        <ele>719.20001220703125</ele>
        <time>2014-11-14T12:51:57Z</time>
      </trkpt>
      <trkpt lat="46.600251914933324" lon="7.103243842720985">
        <ele>719</ele>
        <time>2014-11-14T12:52:00Z</time>
      </trkpt>
      <trkpt lat="46.600086959078908" lon="7.103307126089931">
        <ele>719.20001220703125</ele>
        <time>2014-11-14T12:52:04Z</time>
      </trkpt>
      <trkpt lat="46.600004564970732" lon="7.103312574326992">
        <ele>719.20001220703125</ele>
        <time>2014-11-14T12:52:06Z</time>
      </trkpt>
      <trkpt lat="46.599758807569742" lon="7.103376528248191">
        <ele>719.79998779296875</ele>
        <time>2014-11-14T12:52:13Z</time>
      </trkpt>
      <trkpt lat="46.599608436226845" lon="7.103611305356026">
        <ele>720.20001220703125</ele>
        <time>2014-11-14T12:52:19Z</time>
      </trkpt>
      <trkpt lat="46.599531406536698" lon="7.103732256218791">
        <ele>720.4000244140625</ele>
        <time>2014-11-14T12:52:22Z</time>
      </trkpt>
      <trkpt lat="46.599426297470927" lon="7.103897631168366">
        <ele>720.5999755859375</ele>
        <time>2014-11-14T12:52:26Z</time>
      </trkpt>
      <trkpt lat="46.59925103187561" lon="7.104192841798067">
        <ele>720.5999755859375</ele>
        <time>2014-11-14T12:52:33Z</time>
      </trkpt>
      <trkpt lat="46.599077526479959" lon="7.10453599691391">
        <ele>720.5999755859375</ele>
        <time>2014-11-14T12:52:40Z</time>
      </trkpt>
      <trkpt lat="46.599059673026204" lon="7.104588551446796">
        <ele>720.5999755859375</ele>
        <time>2014-11-14T12:52:41Z</time>
      </trkpt>
      <trkpt lat="46.599063696339726" lon="7.104762475937605">
        <ele>721.20001220703125</ele>
        <time>2014-11-14T12:52:44Z</time>
      </trkpt>
      <trkpt lat="46.59913226030767" lon="7.104902788996697">
        <ele>721.5999755859375</ele>
        <time>2014-11-14T12:52:47Z</time>
      </trkpt>
      <trkpt lat="46.599184731021523" lon="7.104994738474488">
        <ele>721.79998779296875</ele>
        <time>2014-11-14T12:52:49Z</time>
      </trkpt>
      <trkpt lat="46.599342226982117" lon="7.105341581627727">
        <ele>722</ele>
        <time>2014-11-14T12:52:56Z</time>
      </trkpt>
      <trkpt lat="46.599496537819505" lon="7.105640145018697">
        <ele>722.5999755859375</ele>
        <time>2014-11-14T12:53:03Z</time>
      </trkpt>
      <trkpt lat="46.599519588053226" lon="7.105684401467443">
        <ele>722.5999755859375</ele>
        <time>2014-11-14T12:53:04Z</time>
      </trkpt>
      <trkpt lat="46.599705666303635" lon="7.106075249612331">
        <ele>723.20001220703125</ele>
        <time>2014-11-14T12:53:13Z</time>
      </trkpt>
      <trkpt lat="46.599834579974413" lon="7.106177341192961">
        <ele>723.4000244140625</ele>
        <time>2014-11-14T12:53:17Z</time>
      </trkpt>
      <trkpt lat="46.600138507783413" lon="7.106266859918833">
        <ele>723.5999755859375</ele>
        <time>2014-11-14T12:53:25Z</time>
      </trkpt>
      <trkpt lat="46.600174466148019" lon="7.106282617896795">
        <ele>723.79998779296875</ele>
        <time>2014-11-14T12:53:26Z</time>
      </trkpt>
      <trkpt lat="46.600320730358362" lon="7.106280522421002">
        <ele>724</ele>
        <time>2014-11-14T12:53:30Z</time>
      </trkpt>
      <trkpt lat="46.600573444738984" lon="7.106300387531519">
        <ele>724.20001220703125</ele>
        <time>2014-11-14T12:53:37Z</time>
      </trkpt>
      <trkpt lat="46.600734377279878" lon="7.106465343385935">
        <ele>724.4000244140625</ele>
        <time>2014-11-14T12:53:42Z</time>
      </trkpt>
      <trkpt lat="46.600928166881204" lon="7.106729205697775">
        <ele>724.79998779296875</ele>
        <time>2014-11-14T12:53:49Z</time>
      </trkpt>
      <trkpt lat="46.601146347820759" lon="7.107036989182234">
        <ele>725</ele>
        <time>2014-11-14T12:53:57Z</time>
      </trkpt>
      <trkpt lat="46.601336700841784" lon="7.107321219518781">
        <ele>725.4000244140625</ele>
        <time>2014-11-14T12:54:04Z</time>
      </trkpt>
      <trkpt lat="46.601512134075165" lon="7.107544681057334">
        <ele>725.79998779296875</ele>
        <time>2014-11-14T12:54:10Z</time>
      </trkpt>
      <trkpt lat="46.601590253412724" lon="7.107671163976193">
        <ele>726</ele>
        <time>2014-11-14T12:54:13Z</time>
      </trkpt>
      <trkpt lat="46.601638868451118" lon="7.107754815369844">
        <ele>726</ele>
        <time>2014-11-14T12:54:15Z</time>
      </trkpt>
      <trkpt lat="46.601852858439088" lon="7.108055725693703">
        <ele>726.5999755859375</ele>
        <time>2014-11-14T12:54:23Z</time>
      </trkpt>
      <trkpt lat="46.601994512602687" lon="7.108295448124409">
        <ele>727</ele>
        <time>2014-11-14T12:54:30Z</time>
      </trkpt>
      <trkpt lat="46.601934330537915" lon="7.108495272696018">
        <ele>727.5999755859375</ele>
        <time>2014-11-14T12:54:35Z</time>
      </trkpt>
      <trkpt lat="46.601896276697516" lon="7.108612703159452">
        <ele>728.20001220703125</ele>
        <time>2014-11-14T12:54:38Z</time>
      </trkpt>
      <trkpt lat="46.601854870095849" lon="7.108758967369795">
        <ele>728.79998779296875</ele>
        <time>2014-11-14T12:54:42Z</time>
      </trkpt>
      <trkpt lat="46.601832238957286" lon="7.108829123899341">
        <ele>729.20001220703125</ele>
        <time>2014-11-14T12:54:44Z</time>
      </trkpt>
      <trkpt lat="46.601780019700527" lon="7.108982680365443">
        <ele>730.20001220703125</ele>
        <time>2014-11-14T12:54:49Z</time>
      </trkpt>
      <trkpt lat="46.601763842627406" lon="7.109012519940734">
        <ele>730.4000244140625</ele>
        <time>2014-11-14T12:54:50Z</time>
      </trkpt>
      <trkpt lat="46.601695949211717" lon="7.10919750854373">
        <ele>731.5999755859375</ele>
        <time>2014-11-14T12:54:56Z</time>
      </trkpt>
      <trkpt lat="46.601646412163973" lon="7.109349807724357">
        <ele>732.5999755859375</ele>
        <time>2014-11-14T12:55:01Z</time>
      </trkpt>
      <trkpt lat="46.601628977805376" lon="7.109410408884287">
        <ele>733</ele>
        <time>2014-11-14T12:55:03Z</time>
      </trkpt>
      <trkpt lat="46.601609783247113" lon="7.109504453837872">
        <ele>733.5999755859375</ele>
        <time>2014-11-14T12:55:06Z</time>
      </trkpt>
      <trkpt lat="46.601585140451789" lon="7.109631774947047">
        <ele>734.4000244140625</ele>
        <time>2014-11-14T12:55:10Z</time>
      </trkpt>
      <trkpt lat="46.601576590910554" lon="7.109696231782436">
        <ele>735</ele>
        <time>2014-11-14T12:55:12Z</time>
      </trkpt>
      <trkpt lat="46.601554630324244" lon="7.109886752441526">
        <ele>736</ele>
        <time>2014-11-14T12:55:17Z</time>
      </trkpt>
      <trkpt lat="46.601548260077834" lon="7.109923297539353">
        <ele>736</ele>
        <time>2014-11-14T12:55:18Z</time>
      </trkpt>
      <trkpt lat="46.601524539291859" lon="7.110133850947022">
        <ele>737.20001220703125</ele>
        <time>2014-11-14T12:55:24Z</time>
      </trkpt>
      <trkpt lat="46.601524539291859" lon="7.110311547294259">
        <ele>738.4000244140625</ele>
        <time>2014-11-14T12:55:29Z</time>
      </trkpt>
      <trkpt lat="46.601532585918903" lon="7.110381200909615">
        <ele>738.79998779296875</ele>
        <time>2014-11-14T12:55:31Z</time>
      </trkpt>
      <trkpt lat="46.601539207622409" lon="7.110510533675551">
        <ele>739.5999755859375</ele>
        <time>2014-11-14T12:55:35Z</time>
      </trkpt>
      <trkpt lat="46.60154071636498" lon="7.110598208382726">
        <ele>740.4000244140625</ele>
        <time>2014-11-14T12:55:38Z</time>
      </trkpt>
      <trkpt lat="46.601543901488185" lon="7.110658055171371">
        <ele>740.79998779296875</ele>
        <time>2014-11-14T12:55:40Z</time>
      </trkpt>
      <trkpt lat="46.601560330018401" lon="7.110831895843148">
        <ele>741.79998779296875</ele>
        <time>2014-11-14T12:55:46Z</time>
      </trkpt>
      <trkpt lat="46.601562174037099" lon="7.111003808677197">
        <ele>743</ele>
        <time>2014-11-14T12:55:52Z</time>
      </trkpt>
      <trkpt lat="46.60156468860805" lon="7.111093495041132">
        <ele>743.4000244140625</ele>
        <time>2014-11-14T12:55:55Z</time>
      </trkpt>
      <trkpt lat="46.601572902873158" lon="7.111181002110243">
        <ele>744.20001220703125</ele>
        <time>2014-11-14T12:55:58Z</time>
      </trkpt>
      <trkpt lat="46.601576423272491" lon="7.111298348754644">
        <ele>745.20001220703125</ele>
        <time>2014-11-14T12:56:02Z</time>
      </trkpt>
      <trkpt lat="46.601603915914893" lon="7.111452240496874">
        <ele>746.4000244140625</ele>
        <time>2014-11-14T12:56:08Z</time>
      </trkpt>
      <trkpt lat="46.601607939228415" lon="7.111596995964646">
        <ele>747.4000244140625</ele>
        <time>2014-11-14T12:56:14Z</time>
      </trkpt>
      <trkpt lat="46.601609867066145" lon="7.111618034541607">
        <ele>747.5999755859375</ele>
        <time>2014-11-14T12:56:15Z</time>
      </trkpt>
      <trkpt lat="46.601619590073824" lon="7.11172565817833">
        <ele>748.4000244140625</ele>
        <time>2014-11-14T12:56:20Z</time>
      </trkpt>
      <trkpt lat="46.601618668064475" lon="7.111754324287176">
        <ele>748.5999755859375</ele>
        <time>2014-11-14T12:56:21Z</time>
      </trkpt>
      <trkpt lat="46.601621769368649" lon="7.111862283200026">
        <ele>749.5999755859375</ele>
        <time>2014-11-14T12:56:25Z</time>
      </trkpt>
      <trkpt lat="46.601631827652454" lon="7.111911484971643">
        <ele>750</ele>
        <time>2014-11-14T12:56:27Z</time>
      </trkpt>
      <trkpt lat="46.601644065231085" lon="7.111984239891172">
        <ele>750.5999755859375</ele>
        <time>2014-11-14T12:56:30Z</time>
      </trkpt>
      <trkpt lat="46.60164431668818" lon="7.112088678404689">
        <ele>751.4000244140625</ele>
        <time>2014-11-14T12:56:34Z</time>
      </trkpt>
      <trkpt lat="46.601644987240434" lon="7.112114494666457">
        <ele>751.79998779296875</ele>
        <time>2014-11-14T12:56:35Z</time>
      </trkpt>
      <trkpt lat="46.601667702198029" lon="7.112280791625381">
        <ele>753</ele>
        <time>2014-11-14T12:56:42Z</time>
      </trkpt>
      <trkpt lat="46.601703660562634" lon="7.112419093027711">
        <ele>754</ele>
        <time>2014-11-14T12:56:48Z</time>
      </trkpt>
      <trkpt lat="46.601723274216056" lon="7.112451614812017">
        <ele>754.4000244140625</ele>
        <time>2014-11-14T12:56:50Z</time>
      </trkpt>
      <trkpt lat="46.601768033578992" lon="7.112543564289808">
        <ele>755.20001220703125</ele>
        <time>2014-11-14T12:56:55Z</time>
      </trkpt>
      <trkpt lat="46.601787311956286" lon="7.112579103559256">
        <ele>755.79998779296875</ele>
        <time>2014-11-14T12:56:57Z</time>
      </trkpt>
      <trkpt lat="46.601830562576652" lon="7.112651607021689">
        <ele>756.4000244140625</ele>
        <time>2014-11-14T12:57:01Z</time>
      </trkpt>
      <trkpt lat="46.601872220635414" lon="7.112735426053405">
        <ele>757</ele>
        <time>2014-11-14T12:57:05Z</time>
      </trkpt>
      <trkpt lat="46.601889068260789" lon="7.112785130739212">
        <ele>757.5999755859375</ele>
        <time>2014-11-14T12:57:07Z</time>
      </trkpt>
      <trkpt lat="46.601929469034076" lon="7.112877247855067">
        <ele>758.20001220703125</ele>
        <time>2014-11-14T12:57:11Z</time>
      </trkpt>
      <trkpt lat="46.601940197870135" lon="7.112897699698806">
        <ele>758.5999755859375</ele>
        <time>2014-11-14T12:57:12Z</time>
      </trkpt>
      <trkpt lat="46.601965427398682" lon="7.112970370799303">
        <ele>759</ele>
        <time>2014-11-14T12:57:15Z</time>
      </trkpt>
      <trkpt lat="46.601973976939917" lon="7.113025020807982">
        <ele>759.20001220703125</ele>
        <time>2014-11-14T12:57:17Z</time>
      </trkpt>
      <trkpt lat="46.601994093507528" lon="7.113083694130182">
        <ele>759.5999755859375</ele>
        <time>2014-11-14T12:57:19Z</time>
      </trkpt>
      <trkpt lat="46.602038936689496" lon="7.113219229504466">
        <ele>760.4000244140625</ele>
        <time>2014-11-14T12:57:24Z</time>
      </trkpt>
      <trkpt lat="46.60205477848649" lon="7.113279495388269">
        <ele>760.5999755859375</ele>
        <time>2014-11-14T12:57:26Z</time>
      </trkpt>
      <trkpt lat="46.602080259472132" lon="7.113438667729497">
        <ele>761.4000244140625</ele>
        <time>2014-11-14T12:57:31Z</time>
      </trkpt>
      <trkpt lat="46.602095514535904" lon="7.113502454012632">
        <ele>761.5999755859375</ele>
        <time>2014-11-14T12:57:33Z</time>
      </trkpt>
      <trkpt lat="46.602150835096836" lon="7.113690879195929">
        <ele>762.5999755859375</ele>
        <time>2014-11-14T12:57:39Z</time>
      </trkpt>
      <trkpt lat="46.602163072675467" lon="7.113723568618298">
        <ele>762.79998779296875</ele>
        <time>2014-11-14T12:57:40Z</time>
      </trkpt>
      <trkpt lat="46.602249071002007" lon="7.113984245806932">
        <ele>764</ele>
        <time>2014-11-14T12:57:48Z</time>
      </trkpt>
      <trkpt lat="46.602350575849414" lon="7.11423872038722">
        <ele>765</ele>
        <time>2014-11-14T12:57:56Z</time>
      </trkpt>
      <trkpt lat="46.602450404316187" lon="7.114398647099733">
        <ele>766</ele>
        <time>2014-11-14T12:58:02Z</time>
      </trkpt>
      <trkpt lat="46.602481501176953" lon="7.114445753395557">
        <ele>766.4000244140625</ele>
        <time>2014-11-14T12:58:04Z</time>
      </trkpt>
      <trkpt lat="46.602580239996314" lon="7.114606266841292">
        <ele>767</ele>
        <time>2014-11-14T12:58:10Z</time>
      </trkpt>
      <trkpt lat="46.602632040157914" lon="7.114681452512741">
        <ele>767.4000244140625</ele>
        <time>2014-11-14T12:58:13Z</time>
      </trkpt>
      <trkpt lat="46.602705549448729" lon="7.114826291799545">
        <ele>768.20001220703125</ele>
        <time>2014-11-14T12:58:18Z</time>
      </trkpt>
      <trkpt lat="46.602739160880446" lon="7.114925533533096">
        <ele>768.5999755859375</ele>
        <time>2014-11-14T12:58:21Z</time>
      </trkpt>
      <trkpt lat="46.602768832817674" lon="7.115023015066981">
        <ele>769.20001220703125</ele>
        <time>2014-11-14T12:58:24Z</time>
      </trkpt>
      <trkpt lat="46.602804372087121" lon="7.115216553211212">
        <ele>770.20001220703125</ele>
        <time>2014-11-14T12:58:30Z</time>
      </trkpt>
      <trkpt lat="46.602807221934199" lon="7.11525016464293">
        <ele>770.4000244140625</ele>
        <time>2014-11-14T12:58:31Z</time>
      </trkpt>
      <trkpt lat="46.602817783132195" lon="7.115504220128059">
        <ele>771.4000244140625</ele>
        <time>2014-11-14T12:58:38Z</time>
      </trkpt>
      <trkpt lat="46.602821974083781" lon="7.115542190149427">
        <ele>771.5999755859375</ele>
        <time>2014-11-14T12:58:39Z</time>
      </trkpt>
      <trkpt lat="46.602835133671761" lon="7.11580278351903">
        <ele>772.5999755859375</ele>
        <time>2014-11-14T12:58:46Z</time>
      </trkpt>
      <trkpt lat="46.602835385128856" lon="7.116022473201156">
        <ele>773.5999755859375</ele>
        <time>2014-11-14T12:58:52Z</time>
      </trkpt>
      <trkpt lat="46.602833122014999" lon="7.116094892844558">
        <ele>773.79998779296875</ele>
        <time>2014-11-14T12:58:54Z</time>
      </trkpt>
      <trkpt lat="46.602837732061744" lon="7.116316175088286">
        <ele>774.5999755859375</ele>
        <time>2014-11-14T12:59:00Z</time>
      </trkpt>
      <trkpt lat="46.602840833365917" lon="7.11642824113369">
        <ele>775</ele>
        <time>2014-11-14T12:59:03Z</time>
      </trkpt>
      <trkpt lat="46.602849131450057" lon="7.116572912782431">
        <ele>775.79998779296875</ele>
        <time>2014-11-14T12:59:07Z</time>
      </trkpt>
      <trkpt lat="46.602854914963245" lon="7.116782376542687">
        <ele>777</ele>
        <time>2014-11-14T12:59:13Z</time>
      </trkpt>
      <trkpt lat="46.602867571637034" lon="7.117056967690587">
        <ele>778.20001220703125</ele>
        <time>2014-11-14T12:59:21Z</time>
      </trkpt>
      <trkpt lat="46.6028658952564" lon="7.11708982475102">
        <ele>778.4000244140625</ele>
        <time>2014-11-14T12:59:22Z</time>
      </trkpt>
      <trkpt lat="46.602862039580941" lon="7.117300881072879">
        <ele>779.20001220703125</ele>
        <time>2014-11-14T12:59:28Z</time>
      </trkpt>
      <trkpt lat="46.602865224704146" lon="7.117536328732967">
        <ele>780.20001220703125</ele>
        <time>2014-11-14T12:59:35Z</time>
      </trkpt>
      <trkpt lat="46.602862039580941" lon="7.117570610716939">
        <ele>780.4000244140625</ele>
        <time>2014-11-14T12:59:36Z</time>
      </trkpt>
      <trkpt lat="46.602854076772928" lon="7.117816535755992">
        <ele>781.4000244140625</ele>
        <time>2014-11-14T12:59:43Z</time>
      </trkpt>
      <trkpt lat="46.602870589122176" lon="7.11809741333127">
        <ele>782</ele>
        <time>2014-11-14T12:59:50Z</time>
      </trkpt>
      <trkpt lat="46.6028883587569" lon="7.118221716955304">
        <ele>782.4000244140625</ele>
        <time>2014-11-14T12:59:53Z</time>
      </trkpt>
      <trkpt lat="46.602913085371256" lon="7.118388852104545">
        <ele>782.79998779296875</ele>
        <time>2014-11-14T12:59:57Z</time>
      </trkpt>
      <trkpt lat="46.602936889976263" lon="7.118545426055789">
        <ele>783.4000244140625</ele>
        <time>2014-11-14T13:00:01Z</time>
      </trkpt>
      <trkpt lat="46.602969244122505" lon="7.118685068562627">
        <ele>784</ele>
        <time>2014-11-14T13:00:05Z</time>
      </trkpt>
      <trkpt lat="46.602990366518497" lon="7.118787579238415">
        <ele>784.5999755859375</ele>
        <time>2014-11-14T13:00:08Z</time>
      </trkpt>
      <trkpt lat="46.603016015142202" lon="7.118913056328893">
        <ele>785.20001220703125</ele>
        <time>2014-11-14T13:00:12Z</time>
      </trkpt>
      <trkpt lat="46.603033617138863" lon="7.118973406031728">
        <ele>785.5999755859375</ele>
        <time>2014-11-14T13:00:14Z</time>
      </trkpt>
      <trkpt lat="46.603079969063401" lon="7.119129141792655">
        <ele>786.5999755859375</ele>
        <time>2014-11-14T13:00:20Z</time>
      </trkpt>
      <trkpt lat="46.603123135864735" lon="7.119239112362266">
        <ele>787.5999755859375</ele>
        <time>2014-11-14T13:00:25Z</time>
      </trkpt>
      <trkpt lat="46.603143336251378" lon="7.11930382065475">
        <ele>788.20001220703125</ele>
        <time>2014-11-14T13:00:28Z</time>
      </trkpt>
      <trkpt lat="46.603151299059391" lon="7.119350340217352">
        <ele>788.5999755859375</ele>
        <time>2014-11-14T13:00:30Z</time>
      </trkpt>
      <trkpt lat="46.603180216625333" lon="7.119461819529533">
        <ele>789.5999755859375</ele>
        <time>2014-11-14T13:00:35Z</time>
      </trkpt>
      <trkpt lat="46.603188430890441" lon="7.119480762630701">
        <ele>789.79998779296875</ele>
        <time>2014-11-14T13:00:36Z</time>
      </trkpt>
      <trkpt lat="46.603215420618653" lon="7.119610514491797">
        <ele>791</ele>
        <time>2014-11-14T13:00:42Z</time>
      </trkpt>
      <trkpt lat="46.603218521922827" lon="7.119631636887789">
        <ele>791</ele>
        <time>2014-11-14T13:00:43Z</time>
      </trkpt>
      <trkpt lat="46.603239476680756" lon="7.11972551420331">
        <ele>792.4000244140625</ele>
        <time>2014-11-14T13:00:48Z</time>
      </trkpt>
      <trkpt lat="46.603239476680756" lon="7.119778990745544">
        <ele>792.79998779296875</ele>
        <time>2014-11-14T13:00:50Z</time>
      </trkpt>
      <trkpt lat="46.603241236880422" lon="7.119877561926842">
        <ele>793.5999755859375</ele>
        <time>2014-11-14T13:00:54Z</time>
      </trkpt>
      <trkpt lat="46.603251378983259" lon="7.119991555809975">
        <ele>794.79998779296875</ele>
        <time>2014-11-14T13:00:59Z</time>
      </trkpt>
      <trkpt lat="46.603241991251707" lon="7.120108818635345">
        <ele>795.79998779296875</ele>
        <time>2014-11-14T13:01:04Z</time>
      </trkpt>
      <trkpt lat="46.603241404518485" lon="7.120155422016978">
        <ele>796.20001220703125</ele>
        <time>2014-11-14T13:01:06Z</time>
      </trkpt>
      <trkpt lat="46.603246936574578" lon="7.120229098945856">
        <ele>796.79998779296875</ele>
        <time>2014-11-14T13:01:09Z</time>
      </trkpt>
      <trkpt lat="46.603240733966231" lon="7.120364885777235">
        <ele>798</ele>
        <time>2014-11-14T13:01:14Z</time>
      </trkpt>
      <trkpt lat="46.603243164718151" lon="7.120462618768215">
        <ele>799</ele>
        <time>2014-11-14T13:01:18Z</time>
      </trkpt>
      <trkpt lat="46.603240231052041" lon="7.120568063110113">
        <ele>800</ele>
        <time>2014-11-14T13:01:23Z</time>
      </trkpt>
      <trkpt lat="46.603237129747868" lon="7.120588095858693">
        <ele>800.20001220703125</ele>
        <time>2014-11-14T13:01:24Z</time>
      </trkpt>
      <trkpt lat="46.603235956281424" lon="7.1207086276263">
        <ele>801.20001220703125</ele>
        <time>2014-11-14T13:01:30Z</time>
      </trkpt>
      <trkpt lat="46.603233609348536" lon="7.120727067813277">
        <ele>801.20001220703125</ele>
        <time>2014-11-14T13:01:31Z</time>
      </trkpt>
      <trkpt lat="46.603229669854045" lon="7.120831422507763">
        <ele>802.4000244140625</ele>
        <time>2014-11-14T13:01:36Z</time>
      </trkpt>
      <trkpt lat="46.603226233273745" lon="7.120898561552167">
        <ele>803</ele>
        <time>2014-11-14T13:01:39Z</time>
      </trkpt>
      <trkpt lat="46.603228161111474" lon="7.120971819385886">
        <ele>803.5999755859375</ele>
        <time>2014-11-14T13:01:43Z</time>
      </trkpt>
      <trkpt lat="46.603230256587267" lon="7.121031247079372">
        <ele>804</ele>
        <time>2014-11-14T13:01:46Z</time>
      </trkpt>
      <trkpt lat="46.603231765329838" lon="7.121094781905413">
        <ele>804.5999755859375</ele>
        <time>2014-11-14T13:01:49Z</time>
      </trkpt>
      <trkpt lat="46.60322749055922" lon="7.121188072487712">
        <ele>805.4000244140625</ele>
        <time>2014-11-14T13:01:54Z</time>
      </trkpt>
      <trkpt lat="46.603228664025664" lon="7.121206680312753">
        <ele>805.5999755859375</ele>
        <time>2014-11-14T13:01:55Z</time>
      </trkpt>
      <trkpt lat="46.603219108656049" lon="7.121300725266337">
        <ele>807</ele>
        <time>2014-11-14T13:02:00Z</time>
      </trkpt>
      <trkpt lat="46.60321625880897" lon="7.121335007250309">
        <ele>807.4000244140625</ele>
        <time>2014-11-14T13:02:02Z</time>
      </trkpt>
      <trkpt lat="46.60321575589478" lon="7.121350932866335">
        <ele>807.5999755859375</ele>
        <time>2014-11-14T13:02:03Z</time>
      </trkpt>
      <trkpt lat="46.603226736187935" lon="7.121403152123094">
        <ele>808</ele>
        <time>2014-11-14T13:02:06Z</time>
      </trkpt>
      <trkpt lat="46.603234363719821" lon="7.121454700827599">
        <ele>808.79998779296875</ele>
        <time>2014-11-14T13:02:09Z</time>
      </trkpt>
      <trkpt lat="46.60324115306139" lon="7.121490994468331">
        <ele>809.20001220703125</ele>
        <time>2014-11-14T13:02:11Z</time>
      </trkpt>
      <trkpt lat="46.603255150839686" lon="7.121602892875671">
        <ele>810.20001220703125</ele>
        <time>2014-11-14T13:02:17Z</time>
      </trkpt>
      <trkpt lat="46.60326068289578" lon="7.121617309749126">
        <ele>810.5999755859375</ele>
        <time>2014-11-14T13:02:18Z</time>
      </trkpt>
      <trkpt lat="46.60327585414052" lon="7.121679084375501">
        <ele>811.4000244140625</ele>
        <time>2014-11-14T13:02:22Z</time>
      </trkpt>
      <trkpt lat="46.603300496935844" lon="7.121733231469989">
        <ele>812</ele>
        <time>2014-11-14T13:02:25Z</time>
      </trkpt>
      <trkpt lat="46.603319691494107" lon="7.121767597272992">
        <ele>812.4000244140625</ele>
        <time>2014-11-14T13:02:27Z</time>
      </trkpt>
      <trkpt lat="46.603358751162887" lon="7.121861893683672">
        <ele>813.4000244140625</ele>
        <time>2014-11-14T13:02:32Z</time>
      </trkpt>
      <trkpt lat="46.60337115637958" lon="7.121894247829914">
        <ele>814</ele>
        <time>2014-11-14T13:02:34Z</time>
      </trkpt>
      <trkpt lat="46.603410048410296" lon="7.121952166780829">
        <ele>814.5999755859375</ele>
        <time>2014-11-14T13:02:38Z</time>
      </trkpt>
      <trkpt lat="46.603437792509794" lon="7.122014611959457">
        <ele>815.4000244140625</ele>
        <time>2014-11-14T13:02:42Z</time>
      </trkpt>
      <trkpt lat="46.603455478325486" lon="7.122039506211877">
        <ele>815.79998779296875</ele>
        <time>2014-11-14T13:02:44Z</time>
      </trkpt>
      <trkpt lat="46.603510798886418" lon="7.122083259746432">
        <ele>816.79998779296875</ele>
        <time>2014-11-14T13:02:48Z</time>
      </trkpt>
      <trkpt lat="46.603523539379239" lon="7.122100694105029">
        <ele>817</ele>
        <time>2014-11-14T13:02:49Z</time>
      </trkpt>
      <trkpt lat="46.603562431409955" lon="7.122149728238583">
        <ele>818</ele>
        <time>2014-11-14T13:02:53Z</time>
      </trkpt>
      <trkpt lat="46.60358170978725" lon="7.122165905311704">
        <ele>818.4000244140625</ele>
        <time>2014-11-14T13:02:55Z</time>
      </trkpt>
      <trkpt lat="46.603619679808617" lon="7.122191051021218">
        <ele>819</ele>
        <time>2014-11-14T13:02:58Z</time>
      </trkpt>
      <trkpt lat="46.603657817468047" lon="7.122243773192167">
        <ele>819.79998779296875</ele>
        <time>2014-11-14T13:03:02Z</time>
      </trkpt>
      <trkpt lat="46.603666199371219" lon="7.12226003408432">
        <ele>820</ele>
        <time>2014-11-14T13:03:03Z</time>
      </trkpt>
      <trkpt lat="46.603737445548177" lon="7.122353995218873">
        <ele>821.20001220703125</ele>
        <time>2014-11-14T13:03:09Z</time>
      </trkpt>
      <trkpt lat="46.60376007668674" lon="7.122388444840908">
        <ele>821.4000244140625</ele>
        <time>2014-11-14T13:03:11Z</time>
      </trkpt>
      <trkpt lat="46.603787904605269" lon="7.12244912981987">
        <ele>822.20001220703125</ele>
        <time>2014-11-14T13:03:14Z</time>
      </trkpt>
      <trkpt lat="46.603807769715786" lon="7.122533116489649">
        <ele>822.79998779296875</ele>
        <time>2014-11-14T13:03:18Z</time>
      </trkpt>
      <trkpt lat="46.603810368105769" lon="7.122555328533053">
        <ele>823</ele>
        <time>2014-11-14T13:03:19Z</time>
      </trkpt>
      <trkpt lat="46.603817408904433" lon="7.122595561668277">
        <ele>823.20001220703125</ele>
        <time>2014-11-14T13:03:21Z</time>
      </trkpt>
      <trkpt lat="46.603819504380226" lon="7.122614840045571">
        <ele>823.4000244140625</ele>
        <time>2014-11-14T13:03:22Z</time>
      </trkpt>
      <trkpt lat="46.60383677110076" lon="7.122717434540391">
        <ele>824.20001220703125</ele>
        <time>2014-11-14T13:03:27Z</time>
      </trkpt>
      <trkpt lat="46.603868203237653" lon="7.122855233028531">
        <ele>825.4000244140625</ele>
        <time>2014-11-14T13:03:33Z</time>
      </trkpt>
      <trkpt lat="46.603865521028638" lon="7.122880043461919">
        <ele>825.5999755859375</ele>
        <time>2014-11-14T13:03:34Z</time>
      </trkpt>
      <trkpt lat="46.603859486058354" lon="7.12296168319881">
        <ele>826.5999755859375</ele>
        <time>2014-11-14T13:03:38Z</time>
      </trkpt>
      <trkpt lat="46.603859653696418" lon="7.123020440340042">
        <ele>827</ele>
        <time>2014-11-14T13:03:41Z</time>
      </trkpt>
      <trkpt lat="46.603854121640325" lon="7.123080706223846">
        <ele>827.5999755859375</ele>
        <time>2014-11-14T13:03:44Z</time>
      </trkpt>
      <trkpt lat="46.60381673835218" lon="7.123178187757731">
        <ele>828.4000244140625</ele>
        <time>2014-11-14T13:03:49Z</time>
      </trkpt>
      <trkpt lat="46.603810703381896" lon="7.123198807239533">
        <ele>828.5999755859375</ele>
        <time>2014-11-14T13:03:50Z</time>
      </trkpt>
      <trkpt lat="46.603782456368208" lon="7.123316656798124">
        <ele>829.79998779296875</ele>
        <time>2014-11-14T13:03:56Z</time>
      </trkpt>
      <trkpt lat="46.603765860199928" lon="7.123356470838189">
        <ele>830</ele>
        <time>2014-11-14T13:03:58Z</time>
      </trkpt>
      <trkpt lat="46.603751108050346" lon="7.123435344547033">
        <ele>830.79998779296875</ele>
        <time>2014-11-14T13:04:02Z</time>
      </trkpt>
      <trkpt lat="46.60373660735786" lon="7.123491084203124">
        <ele>831.4000244140625</ele>
        <time>2014-11-14T13:04:05Z</time>
      </trkpt>
      <trkpt lat="46.603719675913453" lon="7.123528048396111">
        <ele>831.79998779296875</ele>
        <time>2014-11-14T13:04:07Z</time>
      </trkpt>
      <trkpt lat="46.603684555739164" lon="7.123618070036173">
        <ele>832.79998779296875</ele>
        <time>2014-11-14T13:04:12Z</time>
      </trkpt>
      <trkpt lat="46.603680616244674" lon="7.123638186603785">
        <ele>833</ele>
        <time>2014-11-14T13:04:13Z</time>
      </trkpt>
      <trkpt lat="46.603624038398266" lon="7.123723849654198">
        <ele>834</ele>
        <time>2014-11-14T13:04:19Z</time>
      </trkpt>
      <trkpt lat="46.603614231571555" lon="7.123738098889589">
        <ele>834.20001220703125</ele>
        <time>2014-11-14T13:04:20Z</time>
      </trkpt>
      <trkpt lat="46.603573746979237" lon="7.123807836323977">
        <ele>835.4000244140625</ele>
        <time>2014-11-14T13:04:24Z</time>
      </trkpt>
      <trkpt lat="46.603516330942512" lon="7.12386273778975">
        <ele>836</ele>
        <time>2014-11-14T13:04:28Z</time>
      </trkpt>
      <trkpt lat="46.603492861613631" lon="7.123903557658196">
        <ele>836.5999755859375</ele>
        <time>2014-11-14T13:04:30Z</time>
      </trkpt>
      <trkpt lat="46.603447431698442" lon="7.123959045857191">
        <ele>837.4000244140625</ele>
        <time>2014-11-14T13:04:34Z</time>
      </trkpt>
      <trkpt lat="46.603433517739177" lon="7.123973043635488">
        <ele>837.5999755859375</ele>
        <time>2014-11-14T13:04:35Z</time>
      </trkpt>
      <trkpt lat="46.603350453078747" lon="7.124059209600091">
        <ele>838.5999755859375</ele>
        <time>2014-11-14T13:04:40Z</time>
      </trkpt>
      <trkpt lat="46.603334527462721" lon="7.124074883759022">
        <ele>838.79998779296875</ele>
        <time>2014-11-14T13:04:41Z</time>
      </trkpt>
      <trkpt lat="46.60329001955688" lon="7.124122828245163">
        <ele>839.79998779296875</ele>
        <time>2014-11-14T13:04:44Z</time>
      </trkpt>
      <trkpt lat="46.603212989866734" lon="7.124195415526629">
        <ele>841</ele>
        <time>2014-11-14T13:04:48Z</time>
      </trkpt>
      <trkpt lat="46.603142749518156" lon="7.124271523207426">
        <ele>842</ele>
        <time>2014-11-14T13:04:52Z</time>
      </trkpt>
      <trkpt lat="46.603082483634353" lon="7.124330028891563">
        <ele>843</ele>
        <time>2014-11-14T13:04:56Z</time>
      </trkpt>
      <trkpt lat="46.603066474199295" lon="7.124345954507589">
        <ele>843.4000244140625</ele>
        <time>2014-11-14T13:04:57Z</time>
      </trkpt>
      <trkpt lat="46.603019703179598" lon="7.124396162107587">
        <ele>844.20001220703125</ele>
        <time>2014-11-14T13:05:00Z</time>
      </trkpt>
      <trkpt lat="46.602973770350218" lon="7.124459780752659">
        <ele>845.20001220703125</ele>
        <time>2014-11-14T13:05:05Z</time>
      </trkpt>
      <trkpt lat="46.602979386225343" lon="7.124484507367015">
        <ele>845.4000244140625</ele>
        <time>2014-11-14T13:05:46Z</time>
      </trkpt>
      <trkpt lat="46.602975865826011" lon="7.124527171254158">
        <ele>845.5999755859375</ele>
        <time>2014-11-14T13:05:48Z</time>
      </trkpt>
      <trkpt lat="46.602921048179269" lon="7.124662958085537">
        <ele>846.5999755859375</ele>
        <time>2014-11-14T13:05:54Z</time>
      </trkpt>
      <trkpt lat="46.602915013208985" lon="7.124689444899559">
        <ele>846.79998779296875</ele>
        <time>2014-11-14T13:05:55Z</time>
      </trkpt>
      <trkpt lat="46.6028849221766" lon="7.124816430732608">
        <ele>847.5999755859375</ele>
        <time>2014-11-14T13:06:00Z</time>
      </trkpt>
      <trkpt lat="46.602859944105148" lon="7.124889856204391">
        <ele>848.5999755859375</ele>
        <time>2014-11-14T13:06:03Z</time>
      </trkpt>
      <trkpt lat="46.602847622707486" lon="7.124909721314907">
        <ele>848.79998779296875</ele>
        <time>2014-11-14T13:06:04Z</time>
      </trkpt>
      <trkpt lat="46.602803114801645" lon="7.125038551166654">
        <ele>849.5999755859375</ele>
        <time>2014-11-14T13:06:10Z</time>
      </trkpt>
      <trkpt lat="46.602794481441379" lon="7.125058500096202">
        <ele>849.79998779296875</ele>
        <time>2014-11-14T13:06:11Z</time>
      </trkpt>
      <trkpt lat="46.602760618552566" lon="7.12513511069119">
        <ele>850.5999755859375</ele>
        <time>2014-11-14T13:06:15Z</time>
      </trkpt>
      <trkpt lat="46.602735305204988" lon="7.125242901965976">
        <ele>851.4000244140625</ele>
        <time>2014-11-14T13:06:19Z</time>
      </trkpt>
      <trkpt lat="46.602721642702818" lon="7.12529294192791">
        <ele>851.79998779296875</ele>
        <time>2014-11-14T13:06:21Z</time>
      </trkpt>
      <trkpt lat="46.602690881118178" lon="7.125422861427069">
        <ele>852.79998779296875</ele>
        <time>2014-11-14T13:06:26Z</time>
      </trkpt>
      <trkpt lat="46.602687193080783" lon="7.125448929145932">
        <ele>853.20001220703125</ele>
        <time>2014-11-14T13:06:27Z</time>
      </trkpt>
      <trkpt lat="46.602666657418013" lon="7.125521767884493">
        <ele>853.79998779296875</ele>
        <time>2014-11-14T13:06:30Z</time>
      </trkpt>
      <trkpt lat="46.602610498666763" lon="7.125639701262116">
        <ele>855</ele>
        <time>2014-11-14T13:06:36Z</time>
      </trkpt>
      <trkpt lat="46.602555261924863" lon="7.125747408717871">
        <ele>856</ele>
        <time>2014-11-14T13:06:41Z</time>
      </trkpt>
      <trkpt lat="46.60252726636827" lon="7.125816140323877">
        <ele>856.79998779296875</ele>
        <time>2014-11-14T13:06:44Z</time>
      </trkpt>
      <trkpt lat="46.602501785382628" lon="7.12589543312788">
        <ele>857.20001220703125</ele>
        <time>2014-11-14T13:06:47Z</time>
      </trkpt>
      <trkpt lat="46.602476388216019" lon="7.126034153625369">
        <ele>858.20001220703125</ele>
        <time>2014-11-14T13:06:52Z</time>
      </trkpt>
      <trkpt lat="46.602440094575286" lon="7.126211263239384">
        <ele>859.4000244140625</ele>
        <time>2014-11-14T13:06:58Z</time>
      </trkpt>
      <trkpt lat="46.602433305233717" lon="7.126240348443389">
        <ele>859.4000244140625</ele>
        <time>2014-11-14T13:06:59Z</time>
      </trkpt>
      <trkpt lat="46.602414110675454" lon="7.12646615691483">
        <ele>860.4000244140625</ele>
        <time>2014-11-14T13:07:06Z</time>
      </trkpt>
      <trkpt lat="46.602415116503835" lon="7.12649934925139">
        <ele>860.5999755859375</ele>
        <time>2014-11-14T13:07:07Z</time>
      </trkpt>
      <trkpt lat="46.602470856159925" lon="7.12675248272717">
        <ele>861.20001220703125</ele>
        <time>2014-11-14T13:07:13Z</time>
      </trkpt>
      <trkpt lat="46.60256733186543" lon="7.127144085243344">
        <ele>861.4000244140625</ele>
        <time>2014-11-14T13:07:20Z</time>
      </trkpt>
      <trkpt lat="46.602592058479786" lon="7.127343071624637">
        <ele>861.5999755859375</ele>
        <time>2014-11-14T13:07:23Z</time>
      </trkpt>
      <trkpt lat="46.602638075128198" lon="7.127632834017277">
        <ele>861.5999755859375</ele>
        <time>2014-11-14T13:07:27Z</time>
      </trkpt>
      <trkpt lat="46.60266456194222" lon="7.127770045772195">
        <ele>861.5999755859375</ele>
        <time>2014-11-14T13:07:29Z</time>
      </trkpt>
      <trkpt lat="46.602775705978274" lon="7.128231134265661">
        <ele>862</ele>
        <time>2014-11-14T13:07:36Z</time>
      </trkpt>
      <trkpt lat="46.602869583293796" lon="7.128594657406211">
        <ele>862.4000244140625</ele>
        <time>2014-11-14T13:07:42Z</time>
      </trkpt>
      <trkpt lat="46.602894896641374" lon="7.128703705966473">
        <ele>862.79998779296875</ele>
        <time>2014-11-14T13:07:44Z</time>
      </trkpt>
      <trkpt lat="46.602927166968584" lon="7.12883303873241">
        <ele>863.5999755859375</ele>
        <time>2014-11-14T13:07:47Z</time>
      </trkpt>
      <trkpt lat="46.602954240515828" lon="7.128937896341085">
        <ele>864.20001220703125</ele>
        <time>2014-11-14T13:07:50Z</time>
      </trkpt>
      <trkpt lat="46.602999251335859" lon="7.129148617386818">
        <ele>864.5999755859375</ele>
        <time>2014-11-14T13:07:55Z</time>
      </trkpt>
      <trkpt lat="46.603026492521167" lon="7.129236627370119">
        <ele>864.79998779296875</ele>
        <time>2014-11-14T13:07:57Z</time>
      </trkpt>
      <trkpt lat="46.603099917992949" lon="7.129640467464924">
        <ele>865</ele>
        <time>2014-11-14T13:08:05Z</time>
      </trkpt>
      <trkpt lat="46.603048872202635" lon="7.129953196272254">
        <ele>865.5999755859375</ele>
        <time>2014-11-14T13:08:11Z</time>
      </trkpt>
      <trkpt lat="46.603044345974922" lon="7.130002649500966">
        <ele>865.79998779296875</ele>
        <time>2014-11-14T13:08:12Z</time>
      </trkpt>
      <trkpt lat="46.603057337924838" lon="7.130305236205459">
        <ele>866.5999755859375</ele>
        <time>2014-11-14T13:08:18Z</time>
      </trkpt>
      <trkpt lat="46.603095475584269" lon="7.130446219816804">
        <ele>866.79998779296875</ele>
        <time>2014-11-14T13:08:21Z</time>
      </trkpt>
      <trkpt lat="46.603142162784934" lon="7.130524506792426">
        <ele>867</ele>
        <time>2014-11-14T13:08:23Z</time>
      </trkpt>
      <trkpt lat="46.603408623486757" lon="7.130896244198084">
        <ele>868</ele>
        <time>2014-11-14T13:08:33Z</time>
      </trkpt>
      <trkpt lat="46.603624960407615" lon="7.131207548081875">
        <ele>868.20001220703125</ele>
        <time>2014-11-14T13:08:41Z</time>
      </trkpt>
      <trkpt lat="46.603704001754522" lon="7.131406869739294">
        <ele>869.20001220703125</ele>
        <time>2014-11-14T13:08:46Z</time>
      </trkpt>
      <trkpt lat="46.603725543245673" lon="7.131495047360659">
        <ele>869.4000244140625</ele>
        <time>2014-11-14T13:08:48Z</time>
      </trkpt>
      <trkpt lat="46.603778935968876" lon="7.131853038445115">
        <ele>870</ele>
        <time>2014-11-14T13:08:55Z</time>
      </trkpt>
      <trkpt lat="46.60384071059525" lon="7.132066357880831">
        <ele>870.20001220703125</ele>
        <time>2014-11-14T13:08:59Z</time>
      </trkpt>
      <trkpt lat="46.603891253471375" lon="7.132237851619721">
        <ele>870.20001220703125</ele>
        <time>2014-11-14T13:09:02Z</time>
      </trkpt>
      <trkpt lat="46.60390323959291" lon="7.132296357303858">
        <ele>870.20001220703125</ele>
        <time>2014-11-14T13:09:03Z</time>
      </trkpt>
      <trkpt lat="46.60397314466536" lon="7.132564494386315">
        <ele>870.5999755859375</ele>
        <time>2014-11-14T13:09:08Z</time>
      </trkpt>
      <trkpt lat="46.60400633700192" lon="7.132948972284794">
        <ele>871.20001220703125</ele>
        <time>2014-11-14T13:09:15Z</time>
      </trkpt>
      <trkpt lat="46.604005498811603" lon="7.13299716822803">
        <ele>871.4000244140625</ele>
        <time>2014-11-14T13:09:16Z</time>
      </trkpt>
      <trkpt lat="46.604021927341819" lon="7.133354572579265">
        <ele>871.5999755859375</ele>
        <time>2014-11-14T13:09:22Z</time>
      </trkpt>
      <trkpt lat="46.604116642847657" lon="7.133832424879074">
        <ele>871</ele>
        <time>2014-11-14T13:09:29Z</time>
      </trkpt>
      <trkpt lat="46.604242622852325" lon="7.134109949693084">
        <ele>871.4000244140625</ele>
        <time>2014-11-14T13:09:34Z</time>
      </trkpt>
      <trkpt lat="46.604316467419267" lon="7.134222686290741">
        <ele>872.4000244140625</ele>
        <time>2014-11-14T13:09:37Z</time>
      </trkpt>
      <trkpt lat="46.604352761059999" lon="7.134292926639319">
        <ele>872.79998779296875</ele>
        <time>2014-11-14T13:09:39Z</time>
      </trkpt>
      <trkpt lat="46.604379918426275" lon="7.134353946894407">
        <ele>873.4000244140625</ele>
        <time>2014-11-14T13:09:41Z</time>
      </trkpt>
      <trkpt lat="46.604462061077356" lon="7.134499792009592">
        <ele>874.20001220703125</ele>
        <time>2014-11-14T13:09:46Z</time>
      </trkpt>
      <trkpt lat="46.604481590911746" lon="7.134531307965517">
        <ele>874.4000244140625</ele>
        <time>2014-11-14T13:09:47Z</time>
      </trkpt>
      <trkpt lat="46.604607738554478" lon="7.134763235226274">
        <ele>875.20001220703125</ele>
        <time>2014-11-14T13:09:54Z</time>
      </trkpt>
      <trkpt lat="46.604744531214237" lon="7.1351089887321">
        <ele>874.5999755859375</ele>
        <time>2014-11-14T13:10:02Z</time>
      </trkpt>
      <trkpt lat="46.604891214519739" lon="7.135361367836595">
        <ele>874.5999755859375</ele>
        <time>2014-11-14T13:10:08Z</time>
      </trkpt>
      <trkpt lat="46.605060612782836" lon="7.135751964524388">
        <ele>875.20001220703125</ele>
        <time>2014-11-14T13:10:16Z</time>
      </trkpt>
      <trkpt lat="46.605228837579489" lon="7.136198217049241">
        <ele>875</ele>
        <time>2014-11-14T13:10:24Z</time>
      </trkpt>
      <trkpt lat="46.605401504784822" lon="7.136665843427181">
        <ele>875.4000244140625</ele>
        <time>2014-11-14T13:10:32Z</time>
      </trkpt>
      <trkpt lat="46.605467554181814" lon="7.136831302195787">
        <ele>875.5999755859375</ele>
        <time>2014-11-14T13:10:35Z</time>
      </trkpt>
      <trkpt lat="46.605544332414865" lon="7.137007657438517">
        <ele>875.79998779296875</ele>
        <time>2014-11-14T13:10:39Z</time>
      </trkpt>
      <trkpt lat="46.605627397075295" lon="7.137224245816469">
        <ele>876.5999755859375</ele>
        <time>2014-11-14T13:10:44Z</time>
      </trkpt>
      <trkpt lat="46.605670060962439" lon="7.137377969920635">
        <ele>876.79998779296875</ele>
        <time>2014-11-14T13:10:47Z</time>
      </trkpt>
      <trkpt lat="46.605795538052917" lon="7.137706037610769">
        <ele>876.5999755859375</ele>
        <time>2014-11-14T13:10:53Z</time>
      </trkpt>
      <trkpt lat="46.60597306676209" lon="7.13811700232327">
        <ele>876.4000244140625</ele>
        <time>2014-11-14T13:11:00Z</time>
      </trkpt>
      <trkpt lat="46.605999302119017" lon="7.138164527714253">
        <ele>876.5999755859375</ele>
        <time>2014-11-14T13:11:01Z</time>
      </trkpt>
      <trkpt lat="46.606175824999809" lon="7.138485051691532">
        <ele>877.20001220703125</ele>
        <time>2014-11-14T13:11:08Z</time>
      </trkpt>
      <trkpt lat="46.606326280161738" lon="7.138712620362639">
        <ele>877</ele>
        <time>2014-11-14T13:11:13Z</time>
      </trkpt>
      <trkpt lat="46.606393503025174" lon="7.138812113553286">
        <ele>876.79998779296875</ele>
        <time>2014-11-14T13:11:15Z</time>
      </trkpt>
      <trkpt lat="46.606688713654876" lon="7.13922425173223">
        <ele>876.20001220703125</ele>
        <time>2014-11-14T13:11:23Z</time>
      </trkpt>
      <trkpt lat="46.606769431382418" lon="7.139431871473789">
        <ele>876.20001220703125</ele>
        <time>2014-11-14T13:11:26Z</time>
      </trkpt>
      <trkpt lat="46.606778986752033" lon="7.139594899490476">
        <ele>876.20001220703125</ele>
        <time>2014-11-14T13:11:28Z</time>
      </trkpt>
      <trkpt lat="46.60671578720212" lon="7.13988340459764">
        <ele>876.5999755859375</ele>
        <time>2014-11-14T13:11:32Z</time>
      </trkpt>
      <trkpt lat="46.606646468862891" lon="7.140136454254389">
        <ele>877.79998779296875</ele>
        <time>2014-11-14T13:11:37Z</time>
      </trkpt>
      <trkpt lat="46.606583688408136" lon="7.140369806438685">
        <ele>878.79998779296875</ele>
        <time>2014-11-14T13:11:43Z</time>
      </trkpt>
      <trkpt lat="46.606574635952711" lon="7.140417080372572">
        <ele>879</ele>
        <time>2014-11-14T13:11:44Z</time>
      </trkpt>
      <trkpt lat="46.606569774448872" lon="7.140633501112461">
        <ele>879</ele>
        <time>2014-11-14T13:11:48Z</time>
      </trkpt>
      <trkpt lat="46.606577904894948" lon="7.14069988578558">
        <ele>879</ele>
        <time>2014-11-14T13:11:49Z</time>
      </trkpt>
      <trkpt lat="46.606670105829835" lon="7.141163405030966">
        <ele>878.79998779296875</ele>
        <time>2014-11-14T13:11:56Z</time>
      </trkpt>
      <trkpt lat="46.606760043650866" lon="7.141651315614581">
        <ele>879.4000244140625</ele>
        <time>2014-11-14T13:12:04Z</time>
      </trkpt>
      <trkpt lat="46.606793403625488" lon="7.141794478520751">
        <ele>880</ele>
        <time>2014-11-14T13:12:07Z</time>
      </trkpt>
      <trkpt lat="46.606824332848191" lon="7.141920877620578">
        <ele>880.5999755859375</ele>
        <time>2014-11-14T13:12:10Z</time>
      </trkpt>
      <trkpt lat="46.606841934844851" lon="7.141993213444948">
        <ele>881</ele>
        <time>2014-11-14T13:12:12Z</time>
      </trkpt>
      <trkpt lat="46.606873031705618" lon="7.14217166416347">
        <ele>882.20001220703125</ele>
        <time>2014-11-14T13:12:17Z</time>
      </trkpt>
      <trkpt lat="46.606884598731995" lon="7.142246933653951">
        <ele>882.5999755859375</ele>
        <time>2014-11-14T13:12:19Z</time>
      </trkpt>
      <trkpt lat="46.606885688379407" lon="7.142418092116714">
        <ele>883</ele>
        <time>2014-11-14T13:12:24Z</time>
      </trkpt>
      <trkpt lat="46.606892645359039" lon="7.142499731853604">
        <ele>883.4000244140625</ele>
        <time>2014-11-14T13:12:26Z</time>
      </trkpt>
      <trkpt lat="46.6069361474365" lon="7.142739538103342">
        <ele>884.4000244140625</ele>
        <time>2014-11-14T13:12:32Z</time>
      </trkpt>
      <trkpt lat="46.606940422207117" lon="7.142778094857931">
        <ele>884.5999755859375</ele>
        <time>2014-11-14T13:12:33Z</time>
      </trkpt>
      <trkpt lat="46.6069361474365" lon="7.14300574734807">
        <ele>885.5999755859375</ele>
        <time>2014-11-14T13:12:39Z</time>
      </trkpt>
      <trkpt lat="46.606929693371058" lon="7.143035503104329">
        <ele>885.79998779296875</ele>
        <time>2014-11-14T13:12:40Z</time>
      </trkpt>
      <trkpt lat="46.606878815218806" lon="7.14310934767127">
        <ele>886.5999755859375</ele>
        <time>2014-11-14T13:12:44Z</time>
      </trkpt>
      <trkpt lat="46.606852160766721" lon="7.143138516694307">
        <ele>887.20001220703125</ele>
        <time>2014-11-14T13:12:46Z</time>
      </trkpt>
      <trkpt lat="46.606802036985755" lon="7.143173972144723">
        <ele>887.79998779296875</ele>
        <time>2014-11-14T13:12:49Z</time>
      </trkpt>
      <trkpt lat="46.606742776930332" lon="7.143208337947726">
        <ele>888.4000244140625</ele>
        <time>2014-11-14T13:12:52Z</time>
      </trkpt>
      <trkpt lat="46.606624592095613" lon="7.143326438963413">
        <ele>888.4000244140625</ele>
        <time>2014-11-14T13:12:57Z</time>
      </trkpt>
      <trkpt lat="46.606466760858893" lon="7.143614357337356">
        <ele>887.20001220703125</ele>
        <time>2014-11-14T13:13:02Z</time>
      </trkpt>
      <trkpt lat="46.606406830251217" lon="7.143760537728667">
        <ele>886.5999755859375</ele>
        <time>2014-11-14T13:13:04Z</time>
      </trkpt>
      <trkpt lat="46.606336003169417" lon="7.143946532160044">
        <ele>885.20001220703125</ele>
        <time>2014-11-14T13:13:07Z</time>
      </trkpt>
      <trkpt lat="46.60631119273603" lon="7.144000763073564">
        <ele>884.5999755859375</ele>
        <time>2014-11-14T13:13:08Z</time>
      </trkpt>
      <trkpt lat="46.606276743113995" lon="7.144080894067884">
        <ele>883.5999755859375</ele>
        <time>2014-11-14T13:13:10Z</time>
      </trkpt>
      <trkpt lat="46.606262158602476" lon="7.144111823290587">
        <ele>882.79998779296875</ele>
        <time>2014-11-14T13:13:12Z</time>
      </trkpt>
      <trkpt lat="46.60620323382318" lon="7.14414082467556">
        <ele>882.20001220703125</ele>
        <time>2014-11-14T13:13:20Z</time>
      </trkpt>
      <trkpt lat="46.606151685118675" lon="7.144163036718965">
        <ele>882.20001220703125</ele>
        <time>2014-11-14T13:13:22Z</time>
      </trkpt>
      <trkpt lat="46.605984466150403" lon="7.144253309816122">
        <ele>881.20001220703125</ele>
        <time>2014-11-14T13:13:26Z</time>
      </trkpt>
      <trkpt lat="46.605937276035547" lon="7.144302260130644">
        <ele>881</ele>
        <time>2014-11-14T13:13:27Z</time>
      </trkpt>
      <trkpt lat="46.605815989896655" lon="7.144492110237479">
        <ele>880.4000244140625</ele>
        <time>2014-11-14T13:13:30Z</time>
      </trkpt>
      <trkpt lat="46.605760250240564" lon="7.144644912332296">
        <ele>880</ele>
        <time>2014-11-14T13:13:32Z</time>
      </trkpt>
      <trkpt lat="46.60574683919549" lon="7.144819842651486">
        <ele>879.79998779296875</ele>
        <time>2014-11-14T13:13:34Z</time>
      </trkpt>
      <trkpt lat="46.605730997398496" lon="7.145122345536947">
        <ele>879.4000244140625</ele>
        <time>2014-11-14T13:13:37Z</time>
      </trkpt>
      <trkpt lat="46.605711802840233" lon="7.145329462364316">
        <ele>879.4000244140625</ele>
        <time>2014-11-14T13:13:39Z</time>
      </trkpt>
      <trkpt lat="46.605658074840903" lon="7.145712012425065">
        <ele>880.20001220703125</ele>
        <time>2014-11-14T13:13:44Z</time>
      </trkpt>
      <trkpt lat="46.605565790086985" lon="7.145988112315536">
        <ele>880.20001220703125</ele>
        <time>2014-11-14T13:13:49Z</time>
      </trkpt>
      <trkpt lat="46.605533268302679" lon="7.146041924133897">
        <ele>880.20001220703125</ele>
        <time>2014-11-14T13:13:50Z</time>
      </trkpt>
      <trkpt lat="46.605399325489998" lon="7.146199587732554">
        <ele>880.79998779296875</ele>
        <time>2014-11-14T13:13:54Z</time>
      </trkpt>
      <trkpt lat="46.605367641896009" lon="7.146242251619697">
        <ele>881</ele>
        <time>2014-11-14T13:13:55Z</time>
      </trkpt>
      <trkpt lat="46.605286756530404" lon="7.146391114220023">
        <ele>882</ele>
        <time>2014-11-14T13:13:59Z</time>
      </trkpt>
      <trkpt lat="46.605251552537084" lon="7.146491361781955">
        <ele>883</ele>
        <time>2014-11-14T13:14:02Z</time>
      </trkpt>
      <trkpt lat="46.605232441797853" lon="7.146604685112834">
        <ele>883.5999755859375</ele>
        <time>2014-11-14T13:14:05Z</time>
      </trkpt>
      <trkpt lat="46.605231100693345" lon="7.146717756986618">
        <ele>884</ele>
        <time>2014-11-14T13:14:08Z</time>
      </trkpt>
      <trkpt lat="46.605229759588838" lon="7.146901488304138">
        <ele>884.5999755859375</ele>
        <time>2014-11-14T13:14:12Z</time>
      </trkpt>
      <trkpt lat="46.605237051844597" lon="7.146977679803968">
        <ele>885</ele>
        <time>2014-11-14T13:14:14Z</time>
      </trkpt>
      <trkpt lat="46.605285750702024" lon="7.147120339795947">
        <ele>886</ele>
        <time>2014-11-14T13:14:18Z</time>
      </trkpt>
      <trkpt lat="46.605318943038583" lon="7.14718303643167">
        <ele>886.20001220703125</ele>
        <time>2014-11-14T13:14:20Z</time>
      </trkpt>
      <trkpt lat="46.605409467592835" lon="7.147280685603619">
        <ele>886.5999755859375</ele>
        <time>2014-11-14T13:14:24Z</time>
      </trkpt>
      <trkpt lat="46.605446767061949" lon="7.147333407774568">
        <ele>887.4000244140625</ele>
        <time>2014-11-14T13:14:26Z</time>
      </trkpt>
      <trkpt lat="46.60551424138248" lon="7.147396942600608">
        <ele>888.20001220703125</ele>
        <time>2014-11-14T13:14:30Z</time>
      </trkpt>
      <trkpt lat="46.605527903884649" lon="7.147412030026317">
        <ele>888.4000244140625</ele>
        <time>2014-11-14T13:14:31Z</time>
      </trkpt>
      <trkpt lat="46.605595797300339" lon="7.147552175447345">
        <ele>889.5999755859375</ele>
        <time>2014-11-14T13:14:37Z</time>
      </trkpt>
      <trkpt lat="46.605588672682643" lon="7.147598192095757">
        <ele>889.79998779296875</ele>
        <time>2014-11-14T13:14:38Z</time>
      </trkpt>
      <trkpt lat="46.605605185031891" lon="7.147715957835317">
        <ele>890.5999755859375</ele>
        <time>2014-11-14T13:14:42Z</time>
      </trkpt>
      <trkpt lat="46.605586661025882" lon="7.147905472666025">
        <ele>891.79998779296875</ele>
        <time>2014-11-14T13:14:48Z</time>
      </trkpt>
      <trkpt lat="46.605581967160106" lon="7.147928019985557">
        <ele>892</ele>
        <time>2014-11-14T13:14:49Z</time>
      </trkpt>
      <trkpt lat="46.605530502274632" lon="7.148122899234295">
        <ele>892.4000244140625</ele>
        <time>2014-11-14T13:14:56Z</time>
      </trkpt>
      <trkpt lat="46.605541734024882" lon="7.148411236703396">
        <ele>892</ele>
        <time>2014-11-14T13:15:01Z</time>
      </trkpt>
      <trkpt lat="46.605517007410526" lon="7.148818429559469">
        <ele>891.79998779296875</ele>
        <time>2014-11-14T13:15:06Z</time>
      </trkpt>
      <trkpt lat="46.605483815073967" lon="7.148921107873321">
        <ele>891.79998779296875</ele>
        <time>2014-11-14T13:15:07Z</time>
      </trkpt>
      <trkpt lat="46.605400834232569" lon="7.149172648787499">
        <ele>892.4000244140625</ele>
        <time>2014-11-14T13:15:10Z</time>
      </trkpt>
      <trkpt lat="46.60535741597414" lon="7.149300137534738">
        <ele>893.20001220703125</ele>
        <time>2014-11-14T13:15:12Z</time>
      </trkpt>
      <trkpt lat="46.605298239737749" lon="7.149377083405852">
        <ele>894.4000244140625</ele>
        <time>2014-11-14T13:15:14Z</time>
      </trkpt>
      <trkpt lat="46.605163961648941" lon="7.149507589638233">
        <ele>895.5999755859375</ele>
        <time>2014-11-14T13:15:18Z</time>
      </trkpt>
      <trkpt lat="46.605050470679998" lon="7.149572633206844">
        <ele>896.4000244140625</ele>
        <time>2014-11-14T13:15:21Z</time>
      </trkpt>
      <trkpt lat="46.604844694957137" lon="7.149748485535383">
        <ele>896.4000244140625</ele>
        <time>2014-11-14T13:15:27Z</time>
      </trkpt>
      <trkpt lat="46.604663310572505" lon="7.150034392252564">
        <ele>896.20001220703125</ele>
        <time>2014-11-14T13:15:33Z</time>
      </trkpt>
      <trkpt lat="46.604390982538462" lon="7.150330441072583">
        <ele>894.79998779296875</ele>
        <time>2014-11-14T13:15:39Z</time>
      </trkpt>
      <trkpt lat="46.604331554844975" lon="7.150386264547706">
        <ele>894.5999755859375</ele>
        <time>2014-11-14T13:15:40Z</time>
      </trkpt>
      <trkpt lat="46.604092922061682" lon="7.150582065805793">
        <ele>893.20001220703125</ele>
        <time>2014-11-14T13:15:44Z</time>
      </trkpt>
      <trkpt lat="46.604036344215274" lon="7.150626657530665">
        <ele>892.5999755859375</ele>
        <time>2014-11-14T13:15:45Z</time>
      </trkpt>
      <trkpt lat="46.603920757770538" lon="7.150725899264216">
        <ele>891.5999755859375</ele>
        <time>2014-11-14T13:15:47Z</time>
      </trkpt>
      <trkpt lat="46.603862168267369" lon="7.150798654183745">
        <ele>891.20001220703125</ele>
        <time>2014-11-14T13:15:48Z</time>
      </trkpt>
      <trkpt lat="46.60381481051445" lon="7.150884484872222">
        <ele>890.5999755859375</ele>
        <time>2014-11-14T13:15:49Z</time>
      </trkpt>
      <trkpt lat="46.603769799694419" lon="7.150983978062868">
        <ele>890.20001220703125</ele>
        <time>2014-11-14T13:15:50Z</time>
      </trkpt>
      <trkpt lat="46.603727722540498" lon="7.151095541194081">
        <ele>889.5999755859375</ele>
        <time>2014-11-14T13:15:51Z</time>
      </trkpt>
      <trkpt lat="46.603686735033989" lon="7.151209367439151">
        <ele>889</ele>
        <time>2014-11-14T13:15:52Z</time>
      </trkpt>
      <trkpt lat="46.603646501898766" lon="7.151327133178711">
        <ele>888.4000244140625</ele>
        <time>2014-11-14T13:15:53Z</time>
      </trkpt>
      <trkpt lat="46.603609034791589" lon="7.151447329670191">
        <ele>887.79998779296875</ele>
        <time>2014-11-14T13:15:54Z</time>
      </trkpt>
      <trkpt lat="46.603571819141507" lon="7.151576410979033">
        <ele>887</ele>
        <time>2014-11-14T13:15:55Z</time>
      </trkpt>
      <trkpt lat="46.603489005938172" lon="7.151833148673177">
        <ele>885.4000244140625</ele>
        <time>2014-11-14T13:15:57Z</time>
      </trkpt>
      <trkpt lat="46.60341658629477" lon="7.15209080837667">
        <ele>883.79998779296875</ele>
        <time>2014-11-14T13:15:59Z</time>
      </trkpt>
      <trkpt lat="46.603383645415306" lon="7.152215028181672">
        <ele>882.79998779296875</ele>
        <time>2014-11-14T13:16:00Z</time>
      </trkpt>
      <trkpt lat="46.603356739506125" lon="7.152334470301867">
        <ele>881.5999755859375</ele>
        <time>2014-11-14T13:16:01Z</time>
      </trkpt>
      <trkpt lat="46.603330839425325" lon="7.152447709813714">
        <ele>879.5999755859375</ele>
        <time>2014-11-14T13:16:02Z</time>
      </trkpt>
      <trkpt lat="46.603292115032673" lon="7.152558602392674">
        <ele>879</ele>
        <time>2014-11-14T13:16:03Z</time>
      </trkpt>
      <trkpt lat="46.603242997080088" lon="7.152673518285155">
        <ele>878.20001220703125</ele>
        <time>2014-11-14T13:16:04Z</time>
      </trkpt>
      <trkpt lat="46.603191699832678" lon="7.15278709307313">
        <ele>877.5999755859375</ele>
        <time>2014-11-14T13:16:05Z</time>
      </trkpt>
      <trkpt lat="46.603138390928507" lon="7.152892453595996">
        <ele>876.79998779296875</ele>
        <time>2014-11-14T13:16:06Z</time>
      </trkpt>
      <trkpt lat="46.603044178336859" lon="7.153061935678124">
        <ele>874.79998779296875</ele>
        <time>2014-11-14T13:16:08Z</time>
      </trkpt>
      <trkpt lat="46.603003107011318" lon="7.153141228482127">
        <ele>873.79998779296875</ele>
        <time>2014-11-14T13:16:09Z</time>
      </trkpt>
      <trkpt lat="46.60297435708344" lon="7.153173163533211">
        <ele>873</ele>
        <time>2014-11-14T13:16:10Z</time>
      </trkpt>
      <trkpt lat="46.602953653782606" lon="7.15320635586977">
        <ele>872.4000244140625</ele>
        <time>2014-11-14T13:16:11Z</time>
      </trkpt>
      <trkpt lat="46.602957006543875" lon="7.153227813541889">
        <ele>872</ele>
        <time>2014-11-14T13:16:12Z</time>
      </trkpt>
      <trkpt lat="46.603006543591619" lon="7.153231333941221">
        <ele>871.20001220703125</ele>
        <time>2014-11-14T13:16:15Z</time>
      </trkpt>
      <trkpt lat="46.603029761463404" lon="7.153227645903826">
        <ele>871</ele>
        <time>2014-11-14T13:16:16Z</time>
      </trkpt>
      <trkpt lat="46.603048956021667" lon="7.15320685878396">
        <ele>871</ele>
        <time>2014-11-14T13:16:17Z</time>
      </trkpt>
      <trkpt lat="46.60307745449245" lon="7.153184395283461">
        <ele>870.79998779296875</ele>
        <time>2014-11-14T13:16:18Z</time>
      </trkpt>
      <trkpt lat="46.603106874972582" lon="7.153150616213679">
        <ele>870.79998779296875</ele>
        <time>2014-11-14T13:16:19Z</time>
      </trkpt>
      <trkpt lat="46.603303262963891" lon="7.152892118319869">
        <ele>869.5999755859375</ele>
        <time>2014-11-14T13:16:26Z</time>
      </trkpt>
      <trkpt lat="46.603408455848694" lon="7.152697322890163">
        <ele>868.4000244140625</ele>
        <time>2014-11-14T13:16:29Z</time>
      </trkpt>
      <trkpt lat="46.603445084765553" lon="7.152622975409031">
        <ele>867.79998779296875</ele>
        <time>2014-11-14T13:16:30Z</time>
      </trkpt>
      <trkpt lat="46.603488586843014" lon="7.152539072558284">
        <ele>867.20001220703125</ele>
        <time>2014-11-14T13:16:31Z</time>
      </trkpt>
      <trkpt lat="46.603607023134828" lon="7.152323992922902">
        <ele>866</ele>
        <time>2014-11-14T13:16:33Z</time>
      </trkpt>
      <trkpt lat="46.603672234341502" lon="7.152213267982006">
        <ele>865.20001220703125</ele>
        <time>2014-11-14T13:16:34Z</time>
      </trkpt>
      <trkpt lat="46.603744067251682" lon="7.152095083147287">
        <ele>864.5999755859375</ele>
        <time>2014-11-14T13:16:35Z</time>
      </trkpt>
      <trkpt lat="46.603880021721125" lon="7.151864748448134">
        <ele>863</ele>
        <time>2014-11-14T13:16:37Z</time>
      </trkpt>
      <trkpt lat="46.604005917906761" lon="7.151635168120265">
        <ele>861</ele>
        <time>2014-11-14T13:16:39Z</time>
      </trkpt>
      <trkpt lat="46.604061825200915" lon="7.151528634130955">
        <ele>860</ele>
        <time>2014-11-14T13:16:40Z</time>
      </trkpt>
      <trkpt lat="46.604182524606586" lon="7.151348339393735">
        <ele>858.4000244140625</ele>
        <time>2014-11-14T13:16:42Z</time>
      </trkpt>
      <trkpt lat="46.604323089122772" lon="7.151213474571705">
        <ele>857</ele>
        <time>2014-11-14T13:16:44Z</time>
      </trkpt>
      <trkpt lat="46.604476561769843" lon="7.151141054928303">
        <ele>855.4000244140625</ele>
        <time>2014-11-14T13:16:46Z</time>
      </trkpt>
      <trkpt lat="46.604556357488036" lon="7.151131248101592">
        <ele>854.5999755859375</ele>
        <time>2014-11-14T13:16:47Z</time>
      </trkpt>
      <trkpt lat="46.604635147377849" lon="7.151123620569706">
        <ele>853.79998779296875</ele>
        <time>2014-11-14T13:16:48Z</time>
      </trkpt>
      <trkpt lat="46.604801025241613" lon="7.151127140969038">
        <ele>851.5999755859375</ele>
        <time>2014-11-14T13:16:50Z</time>
      </trkpt>
      <trkpt lat="46.605001604184508" lon="7.151126554235816">
        <ele>850.20001220703125</ele>
        <time>2014-11-14T13:16:52Z</time>
      </trkpt>
      <trkpt lat="46.605229508131742" lon="7.151108449324966">
        <ele>849</ele>
        <time>2014-11-14T13:16:54Z</time>
      </trkpt>
      <trkpt lat="46.605392452329397" lon="7.151095876470208">
        <ele>848.20001220703125</ele>
        <time>2014-11-14T13:16:56Z</time>
      </trkpt>
      <trkpt lat="46.605448443442583" lon="7.151068216189742">
        <ele>848</ele>
        <time>2014-11-14T13:16:57Z</time>
      </trkpt>
      <trkpt lat="46.605562940239906" lon="7.150934524834156">
        <ele>847.79998779296875</ele>
        <time>2014-11-14T13:17:00Z</time>
      </trkpt>
      <trkpt lat="46.605799896642566" lon="7.150804521515966">
        <ele>848.20001220703125</ele>
        <time>2014-11-14T13:17:05Z</time>
      </trkpt>
      <trkpt lat="46.606040289625525" lon="7.150847688317299">
        <ele>848.20001220703125</ele>
        <time>2014-11-14T13:17:09Z</time>
      </trkpt>
      <trkpt lat="46.606261068955064" lon="7.150975847616792">
        <ele>848.4000244140625</ele>
        <time>2014-11-14T13:17:13Z</time>
      </trkpt>
      <trkpt lat="46.606307420879602" lon="7.151006441563368">
        <ele>848.4000244140625</ele>
        <time>2014-11-14T13:17:14Z</time>
      </trkpt>
      <trkpt lat="46.606358215212822" lon="7.151022450998426">
        <ele>848.4000244140625</ele>
        <time>2014-11-14T13:17:15Z</time>
      </trkpt>
      <trkpt lat="46.606496600434184" lon="7.150961179286242">
        <ele>848.20001220703125</ele>
        <time>2014-11-14T13:17:18Z</time>
      </trkpt>
      <trkpt lat="46.606604475528002" lon="7.150856154039502">
        <ele>848.4000244140625</ele>
        <time>2014-11-14T13:17:20Z</time>
      </trkpt>
      <trkpt lat="46.606749482452869" lon="7.150725480169058">
        <ele>848.5999755859375</ele>
        <time>2014-11-14T13:17:23Z</time>
      </trkpt>
      <trkpt lat="46.60695374943316" lon="7.15054627507925">
        <ele>849.20001220703125</ele>
        <time>2014-11-14T13:17:28Z</time>
      </trkpt>
      <trkpt lat="46.607071096077561" lon="7.150425408035517">
        <ele>850</ele>
        <time>2014-11-14T13:17:33Z</time>
      </trkpt>
      <trkpt lat="46.607084088027477" lon="7.150393975898624">
        <ele>850.4000244140625</ele>
        <time>2014-11-14T13:17:34Z</time>
      </trkpt>
      <trkpt lat="46.607113927602768" lon="7.150284927338362">
        <ele>851.4000244140625</ele>
        <time>2014-11-14T13:17:38Z</time>
      </trkpt>
      <trkpt lat="46.607138151302934" lon="7.150148805230856">
        <ele>852.4000244140625</ele>
        <time>2014-11-14T13:17:43Z</time>
      </trkpt>
      <trkpt lat="46.607147203758359" lon="7.150085186585784">
        <ele>852.79998779296875</ele>
        <time>2014-11-14T13:17:45Z</time>
      </trkpt>
      <trkpt lat="46.607152232900262" lon="7.149964654818177">
        <ele>853.4000244140625</ele>
        <time>2014-11-14T13:17:49Z</time>
      </trkpt>
      <trkpt lat="46.607176540419459" lon="7.149856276810169">
        <ele>854.4000244140625</ele>
        <time>2014-11-14T13:17:53Z</time>
      </trkpt>
      <trkpt lat="46.607177965342999" lon="7.149827945977449">
        <ele>854.5999755859375</ele>
        <time>2014-11-14T13:17:54Z</time>
      </trkpt>
      <trkpt lat="46.607202775776386" lon="7.149661062285304">
        <ele>855.5999755859375</ele>
        <time>2014-11-14T13:18:00Z</time>
      </trkpt>
      <trkpt lat="46.607232363894582" lon="7.149507254362106">
        <ele>856.79998779296875</ele>
        <time>2014-11-14T13:18:05Z</time>
      </trkpt>
      <trkpt lat="46.607246026396751" lon="7.149480180814862">
        <ele>857.20001220703125</ele>
        <time>2014-11-14T13:18:06Z</time>
      </trkpt>
      <trkpt lat="46.607290199026465" lon="7.149356296285987">
        <ele>858</ele>
        <time>2014-11-14T13:18:10Z</time>
      </trkpt>
      <trkpt lat="46.607337724417448" lon="7.149221012368798">
        <ele>859</ele>
        <time>2014-11-14T13:18:14Z</time>
      </trkpt>
      <trkpt lat="46.607396565377712" lon="7.14907743036747">
        <ele>860.20001220703125</ele>
        <time>2014-11-14T13:18:19Z</time>
      </trkpt>
      <trkpt lat="46.607402181252837" lon="7.149050608277321">
        <ele>860.4000244140625</ele>
        <time>2014-11-14T13:18:20Z</time>
      </trkpt>
      <trkpt lat="46.607434283941984" lon="7.148901578038931">
        <ele>861.4000244140625</ele>
        <time>2014-11-14T13:18:25Z</time>
      </trkpt>
      <trkpt lat="46.607445180416107" lon="7.148790517821908">
        <ele>862.20001220703125</ele>
        <time>2014-11-14T13:18:29Z</time>
      </trkpt>
      <trkpt lat="46.607448365539312" lon="7.148758918046951">
        <ele>862.4000244140625</ele>
        <time>2014-11-14T13:18:30Z</time>
      </trkpt>
      <trkpt lat="46.607489520683885" lon="7.148603014647961">
        <ele>863.20001220703125</ele>
        <time>2014-11-14T13:18:35Z</time>
      </trkpt>
      <trkpt lat="46.607509553432465" lon="7.148534115403891">
        <ele>863.5999755859375</ele>
        <time>2014-11-14T13:18:37Z</time>
      </trkpt>
      <trkpt lat="46.607547020539641" lon="7.148388857021928">
        <ele>864.20001220703125</ele>
        <time>2014-11-14T13:18:41Z</time>
      </trkpt>
      <trkpt lat="46.607563616707921" lon="7.148316605016589">
        <ele>864.5999755859375</ele>
        <time>2014-11-14T13:18:43Z</time>
      </trkpt>
      <trkpt lat="46.607607621699572" lon="7.148149721324444">
        <ele>865.4000244140625</ele>
        <time>2014-11-14T13:18:48Z</time>
      </trkpt>
      <trkpt lat="46.607615668326616" lon="7.148084677755833">
        <ele>865.79998779296875</ele>
        <time>2014-11-14T13:18:50Z</time>
      </trkpt>
      <trkpt lat="46.607654727995396" lon="7.147908993065357">
        <ele>866.79998779296875</ele>
        <time>2014-11-14T13:18:56Z</time>
      </trkpt>
      <trkpt lat="46.607658164575696" lon="7.1477185562253">
        <ele>867.79998779296875</ele>
        <time>2014-11-14T13:19:02Z</time>
      </trkpt>
      <trkpt lat="46.607666043564677" lon="7.147685615345836">
        <ele>867.79998779296875</ele>
        <time>2014-11-14T13:19:03Z</time>
      </trkpt>
      <trkpt lat="46.607682220637798" lon="7.147511523216963">
        <ele>868.5999755859375</ele>
        <time>2014-11-14T13:19:08Z</time>
      </trkpt>
      <trkpt lat="46.607692278921604" lon="7.147444551810622">
        <ele>869</ele>
        <time>2014-11-14T13:19:10Z</time>
      </trkpt>
      <trkpt lat="46.607711976394057" lon="7.147299461066723">
        <ele>870</ele>
        <time>2014-11-14T13:19:15Z</time>
      </trkpt>
      <trkpt lat="46.607714239507914" lon="7.147114053368568">
        <ele>870.79998779296875</ele>
        <time>2014-11-14T13:19:21Z</time>
      </trkpt>
      <trkpt lat="46.60771113820374" lon="7.147038280963898">
        <ele>871.20001220703125</ele>
        <time>2014-11-14T13:19:23Z</time>
      </trkpt>
      <trkpt lat="46.607727818191051" lon="7.146888747811317">
        <ele>871.79998779296875</ele>
        <time>2014-11-14T13:19:27Z</time>
      </trkpt>
      <trkpt lat="46.60773167386651" lon="7.146811969578266">
        <ele>872.20001220703125</ele>
        <time>2014-11-14T13:19:29Z</time>
      </trkpt>
      <trkpt lat="46.607749443501234" lon="7.146746758371592">
        <ele>872.5999755859375</ele>
        <time>2014-11-14T13:19:31Z</time>
      </trkpt>
      <trkpt lat="46.607756903395057" lon="7.146717673167586">
        <ele>872.79998779296875</ele>
        <time>2014-11-14T13:19:32Z</time>
      </trkpt>
      <trkpt lat="46.607790179550648" lon="7.146642990410328">
        <ele>873.4000244140625</ele>
        <time>2014-11-14T13:19:35Z</time>
      </trkpt>
      <trkpt lat="46.6078479308635" lon="7.146549951285124">
        <ele>874</ele>
        <time>2014-11-14T13:19:39Z</time>
      </trkpt>
      <trkpt lat="46.607894198969007" lon="7.146501000970602">
        <ele>874.5999755859375</ele>
        <time>2014-11-14T13:19:42Z</time>
      </trkpt>
      <trkpt lat="46.607947172597051" lon="7.146465126425028">
        <ele>875</ele>
        <time>2014-11-14T13:19:45Z</time>
      </trkpt>
      <trkpt lat="46.607996793463826" lon="7.146427491679788">
        <ele>875.4000244140625</ele>
        <time>2014-11-14T13:19:48Z</time>
      </trkpt>
      <trkpt lat="46.608012216165662" lon="7.146427910774946">
        <ele>875.5999755859375</ele>
        <time>2014-11-14T13:19:49Z</time>
      </trkpt>
      <trkpt lat="46.608052952215075" lon="7.146425815299153">
        <ele>875.79998779296875</ele>
        <time>2014-11-14T13:19:51Z</time>
      </trkpt>
      <trkpt lat="46.608222769573331" lon="7.14637728407979">
        <ele>876.5999755859375</ele>
        <time>2014-11-14T13:19:59Z</time>
      </trkpt>
      <trkpt lat="46.608340619131923" lon="7.146251304075122">
        <ele>877.79998779296875</ele>
        <time>2014-11-14T13:20:06Z</time>
      </trkpt>
      <trkpt lat="46.608355036005378" lon="7.146243425086141">
        <ele>878</ele>
        <time>2014-11-14T13:20:07Z</time>
      </trkpt>
      <trkpt lat="46.60844212397933" lon="7.146149044856429">
        <ele>879</ele>
        <time>2014-11-14T13:20:13Z</time>
      </trkpt>
      <trkpt lat="46.608462492004037" lon="7.146127168089151">
        <ele>879</ele>
        <time>2014-11-14T13:20:14Z</time>
      </trkpt>
      <trkpt lat="46.608600709587336" lon="7.14599909260869">
        <ele>880</ele>
        <time>2014-11-14T13:20:21Z</time>
      </trkpt>
      <trkpt lat="46.608710177242756" lon="7.145912759006023">
        <ele>881.20001220703125</ele>
        <time>2014-11-14T13:20:27Z</time>
      </trkpt>
      <trkpt lat="46.608730461448431" lon="7.145872944965959">
        <ele>881.5999755859375</ele>
        <time>2014-11-14T13:20:29Z</time>
      </trkpt>
      <trkpt lat="46.60874362103641" lon="7.14583732187748">
        <ele>881.79998779296875</ele>
        <time>2014-11-14T13:20:31Z</time>
      </trkpt>
      <trkpt lat="46.608808664605021" lon="7.14576649479568">
        <ele>882</ele>
        <time>2014-11-14T13:20:35Z</time>
      </trkpt>
      <trkpt lat="46.60888041369617" lon="7.145715113729239">
        <ele>882.4000244140625</ele>
        <time>2014-11-14T13:20:38Z</time>
      </trkpt>
      <trkpt lat="46.608945038169622" lon="7.145670438185334">
        <ele>882.5999755859375</ele>
        <time>2014-11-14T13:20:41Z</time>
      </trkpt>
      <trkpt lat="46.609191801398993" lon="7.145614111796022">
        <ele>883</ele>
        <time>2014-11-14T13:20:47Z</time>
      </trkpt>
      <trkpt lat="46.609470499679446" lon="7.145532472059131">
        <ele>883.20001220703125</ele>
        <time>2014-11-14T13:20:56Z</time>
      </trkpt>
      <trkpt lat="46.609535040333867" lon="7.145526437088847">
        <ele>883.4000244140625</ele>
        <time>2014-11-14T13:20:58Z</time>
      </trkpt>
      <trkpt lat="46.609682813286781" lon="7.145447563380003">
        <ele>883.79998779296875</ele>
        <time>2014-11-14T13:21:02Z</time>
      </trkpt>
      <trkpt lat="46.609937204048038" lon="7.145350920036435">
        <ele>884.20001220703125</ele>
        <time>2014-11-14T13:21:09Z</time>
      </trkpt>
      <trkpt lat="46.610002834349871" lon="7.145312279462814">
        <ele>884.4000244140625</ele>
        <time>2014-11-14T13:21:11Z</time>
      </trkpt>
      <trkpt lat="46.610175501555204" lon="7.145278500393033">
        <ele>884.79998779296875</ele>
        <time>2014-11-14T13:21:16Z</time>
      </trkpt>
      <trkpt lat="46.61030475050211" lon="7.14535117149353">
        <ele>885</ele>
        <time>2014-11-14T13:21:20Z</time>
      </trkpt>
      <trkpt lat="46.610412793233991" lon="7.145578069612384">
        <ele>885.4000244140625</ele>
        <time>2014-11-14T13:21:25Z</time>
      </trkpt>
      <trkpt lat="46.610428718850017" lon="7.145633473992348">
        <ele>885.5999755859375</ele>
        <time>2014-11-14T13:21:26Z</time>
      </trkpt>
      <trkpt lat="46.610551346093416" lon="7.146113840863109">
        <ele>885.4000244140625</ele>
        <time>2014-11-14T13:21:34Z</time>
      </trkpt>
      <trkpt lat="46.610707081854343" lon="7.146621281281114">
        <ele>884.5999755859375</ele>
        <time>2014-11-14T13:21:41Z</time>
      </trkpt>
      <trkpt lat="46.610754607245326" lon="7.146778274327517">
        <ele>884.4000244140625</ele>
        <time>2014-11-14T13:21:43Z</time>
      </trkpt>
      <trkpt lat="46.610954264178872" lon="7.147454861551523">
        <ele>883.4000244140625</ele>
        <time>2014-11-14T13:21:51Z</time>
      </trkpt>
      <trkpt lat="46.611190550029278" lon="7.148232869803906">
        <ele>882.4000244140625</ele>
        <time>2014-11-14T13:22:00Z</time>
      </trkpt>
      <trkpt lat="46.611214354634285" lon="7.14831467717886">
        <ele>882.4000244140625</ele>
        <time>2014-11-14T13:22:01Z</time>
      </trkpt>
      <trkpt lat="46.61130546592176" lon="7.148627322167158">
        <ele>882.4000244140625</ele>
        <time>2014-11-14T13:22:05Z</time>
      </trkpt>
      <trkpt lat="46.611415520310402" lon="7.148972321301699">
        <ele>882.4000244140625</ele>
        <time>2014-11-14T13:22:10Z</time>
      </trkpt>
      <trkpt lat="46.611610986292362" lon="7.149581937119365">
        <ele>882.5999755859375</ele>
        <time>2014-11-14T13:22:19Z</time>
      </trkpt>
      <trkpt lat="46.611668486148119" lon="7.149791484698653">
        <ele>882.5999755859375</ele>
        <time>2014-11-14T13:22:22Z</time>
      </trkpt>
      <trkpt lat="46.61174476146698" lon="7.150044031441212">
        <ele>883</ele>
        <time>2014-11-14T13:22:26Z</time>
      </trkpt>
      <trkpt lat="46.6117730922997" lon="7.15016070753336">
        <ele>883.4000244140625</ele>
        <time>2014-11-14T13:22:28Z</time>
      </trkpt>
      <trkpt lat="46.611854648217559" lon="7.150433622300625">
        <ele>884</ele>
        <time>2014-11-14T13:22:33Z</time>
      </trkpt>
      <trkpt lat="46.61199739202857" lon="7.150917425751686">
        <ele>884.20001220703125</ele>
        <time>2014-11-14T13:22:42Z</time>
      </trkpt>
      <trkpt lat="46.612087078392506" lon="7.151235938072205">
        <ele>884.5999755859375</ele>
        <time>2014-11-14T13:22:48Z</time>
      </trkpt>
      <trkpt lat="46.612115493044257" lon="7.151341550052166">
        <ele>884.5999755859375</ele>
        <time>2014-11-14T13:22:50Z</time>
      </trkpt>
      <trkpt lat="46.612196546047926" lon="7.151784785091877">
        <ele>885</ele>
        <time>2014-11-14T13:22:58Z</time>
      </trkpt>
      <trkpt lat="46.612301403656602" lon="7.152365734800696">
        <ele>885.4000244140625</ele>
        <time>2014-11-14T13:23:08Z</time>
      </trkpt>
      <trkpt lat="46.612361334264278" lon="7.152736214920878">
        <ele>885.5999755859375</ele>
        <time>2014-11-14T13:23:14Z</time>
      </trkpt>
      <trkpt lat="46.612376170232892" lon="7.152843754738569">
        <ele>885.79998779296875</ele>
        <time>2014-11-14T13:23:16Z</time>
      </trkpt>
      <trkpt lat="46.612475411966443" lon="7.153422860428691">
        <ele>885.79998779296875</ele>
        <time>2014-11-14T13:23:26Z</time>
      </trkpt>
      <trkpt lat="46.612518830224872" lon="7.153726536780596">
        <ele>885.20001220703125</ele>
        <time>2014-11-14T13:23:30Z</time>
      </trkpt>
      <trkpt lat="46.612521763890982" lon="7.153814043849707">
        <ele>884.79998779296875</ele>
        <time>2014-11-14T13:23:31Z</time>
      </trkpt>
      <trkpt lat="46.612505419179797" lon="7.154082013294101">
        <ele>884.4000244140625</ele>
        <time>2014-11-14T13:23:34Z</time>
      </trkpt>
      <trkpt lat="46.612471556290984" lon="7.154348641633987">
        <ele>884</ele>
        <time>2014-11-14T13:23:37Z</time>
      </trkpt>
      <trkpt lat="46.612425791099668" lon="7.154710236936808">
        <ele>883.4000244140625</ele>
        <time>2014-11-14T13:23:41Z</time>
      </trkpt>
      <trkpt lat="46.612419420853257" lon="7.154915342107415">
        <ele>882.5999755859375</ele>
        <time>2014-11-14T13:23:43Z</time>
      </trkpt>
      <trkpt lat="46.612420929595828" lon="7.155025899410248">
        <ele>882</ele>
        <time>2014-11-14T13:23:44Z</time>
      </trkpt>
      <trkpt lat="46.612433083355427" lon="7.155263358727098">
        <ele>880.79998779296875</ele>
        <time>2014-11-14T13:23:46Z</time>
      </trkpt>
      <trkpt lat="46.61244498565793" lon="7.155509199947119">
        <ele>880</ele>
        <time>2014-11-14T13:23:48Z</time>
      </trkpt>
      <trkpt lat="46.612448757514358" lon="7.155633419752121">
        <ele>879.5999755859375</ele>
        <time>2014-11-14T13:23:49Z</time>
      </trkpt>
      <trkpt lat="46.612457474693656" lon="7.156015718355775">
        <ele>878.4000244140625</ele>
        <time>2014-11-14T13:23:52Z</time>
      </trkpt>
      <trkpt lat="46.612465437501669" lon="7.15628175996244">
        <ele>877.20001220703125</ele>
        <time>2014-11-14T13:23:54Z</time>
      </trkpt>
      <trkpt lat="46.612469209358096" lon="7.156421234831214">
        <ele>876.5999755859375</ele>
        <time>2014-11-14T13:23:55Z</time>
      </trkpt>
      <trkpt lat="46.612472981214523" lon="7.156564146280289">
        <ele>876</ele>
        <time>2014-11-14T13:23:56Z</time>
      </trkpt>
      <trkpt lat="46.612480776384473" lon="7.156850220635533">
        <ele>874.79998779296875</ele>
        <time>2014-11-14T13:23:58Z</time>
      </trkpt>
      <trkpt lat="46.612503658980131" lon="7.157124560326338">
        <ele>873.4000244140625</ele>
        <time>2014-11-14T13:24:00Z</time>
      </trkpt>
      <trkpt lat="46.612526290118694" lon="7.157254312187433">
        <ele>872.5999755859375</ele>
        <time>2014-11-14T13:24:01Z</time>
      </trkpt>
      <trkpt lat="46.612564930692315" lon="7.157376436516643">
        <ele>872.20001220703125</ele>
        <time>2014-11-14T13:24:02Z</time>
      </trkpt>
      <trkpt lat="46.61261647939682" lon="7.15749311260879">
        <ele>870.5999755859375</ele>
        <time>2014-11-14T13:24:03Z</time>
      </trkpt>
      <trkpt lat="46.612673895433545" lon="7.157608950510621">
        <ele>870</ele>
        <time>2014-11-14T13:24:04Z</time>
      </trkpt>
      <trkpt lat="46.612734412774444" lon="7.157727219164372">
        <ele>869.20001220703125</ele>
        <time>2014-11-14T13:24:05Z</time>
      </trkpt>
      <trkpt lat="46.612909678369761" lon="7.158084120601416">
        <ele>867.79998779296875</ele>
        <time>2014-11-14T13:24:08Z</time>
      </trkpt>
      <trkpt lat="46.613073293119669" lon="7.158416379243136">
        <ele>866.5999755859375</ele>
        <time>2014-11-14T13:24:11Z</time>
      </trkpt>
      <trkpt lat="46.613278817385435" lon="7.158822901546955">
        <ele>865.4000244140625</ele>
        <time>2014-11-14T13:24:15Z</time>
      </trkpt>
      <trkpt lat="46.613367665559053" lon="7.159019624814391">
        <ele>864.79998779296875</ele>
        <time>2014-11-14T13:24:17Z</time>
      </trkpt>
      <trkpt lat="46.613400019705296" lon="7.15912414714694">
        <ele>864.79998779296875</ele>
        <time>2014-11-14T13:24:18Z</time>
      </trkpt>
      <trkpt lat="46.61342809908092" lon="7.159457160159946">
        <ele>864.79998779296875</ele>
        <time>2014-11-14T13:24:21Z</time>
      </trkpt>
      <trkpt lat="46.613372946158051" lon="7.159787993878126">
        <ele>864.5999755859375</ele>
        <time>2014-11-14T13:24:24Z</time>
      </trkpt>
      <trkpt lat="46.613350734114647" lon="7.159895868971944">
        <ele>864.4000244140625</ele>
        <time>2014-11-14T13:24:25Z</time>
      </trkpt>
      <trkpt lat="46.613332210108638" lon="7.160002822056413">
        <ele>864.20001220703125</ele>
        <time>2014-11-14T13:24:26Z</time>
      </trkpt>
      <trkpt lat="46.61331083625555" lon="7.160221757367253">
        <ele>863.5999755859375</ele>
        <time>2014-11-14T13:24:28Z</time>
      </trkpt>
      <trkpt lat="46.613306393846869" lon="7.160438178107142">
        <ele>863.20001220703125</ele>
        <time>2014-11-14T13:24:30Z</time>
      </trkpt>
      <trkpt lat="46.61329859867692" lon="7.160548567771912">
        <ele>863.20001220703125</ele>
        <time>2014-11-14T13:24:31Z</time>
      </trkpt>
      <trkpt lat="46.613238081336021" lon="7.16108400374651">
        <ele>862.4000244140625</ele>
        <time>2014-11-14T13:24:36Z</time>
      </trkpt>
      <trkpt lat="46.61323213018477" lon="7.16119104065001">
        <ele>862.20001220703125</ele>
        <time>2014-11-14T13:24:37Z</time>
      </trkpt>
      <trkpt lat="46.613182928413153" lon="7.161711137741804">
        <ele>861.5999755859375</ele>
        <time>2014-11-14T13:24:42Z</time>
      </trkpt>
      <trkpt lat="46.61313783377409" lon="7.161990255117416">
        <ele>861.20001220703125</ele>
        <time>2014-11-14T13:24:45Z</time>
      </trkpt>
      <trkpt lat="46.613090476021171" lon="7.162146493792534">
        <ele>860.79998779296875</ele>
        <time>2014-11-14T13:24:47Z</time>
      </trkpt>
      <trkpt lat="46.613073712214828" lon="7.162501802667975">
        <ele>860.4000244140625</ele>
        <time>2014-11-14T13:24:51Z</time>
      </trkpt>
      <trkpt lat="46.613102629780769" lon="7.162789050489664">
        <ele>860</ele>
        <time>2014-11-14T13:24:54Z</time>
      </trkpt>
      <trkpt lat="46.613135319203138" lon="7.163181155920029">
        <ele>859.79998779296875</ele>
        <time>2014-11-14T13:24:58Z</time>
      </trkpt>
      <trkpt lat="46.613129703328013" lon="7.163571082055569">
        <ele>859</ele>
        <time>2014-11-14T13:25:02Z</time>
      </trkpt>
      <trkpt lat="46.613109167665243" lon="7.163654062896967">
        <ele>859</ele>
        <time>2014-11-14T13:25:03Z</time>
      </trkpt>
      <trkpt lat="46.613016799092293" lon="7.163974083960056">
        <ele>858</ele>
        <time>2014-11-14T13:25:07Z</time>
      </trkpt>
      <trkpt lat="46.613022247329354" lon="7.164141973480582">
        <ele>857.4000244140625</ele>
        <time>2014-11-14T13:25:09Z</time>
      </trkpt>
      <trkpt lat="46.613076059147716" lon="7.164353951811791">
        <ele>857.4000244140625</ele>
        <time>2014-11-14T13:25:12Z</time>
      </trkpt>
      <trkpt lat="46.613089302554727" lon="7.164428634569049">
        <ele>857.4000244140625</ele>
        <time>2014-11-14T13:25:13Z</time>
      </trkpt>
      <trkpt lat="46.613097433000803" lon="7.164590572938323">
        <ele>856.79998779296875</ele>
        <time>2014-11-14T13:25:15Z</time>
      </trkpt>
      <trkpt lat="46.613069688901305" lon="7.164748907089233">
        <ele>856.79998779296875</ele>
        <time>2014-11-14T13:25:17Z</time>
      </trkpt>
      <trkpt lat="46.612906074151397" lon="7.165198009461165">
        <ele>856.20001220703125</ele>
        <time>2014-11-14T13:25:23Z</time>
      </trkpt>
      <trkpt lat="46.612733826041222" lon="7.165717855095863">
        <ele>855.79998779296875</ele>
        <time>2014-11-14T13:25:30Z</time>
      </trkpt>
      <trkpt lat="46.612722091376781" lon="7.166056903079152">
        <ele>855.4000244140625</ele>
        <time>2014-11-14T13:25:34Z</time>
      </trkpt>
      <trkpt lat="46.612723600119352" lon="7.166231917217374">
        <ele>855.20001220703125</ele>
        <time>2014-11-14T13:25:36Z</time>
      </trkpt>
      <trkpt lat="46.612686300650239" lon="7.166501898318529">
        <ele>854.79998779296875</ele>
        <time>2014-11-14T13:25:39Z</time>
      </trkpt>
      <trkpt lat="46.612632321193814" lon="7.166851256042719">
        <ele>854.20001220703125</ele>
        <time>2014-11-14T13:25:43Z</time>
      </trkpt>
      <trkpt lat="46.612631902098656" lon="7.167039765045047">
        <ele>854</ele>
        <time>2014-11-14T13:25:45Z</time>
      </trkpt>
      <trkpt lat="46.61262771114707" lon="7.167322486639023">
        <ele>853.5999755859375</ele>
        <time>2014-11-14T13:25:48Z</time>
      </trkpt>
      <trkpt lat="46.612647324800491" lon="7.167737223207951">
        <ele>853.20001220703125</ele>
        <time>2014-11-14T13:25:53Z</time>
      </trkpt>
      <trkpt lat="46.612693928182125" lon="7.167878290638328">
        <ele>852.5999755859375</ele>
        <time>2014-11-14T13:25:55Z</time>
      </trkpt>
      <trkpt lat="46.612725108861923" lon="7.167943166568875">
        <ele>852.4000244140625</ele>
        <time>2014-11-14T13:25:56Z</time>
      </trkpt>
      <trkpt lat="46.612760899588466" lon="7.16800200752914">
        <ele>852.20001220703125</ele>
        <time>2014-11-14T13:25:57Z</time>
      </trkpt>
      <trkpt lat="46.612894674763083" lon="7.168116671964526">
        <ele>852</ele>
        <time>2014-11-14T13:26:00Z</time>
      </trkpt>
      <trkpt lat="46.61293993704021" lon="7.168138464912772">
        <ele>852</ele>
        <time>2014-11-14T13:26:01Z</time>
      </trkpt>
      <trkpt lat="46.613136995583773" lon="7.168236449360848">
        <ele>852.4000244140625</ele>
        <time>2014-11-14T13:26:06Z</time>
      </trkpt>
      <trkpt lat="46.613371940329671" lon="7.168343737721443">
        <ele>853.20001220703125</ele>
        <time>2014-11-14T13:26:13Z</time>
      </trkpt>
      <trkpt lat="46.613446203991771" lon="7.168396124616265">
        <ele>853.5999755859375</ele>
        <time>2014-11-14T13:26:16Z</time>
      </trkpt>
      <trkpt lat="46.613512085750699" lon="7.168447338044643">
        <ele>854</ele>
        <time>2014-11-14T13:26:19Z</time>
      </trkpt>
      <trkpt lat="46.613551145419478" lon="7.168534006923437">
        <ele>854.79998779296875</ele>
        <time>2014-11-14T13:26:22Z</time>
      </trkpt>
      <trkpt lat="46.613546032458544" lon="7.168569210916758">
        <ele>855</ele>
        <time>2014-11-14T13:26:23Z</time>
      </trkpt>
      <trkpt lat="46.613470511510968" lon="7.168645318597555">
        <ele>855</ele>
        <time>2014-11-14T13:26:26Z</time>
      </trkpt>
      <trkpt lat="46.61329566501081" lon="7.168783619999886">
        <ele>855</ele>
        <time>2014-11-14T13:26:31Z</time>
      </trkpt>
      <trkpt lat="46.613262053579092" lon="7.168822679668665">
        <ele>854.79998779296875</ele>
        <time>2014-11-14T13:26:32Z</time>
      </trkpt>
      <trkpt lat="46.613107826560736" lon="7.169069275259972">
        <ele>854.79998779296875</ele>
        <time>2014-11-14T13:26:37Z</time>
      </trkpt>
      <trkpt lat="46.613081088289618" lon="7.169125266373158">
        <ele>855</ele>
        <time>2014-11-14T13:26:38Z</time>
      </trkpt>
      <trkpt lat="46.612916467711329" lon="7.169593311846256">
        <ele>855.20001220703125</ele>
        <time>2014-11-14T13:26:46Z</time>
      </trkpt>
      <trkpt lat="46.612855447456241" lon="7.169945184141398">
        <ele>855.4000244140625</ele>
        <time>2014-11-14T13:26:53Z</time>
      </trkpt>
      <trkpt lat="46.61281923763454" lon="7.170297643169761">
        <ele>855.79998779296875</ele>
        <time>2014-11-14T13:26:59Z</time>
      </trkpt>
      <trkpt lat="46.612802473828197" lon="7.170481961220503">
        <ele>856</ele>
        <time>2014-11-14T13:27:02Z</time>
      </trkpt>
      <trkpt lat="46.612790320068598" lon="7.171022845432162">
        <ele>856.4000244140625</ele>
        <time>2014-11-14T13:27:10Z</time>
      </trkpt>
      <trkpt lat="46.61276307888329" lon="7.1714888792485">
        <ele>856.4000244140625</ele>
        <time>2014-11-14T13:27:17Z</time>
      </trkpt>
      <trkpt lat="46.612717481330037" lon="7.172137554734945">
        <ele>856.5999755859375</ele>
        <time>2014-11-14T13:27:26Z</time>
      </trkpt>
      <trkpt lat="46.612614886835217" lon="7.172561679035425">
        <ele>856.79998779296875</ele>
        <time>2014-11-14T13:27:32Z</time>
      </trkpt>
      <trkpt lat="46.612529810518026" lon="7.172745410352945">
        <ele>857</ele>
        <time>2014-11-14T13:27:35Z</time>
      </trkpt>
      <trkpt lat="46.612384049221873" lon="7.173039196059108">
        <ele>857</ele>
        <time>2014-11-14T13:27:40Z</time>
      </trkpt>
      <trkpt lat="46.612197468057275" lon="7.173386793583632">
        <ele>857.20001220703125</ele>
        <time>2014-11-14T13:27:46Z</time>
      </trkpt>
      <trkpt lat="46.612044330686331" lon="7.173826759681106">
        <ele>857.4000244140625</ele>
        <time>2014-11-14T13:27:53Z</time>
      </trkpt>
      <trkpt lat="46.611926229670644" lon="7.174279633909464">
        <ele>857.5999755859375</ele>
        <time>2014-11-14T13:28:00Z</time>
      </trkpt>
      <trkpt lat="46.611891780048609" lon="7.174412235617638">
        <ele>857.5999755859375</ele>
        <time>2014-11-14T13:28:02Z</time>
      </trkpt>
      <trkpt lat="46.611824724823236" lon="7.174671236425638">
        <ele>857.79998779296875</ele>
        <time>2014-11-14T13:28:06Z</time>
      </trkpt>
      <trkpt lat="46.611776361241937" lon="7.174858739599586">
        <ele>858</ele>
        <time>2014-11-14T13:28:09Z</time>
      </trkpt>
      <trkpt lat="46.61170519888401" lon="7.175163421779871">
        <ele>858.4000244140625</ele>
        <time>2014-11-14T13:28:14Z</time>
      </trkpt>
      <trkpt lat="46.611583912745118" lon="7.175617469474673">
        <ele>859</ele>
        <time>2014-11-14T13:28:22Z</time>
      </trkpt>
      <trkpt lat="46.611496489495039" lon="7.175973281264305">
        <ele>859.4000244140625</ele>
        <time>2014-11-14T13:28:28Z</time>
      </trkpt>
      <trkpt lat="46.611459525302052" lon="7.176147373393178">
        <ele>859.4000244140625</ele>
        <time>2014-11-14T13:28:31Z</time>
      </trkpt>
      <trkpt lat="46.611419375985861" lon="7.17640888877213">
        <ele>860.20001220703125</ele>
        <time>2014-11-14T13:28:36Z</time>
      </trkpt>
      <trkpt lat="46.611412754282355" lon="7.176555069163442">
        <ele>860.5999755859375</ele>
        <time>2014-11-14T13:28:39Z</time>
      </trkpt>
      <trkpt lat="46.611407725140452" lon="7.176686665043235">
        <ele>861.20001220703125</ele>
        <time>2014-11-14T13:28:42Z</time>
      </trkpt>
      <trkpt lat="46.611416274681687" lon="7.1768818795681">
        <ele>862</ele>
        <time>2014-11-14T13:28:47Z</time>
      </trkpt>
      <trkpt lat="46.611416693776846" lon="7.176920268684626">
        <ele>862.20001220703125</ele>
        <time>2014-11-14T13:28:48Z</time>
      </trkpt>
      <trkpt lat="46.611419375985861" lon="7.177104335278273">
        <ele>863.20001220703125</ele>
        <time>2014-11-14T13:28:53Z</time>
      </trkpt>
      <trkpt lat="46.611418286338449" lon="7.177179101854563">
        <ele>863.5999755859375</ele>
        <time>2014-11-14T13:28:55Z</time>
      </trkpt>
      <trkpt lat="46.611424405127764" lon="7.177318157628179">
        <ele>864.20001220703125</ele>
        <time>2014-11-14T13:28:59Z</time>
      </trkpt>
      <trkpt lat="46.611430607736111" lon="7.177459225058556">
        <ele>864.79998779296875</ele>
        <time>2014-11-14T13:29:03Z</time>
      </trkpt>
      <trkpt lat="46.611428679898381" lon="7.177570955827832">
        <ele>865.20001220703125</ele>
        <time>2014-11-14T13:29:06Z</time>
      </trkpt>
      <trkpt lat="46.61143546923995" lon="7.177717722952366">
        <ele>865.79998779296875</ele>
        <time>2014-11-14T13:29:10Z</time>
      </trkpt>
      <trkpt lat="46.611427087336779" lon="7.177825598046184">
        <ele>866.4000244140625</ele>
        <time>2014-11-14T13:29:13Z</time>
      </trkpt>
      <trkpt lat="46.611401522532105" lon="7.178020477294922">
        <ele>867.20001220703125</ele>
        <time>2014-11-14T13:29:18Z</time>
      </trkpt>
      <trkpt lat="46.611379813402891" lon="7.178136399015784">
        <ele>867.5999755859375</ele>
        <time>2014-11-14T13:29:21Z</time>
      </trkpt>
      <trkpt lat="46.611348129808903" lon="7.178242010995746">
        <ele>868.20001220703125</ele>
        <time>2014-11-14T13:29:24Z</time>
      </trkpt>
      <trkpt lat="46.611289540305734" lon="7.178397243842483">
        <ele>868.79998779296875</ele>
        <time>2014-11-14T13:29:28Z</time>
      </trkpt>
      <trkpt lat="46.6112463735044" lon="7.178506795316935">
        <ele>869</ele>
        <time>2014-11-14T13:29:31Z</time>
      </trkpt>
      <trkpt lat="46.611114526167512" lon="7.178767304867506">
        <ele>869.79998779296875</ele>
        <time>2014-11-14T13:29:38Z</time>
      </trkpt>
      <trkpt lat="46.61109390668571" lon="7.178804017603397">
        <ele>869.79998779296875</ele>
        <time>2014-11-14T13:29:39Z</time>
      </trkpt>
      <trkpt lat="46.610916126519442" lon="7.179126888513565">
        <ele>870.20001220703125</ele>
        <time>2014-11-14T13:29:47Z</time>
      </trkpt>
      <trkpt lat="46.610766761004925" lon="7.179515808820725">
        <ele>870.4000244140625</ele>
        <time>2014-11-14T13:29:55Z</time>
      </trkpt>
      <trkpt lat="46.610709764063358" lon="7.179742371663451">
        <ele>870.79998779296875</ele>
        <time>2014-11-14T13:29:59Z</time>
      </trkpt>
      <trkpt lat="46.610661987215281" lon="7.179963486269116">
        <ele>870.79998779296875</ele>
        <time>2014-11-14T13:30:03Z</time>
      </trkpt>
      <trkpt lat="46.610575318336487" lon="7.180401859804988">
        <ele>871</ele>
        <time>2014-11-14T13:30:10Z</time>
      </trkpt>
      <trkpt lat="46.610473645851016" lon="7.18090913258493">
        <ele>871.4000244140625</ele>
        <time>2014-11-14T13:30:18Z</time>
      </trkpt>
      <trkpt lat="46.610389910638332" lon="7.181276511400938">
        <ele>871.79998779296875</ele>
        <time>2014-11-14T13:30:24Z</time>
      </trkpt>
      <trkpt lat="46.610310534015298" lon="7.181585552170873">
        <ele>871.5999755859375</ele>
        <time>2014-11-14T13:30:29Z</time>
      </trkpt>
      <trkpt lat="46.6101826261729" lon="7.182244788855314">
        <ele>871.79998779296875</ele>
        <time>2014-11-14T13:30:39Z</time>
      </trkpt>
      <trkpt lat="46.6100565623492" lon="7.182802269235253">
        <ele>872.20001220703125</ele>
        <time>2014-11-14T13:30:48Z</time>
      </trkpt>
      <trkpt lat="46.609943490475416" lon="7.183334771543741">
        <ele>872.4000244140625</ele>
        <time>2014-11-14T13:30:56Z</time>
      </trkpt>
      <trkpt lat="46.609830502420664" lon="7.183872889727354">
        <ele>872.5999755859375</ele>
        <time>2014-11-14T13:31:04Z</time>
      </trkpt>
      <trkpt lat="46.60969546996057" lon="7.18449080362916">
        <ele>872.5999755859375</ele>
        <time>2014-11-14T13:31:13Z</time>
      </trkpt>
      <trkpt lat="46.60966663621366" lon="7.18462809920311">
        <ele>872.79998779296875</ele>
        <time>2014-11-14T13:31:15Z</time>
      </trkpt>
      <trkpt lat="46.609536129981279" lon="7.18524819239974">
        <ele>873</ele>
        <time>2014-11-14T13:31:24Z</time>
      </trkpt>
      <trkpt lat="46.609416352584958" lon="7.185785807669163">
        <ele>873.20001220703125</ele>
        <time>2014-11-14T13:31:32Z</time>
      </trkpt>
      <trkpt lat="46.609284002333879" lon="7.186383353546262">
        <ele>873.5999755859375</ele>
        <time>2014-11-14T13:31:41Z</time>
      </trkpt>
      <trkpt lat="46.609210073947906" lon="7.186725670471788">
        <ele>873.79998779296875</ele>
        <time>2014-11-14T13:31:46Z</time>
      </trkpt>
      <trkpt lat="46.609151316806674" lon="7.187008056789637">
        <ele>874</ele>
        <time>2014-11-14T13:31:50Z</time>
      </trkpt>
      <trkpt lat="46.608989126980305" lon="7.187749100849032">
        <ele>874.5999755859375</ele>
        <time>2014-11-14T13:32:01Z</time>
      </trkpt>
      <trkpt lat="46.608911678195" lon="7.188086053356528">
        <ele>874.79998779296875</ele>
        <time>2014-11-14T13:32:06Z</time>
      </trkpt>
      <trkpt lat="46.608883095905185" lon="7.188223684206605">
        <ele>875</ele>
        <time>2014-11-14T13:32:08Z</time>
      </trkpt>
      <trkpt lat="46.608752924948931" lon="7.188869928941131">
        <ele>875.4000244140625</ele>
        <time>2014-11-14T13:32:17Z</time>
      </trkpt>
      <trkpt lat="46.608638511970639" lon="7.189438221976161">
        <ele>875.79998779296875</ele>
        <time>2014-11-14T13:32:25Z</time>
      </trkpt>
      <trkpt lat="46.608497612178326" lon="7.190095698460937">
        <ele>876.20001220703125</ele>
        <time>2014-11-14T13:32:35Z</time>
      </trkpt>
      <trkpt lat="46.608381439000368" lon="7.190622165799141">
        <ele>876.4000244140625</ele>
        <time>2014-11-14T13:32:43Z</time>
      </trkpt>
      <trkpt lat="46.608242802321911" lon="7.191252987831831">
        <ele>876.5999755859375</ele>
        <time>2014-11-14T13:32:52Z</time>
      </trkpt>
      <trkpt lat="46.608122522011399" lon="7.191825387999415">
        <ele>877</ele>
        <time>2014-11-14T13:33:00Z</time>
      </trkpt>
      <trkpt lat="46.608093185350299" lon="7.19196880236268">
        <ele>877</ele>
        <time>2014-11-14T13:33:02Z</time>
      </trkpt>
      <trkpt lat="46.607969971373677" lon="7.192553607746959">
        <ele>877</ele>
        <time>2014-11-14T13:33:10Z</time>
      </trkpt>
      <trkpt lat="46.60785187035799" lon="7.193143861368299">
        <ele>877.5999755859375</ele>
        <time>2014-11-14T13:33:18Z</time>
      </trkpt>
      <trkpt lat="46.607732679694891" lon="7.193712405860424">
        <ele>878.20001220703125</ele>
        <time>2014-11-14T13:33:26Z</time>
      </trkpt>
      <trkpt lat="46.607718681916595" lon="7.193783819675446">
        <ele>878.20001220703125</ele>
        <time>2014-11-14T13:33:27Z</time>
      </trkpt>
      <trkpt lat="46.607575016096234" lon="7.19448572024703">
        <ele>878.79998779296875</ele>
        <time>2014-11-14T13:33:37Z</time>
      </trkpt>
      <trkpt lat="46.60748491063714" lon="7.194911269471049">
        <ele>879.20001220703125</ele>
        <time>2014-11-14T13:33:43Z</time>
      </trkpt>
      <trkpt lat="46.6074438393116" lon="7.195119392126799">
        <ele>879.4000244140625</ele>
        <time>2014-11-14T13:33:46Z</time>
      </trkpt>
      <trkpt lat="46.60739840939641" lon="7.195327430963516">
        <ele>879.4000244140625</ele>
        <time>2014-11-14T13:33:49Z</time>
      </trkpt>
      <trkpt lat="46.60733831115067" lon="7.195589868351817">
        <ele>879.79998779296875</ele>
        <time>2014-11-14T13:33:53Z</time>
      </trkpt>
      <trkpt lat="46.607222557067871" lon="7.196130082011223">
        <ele>879.79998779296875</ele>
        <time>2014-11-14T13:34:01Z</time>
      </trkpt>
      <trkpt lat="46.607110071927309" lon="7.196654370054603">
        <ele>880.20001220703125</ele>
        <time>2014-11-14T13:34:09Z</time>
      </trkpt>
      <trkpt lat="46.607099091634154" lon="7.196718994528055">
        <ele>880.4000244140625</ele>
        <time>2014-11-14T13:34:10Z</time>
      </trkpt>
      <trkpt lat="46.607010830193758" lon="7.197164744138718">
        <ele>880.20001220703125</ele>
        <time>2014-11-14T13:34:17Z</time>
      </trkpt>
      <trkpt lat="46.606861464679241" lon="7.19765106216073">
        <ele>880.5999755859375</ele>
        <time>2014-11-14T13:34:25Z</time>
      </trkpt>
      <trkpt lat="46.606641104444861" lon="7.198057249188423">
        <ele>881.4000244140625</ele>
        <time>2014-11-14T13:34:33Z</time>
      </trkpt>
      <trkpt lat="46.606569439172745" lon="7.198145426809788">
        <ele>881.4000244140625</ele>
        <time>2014-11-14T13:34:35Z</time>
      </trkpt>
      <trkpt lat="46.60640699788928" lon="7.198286578059197">
        <ele>881.79998779296875</ele>
        <time>2014-11-14T13:34:39Z</time>
      </trkpt>
      <trkpt lat="46.606282023712993" lon="7.19838447868824">
        <ele>881.4000244140625</ele>
        <time>2014-11-14T13:34:42Z</time>
      </trkpt>
      <trkpt lat="46.60611036233604" lon="7.198505010455847">
        <ele>882.4000244140625</ele>
        <time>2014-11-14T13:34:46Z</time>
      </trkpt>
      <trkpt lat="46.606065770611167" lon="7.198533844202757">
        <ele>882.5999755859375</ele>
        <time>2014-11-14T13:34:47Z</time>
      </trkpt>
      <trkpt lat="46.605807105079293" lon="7.198681952431798">
        <ele>883.20001220703125</ele>
        <time>2014-11-14T13:34:53Z</time>
      </trkpt>
      <trkpt lat="46.605582470074296" lon="7.19880860298872">
        <ele>883.5999755859375</ele>
        <time>2014-11-14T13:34:58Z</time>
      </trkpt>
      <trkpt lat="46.605446599423885" lon="7.198884543031454">
        <ele>883.79998779296875</ele>
        <time>2014-11-14T13:35:01Z</time>
      </trkpt>
      <trkpt lat="46.605061199516058" lon="7.199123678728938">
        <ele>884.4000244140625</ele>
        <time>2014-11-14T13:35:10Z</time>
      </trkpt>
      <trkpt lat="46.60492985509336" lon="7.199209928512573">
        <ele>884.5999755859375</ele>
        <time>2014-11-14T13:35:13Z</time>
      </trkpt>
      <trkpt lat="46.604680744931102" lon="7.199414782226086">
        <ele>885.4000244140625</ele>
        <time>2014-11-14T13:35:19Z</time>
      </trkpt>
      <trkpt lat="46.604598602280021" lon="7.199482340365648">
        <ele>885.4000244140625</ele>
        <time>2014-11-14T13:35:21Z</time>
      </trkpt>
      <trkpt lat="46.604523500427604" lon="7.199548305943608">
        <ele>885.79998779296875</ele>
        <time>2014-11-14T13:35:23Z</time>
      </trkpt>
      <trkpt lat="46.604412188753486" lon="7.199661629274488">
        <ele>886</ele>
        <time>2014-11-14T13:35:26Z</time>
      </trkpt>
      <trkpt lat="46.604144973680377" lon="7.19991191290319">
        <ele>886.79998779296875</ele>
        <time>2014-11-14T13:35:33Z</time>
      </trkpt>
      <trkpt lat="46.604072973132133" lon="7.199987936764956">
        <ele>886.79998779296875</ele>
        <time>2014-11-14T13:35:35Z</time>
      </trkpt>
      <trkpt lat="46.603885386139154" lon="7.200174266472459">
        <ele>887</ele>
        <time>2014-11-14T13:35:40Z</time>
      </trkpt>
      <trkpt lat="46.603587996214628" lon="7.200484480708838">
        <ele>887.4000244140625</ele>
        <time>2014-11-14T13:35:48Z</time>
      </trkpt>
      <trkpt lat="46.603238387033343" lon="7.200805423781276">
        <ele>887.4000244140625</ele>
        <time>2014-11-14T13:35:57Z</time>
      </trkpt>
      <trkpt lat="46.603018948808312" lon="7.201053947210312">
        <ele>887.79998779296875</ele>
        <time>2014-11-14T13:36:03Z</time>
      </trkpt>
      <trkpt lat="46.602893052622676" lon="7.201229128986597">
        <ele>887.79998779296875</ele>
        <time>2014-11-14T13:36:07Z</time>
      </trkpt>
      <trkpt lat="46.602807305753231" lon="7.20137388445437">
        <ele>888</ele>
        <time>2014-11-14T13:36:10Z</time>
      </trkpt>
      <trkpt lat="46.602617204189301" lon="7.201701113954186">
        <ele>888.79998779296875</ele>
        <time>2014-11-14T13:36:17Z</time>
      </trkpt>
      <trkpt lat="46.602587196975946" lon="7.201749561354518">
        <ele>889</ele>
        <time>2014-11-14T13:36:18Z</time>
      </trkpt>
      <trkpt lat="46.602384941652417" lon="7.202165890485048">
        <ele>889.4000244140625</ele>
        <time>2014-11-14T13:36:26Z</time>
      </trkpt>
      <trkpt lat="46.602190900593996" lon="7.202637959271669">
        <ele>890.20001220703125</ele>
        <time>2014-11-14T13:36:35Z</time>
      </trkpt>
      <trkpt lat="46.60214563831687" lon="7.202748684212565">
        <ele>890.20001220703125</ele>
        <time>2014-11-14T13:36:37Z</time>
      </trkpt>
      <trkpt lat="46.602041032165289" lon="7.202908443287015">
        <ele>890</ele>
        <time>2014-11-14T13:36:42Z</time>
      </trkpt>
      <trkpt lat="46.601923182606697" lon="7.202812302857637">
        <ele>889.79998779296875</ele>
        <time>2014-11-14T13:36:45Z</time>
      </trkpt>
      <trkpt lat="46.601879764348269" lon="7.202774500474334">
        <ele>889.79998779296875</ele>
        <time>2014-11-14T13:36:46Z</time>
      </trkpt>
      <trkpt lat="46.601541638374329" lon="7.202486330643296">
        <ele>890</ele>
        <time>2014-11-14T13:36:54Z</time>
      </trkpt>
      <trkpt lat="46.601202925667167" lon="7.202239483594894">
        <ele>890.20001220703125</ele>
        <time>2014-11-14T13:37:02Z</time>
      </trkpt>
      <trkpt lat="46.600881731137633" lon="7.201939998194575">
        <ele>891</ele>
        <time>2014-11-14T13:37:11Z</time>
      </trkpt>
      <trkpt lat="46.600854322314262" lon="7.201901273801923">
        <ele>891.20001220703125</ele>
        <time>2014-11-14T13:37:12Z</time>
      </trkpt>
      <trkpt lat="46.600650809705257" lon="7.201592735946178">
        <ele>891.5999755859375</ele>
        <time>2014-11-14T13:37:19Z</time>
      </trkpt>
      <trkpt lat="46.600489877164364" lon="7.201476059854031">
        <ele>892</ele>
        <time>2014-11-14T13:37:24Z</time>
      </trkpt>
      <trkpt lat="46.600427264347672" lon="7.201431468129158">
        <ele>892.20001220703125</ele>
        <time>2014-11-14T13:37:26Z</time>
      </trkpt>
      <trkpt lat="46.60024537704885" lon="7.201311020180583">
        <ele>893.20001220703125</ele>
        <time>2014-11-14T13:37:32Z</time>
      </trkpt>
      <trkpt lat="46.600219309329987" lon="7.201296603307128">
        <ele>893.20001220703125</ele>
        <time>2014-11-14T13:37:33Z</time>
      </trkpt>
      <trkpt lat="46.600086539983749" lon="7.201197864487767">
        <ele>894.4000244140625</ele>
        <time>2014-11-14T13:37:39Z</time>
      </trkpt>
      <trkpt lat="46.59990674816072" lon="7.201106585562229">
        <ele>895.20001220703125</ele>
        <time>2014-11-14T13:37:47Z</time>
      </trkpt>
      <trkpt lat="46.599745145067573" lon="7.20116232521832">
        <ele>895</ele>
        <time>2014-11-14T13:37:52Z</time>
      </trkpt>
      <trkpt lat="46.599663086235523" lon="7.201237259432674">
        <ele>895.4000244140625</ele>
        <time>2014-11-14T13:37:55Z</time>
      </trkpt>
      <trkpt lat="46.59954029135406" lon="7.201327197253704">
        <ele>895.5999755859375</ele>
        <time>2014-11-14T13:37:59Z</time>
      </trkpt>
      <trkpt lat="46.599313728511333" lon="7.201400706544519">
        <ele>896</ele>
        <time>2014-11-14T13:38:05Z</time>
      </trkpt>
      <trkpt lat="46.598978117108345" lon="7.201430462300777">
        <ele>896.4000244140625</ele>
        <time>2014-11-14T13:38:13Z</time>
      </trkpt>
      <trkpt lat="46.598936961963773" lon="7.201432138681412">
        <ele>896.4000244140625</ele>
        <time>2014-11-14T13:38:14Z</time>
      </trkpt>
      <trkpt lat="46.59869397059083" lon="7.201464073732495">
        <ele>896.79998779296875</ele>
        <time>2014-11-14T13:38:20Z</time>
      </trkpt>
      <trkpt lat="46.598425414413214" lon="7.201537499204278">
        <ele>897.4000244140625</ele>
        <time>2014-11-14T13:38:27Z</time>
      </trkpt>
      <trkpt lat="46.598079577088356" lon="7.201607739552856">
        <ele>898.20001220703125</ele>
        <time>2014-11-14T13:38:36Z</time>
      </trkpt>
      <trkpt lat="46.597970528528094" lon="7.201634142547846">
        <ele>898.5999755859375</ele>
        <time>2014-11-14T13:38:39Z</time>
      </trkpt>
      <trkpt lat="46.59785988740623" lon="7.201657276600599">
        <ele>898.5999755859375</ele>
        <time>2014-11-14T13:38:42Z</time>
      </trkpt>
      <trkpt lat="46.597593761980534" lon="7.201660545542836">
        <ele>899.20001220703125</ele>
        <time>2014-11-14T13:38:49Z</time>
      </trkpt>
      <trkpt lat="46.597401229664683" lon="7.201623329892755">
        <ele>899.5999755859375</ele>
        <time>2014-11-14T13:38:55Z</time>
      </trkpt>
      <trkpt lat="46.597178522497416" lon="7.20152878202498">
        <ele>900.20001220703125</ele>
        <time>2014-11-14T13:39:02Z</time>
      </trkpt>
      <trkpt lat="46.597059080377221" lon="7.201403807848692">
        <ele>900.5999755859375</ele>
        <time>2014-11-14T13:39:06Z</time>
      </trkpt>
      <trkpt lat="46.597013985738158" lon="7.201327029615641">
        <ele>900.79998779296875</ele>
        <time>2014-11-14T13:39:08Z</time>
      </trkpt>
      <trkpt lat="46.596831260249019" lon="7.201058221980929">
        <ele>901.5999755859375</ele>
        <time>2014-11-14T13:39:16Z</time>
      </trkpt>
      <trkpt lat="46.596660939976573" lon="7.200805339962244">
        <ele>902.20001220703125</ele>
        <time>2014-11-14T13:39:23Z</time>
      </trkpt>
      <trkpt lat="46.59646631218493" lon="7.200540388002992">
        <ele>902.79998779296875</ele>
        <time>2014-11-14T13:39:30Z</time>
      </trkpt>
      <trkpt lat="46.596266319975257" lon="7.200228832662106">
        <ele>903.20001220703125</ele>
        <time>2014-11-14T13:39:38Z</time>
      </trkpt>
      <trkpt lat="46.596164312213659" lon="7.200069408863783">
        <ele>903.79998779296875</ele>
        <time>2014-11-14T13:39:42Z</time>
      </trkpt>
      <trkpt lat="46.596047636121511" lon="7.199957426637411">
        <ele>904.20001220703125</ele>
        <time>2014-11-14T13:39:46Z</time>
      </trkpt>
      <trkpt lat="46.595847560092807" lon="7.199840750545263">
        <ele>904.5999755859375</ele>
        <time>2014-11-14T13:39:52Z</time>
      </trkpt>
      <trkpt lat="46.595612447708845" lon="7.199784424155951">
        <ele>904.5999755859375</ele>
        <time>2014-11-14T13:39:58Z</time>
      </trkpt>
      <trkpt lat="46.59553793258965" lon="7.199768414720893">
        <ele>904.79998779296875</ele>
        <time>2014-11-14T13:40:00Z</time>
      </trkpt>
      <trkpt lat="46.595322182402015" lon="7.199700772762299">
        <ele>905.5999755859375</ele>
        <time>2014-11-14T13:40:06Z</time>
      </trkpt>
      <trkpt lat="46.595290163531899" lon="7.199694653972983">
        <ele>905.79998779296875</ele>
        <time>2014-11-14T13:40:07Z</time>
      </trkpt>
      <trkpt lat="46.595153622329235" lon="7.199665317311883">
        <ele>906.4000244140625</ele>
        <time>2014-11-14T13:40:12Z</time>
      </trkpt>
      <trkpt lat="46.595016242936254" lon="7.199590550735593">
        <ele>906.79998779296875</ele>
        <time>2014-11-14T13:40:17Z</time>
      </trkpt>
      <trkpt lat="46.594785740599036" lon="7.199478903785348">
        <ele>907.4000244140625</ele>
        <time>2014-11-14T13:40:24Z</time>
      </trkpt>
      <trkpt lat="46.594611229375005" lon="7.199452752247453">
        <ele>908</ele>
        <time>2014-11-14T13:40:29Z</time>
      </trkpt>
      <trkpt lat="46.594548532739282" lon="7.19944235868752">
        <ele>908.4000244140625</ele>
        <time>2014-11-14T13:40:31Z</time>
      </trkpt>
      <trkpt lat="46.594280395656824" lon="7.199398688971996">
        <ele>908.79998779296875</ele>
        <time>2014-11-14T13:40:39Z</time>
      </trkpt>
      <trkpt lat="46.594197330996394" lon="7.199397599324584">
        <ele>909</ele>
        <time>2014-11-14T13:40:41Z</time>
      </trkpt>
      <trkpt lat="46.594013767316937" lon="7.199406484141946">
        <ele>909.20001220703125</ele>
        <time>2014-11-14T13:40:45Z</time>
      </trkpt>
      <trkpt lat="46.593650160357356" lon="7.199367424473167">
        <ele>910</ele>
        <time>2014-11-14T13:40:54Z</time>
      </trkpt>
      <trkpt lat="46.593508338555694" lon="7.199315205216408">
        <ele>910.20001220703125</ele>
        <time>2014-11-14T13:40:58Z</time>
      </trkpt>
      <trkpt lat="46.593403900042176" lon="7.199267679825425">
        <ele>910.4000244140625</ele>
        <time>2014-11-14T13:41:01Z</time>
      </trkpt>
      <trkpt lat="46.593202482908964" lon="7.199177406728268">
        <ele>911</ele>
        <time>2014-11-14T13:41:07Z</time>
      </trkpt>
      <trkpt lat="46.593132829293609" lon="7.199157038703561">
        <ele>911.20001220703125</ele>
        <time>2014-11-14T13:41:09Z</time>
      </trkpt>
      <trkpt lat="46.592961419373751" lon="7.19908369705081">
        <ele>911.5999755859375</ele>
        <time>2014-11-14T13:41:14Z</time>
      </trkpt>
      <trkpt lat="46.592868966981769" lon="7.199054947122932">
        <ele>912.20001220703125</ele>
        <time>2014-11-14T13:41:17Z</time>
      </trkpt>
      <trkpt lat="46.592739131301641" lon="7.199028711766005">
        <ele>912.5999755859375</ele>
        <time>2014-11-14T13:41:21Z</time>
      </trkpt>
      <trkpt lat="46.592582054436207" lon="7.199012786149979">
        <ele>913.4000244140625</ele>
        <time>2014-11-14T13:41:26Z</time>
      </trkpt>
      <trkpt lat="46.592553639784455" lon="7.199007840827107">
        <ele>913.4000244140625</ele>
        <time>2014-11-14T13:41:27Z</time>
      </trkpt>
      <trkpt lat="46.592348534613848" lon="7.199007337912917">
        <ele>914</ele>
        <time>2014-11-14T13:41:34Z</time>
      </trkpt>
      <trkpt lat="46.592228002846241" lon="7.199057964608073">
        <ele>914.5999755859375</ele>
        <time>2014-11-14T13:41:38Z</time>
      </trkpt>
      <trkpt lat="46.592080648988485" lon="7.199056874960661">
        <ele>915.79998779296875</ele>
        <time>2014-11-14T13:41:43Z</time>
      </trkpt>
      <trkpt lat="46.591945365071297" lon="7.198973139747977">
        <ele>916.79998779296875</ele>
        <time>2014-11-14T13:41:49Z</time>
      </trkpt>
      <trkpt lat="46.59192156046629" lon="7.198966518044472">
        <ele>917</ele>
        <time>2014-11-14T13:41:50Z</time>
      </trkpt>
      <trkpt lat="46.591689717024565" lon="7.198864342644811">
        <ele>917.79998779296875</ele>
        <time>2014-11-14T13:41:58Z</time>
      </trkpt>
      <trkpt lat="46.591451838612556" lon="7.198736602440476">
        <ele>917.5999755859375</ele>
        <time>2014-11-14T13:42:05Z</time>
      </trkpt>
      <trkpt lat="46.591210355982184" lon="7.19861414283514">
        <ele>917.20001220703125</ele>
        <time>2014-11-14T13:42:13Z</time>
      </trkpt>
      <trkpt lat="46.591047327965498" lon="7.198580363765359">
        <ele>917.5999755859375</ele>
        <time>2014-11-14T13:42:19Z</time>
      </trkpt>
      <trkpt lat="46.590957809239626" lon="7.198609951883555">
        <ele>918</ele>
        <time>2014-11-14T13:42:22Z</time>
      </trkpt>
      <trkpt lat="46.590899471193552" lon="7.198627721518278">
        <ele>918</ele>
        <time>2014-11-14T13:42:24Z</time>
      </trkpt>
      <trkpt lat="46.590742394328117" lon="7.198665607720614">
        <ele>919</ele>
        <time>2014-11-14T13:42:30Z</time>
      </trkpt>
      <trkpt lat="46.590717751532793" lon="7.198668038472533">
        <ele>919</ele>
        <time>2014-11-14T13:42:31Z</time>
      </trkpt>
      <trkpt lat="46.590560004115105" lon="7.198657309636474">
        <ele>920</ele>
        <time>2014-11-14T13:42:37Z</time>
      </trkpt>
      <trkpt lat="46.590522956103086" lon="7.198650352656841">
        <ele>920.20001220703125</ele>
        <time>2014-11-14T13:42:38Z</time>
      </trkpt>
      <trkpt lat="46.590347774326801" lon="7.198614478111267">
        <ele>920.4000244140625</ele>
        <time>2014-11-14T13:42:43Z</time>
      </trkpt>
      <trkpt lat="46.590095814317465" lon="7.198538118973374">
        <ele>920.79998779296875</ele>
        <time>2014-11-14T13:42:51Z</time>
      </trkpt>
      <trkpt lat="46.590008307248354" lon="7.198485312983394">
        <ele>921.20001220703125</ele>
        <time>2014-11-14T13:42:54Z</time>
      </trkpt>
      <trkpt lat="46.58989523537457" lon="7.198433261364698">
        <ele>921.4000244140625</ele>
        <time>2014-11-14T13:42:58Z</time>
      </trkpt>
      <trkpt lat="46.589685017243028" lon="7.198293702676892">
        <ele>922.20001220703125</ele>
        <time>2014-11-14T13:43:06Z</time>
      </trkpt>
      <trkpt lat="46.589653501287103" lon="7.198277693241835">
        <ele>922.20001220703125</ele>
        <time>2014-11-14T13:43:07Z</time>
      </trkpt>
      <trkpt lat="46.589463818818331" lon="7.198204519227147">
        <ele>922.79998779296875</ele>
        <time>2014-11-14T13:43:13Z</time>
      </trkpt>
      <trkpt lat="46.589269610121846" lon="7.198163783177733">
        <ele>923.4000244140625</ele>
        <time>2014-11-14T13:43:19Z</time>
      </trkpt>
      <trkpt lat="46.589236920699477" lon="7.198155485093594">
        <ele>923.5999755859375</ele>
        <time>2014-11-14T13:43:20Z</time>
      </trkpt>
      <trkpt lat="46.589004909619689" lon="7.198086585849524">
        <ele>923.79998779296875</ele>
        <time>2014-11-14T13:43:27Z</time>
      </trkpt>
      <trkpt lat="46.588750267401338" lon="7.198091950267553">
        <ele>924.20001220703125</ele>
        <time>2014-11-14T13:43:34Z</time>
      </trkpt>
      <trkpt lat="46.588692348450422" lon="7.19812111929059">
        <ele>924.5999755859375</ele>
        <time>2014-11-14T13:43:36Z</time>
      </trkpt>
      <trkpt lat="46.588562512770295" lon="7.198206027969718">
        <ele>925.20001220703125</ele>
        <time>2014-11-14T13:43:41Z</time>
      </trkpt>
      <trkpt lat="46.58851582556963" lon="7.198226312175393">
        <ele>925.5999755859375</ele>
        <time>2014-11-14T13:43:43Z</time>
      </trkpt>
      <trkpt lat="46.588398227468133" lon="7.198266964405775">
        <ele>926.20001220703125</ele>
        <time>2014-11-14T13:43:47Z</time>
      </trkpt>
      <trkpt lat="46.588276606053114" lon="7.198319435119629">
        <ele>926.79998779296875</ele>
        <time>2014-11-14T13:43:51Z</time>
      </trkpt>
      <trkpt lat="46.588193709030747" lon="7.19833561219275">
        <ele>927.4000244140625</ele>
        <time>2014-11-14T13:43:55Z</time>
      </trkpt>
      <trkpt lat="46.588164875283837" lon="7.198354722931981">
        <ele>928</ele>
        <time>2014-11-14T13:43:57Z</time>
      </trkpt>
      <trkpt lat="46.588087510317564" lon="7.198378778994083">
        <ele>929</ele>
        <time>2014-11-14T13:44:01Z</time>
      </trkpt>
      <trkpt lat="46.588069824501872" lon="7.198384394869208">
        <ele>929.20001220703125</ele>
        <time>2014-11-14T13:44:02Z</time>
      </trkpt>
      <trkpt lat="46.588017521426082" lon="7.198399566113949">
        <ele>930.4000244140625</ele>
        <time>2014-11-14T13:44:06Z</time>
      </trkpt>
      <trkpt lat="46.587990531697869" lon="7.198401996865869">
        <ele>930.79998779296875</ele>
        <time>2014-11-14T13:44:08Z</time>
      </trkpt>
      <trkpt lat="46.587937641888857" lon="7.198449186980724">
        <ele>931.4000244140625</ele>
        <time>2014-11-14T13:44:12Z</time>
      </trkpt>
      <trkpt lat="46.587903862819076" lon="7.198450695723295">
        <ele>932.20001220703125</ele>
        <time>2014-11-14T13:44:15Z</time>
      </trkpt>
      <trkpt lat="46.587890451774001" lon="7.198448851704598">
        <ele>932.4000244140625</ele>
        <time>2014-11-14T13:44:16Z</time>
      </trkpt>
      <trkpt lat="46.587879303842783" lon="7.198450192809105">
        <ele>932.5999755859375</ele>
        <time>2014-11-14T13:44:17Z</time>
      </trkpt>
      <trkpt lat="46.587768578901887" lon="7.198412474244833">
        <ele>935.20001220703125</ele>
        <time>2014-11-14T13:44:29Z</time>
      </trkpt>
      <trkpt lat="46.587721137329936" lon="7.19833561219275">
        <ele>937.20001220703125</ele>
        <time>2014-11-14T13:44:36Z</time>
      </trkpt>
      <trkpt lat="46.587716359645128" lon="7.198320273309946">
        <ele>937.4000244140625</ele>
        <time>2014-11-14T13:44:37Z</time>
      </trkpt>
      <trkpt lat="46.587704960256815" lon="7.198287164792419">
        <ele>938</ele>
        <time>2014-11-14T13:44:39Z</time>
      </trkpt>
      <trkpt lat="46.587688783183694" lon="7.198261432349682">
        <ele>938.5999755859375</ele>
        <time>2014-11-14T13:44:41Z</time>
      </trkpt>
      <trkpt lat="46.587648717686534" lon="7.198208458721638">
        <ele>939.5999755859375</ele>
        <time>2014-11-14T13:44:45Z</time>
      </trkpt>
      <trkpt lat="46.587623488157988" lon="7.198178786784411">
        <ele>940.20001220703125</ele>
        <time>2014-11-14T13:44:47Z</time>
      </trkpt>
      <trkpt lat="46.587589541450143" lon="7.198166213929653">
        <ele>940.5999755859375</ele>
        <time>2014-11-14T13:44:49Z</time>
      </trkpt>
      <trkpt lat="46.587559031322598" lon="7.198175014927983">
        <ele>941</ele>
        <time>2014-11-14T13:44:51Z</time>
      </trkpt>
      <trkpt lat="46.587530951946974" lon="7.198164286091924">
        <ele>941.4000244140625</ele>
        <time>2014-11-14T13:44:53Z</time>
      </trkpt>
      <trkpt lat="46.587519217282534" lon="7.198158670216799">
        <ele>942</ele>
        <time>2014-11-14T13:44:54Z</time>
      </trkpt>
      <trkpt lat="46.587457526475191" lon="7.198134027421475">
        <ele>942.79998779296875</ele>
        <time>2014-11-14T13:44:58Z</time>
      </trkpt>
      <trkpt lat="46.587440762668848" lon="7.198131596669555">
        <ele>943</ele>
        <time>2014-11-14T13:44:59Z</time>
      </trkpt>
      <trkpt lat="46.587427016347647" lon="7.198130339384079">
        <ele>943.20001220703125</ele>
        <time>2014-11-14T13:45:00Z</time>
      </trkpt>
      <trkpt lat="46.587367169559002" lon="7.198097398504615">
        <ele>944.20001220703125</ele>
        <time>2014-11-14T13:45:05Z</time>
      </trkpt>
      <trkpt lat="46.587356021627784" lon="7.198087256401777">
        <ele>944.4000244140625</ele>
        <time>2014-11-14T13:45:06Z</time>
      </trkpt>
      <trkpt lat="46.58732601441443" lon="7.198051549494267">
        <ele>945.20001220703125</ele>
        <time>2014-11-14T13:45:10Z</time>
      </trkpt>
      <trkpt lat="46.587271867319942" lon="7.197976699098945">
        <ele>947</ele>
        <time>2014-11-14T13:45:18Z</time>
      </trkpt>
      <trkpt lat="46.587235992774367" lon="7.197915343567729">
        <ele>947.4000244140625</ele>
        <time>2014-11-14T13:45:22Z</time>
      </trkpt>
      <trkpt lat="46.587194418534636" lon="7.197860023006797">
        <ele>947.79998779296875</ele>
        <time>2014-11-14T13:45:25Z</time>
      </trkpt>
      <trkpt lat="46.587086459621787" lon="7.197807971388102">
        <ele>948.20001220703125</ele>
        <time>2014-11-14T13:45:31Z</time>
      </trkpt>
      <trkpt lat="46.587071120738983" lon="7.197802187874913">
        <ele>948.4000244140625</ele>
        <time>2014-11-14T13:45:32Z</time>
      </trkpt>
      <trkpt lat="46.586940446868539" lon="7.197739575058222">
        <ele>949.20001220703125</ele>
        <time>2014-11-14T13:45:38Z</time>
      </trkpt>
      <trkpt lat="46.586918234825134" lon="7.197730941697955">
        <ele>949.4000244140625</ele>
        <time>2014-11-14T13:45:39Z</time>
      </trkpt>
      <trkpt lat="46.5868457313627" lon="7.197697581723332">
        <ele>950.20001220703125</ele>
        <time>2014-11-14T13:45:43Z</time>
      </trkpt>
      <trkpt lat="46.58681832253933" lon="7.197688026353717">
        <ele>950.5999755859375</ele>
        <time>2014-11-14T13:45:45Z</time>
      </trkpt>
      <trkpt lat="46.586806252598763" lon="7.197684003040195">
        <ele>950.79998779296875</ele>
        <time>2014-11-14T13:45:46Z</time>
      </trkpt>
      <trkpt lat="46.586795188486576" lon="7.197674950584769">
        <ele>951</ele>
        <time>2014-11-14T13:45:47Z</time>
      </trkpt>
      <trkpt lat="46.586773144081235" lon="7.197624826803803">
        <ele>951.4000244140625</ele>
        <time>2014-11-14T13:45:50Z</time>
      </trkpt>
      <trkpt lat="46.586748752743006" lon="7.197601357474923">
        <ele>951.79998779296875</ele>
        <time>2014-11-14T13:45:52Z</time>
      </trkpt>
      <trkpt lat="46.586722601205111" lon="7.197583420202136">
        <ele>952.20001220703125</ele>
        <time>2014-11-14T13:45:54Z</time>
      </trkpt>
      <trkpt lat="46.586703239008784" lon="7.197559783235192">
        <ele>952.5999755859375</ele>
        <time>2014-11-14T13:45:56Z</time>
      </trkpt>
      <trkpt lat="46.586650684475899" lon="7.197479316964746">
        <ele>953.4000244140625</ele>
        <time>2014-11-14T13:46:01Z</time>
      </trkpt>
      <trkpt lat="46.586626544594765" lon="7.197446878999472">
        <ele>953.79998779296875</ele>
        <time>2014-11-14T13:46:03Z</time>
      </trkpt>
      <trkpt lat="46.586553873494267" lon="7.197401700541377">
        <ele>954.79998779296875</ele>
        <time>2014-11-14T13:46:08Z</time>
      </trkpt>
      <trkpt lat="46.586542977020144" lon="7.197386026382446">
        <ele>955</ele>
        <time>2014-11-14T13:46:09Z</time>
      </trkpt>
      <trkpt lat="46.586446668952703" lon="7.197322994470596">
        <ele>955.79998779296875</ele>
        <time>2014-11-14T13:46:15Z</time>
      </trkpt>
      <trkpt lat="46.586413644254208" lon="7.197316875681281">
        <ele>956</ele>
        <time>2014-11-14T13:46:17Z</time>
      </trkpt>
      <trkpt lat="46.586343739181757" lon="7.197274211794138">
        <ele>956.79998779296875</ele>
        <time>2014-11-14T13:46:22Z</time>
      </trkpt>
      <trkpt lat="46.586301913484931" lon="7.197252502664924">
        <ele>957.4000244140625</ele>
        <time>2014-11-14T13:46:25Z</time>
      </trkpt>
      <trkpt lat="46.58622513525188" lon="7.197201959788799">
        <ele>958.20001220703125</ele>
        <time>2014-11-14T13:46:30Z</time>
      </trkpt>
      <trkpt lat="46.586209712550044" lon="7.197185950353742">
        <ele>958.4000244140625</ele>
        <time>2014-11-14T13:46:31Z</time>
      </trkpt>
      <trkpt lat="46.586080715060234" lon="7.197044547647238">
        <ele>959.20001220703125</ele>
        <time>2014-11-14T13:46:38Z</time>
      </trkpt>
      <trkpt lat="46.585899330675602" lon="7.196885040029883">
        <ele>960.20001220703125</ele>
        <time>2014-11-14T13:46:47Z</time>
      </trkpt>
      <trkpt lat="46.585765052586794" lon="7.19671874307096">
        <ele>961.4000244140625</ele>
        <time>2014-11-14T13:46:54Z</time>
      </trkpt>
      <trkpt lat="46.58574971370399" lon="7.196688316762447">
        <ele>961.4000244140625</ele>
        <time>2014-11-14T13:46:55Z</time>
      </trkpt>
      <trkpt lat="46.585681149736047" lon="7.196499472483993">
        <ele>962.4000244140625</ele>
        <time>2014-11-14T13:47:02Z</time>
      </trkpt>
      <trkpt lat="46.585649382323027" lon="7.196325212717056">
        <ele>963.5999755859375</ele>
        <time>2014-11-14T13:47:09Z</time>
      </trkpt>
      <trkpt lat="46.585654076188803" lon="7.196215828880668">
        <ele>964.5999755859375</ele>
        <time>2014-11-14T13:47:14Z</time>
      </trkpt>
      <trkpt lat="46.58564418554306" lon="7.196135697886348">
        <ele>965.79998779296875</ele>
        <time>2014-11-14T13:47:18Z</time>
      </trkpt>
      <trkpt lat="46.585649382323027" lon="7.196103679016233">
        <ele>966.20001220703125</ele>
        <time>2014-11-14T13:47:20Z</time>
      </trkpt>
      <trkpt lat="46.585653573274612" lon="7.196034863591194">
        <ele>967</ele>
        <time>2014-11-14T13:47:24Z</time>
      </trkpt>
      <trkpt lat="46.585661955177784" lon="7.195934113115072">
        <ele>967.79998779296875</ele>
        <time>2014-11-14T13:47:29Z</time>
      </trkpt>
      <trkpt lat="46.585668241605163" lon="7.195916846394539">
        <ele>968</ele>
        <time>2014-11-14T13:47:30Z</time>
      </trkpt>
      <trkpt lat="46.58567888662219" lon="7.195817856118083">
        <ele>969.20001220703125</ele>
        <time>2014-11-14T13:47:35Z</time>
      </trkpt>
      <trkpt lat="46.585674779489636" lon="7.195755410939455">
        <ele>969.79998779296875</ele>
        <time>2014-11-14T13:47:38Z</time>
      </trkpt>
      <trkpt lat="46.585672348737717" lon="7.195712495595217">
        <ele>970.20001220703125</ele>
        <time>2014-11-14T13:47:40Z</time>
      </trkpt>
      <trkpt lat="46.585665056481957" lon="7.195632616057992">
        <ele>971.4000244140625</ele>
        <time>2014-11-14T13:47:44Z</time>
      </trkpt>
      <trkpt lat="46.58566907979548" lon="7.195612750947475">
        <ele>971.5999755859375</ele>
        <time>2014-11-14T13:47:45Z</time>
      </trkpt>
      <trkpt lat="46.585662206634879" lon="7.195534966886044">
        <ele>972.4000244140625</ele>
        <time>2014-11-14T13:47:49Z</time>
      </trkpt>
      <trkpt lat="46.585664972662926" lon="7.195487944409251">
        <ele>973.4000244140625</ele>
        <time>2014-11-14T13:47:52Z</time>
      </trkpt>
      <trkpt lat="46.585664805024862" lon="7.195473359897733">
        <ele>973.5999755859375</ele>
        <time>2014-11-14T13:47:53Z</time>
      </trkpt>
      <trkpt lat="46.585679724812508" lon="7.195384427905083">
        <ele>974.5999755859375</ele>
        <time>2014-11-14T13:47:58Z</time>
      </trkpt>
      <trkpt lat="46.585677294060588" lon="7.195367999374867">
        <ele>975</ele>
        <time>2014-11-14T13:47:59Z</time>
      </trkpt>
      <trkpt lat="46.585668912157416" lon="7.195320893079042">
        <ele>975.79998779296875</ele>
        <time>2014-11-14T13:48:02Z</time>
      </trkpt>
      <trkpt lat="46.585676707327366" lon="7.195250736549497">
        <ele>976.79998779296875</ele>
        <time>2014-11-14T13:48:06Z</time>
      </trkpt>
      <trkpt lat="46.58567788079381" lon="7.195233972743154">
        <ele>977</ele>
        <time>2014-11-14T13:48:07Z</time>
      </trkpt>
      <trkpt lat="46.585668409243226" lon="7.195147387683392">
        <ele>977.79998779296875</ele>
        <time>2014-11-14T13:48:12Z</time>
      </trkpt>
      <trkpt lat="46.585681820288301" lon="7.195101287215948">
        <ele>978.4000244140625</ele>
        <time>2014-11-14T13:48:15Z</time>
      </trkpt>
      <trkpt lat="46.585684586316347" lon="7.195073710754514">
        <ele>978.79998779296875</ele>
        <time>2014-11-14T13:48:17Z</time>
      </trkpt>
      <trkpt lat="46.585679473355412" lon="7.195061640813947">
        <ele>979</ele>
        <time>2014-11-14T13:48:18Z</time>
      </trkpt>
      <trkpt lat="46.585656758397818" lon="7.195024425163865">
        <ele>979.4000244140625</ele>
        <time>2014-11-14T13:48:21Z</time>
      </trkpt>
      <trkpt lat="46.585635216906667" lon="7.194990729913116">
        <ele>980.20001220703125</ele>
        <time>2014-11-14T13:48:24Z</time>
      </trkpt>
      <trkpt lat="46.585593642666936" lon="7.194914789870381">
        <ele>981.20001220703125</ele>
        <time>2014-11-14T13:48:30Z</time>
      </trkpt>
      <trkpt lat="46.585538322106004" lon="7.194861145690084">
        <ele>982.4000244140625</ele>
        <time>2014-11-14T13:48:36Z</time>
      </trkpt>
      <trkpt lat="46.585527341812849" lon="7.194836167618632">
        <ele>982.5999755859375</ele>
        <time>2014-11-14T13:48:38Z</time>
      </trkpt>
      <trkpt lat="46.585498005151749" lon="7.194805489853025">
        <ele>983.4000244140625</ele>
        <time>2014-11-14T13:48:42Z</time>
      </trkpt>
      <trkpt lat="46.585464477539063" lon="7.194769196212292">
        <ele>984.20001220703125</ele>
        <time>2014-11-14T13:48:46Z</time>
      </trkpt>
      <trkpt lat="46.585156191140413" lon="7.194532575085759">
        <ele>990</ele>
        <time>2014-11-14T13:49:18Z</time>
      </trkpt>
      <trkpt lat="46.585113275796175" lon="7.194535005837679">
        <ele>990.5999755859375</ele>
        <time>2014-11-14T13:49:22Z</time>
      </trkpt>
      <trkpt lat="46.585087291896343" lon="7.194526540115476">
        <ele>991.20001220703125</ele>
        <time>2014-11-14T13:49:24Z</time>
      </trkpt>
      <trkpt lat="46.585025601089001" lon="7.194518158212304">
        <ele>992</ele>
        <time>2014-11-14T13:49:29Z</time>
      </trkpt>
      <trkpt lat="46.585016045719385" lon="7.194514973089099">
        <ele>992.20001220703125</ele>
        <time>2014-11-14T13:49:30Z</time>
      </trkpt>
      <trkpt lat="46.584977321326733" lon="7.194472393020988">
        <ele>993.20001220703125</ele>
        <time>2014-11-14T13:49:35Z</time>
      </trkpt>
      <trkpt lat="46.584966005757451" lon="7.194465268403292">
        <ele>993.4000244140625</ele>
        <time>2014-11-14T13:49:36Z</time>
      </trkpt>
      <trkpt lat="46.58489752560854" lon="7.194442637264729">
        <ele>994.5999755859375</ele>
        <time>2014-11-14T13:49:42Z</time>
      </trkpt>
      <trkpt lat="46.584869446232915" lon="7.194424280896783">
        <ele>995.20001220703125</ele>
        <time>2014-11-14T13:49:45Z</time>
      </trkpt>
      <trkpt lat="46.584829548373818" lon="7.194398967549205">
        <ele>995.5999755859375</ele>
        <time>2014-11-14T13:49:48Z</time>
      </trkpt>
      <trkpt lat="46.584816807880998" lon="7.194388825446367">
        <ele>995.79998779296875</ele>
        <time>2014-11-14T13:49:49Z</time>
      </trkpt>
      <trkpt lat="46.584741957485676" lon="7.194367786869407">
        <ele>996.79998779296875</ele>
        <time>2014-11-14T13:49:55Z</time>
      </trkpt>
      <trkpt lat="46.58472653478384" lon="7.194357058033347">
        <ele>997</ele>
        <time>2014-11-14T13:49:56Z</time>
      </trkpt>
      <trkpt lat="46.584649924188852" lon="7.194281285628676">
        <ele>998</ele>
        <time>2014-11-14T13:50:02Z</time>
      </trkpt>
      <trkpt lat="46.584583790972829" lon="7.194226300343871">
        <ele>999</ele>
        <time>2014-11-14T13:50:07Z</time>
      </trkpt>
      <trkpt lat="46.584540959447622" lon="7.194178607314825">
        <ele>999.5999755859375</ele>
        <time>2014-11-14T13:50:10Z</time>
      </trkpt>
      <trkpt lat="46.584503324702382" lon="7.194146420806646">
        <ele>1000.2000122070312</ele>
        <time>2014-11-14T13:50:13Z</time>
      </trkpt>
      <trkpt lat="46.584456553682685" lon="7.194084897637367">
        <ele>1000.5999755859375</ele>
        <time>2014-11-14T13:50:17Z</time>
      </trkpt>
      <trkpt lat="46.584428222849965" lon="7.194059416651726">
        <ele>1001.2000122070312</ele>
        <time>2014-11-14T13:50:19Z</time>
      </trkpt>
      <trkpt lat="46.584382290020585" lon="7.194003593176603">
        <ele>1001.7999877929687</ele>
        <time>2014-11-14T13:50:24Z</time>
      </trkpt>
      <trkpt lat="46.584351025521755" lon="7.193983560428023">
        <ele>1002.4000244140625</ele>
        <time>2014-11-14T13:50:27Z</time>
      </trkpt>
      <trkpt lat="46.584318839013577" lon="7.193950703367591">
        <ele>1002.7999877929687</ele>
        <time>2014-11-14T13:50:30Z</time>
      </trkpt>
      <trkpt lat="46.58429411239922" lon="7.193906279280782">
        <ele>1003.4000244140625</ele>
        <time>2014-11-14T13:50:33Z</time>
      </trkpt>
      <trkpt lat="46.584226889535785" lon="7.193835703656077">
        <ele>1004.5999755859375</ele>
        <time>2014-11-14T13:50:40Z</time>
      </trkpt>
      <trkpt lat="46.584219262003899" lon="7.193823298439384">
        <ele>1004.7999877929687</ele>
        <time>2014-11-14T13:50:41Z</time>
      </trkpt>
      <trkpt lat="46.584171485155821" lon="7.193749286234379">
        <ele>1005.5999755859375</ele>
        <time>2014-11-14T13:50:46Z</time>
      </trkpt>
      <trkpt lat="46.584156146273017" lon="7.19372196123004">
        <ele>1006</ele>
        <time>2014-11-14T13:50:48Z</time>
      </trkpt>
      <trkpt lat="46.58411331474781" lon="7.193655828014016">
        <ele>1006.5999755859375</ele>
        <time>2014-11-14T13:50:53Z</time>
      </trkpt>
      <trkpt lat="46.584104681387544" lon="7.193619534373283">
        <ele>1007.2000122070312</ele>
        <time>2014-11-14T13:50:55Z</time>
      </trkpt>
      <trkpt lat="46.584079954773188" lon="7.193570248782635">
        <ele>1007.7999877929687</ele>
        <time>2014-11-14T13:50:59Z</time>
      </trkpt>
      <trkpt lat="46.584065118804574" lon="7.193520041182637">
        <ele>1008.2000122070312</ele>
        <time>2014-11-14T13:51:02Z</time>
      </trkpt>
      <trkpt lat="46.584040559828281" lon="7.193442173302174">
        <ele>1008.7999877929687</ele>
        <time>2014-11-14T13:51:06Z</time>
      </trkpt>
      <trkpt lat="46.584013989195228" lon="7.19334184192121">
        <ele>1010</ele>
        <time>2014-11-14T13:51:12Z</time>
      </trkpt>
      <trkpt lat="46.583996219560504" lon="7.193216783925891">
        <ele>1011</ele>
        <time>2014-11-14T13:51:18Z</time>
      </trkpt>
      <trkpt lat="46.583992447704077" lon="7.193177305161953">
        <ele>1011.4000244140625</ele>
        <time>2014-11-14T13:51:20Z</time>
      </trkpt>
      <trkpt lat="46.583973756060004" lon="7.193159284070134">
        <ele>1011.5999755859375</ele>
        <time>2014-11-14T13:52:34Z</time>
      </trkpt>
      <trkpt lat="46.583971912041306" lon="7.193155931308866">
        <ele>1011.7999877929687</ele>
        <time>2014-11-14T13:52:35Z</time>
      </trkpt>
      <trkpt lat="46.583932768553495" lon="7.193152075633407">
        <ele>1012.2000122070312</ele>
        <time>2014-11-14T13:52:38Z</time>
      </trkpt>
      <trkpt lat="46.58390611410141" lon="7.193130534142256">
        <ele>1012.5999755859375</ele>
        <time>2014-11-14T13:52:40Z</time>
      </trkpt>
      <trkpt lat="46.583866467699409" lon="7.19311703927815">
        <ele>1013.4000244140625</ele>
        <time>2014-11-14T13:52:43Z</time>
      </trkpt>
      <trkpt lat="46.583838975057006" lon="7.19309994019568">
        <ele>1013.7999877929687</ele>
        <time>2014-11-14T13:52:45Z</time>
      </trkpt>
      <trkpt lat="46.58381081186235" lon="7.193095162510872">
        <ele>1014.2000122070312</ele>
        <time>2014-11-14T13:52:47Z</time>
      </trkpt>
      <trkpt lat="46.583796814084053" lon="7.193095497786999">
        <ele>1014.4000244140625</ele>
        <time>2014-11-14T13:52:48Z</time>
      </trkpt>
      <trkpt lat="46.583728333935142" lon="7.19304520636797">
        <ele>1015.5999755859375</ele>
        <time>2014-11-14T13:52:54Z</time>
      </trkpt>
      <trkpt lat="46.583715509623289" lon="7.193039422854781">
        <ele>1015.7999877929687</ele>
        <time>2014-11-14T13:52:55Z</time>
      </trkpt>
      <trkpt lat="46.583646694198251" lon="7.192984521389008">
        <ele>1016.7999877929687</ele>
        <time>2014-11-14T13:53:00Z</time>
      </trkpt>
      <trkpt lat="46.583612579852343" lon="7.192916544154286">
        <ele>1017.4000244140625</ele>
        <time>2014-11-14T13:53:04Z</time>
      </trkpt>
      <trkpt lat="46.58357729203999" lon="7.192886369302869">
        <ele>1017.7999877929687</ele>
        <time>2014-11-14T13:53:07Z</time>
      </trkpt>
      <trkpt lat="46.583524318411946" lon="7.192832976579666">
        <ele>1018.4000244140625</ele>
        <time>2014-11-14T13:53:11Z</time>
      </trkpt>
      <trkpt lat="46.583512248471379" lon="7.192830378189683">
        <ele>1018.5999755859375</ele>
        <time>2014-11-14T13:53:12Z</time>
      </trkpt>
      <trkpt lat="46.583471512421966" lon="7.192835239693523">
        <ele>1019</ele>
        <time>2014-11-14T13:53:15Z</time>
      </trkpt>
      <trkpt lat="46.583425411954522" lon="7.192834485322237">
        <ele>1019.5999755859375</ele>
        <time>2014-11-14T13:53:18Z</time>
      </trkpt>
      <trkpt lat="46.583409821614623" lon="7.192831803113222">
        <ele>1019.7999877929687</ele>
        <time>2014-11-14T13:53:19Z</time>
      </trkpt>
      <trkpt lat="46.583365900442004" lon="7.192835826426745">
        <ele>1020.2000122070312</ele>
        <time>2014-11-14T13:53:22Z</time>
      </trkpt>
      <trkpt lat="46.583313094452024" lon="7.19285904429853">
        <ele>1020.7999877929687</ele>
        <time>2014-11-14T13:53:26Z</time>
      </trkpt>
      <trkpt lat="46.583270765841007" lon="7.19285418279469">
        <ele>1021.2000122070312</ele>
        <time>2014-11-14T13:53:29Z</time>
      </trkpt>
      <trkpt lat="46.583236735314131" lon="7.192811015993357">
        <ele>1021.5999755859375</ele>
        <time>2014-11-14T13:53:32Z</time>
      </trkpt>
      <trkpt lat="46.583219384774566" lon="7.192714540287852">
        <ele>1022.2000122070312</ele>
        <time>2014-11-14T13:53:36Z</time>
      </trkpt>
      <trkpt lat="46.583233550190926" lon="7.192669529467821">
        <ele>1022.4000244140625</ele>
        <time>2014-11-14T13:53:38Z</time>
      </trkpt>
      <trkpt lat="46.583325499668717" lon="7.192629463970661">
        <ele>1023.4000244140625</ele>
        <time>2014-11-14T13:53:44Z</time>
      </trkpt>
      <trkpt lat="46.58341359347105" lon="7.192597109824419">
        <ele>1024.4000244140625</ele>
        <time>2014-11-14T13:53:50Z</time>
      </trkpt>
      <trkpt lat="46.583427675068378" lon="7.192590404301882">
        <ele>1024.5999755859375</ele>
        <time>2014-11-14T13:53:51Z</time>
      </trkpt>
      <trkpt lat="46.583514846861362" lon="7.19255369156599">
        <ele>1025.4000244140625</ele>
        <time>2014-11-14T13:53:57Z</time>
      </trkpt>
      <trkpt lat="46.583529179915786" lon="7.192543549463153">
        <ele>1025.800048828125</ele>
        <time>2014-11-14T13:53:58Z</time>
      </trkpt>
      <trkpt lat="46.583576202392578" lon="7.192491916939616">
        <ele>1026.5999755859375</ele>
        <time>2014-11-14T13:54:03Z</time>
      </trkpt>
      <trkpt lat="46.583613501861691" lon="7.192449336871505">
        <ele>1027.5999755859375</ele>
        <time>2014-11-14T13:54:07Z</time>
      </trkpt>
      <trkpt lat="46.583639653399587" lon="7.192429220303893">
        <ele>1027.800048828125</ele>
        <time>2014-11-14T13:54:09Z</time>
      </trkpt>
      <trkpt lat="46.583689944818616" lon="7.192386724054813">
        <ele>1028.4000244140625</ele>
        <time>2014-11-14T13:54:13Z</time>
      </trkpt>
      <trkpt lat="46.583723137155175" lon="7.19235235825181">
        <ele>1029</ele>
        <time>2014-11-14T13:54:16Z</time>
      </trkpt>
      <trkpt lat="46.583775943145156" lon="7.192322518676519">
        <ele>1029.5999755859375</ele>
        <time>2014-11-14T13:54:20Z</time>
      </trkpt>
      <trkpt lat="46.583813410252333" lon="7.192303324118257">
        <ele>1030</ele>
        <time>2014-11-14T13:54:23Z</time>
      </trkpt>
      <trkpt lat="46.583884656429291" lon="7.192278681322932">
        <ele>1031</ele>
        <time>2014-11-14T13:54:29Z</time>
      </trkpt>
      <trkpt lat="46.583898821845651" lon="7.19228052534163">
        <ele>1031.4000244140625</ele>
        <time>2014-11-14T13:54:30Z</time>
      </trkpt>
      <trkpt lat="46.583978952839971" lon="7.192230736836791">
        <ele>1032.4000244140625</ele>
        <time>2014-11-14T13:54:37Z</time>
      </trkpt>
      <trkpt lat="46.584052965044975" lon="7.19219502992928">
        <ele>1033.5999755859375</ele>
        <time>2014-11-14T13:54:43Z</time>
      </trkpt>
      <trkpt lat="46.584075344726443" lon="7.192179271951318">
        <ele>1033.800048828125</ele>
        <time>2014-11-14T13:54:45Z</time>
      </trkpt>
      <trkpt lat="46.584135442972183" lon="7.19212856143713">
        <ele>1034.5999755859375</ele>
        <time>2014-11-14T13:54:50Z</time>
      </trkpt>
      <trkpt lat="46.584148099645972" lon="7.192120850086212">
        <ele>1034.800048828125</ele>
        <time>2014-11-14T13:54:51Z</time>
      </trkpt>
      <trkpt lat="46.584209706634283" lon="7.192068127915263">
        <ele>1036</ele>
        <time>2014-11-14T13:54:56Z</time>
      </trkpt>
      <trkpt lat="46.584229487925768" lon="7.192045580595732">
        <ele>1036.4000244140625</ele>
        <time>2014-11-14T13:54:58Z</time>
      </trkpt>
      <trkpt lat="46.584268128499389" lon="7.191989840939641">
        <ele>1037</ele>
        <time>2014-11-14T13:55:02Z</time>
      </trkpt>
      <trkpt lat="46.584274666383862" lon="7.191917924210429">
        <ele>1037.4000244140625</ele>
        <time>2014-11-14T13:55:05Z</time>
      </trkpt>
      <trkpt lat="46.5842330083251" lon="7.191843409091234">
        <ele>1037.5999755859375</ele>
        <time>2014-11-14T13:55:08Z</time>
      </trkpt>
      <trkpt lat="46.584189422428608" lon="7.191839218139648">
        <ele>1038</ele>
        <time>2014-11-14T13:55:10Z</time>
      </trkpt>
      <trkpt lat="46.58416653983295" lon="7.191841481253505">
        <ele>1038.199951171875</ele>
        <time>2014-11-14T13:55:11Z</time>
      </trkpt>
      <trkpt lat="46.584144998341799" lon="7.191847180947661">
        <ele>1038.4000244140625</ele>
        <time>2014-11-14T13:55:12Z</time>
      </trkpt>
      <trkpt lat="46.584046510979533" lon="7.191866543143988">
        <ele>1039.5999755859375</ele>
        <time>2014-11-14T13:55:17Z</time>
      </trkpt>
      <trkpt lat="46.583968894556165" lon="7.191879199817777">
        <ele>1040.5999755859375</ele>
        <time>2014-11-14T13:55:21Z</time>
      </trkpt>
      <trkpt lat="46.583879124373198" lon="7.19191893003881">
        <ele>1041.800048828125</ele>
        <time>2014-11-14T13:55:26Z</time>
      </trkpt>
      <trkpt lat="46.583812069147825" lon="7.191954385489225">
        <ele>1042.800048828125</ele>
        <time>2014-11-14T13:55:31Z</time>
      </trkpt>
      <trkpt lat="46.583795892074704" lon="7.191964443773031">
        <ele>1043</ele>
        <time>2014-11-14T13:55:32Z</time>
      </trkpt>
      <trkpt lat="46.583725987002254" lon="7.191979698836803">
        <ele>1044</ele>
        <time>2014-11-14T13:55:37Z</time>
      </trkpt>
      <trkpt lat="46.583686172962189" lon="7.191989338025451">
        <ele>1044.4000244140625</ele>
        <time>2014-11-14T13:55:40Z</time>
      </trkpt>
      <trkpt lat="46.583658177405596" lon="7.191997971385717">
        <ele>1045</ele>
        <time>2014-11-14T13:55:42Z</time>
      </trkpt>
      <trkpt lat="46.583589697256684" lon="7.192020351067185">
        <ele>1046</ele>
        <time>2014-11-14T13:55:47Z</time>
      </trkpt>
      <trkpt lat="46.58357729203999" lon="7.192023368552327">
        <ele>1046</ele>
        <time>2014-11-14T13:55:48Z</time>
      </trkpt>
      <trkpt lat="46.583506716415286" lon="7.192045748233795">
        <ele>1047</ele>
        <time>2014-11-14T13:55:53Z</time>
      </trkpt>
      <trkpt lat="46.583490623161197" lon="7.192052118480206">
        <ele>1047.199951171875</ele>
        <time>2014-11-14T13:55:54Z</time>
      </trkpt>
      <trkpt lat="46.58343119546771" lon="7.192071732133627">
        <ele>1048</ele>
        <time>2014-11-14T13:55:59Z</time>
      </trkpt>
      <trkpt lat="46.583416359499097" lon="7.192066116258502">
        <ele>1048.199951171875</ele>
        <time>2014-11-14T13:56:00Z</time>
      </trkpt>
      <trkpt lat="46.583335055038333" lon="7.192073073238134">
        <ele>1049.4000244140625</ele>
        <time>2014-11-14T13:56:06Z</time>
      </trkpt>
      <trkpt lat="46.583322314545512" lon="7.19207676127553">
        <ele>1049.5999755859375</ele>
        <time>2014-11-14T13:56:07Z</time>
      </trkpt>
      <trkpt lat="46.583259701728821" lon="7.192064942792058">
        <ele>1050.5999755859375</ele>
        <time>2014-11-14T13:56:12Z</time>
      </trkpt>
      <trkpt lat="46.583220139145851" lon="7.192076090723276">
        <ele>1051</ele>
        <time>2014-11-14T13:56:15Z</time>
      </trkpt>
      <trkpt lat="46.583179822191596" lon="7.19207969494164">
        <ele>1051.5999755859375</ele>
        <time>2014-11-14T13:56:18Z</time>
      </trkpt>
      <trkpt lat="46.583125423640013" lon="7.192057734355331">
        <ele>1052.199951171875</ele>
        <time>2014-11-14T13:56:22Z</time>
      </trkpt>
      <trkpt lat="46.583086866885424" lon="7.192051699385047">
        <ele>1052.5999755859375</ele>
        <time>2014-11-14T13:56:25Z</time>
      </trkpt>
      <trkpt lat="46.583027271553874" lon="7.192067708820105">
        <ele>1053.5999755859375</ele>
        <time>2014-11-14T13:56:30Z</time>
      </trkpt>
      <trkpt lat="46.583016375079751" lon="7.192071480676532">
        <ele>1053.800048828125</ele>
        <time>2014-11-14T13:56:31Z</time>
      </trkpt>
      <trkpt lat="46.583007238805294" lon="7.192082377150655">
        <ele>1054</ele>
        <time>2014-11-14T13:56:32Z</time>
      </trkpt>
      <trkpt lat="46.582953259348869" lon="7.192081287503243">
        <ele>1054.800048828125</ele>
        <time>2014-11-14T13:56:36Z</time>
      </trkpt>
      <trkpt lat="46.582935405895114" lon="7.192082041874528">
        <ele>1055</ele>
        <time>2014-11-14T13:56:37Z</time>
      </trkpt>
      <trkpt lat="46.582910344004631" lon="7.192081203684211">
        <ele>1055.4000244140625</ele>
        <time>2014-11-14T13:56:39Z</time>
      </trkpt>
      <trkpt lat="46.582893244922161" lon="7.192069636657834">
        <ele>1055.4000244140625</ele>
        <time>2014-11-14T13:56:40Z</time>
      </trkpt>
      <trkpt lat="46.58286633901298" lon="7.192065445706248">
        <ele>1055.5999755859375</ele>
        <time>2014-11-14T13:56:42Z</time>
      </trkpt>
      <trkpt lat="46.582840858027339" lon="7.192062931135297">
        <ele>1056</ele>
        <time>2014-11-14T13:56:44Z</time>
      </trkpt>
      <trkpt lat="46.582792578265071" lon="7.192069133743644">
        <ele>1056.800048828125</ele>
        <time>2014-11-14T13:56:48Z</time>
      </trkpt>
      <trkpt lat="46.582766678184271" lon="7.192069301381707">
        <ele>1057</ele>
        <time>2014-11-14T13:56:50Z</time>
      </trkpt>
      <trkpt lat="46.582734072580934" lon="7.19204013235867">
        <ele>1057.5999755859375</ele>
        <time>2014-11-14T13:56:53Z</time>
      </trkpt>
      <trkpt lat="46.582718901336193" lon="7.191994618624449">
        <ele>1057.800048828125</ele>
        <time>2014-11-14T13:56:55Z</time>
      </trkpt>
      <trkpt lat="46.582727869972587" lon="7.191930748522282">
        <ele>1058.199951171875</ele>
        <time>2014-11-14T13:56:58Z</time>
      </trkpt>
      <trkpt lat="46.582732060924172" lon="7.191922031342983">
        <ele>1058.199951171875</ele>
        <time>2014-11-14T13:56:59Z</time>
      </trkpt>
      <trkpt lat="46.582744549959898" lon="7.191916331648827">
        <ele>1058.4000244140625</ele>
        <time>2014-11-14T13:57:00Z</time>
      </trkpt>
      <trkpt lat="46.582801882177591" lon="7.191917505115271">
        <ele>1059</ele>
        <time>2014-11-14T13:57:04Z</time>
      </trkpt>
      <trkpt lat="46.582815628498793" lon="7.191914152354002">
        <ele>1059.199951171875</ele>
        <time>2014-11-14T13:57:05Z</time>
      </trkpt>
      <trkpt lat="46.582824680954218" lon="7.191913146525621">
        <ele>1059.5999755859375</ele>
        <time>2014-11-14T13:57:06Z</time>
      </trkpt>
      <trkpt lat="46.582868350669742" lon="7.191911637783051">
        <ele>1060.4000244140625</ele>
        <time>2014-11-14T13:57:10Z</time>
      </trkpt>
      <trkpt lat="46.582895256578922" lon="7.191900406032801">
        <ele>1060.800048828125</ele>
        <time>2014-11-14T13:57:12Z</time>
      </trkpt>
      <trkpt lat="46.5829395968467" lon="7.191899735480547">
        <ele>1061.5999755859375</ele>
        <time>2014-11-14T13:57:15Z</time>
      </trkpt>
      <trkpt lat="46.582972453907132" lon="7.191889006644487">
        <ele>1062.4000244140625</ele>
        <time>2014-11-14T13:57:18Z</time>
      </trkpt>
      <trkpt lat="46.582992738112807" lon="7.191883306950331">
        <ele>1062.800048828125</ele>
        <time>2014-11-14T13:57:20Z</time>
      </trkpt>
      <trkpt lat="46.583014531061053" lon="7.191869476810098">
        <ele>1063.199951171875</ele>
        <time>2014-11-14T13:57:22Z</time>
      </trkpt>
      <trkpt lat="46.583056943491101" lon="7.191856987774372">
        <ele>1063.5999755859375</ele>
        <time>2014-11-14T13:57:25Z</time>
      </trkpt>
      <trkpt lat="46.583082173019648" lon="7.191849444061518">
        <ele>1063.800048828125</ele>
        <time>2014-11-14T13:57:27Z</time>
      </trkpt>
      <trkpt lat="46.583156939595938" lon="7.191800996661186">
        <ele>1065</ele>
        <time>2014-11-14T13:57:32Z</time>
      </trkpt>
      <trkpt lat="46.583229945972562" lon="7.19175087288022">
        <ele>1066.199951171875</ele>
        <time>2014-11-14T13:57:37Z</time>
      </trkpt>
      <trkpt lat="46.583253163844347" lon="7.191729666665196">
        <ele>1066.5999755859375</ele>
        <time>2014-11-14T13:57:39Z</time>
      </trkpt>
      <trkpt lat="46.583288619294763" lon="7.191698150709271">
        <ele>1067.199951171875</ele>
        <time>2014-11-14T13:57:42Z</time>
      </trkpt>
      <trkpt lat="46.583322901278734" lon="7.191658588126302">
        <ele>1067.800048828125</ele>
        <time>2014-11-14T13:57:45Z</time>
      </trkpt>
      <trkpt lat="46.583354836329818" lon="7.191618103533983">
        <ele>1068.199951171875</ele>
        <time>2014-11-14T13:57:48Z</time>
      </trkpt>
      <trkpt lat="46.583414431661367" lon="7.191565549001098">
        <ele>1069.4000244140625</ele>
        <time>2014-11-14T13:57:53Z</time>
      </trkpt>
      <trkpt lat="46.583484588190913" lon="7.191489776596427">
        <ele>1070.4000244140625</ele>
        <time>2014-11-14T13:57:59Z</time>
      </trkpt>
      <trkpt lat="46.583500932902098" lon="7.191476952284575">
        <ele>1071</ele>
        <time>2014-11-14T13:58:01Z</time>
      </trkpt>
      <trkpt lat="46.583535466343164" lon="7.191472593694925">
        <ele>1071.5999755859375</ele>
        <time>2014-11-14T13:58:05Z</time>
      </trkpt>
      <trkpt lat="46.583868814632297" lon="7.190832300111651">
        <ele>1079</ele>
        <time>2014-11-14T13:58:52Z</time>
      </trkpt>
      <trkpt lat="46.583875939249992" lon="7.19081318937242">
        <ele>1079.199951171875</ele>
        <time>2014-11-14T13:58:53Z</time>
      </trkpt>
      <trkpt lat="46.583899073302746" lon="7.190759293735027">
        <ele>1079.800048828125</ele>
        <time>2014-11-14T13:58:56Z</time>
      </trkpt>
      <trkpt lat="46.583928242325783" lon="7.190731298178434">
        <ele>1080</ele>
        <time>2014-11-14T13:58:58Z</time>
      </trkpt>
      <trkpt lat="46.583939893171191" lon="7.190716210752726">
        <ele>1080.199951171875</ele>
        <time>2014-11-14T13:58:59Z</time>
      </trkpt>
      <trkpt lat="46.583991274237633" lon="7.190630715340376">
        <ele>1081.199951171875</ele>
        <time>2014-11-14T13:59:05Z</time>
      </trkpt>
      <trkpt lat="46.584016252309084" lon="7.190583692863584">
        <ele>1081.5999755859375</ele>
        <time>2014-11-14T13:59:08Z</time>
      </trkpt>
      <trkpt lat="46.584038631990552" lon="7.190537843853235">
        <ele>1082.199951171875</ele>
        <time>2014-11-14T13:59:11Z</time>
      </trkpt>
      <trkpt lat="46.584084061905742" lon="7.190430471673608">
        <ele>1083.199951171875</ele>
        <time>2014-11-14T13:59:17Z</time>
      </trkpt>
      <trkpt lat="46.584089761599898" lon="7.190413204953075">
        <ele>1083.199951171875</ele>
        <time>2014-11-14T13:59:18Z</time>
      </trkpt>
      <trkpt lat="46.584111135452986" lon="7.190317148342729">
        <ele>1084.4000244140625</ele>
        <time>2014-11-14T13:59:23Z</time>
      </trkpt>
      <trkpt lat="46.58411624841392" lon="7.190254870802164">
        <ele>1085.199951171875</ele>
        <time>2014-11-14T13:59:26Z</time>
      </trkpt>
      <trkpt lat="46.584129659458995" lon="7.190181110054255">
        <ele>1086</ele>
        <time>2014-11-14T13:59:30Z</time>
      </trkpt>
      <trkpt lat="46.584146339446306" lon="7.190096117556095">
        <ele>1086.800048828125</ele>
        <time>2014-11-14T13:59:35Z</time>
      </trkpt>
      <trkpt lat="46.584151117131114" lon="7.190060243010521">
        <ele>1087</ele>
        <time>2014-11-14T13:59:37Z</time>
      </trkpt>
      <trkpt lat="46.584168383851647" lon="7.18996393494308">
        <ele>1088</ele>
        <time>2014-11-14T13:59:43Z</time>
      </trkpt>
      <trkpt lat="46.584172574803233" lon="7.189947171136737">
        <ele>1088.199951171875</ele>
        <time>2014-11-14T13:59:44Z</time>
      </trkpt>
      <trkpt lat="46.58420518040657" lon="7.189872153103352">
        <ele>1089.199951171875</ele>
        <time>2014-11-14T13:59:49Z</time>
      </trkpt>
      <trkpt lat="46.584211802110076" lon="7.189857317134738">
        <ele>1089.4000244140625</ele>
        <time>2014-11-14T13:59:50Z</time>
      </trkpt>
      <trkpt lat="46.584227560088038" lon="7.189827226102352">
        <ele>1089.5999755859375</ele>
        <time>2014-11-14T13:59:52Z</time>
      </trkpt>
      <trkpt lat="46.584256645292044" lon="7.18976117670536">
        <ele>1090.4000244140625</ele>
        <time>2014-11-14T13:59:56Z</time>
      </trkpt>
      <trkpt lat="46.584266200661659" lon="7.189748184755445">
        <ele>1090.5999755859375</ele>
        <time>2014-11-14T13:59:57Z</time>
      </trkpt>
      <trkpt lat="46.584272990003228" lon="7.189729493111372">
        <ele>1090.800048828125</ele>
        <time>2014-11-14T13:59:58Z</time>
      </trkpt>
      <trkpt lat="46.584314899519086" lon="7.189668053761125">
        <ele>1091.4000244140625</ele>
        <time>2014-11-14T14:00:02Z</time>
      </trkpt>
      <trkpt lat="46.584345493465662" lon="7.189605021849275">
        <ele>1092.4000244140625</ele>
        <time>2014-11-14T14:00:06Z</time>
      </trkpt>
      <trkpt lat="46.584347756579518" lon="7.189589431509376">
        <ele>1092.5999755859375</ele>
        <time>2014-11-14T14:00:07Z</time>
      </trkpt>
      <trkpt lat="46.584387067705393" lon="7.189497482031584">
        <ele>1093.5999755859375</ele>
        <time>2014-11-14T14:00:13Z</time>
      </trkpt>
      <trkpt lat="46.58439964056015" lon="7.189469821751118">
        <ele>1094</ele>
        <time>2014-11-14T14:00:15Z</time>
      </trkpt>
      <trkpt lat="46.584426211193204" lon="7.189424056559801">
        <ele>1094.800048828125</ele>
        <time>2014-11-14T14:00:19Z</time>
      </trkpt>
      <trkpt lat="46.58445093780756" lon="7.189353397116065">
        <ele>1095.800048828125</ele>
        <time>2014-11-14T14:00:25Z</time>
      </trkpt>
      <trkpt lat="46.58445973880589" lon="7.189343506470323">
        <ele>1096</ele>
        <time>2014-11-14T14:00:26Z</time>
      </trkpt>
      <trkpt lat="46.584533331915736" lon="7.189221382141113">
        <ele>1097.199951171875</ele>
        <time>2014-11-14T14:00:36Z</time>
      </trkpt>
      <trkpt lat="46.584546742960811" lon="7.189201433211565">
        <ele>1097.199951171875</ele>
        <time>2014-11-14T14:00:37Z</time>
      </trkpt>
      <trkpt lat="46.584581527858973" lon="7.189185172319412">
        <ele>1097.4000244140625</ele>
        <time>2014-11-14T14:00:40Z</time>
      </trkpt>
      <trkpt lat="46.584601895883679" lon="7.189205037429929">
        <ele>1097.800048828125</ele>
        <time>2014-11-14T14:00:42Z</time>
      </trkpt>
      <trkpt lat="46.584626790136099" lon="7.18924468383193">
        <ele>1098.199951171875</ele>
        <time>2014-11-14T14:00:45Z</time>
      </trkpt>
      <trkpt lat="46.584630142897367" lon="7.189256083220244">
        <ele>1098.4000244140625</ele>
        <time>2014-11-14T14:00:46Z</time>
      </trkpt>
      <trkpt lat="46.584651181474328" lon="7.189267566427589">
        <ele>1098.800048828125</ele>
        <time>2014-11-14T14:00:48Z</time>
      </trkpt>
      <trkpt lat="46.584657886996865" lon="7.189275696873665">
        <ele>1099</ele>
        <time>2014-11-14T14:00:49Z</time>
      </trkpt>
      <trkpt lat="46.584676243364811" lon="7.189290281385183">
        <ele>1099.4000244140625</ele>
        <time>2014-11-14T14:00:51Z</time>
      </trkpt>
      <trkpt lat="46.584682026877999" lon="7.189298328012228">
        <ele>1099.4000244140625</ele>
        <time>2014-11-14T14:00:52Z</time>
      </trkpt>
      <trkpt lat="46.584690995514393" lon="7.189325904473662">
        <ele>1099.800048828125</ele>
        <time>2014-11-14T14:00:54Z</time>
      </trkpt>
      <trkpt lat="46.584696192294359" lon="7.189335292205215">
        <ele>1100</ele>
        <time>2014-11-14T14:00:55Z</time>
      </trkpt>
      <trkpt lat="46.584713375195861" lon="7.189346607774496">
        <ele>1100.4000244140625</ele>
        <time>2014-11-14T14:00:57Z</time>
      </trkpt>
      <trkpt lat="46.584751093760133" lon="7.189380889758468">
        <ele>1101</ele>
        <time>2014-11-14T14:01:01Z</time>
      </trkpt>
      <trkpt lat="46.584808425977826" lon="7.18940737657249">
        <ele>1101.5999755859375</ele>
        <time>2014-11-14T14:01:05Z</time>
      </trkpt>
      <trkpt lat="46.584846815094352" lon="7.189434953033924">
        <ele>1102</ele>
        <time>2014-11-14T14:01:09Z</time>
      </trkpt>
      <trkpt lat="46.584883946925402" lon="7.189452135935426">
        <ele>1102.5999755859375</ele>
        <time>2014-11-14T14:01:12Z</time>
      </trkpt>
      <trkpt lat="46.584924263879657" lon="7.189481891691685">
        <ele>1103.199951171875</ele>
        <time>2014-11-14T14:01:16Z</time>
      </trkpt>
      <trkpt lat="46.584956785663962" lon="7.189494716003537">
        <ele>1103.800048828125</ele>
        <time>2014-11-14T14:01:19Z</time>
      </trkpt>
      <trkpt lat="46.584974555298686" lon="7.189515922218561">
        <ele>1104</ele>
        <time>2014-11-14T14:01:21Z</time>
      </trkpt>
      <trkpt lat="46.584987547248602" lon="7.189538469538093">
        <ele>1104.5999755859375</ele>
        <time>2014-11-14T14:01:23Z</time>
      </trkpt>
      <trkpt lat="46.585006238892674" lon="7.189573673531413">
        <ele>1105</ele>
        <time>2014-11-14T14:01:26Z</time>
      </trkpt>
      <trkpt lat="46.585027193650603" lon="7.18962044455111">
        <ele>1105.5999755859375</ele>
        <time>2014-11-14T14:01:30Z</time>
      </trkpt>
      <trkpt lat="46.585038006305695" lon="7.18965464271605">
        <ele>1106</ele>
        <time>2014-11-14T14:01:33Z</time>
      </trkpt>
      <trkpt lat="46.585076479241252" lon="7.189699737355113">
        <ele>1106.5999755859375</ele>
        <time>2014-11-14T14:01:37Z</time>
      </trkpt>
      <trkpt lat="46.585084022954106" lon="7.189727649092674">
        <ele>1107</ele>
        <time>2014-11-14T14:01:39Z</time>
      </trkpt>
      <trkpt lat="46.585096260532737" lon="7.189735444262624">
        <ele>1107.199951171875</ele>
        <time>2014-11-14T14:01:40Z</time>
      </trkpt>
      <trkpt lat="46.585123334079981" lon="7.189762182533741">
        <ele>1107.800048828125</ele>
        <time>2014-11-14T14:01:43Z</time>
      </trkpt>
      <trkpt lat="46.585130793973804" lon="7.189764529466629">
        <ele>1108</ele>
        <time>2014-11-14T14:01:44Z</time>
      </trkpt>
      <trkpt lat="46.585143534466624" lon="7.189787160605192">
        <ele>1108.4000244140625</ele>
        <time>2014-11-14T14:01:46Z</time>
      </trkpt>
      <trkpt lat="46.585162645205855" lon="7.189825214445591">
        <ele>1108.800048828125</ele>
        <time>2014-11-14T14:01:49Z</time>
      </trkpt>
      <trkpt lat="46.585175134241581" lon="7.189851701259613">
        <ele>1109.199951171875</ele>
        <time>2014-11-14T14:01:51Z</time>
      </trkpt>
      <trkpt lat="46.585188712924719" lon="7.189880954101682">
        <ele>1109.5999755859375</ele>
        <time>2014-11-14T14:01:54Z</time>
      </trkpt>
      <trkpt lat="46.585217630490661" lon="7.189916241914034">
        <ele>1110.199951171875</ele>
        <time>2014-11-14T14:01:57Z</time>
      </trkpt>
      <trkpt lat="46.585229784250259" lon="7.189924120903015">
        <ele>1110.4000244140625</ele>
        <time>2014-11-14T14:01:58Z</time>
      </trkpt>
      <trkpt lat="46.585296504199505" lon="7.189979022368789">
        <ele>1111.199951171875</ele>
        <time>2014-11-14T14:02:04Z</time>
      </trkpt>
      <trkpt lat="46.58531385473907" lon="7.190018082037568">
        <ele>1111.800048828125</ele>
        <time>2014-11-14T14:02:07Z</time>
      </trkpt>
      <trkpt lat="46.585357775911689" lon="7.190074576064944">
        <ele>1112.5999755859375</ele>
        <time>2014-11-14T14:02:12Z</time>
      </trkpt>
      <trkpt lat="46.5853675827384" lon="7.190082287415862">
        <ele>1112.800048828125</ele>
        <time>2014-11-14T14:02:13Z</time>
      </trkpt>
      <trkpt lat="46.585394907742739" lon="7.19011933542788">
        <ele>1113</ele>
        <time>2014-11-14T14:02:16Z</time>
      </trkpt>
      <trkpt lat="46.585413431748748" lon="7.190164430066943">
        <ele>1113.5999755859375</ele>
        <time>2014-11-14T14:02:19Z</time>
      </trkpt>
      <trkpt lat="46.585418544709682" lon="7.190181780606508">
        <ele>1113.800048828125</ele>
        <time>2014-11-14T14:02:20Z</time>
      </trkpt>
      <trkpt lat="46.585428938269615" lon="7.190187983214855">
        <ele>1114</ele>
        <time>2014-11-14T14:02:21Z</time>
      </trkpt>
      <trkpt lat="46.585469758138061" lon="7.190220504999161">
        <ele>1114.4000244140625</ele>
        <time>2014-11-14T14:02:25Z</time>
      </trkpt>
      <trkpt lat="46.585480570793152" lon="7.190251098945737">
        <ele>1114.5999755859375</ele>
        <time>2014-11-14T14:02:27Z</time>
      </trkpt>
      <trkpt lat="46.58549465239048" lon="7.190283285453916">
        <ele>1115</ele>
        <time>2014-11-14T14:02:29Z</time>
      </trkpt>
      <trkpt lat="46.585513427853584" lon="7.190329469740391">
        <ele>1115.800048828125</ele>
        <time>2014-11-14T14:02:32Z</time>
      </trkpt>
      <trkpt lat="46.585529772564769" lon="7.190372217446566">
        <ele>1116.199951171875</ele>
        <time>2014-11-14T14:02:35Z</time>
      </trkpt>
      <trkpt lat="46.585571179166436" lon="7.190426364541054">
        <ele>1117</ele>
        <time>2014-11-14T14:02:39Z</time>
      </trkpt>
      <trkpt lat="46.58557428047061" lon="7.190438350662589">
        <ele>1117.199951171875</ele>
        <time>2014-11-14T14:02:40Z</time>
      </trkpt>
      <trkpt lat="46.585592553019524" lon="7.190496856346726">
        <ele>1118</ele>
        <time>2014-11-14T14:02:45Z</time>
      </trkpt>
      <trkpt lat="46.585605628788471" lon="7.190517811104655">
        <ele>1118.199951171875</ele>
        <time>2014-11-14T14:02:47Z</time>
      </trkpt>
      <trkpt lat="46.5857492107898" lon="7.19065485522151">
        <ele>1121.4000244140625</ele>
        <time>2014-11-14T14:03:04Z</time>
      </trkpt>
      <trkpt lat="46.585761867463589" lon="7.190658794716001">
        <ele>1121.4000244140625</ele>
        <time>2014-11-14T14:03:05Z</time>
      </trkpt>
      <trkpt lat="46.585801430046558" lon="7.19068561680615">
        <ele>1122.199951171875</ele>
        <time>2014-11-14T14:03:09Z</time>
      </trkpt>
      <trkpt lat="46.585812158882618" lon="7.190704811364412">
        <ele>1122.4000244140625</ele>
        <time>2014-11-14T14:03:10Z</time>
      </trkpt>
      <trkpt lat="46.585824899375439" lon="7.190734902396798">
        <ele>1122.800048828125</ele>
        <time>2014-11-14T14:03:12Z</time>
      </trkpt>
      <trkpt lat="46.585937049239874" lon="7.190815787762404">
        <ele>1124.5999755859375</ele>
        <time>2014-11-14T14:03:23Z</time>
      </trkpt>
      <trkpt lat="46.58595590852201" lon="7.19084638170898">
        <ele>1125</ele>
        <time>2014-11-14T14:03:25Z</time>
      </trkpt>
      <trkpt lat="46.585997147485614" lon="7.190876975655556">
        <ele>1125.800048828125</ele>
        <time>2014-11-14T14:03:29Z</time>
      </trkpt>
      <trkpt lat="46.586049869656563" lon="7.190913604572415">
        <ele>1126.4000244140625</ele>
        <time>2014-11-14T14:03:34Z</time>
      </trkpt>
      <trkpt lat="46.586077194660902" lon="7.190949227660894">
        <ele>1126.800048828125</ele>
        <time>2014-11-14T14:03:36Z</time>
      </trkpt>
      <trkpt lat="46.586115667596459" lon="7.191011421382427">
        <ele>1127</ele>
        <time>2014-11-14T14:03:39Z</time>
      </trkpt>
      <trkpt lat="46.586162019520998" lon="7.191092558205128">
        <ele>1127.800048828125</ele>
        <time>2014-11-14T14:03:43Z</time>
      </trkpt>
      <trkpt lat="46.586187584325671" lon="7.191117452457547">
        <ele>1128.199951171875</ele>
        <time>2014-11-14T14:03:45Z</time>
      </trkpt>
      <trkpt lat="46.586244665086269" lon="7.191180232912302">
        <ele>1128.800048828125</ele>
        <time>2014-11-14T14:03:49Z</time>
      </trkpt>
      <trkpt lat="46.586285149678588" lon="7.191225411370397">
        <ele>1129</ele>
        <time>2014-11-14T14:03:51Z</time>
      </trkpt>
      <trkpt lat="46.58629990182817" lon="7.191249886527658">
        <ele>1129</ele>
        <time>2014-11-14T14:03:52Z</time>
      </trkpt>
      <trkpt lat="46.586426803842187" lon="7.191349295899272">
        <ele>1130.199951171875</ele>
        <time>2014-11-14T14:03:59Z</time>
      </trkpt>
      <trkpt lat="46.586439711973071" lon="7.191356839612126">
        <ele>1130.199951171875</ele>
        <time>2014-11-14T14:04:00Z</time>
      </trkpt>
      <trkpt lat="46.586539372801781" lon="7.191414507105947">
        <ele>1131.199951171875</ele>
        <time>2014-11-14T14:04:06Z</time>
      </trkpt>
      <trkpt lat="46.586556639522314" lon="7.191429091617465">
        <ele>1131.5999755859375</ele>
        <time>2014-11-14T14:04:07Z</time>
      </trkpt>
      <trkpt lat="46.586626544594765" lon="7.191508635878563">
        <ele>1132.199951171875</ele>
        <time>2014-11-14T14:04:12Z</time>
      </trkpt>
      <trkpt lat="46.586656384170055" lon="7.191538810729981">
        <ele>1132.5999755859375</ele>
        <time>2014-11-14T14:04:14Z</time>
      </trkpt>
      <trkpt lat="46.586733749136329" lon="7.191586755216122">
        <ele>1133.4000244140625</ele>
        <time>2014-11-14T14:04:20Z</time>
      </trkpt>
      <trkpt lat="46.586769036948681" lon="7.191600752994418">
        <ele>1133.800048828125</ele>
        <time>2014-11-14T14:04:22Z</time>
      </trkpt>
      <trkpt lat="46.586841708049178" lon="7.191640734672546">
        <ele>1134.4000244140625</ele>
        <time>2014-11-14T14:04:27Z</time>
      </trkpt>
      <trkpt lat="46.58685696311295" lon="7.191643249243498">
        <ele>1134.5999755859375</ele>
        <time>2014-11-14T14:04:28Z</time>
      </trkpt>
      <trkpt lat="46.586907003074884" lon="7.191690690815449">
        <ele>1135.5999755859375</ele>
        <time>2014-11-14T14:04:33Z</time>
      </trkpt>
      <trkpt lat="46.58692728728056" lon="7.191708711907268">
        <ele>1135.800048828125</ele>
        <time>2014-11-14T14:04:35Z</time>
      </trkpt>
      <trkpt lat="46.586988139897585" lon="7.191741401329637">
        <ele>1136.5999755859375</ele>
        <time>2014-11-14T14:04:40Z</time>
      </trkpt>
      <trkpt lat="46.587014207616448" lon="7.191742155700922">
        <ele>1137</ele>
        <time>2014-11-14T14:04:42Z</time>
      </trkpt>
      <trkpt lat="46.587083861231804" lon="7.191748945042491">
        <ele>1137.800048828125</ele>
        <time>2014-11-14T14:04:47Z</time>
      </trkpt>
      <trkpt lat="46.587120406329632" lon="7.191753052175045">
        <ele>1138.199951171875</ele>
        <time>2014-11-14T14:04:50Z</time>
      </trkpt>
      <trkpt lat="46.587156783789396" lon="7.191739389672875">
        <ele>1138.800048828125</ele>
        <time>2014-11-14T14:04:53Z</time>
      </trkpt>
      <trkpt lat="46.587207997217774" lon="7.191731762140989">
        <ele>1139.5999755859375</ele>
        <time>2014-11-14T14:04:57Z</time>
      </trkpt>
      <trkpt lat="46.587231969460845" lon="7.191730923950672">
        <ele>1140</ele>
        <time>2014-11-14T14:04:59Z</time>
      </trkpt>
      <trkpt lat="46.587287876754999" lon="7.191741485148668">
        <ele>1140.800048828125</ele>
        <time>2014-11-14T14:05:04Z</time>
      </trkpt>
      <trkpt lat="46.587299779057503" lon="7.191745089367032">
        <ele>1141</ele>
        <time>2014-11-14T14:05:05Z</time>
      </trkpt>
      <trkpt lat="46.587384855374694" lon="7.191737713292241">
        <ele>1142</ele>
        <time>2014-11-14T14:05:12Z</time>
      </trkpt>
      <trkpt lat="46.587468925863504" lon="7.191711394116283">
        <ele>1143</ele>
        <time>2014-11-14T14:05:18Z</time>
      </trkpt>
      <trkpt lat="46.587479989975691" lon="7.191712986677885">
        <ele>1143.4000244140625</ele>
        <time>2014-11-14T14:05:19Z</time>
      </trkpt>
      <trkpt lat="46.587629271671176" lon="7.191632185131311">
        <ele>1145.800048828125</ele>
        <time>2014-11-14T14:05:33Z</time>
      </trkpt>
      <trkpt lat="46.587650813162327" lon="7.191607039421797">
        <ele>1146.199951171875</ele>
        <time>2014-11-14T14:05:35Z</time>
      </trkpt>
      <trkpt lat="46.587657351046801" lon="7.191592454910278">
        <ele>1146.199951171875</ele>
        <time>2014-11-14T14:05:36Z</time>
      </trkpt>
      <trkpt lat="46.587633294984698" lon="7.191537721082568">
        <ele>1147</ele>
        <time>2014-11-14T14:05:40Z</time>
      </trkpt>
      <trkpt lat="46.587615525349975" lon="7.191524226218462">
        <ele>1147.199951171875</ele>
        <time>2014-11-14T14:05:41Z</time>
      </trkpt>
      <trkpt lat="46.587545117363334" lon="7.191525902599096">
        <ele>1148.4000244140625</ele>
        <time>2014-11-14T14:05:46Z</time>
      </trkpt>
      <trkpt lat="46.587517289444804" lon="7.191534284502268">
        <ele>1147.800048828125</ele>
        <time>2014-11-14T14:05:48Z</time>
      </trkpt>
      <trkpt lat="46.587444869801402" lon="7.19155197031796">
        <ele>1149</ele>
        <time>2014-11-14T14:06:12Z</time>
      </trkpt>
      <trkpt lat="46.587426429614425" lon="7.191546438261867">
        <ele>1149</ele>
        <time>2014-11-14T14:06:13Z</time>
      </trkpt>
      <trkpt lat="46.587392147630453" lon="7.191534955054522">
        <ele>1149.4000244140625</ele>
        <time>2014-11-14T14:06:15Z</time>
      </trkpt>
      <trkpt lat="46.587377060204744" lon="7.191539229825139">
        <ele>1149.5999755859375</ele>
        <time>2014-11-14T14:06:16Z</time>
      </trkpt>
      <trkpt lat="46.587329199537635" lon="7.191507630050182">
        <ele>1150</ele>
        <time>2014-11-14T14:06:19Z</time>
      </trkpt>
      <trkpt lat="46.5872722864151" lon="7.191473934799433">
        <ele>1150.4000244140625</ele>
        <time>2014-11-14T14:06:23Z</time>
      </trkpt>
      <trkpt lat="46.587223000824451" lon="7.191448202356696">
        <ele>1151.199951171875</ele>
        <time>2014-11-14T14:06:27Z</time>
      </trkpt>
      <trkpt lat="46.587202548980713" lon="7.191439820453525">
        <ele>1151.5999755859375</ele>
        <time>2014-11-14T14:06:29Z</time>
      </trkpt>
      <trkpt lat="46.587158292531967" lon="7.191406544297934">
        <ele>1152.199951171875</ele>
        <time>2014-11-14T14:06:32Z</time>
      </trkpt>
      <trkpt lat="46.58708805218339" lon="7.191359102725983">
        <ele>1152.5999755859375</ele>
        <time>2014-11-14T14:06:36Z</time>
      </trkpt>
      <trkpt lat="46.587032815441489" lon="7.191326497122645">
        <ele>1153.199951171875</ele>
        <time>2014-11-14T14:06:39Z</time>
      </trkpt>
      <trkpt lat="46.586967771872878" lon="7.191263716667891">
        <ele>1153.800048828125</ele>
        <time>2014-11-14T14:06:43Z</time>
      </trkpt>
      <trkpt lat="46.586915133520961" lon="7.191185429692268">
        <ele>1154.5999755859375</ele>
        <time>2014-11-14T14:06:47Z</time>
      </trkpt>
      <trkpt lat="46.586887137964368" lon="7.191141340881586">
        <ele>1155</ele>
        <time>2014-11-14T14:06:49Z</time>
      </trkpt>
      <trkpt lat="46.586851682513952" lon="7.191084595397115">
        <ele>1155.4000244140625</ele>
        <time>2014-11-14T14:06:52Z</time>
      </trkpt>
      <trkpt lat="46.586805079132318" lon="7.191029023379087">
        <ele>1156</ele>
        <time>2014-11-14T14:06:55Z</time>
      </trkpt>
      <trkpt lat="46.58676702529192" lon="7.190951909869909">
        <ele>1156.800048828125</ele>
        <time>2014-11-14T14:06:59Z</time>
      </trkpt>
      <trkpt lat="46.586744226515293" lon="7.190911844372749">
        <ele>1157.199951171875</ele>
        <time>2014-11-14T14:07:01Z</time>
      </trkpt>
      <trkpt lat="46.586664514616132" lon="7.190819224342704">
        <ele>1158.199951171875</ele>
        <time>2014-11-14T14:07:07Z</time>
      </trkpt>
      <trkpt lat="46.586600812152028" lon="7.190701123327017">
        <ele>1159.4000244140625</ele>
        <time>2014-11-14T14:07:13Z</time>
      </trkpt>
      <trkpt lat="46.586588826030493" lon="7.190695172175765">
        <ele>1159.5999755859375</ele>
        <time>2014-11-14T14:07:14Z</time>
      </trkpt>
      <trkpt lat="46.586530236527324" lon="7.190630631521344">
        <ele>1160.5999755859375</ele>
        <time>2014-11-14T14:07:19Z</time>
      </trkpt>
      <trkpt lat="46.586506851017475" lon="7.190584866330028">
        <ele>1161.199951171875</ele>
        <time>2014-11-14T14:07:22Z</time>
      </trkpt>
      <trkpt lat="46.58641766756773" lon="7.190402811393142">
        <ele>1163.199951171875</ele>
        <time>2014-11-14T14:07:35Z</time>
      </trkpt>
      <trkpt lat="46.586399227380753" lon="7.190361153334379">
        <ele>1163.800048828125</ele>
        <time>2014-11-14T14:07:37Z</time>
      </trkpt>
      <trkpt lat="46.586378524079919" lon="7.190309353172779">
        <ele>1164.4000244140625</ele>
        <time>2014-11-14T14:07:40Z</time>
      </trkpt>
      <trkpt lat="46.585373701527715" lon="7.187996618449688">
        <ele>1193.5999755859375</ele>
        <time>2014-11-14T14:10:12Z</time>
      </trkpt>
      <trkpt lat="46.585349142551422" lon="7.187963090837002">
        <ele>1194</ele>
        <time>2014-11-14T14:10:14Z</time>
      </trkpt>
      <trkpt lat="46.585240345448256" lon="7.187828728929162">
        <ele>1196</ele>
        <time>2014-11-14T14:10:25Z</time>
      </trkpt>
      <trkpt lat="46.585224168375134" lon="7.187791932374239">
        <ele>1196.5999755859375</ele>
        <time>2014-11-14T14:10:27Z</time>
      </trkpt>
      <trkpt lat="46.585048483684659" lon="7.187442909926176">
        <ele>1200.800048828125</ele>
        <time>2014-11-14T14:10:51Z</time>
      </trkpt>
      <trkpt lat="46.585031887516379" lon="7.187393456697464">
        <ele>1201.4000244140625</ele>
        <time>2014-11-14T14:10:54Z</time>
      </trkpt>
      <trkpt lat="46.585017554461956" lon="7.187368897721171">
        <ele>1201.800048828125</ele>
        <time>2014-11-14T14:10:56Z</time>
      </trkpt>
      <trkpt lat="46.584992492571473" lon="7.187308128923178">
        <ele>1202.5999755859375</ele>
        <time>2014-11-14T14:11:00Z</time>
      </trkpt>
      <trkpt lat="46.584973968565464" lon="7.187267560511828">
        <ele>1203</ele>
        <time>2014-11-14T14:11:03Z</time>
      </trkpt>
      <trkpt lat="46.584953600540757" lon="7.187191620469093">
        <ele>1203.5999755859375</ele>
        <time>2014-11-14T14:11:08Z</time>
      </trkpt>
      <trkpt lat="46.584944631904364" lon="7.18716211616993">
        <ele>1204</ele>
        <time>2014-11-14T14:11:10Z</time>
      </trkpt>
      <trkpt lat="46.584904734045267" lon="7.1870824880898">
        <ele>1205</ele>
        <time>2014-11-14T14:11:16Z</time>
      </trkpt>
      <trkpt lat="46.584902554750443" lon="7.187066478654742">
        <ele>1205.199951171875</ele>
        <time>2014-11-14T14:11:17Z</time>
      </trkpt>
      <trkpt lat="46.584883527830243" lon="7.186997160315514">
        <ele>1206.199951171875</ele>
        <time>2014-11-14T14:11:22Z</time>
      </trkpt>
      <trkpt lat="46.584877325221896" lon="7.186984168365598">
        <ele>1206.199951171875</ele>
        <time>2014-11-14T14:11:23Z</time>
      </trkpt>
      <trkpt lat="46.584865255281329" lon="7.186927422881126">
        <ele>1206.800048828125</ele>
        <time>2014-11-14T14:11:27Z</time>
      </trkpt>
      <trkpt lat="46.584851425141096" lon="7.186912000179291">
        <ele>1207.199951171875</ele>
        <time>2014-11-14T14:11:29Z</time>
      </trkpt>
      <trkpt lat="46.58484379760921" lon="7.186901606619358">
        <ele>1207.4000244140625</ele>
        <time>2014-11-14T14:11:30Z</time>
      </trkpt>
      <trkpt lat="46.58480079844594" lon="7.186828935518861">
        <ele>1208.4000244140625</ele>
        <time>2014-11-14T14:11:36Z</time>
      </trkpt>
      <trkpt lat="46.584744974970818" lon="7.186773447319865">
        <ele>1209.800048828125</ele>
        <time>2014-11-14T14:11:43Z</time>
      </trkpt>
      <trkpt lat="46.584719577804208" lon="7.186749558895826">
        <ele>1210.199951171875</ele>
        <time>2014-11-14T14:11:46Z</time>
      </trkpt>
      <trkpt lat="46.58468353562057" lon="7.186713432893157">
        <ele>1211</ele>
        <time>2014-11-14T14:11:50Z</time>
      </trkpt>
      <trkpt lat="46.584649421274662" lon="7.186656855046749">
        <ele>1211.5999755859375</ele>
        <time>2014-11-14T14:11:54Z</time>
      </trkpt>
      <trkpt lat="46.584645649418235" lon="7.186613101512194">
        <ele>1211.5999755859375</ele>
        <time>2014-11-14T14:11:56Z</time>
      </trkpt>
      <trkpt lat="46.584657467901707" lon="7.186574041843414">
        <ele>1212</ele>
        <time>2014-11-14T14:11:58Z</time>
      </trkpt>
      <trkpt lat="46.584698371589184" lon="7.186555014923215">
        <ele>1212.199951171875</ele>
        <time>2014-11-14T14:12:01Z</time>
      </trkpt>
      <trkpt lat="46.584737095981836" lon="7.18658116646111">
        <ele>1212.4000244140625</ele>
        <time>2014-11-14T14:12:03Z</time>
      </trkpt>
      <trkpt lat="46.584798786789179" lon="7.186631374061108">
        <ele>1213</ele>
        <time>2014-11-14T14:12:07Z</time>
      </trkpt>
      <trkpt lat="46.584862321615219" lon="7.18670379370451">
        <ele>1214.199951171875</ele>
        <time>2014-11-14T14:12:14Z</time>
      </trkpt>
      <trkpt lat="46.584933819249272" lon="7.18677369877696">
        <ele>1215.199951171875</ele>
        <time>2014-11-14T14:12:21Z</time>
      </trkpt>
      <trkpt lat="46.584944380447268" lon="7.186782164499164">
        <ele>1215.199951171875</ele>
        <time>2014-11-14T14:12:22Z</time>
      </trkpt>
      <trkpt lat="46.585000874474645" lon="7.186841340735555">
        <ele>1216.199951171875</ele>
        <time>2014-11-14T14:12:28Z</time>
      </trkpt>
      <trkpt lat="46.585005652159452" lon="7.186851985752583">
        <ele>1216.4000244140625</ele>
        <time>2014-11-14T14:12:29Z</time>
      </trkpt>
      <trkpt lat="46.585046807304025" lon="7.186905294656754">
        <ele>1217.199951171875</ele>
        <time>2014-11-14T14:12:34Z</time>
      </trkpt>
      <trkpt lat="46.585060888901353" lon="7.186925746500492">
        <ele>1217.5999755859375</ele>
        <time>2014-11-14T14:12:36Z</time>
      </trkpt>
      <trkpt lat="46.585428854450583" lon="7.187391277402639">
        <ele>1226.199951171875</ele>
        <time>2014-11-14T14:13:25Z</time>
      </trkpt>
      <trkpt lat="46.585455508902669" lon="7.187412483617663">
        <ele>1226.5999755859375</ele>
        <time>2014-11-14T14:13:27Z</time>
      </trkpt>
      <trkpt lat="46.585478307679296" lon="7.187427738681436">
        <ele>1226.800048828125</ele>
        <time>2014-11-14T14:13:29Z</time>
      </trkpt>
      <trkpt lat="46.585495825856924" lon="7.187441987916827">
        <ele>1227.199951171875</ele>
        <time>2014-11-14T14:13:31Z</time>
      </trkpt>
      <trkpt lat="46.585839651525021" lon="7.187654804438353">
        <ele>1232.4000244140625</ele>
        <time>2014-11-14T14:14:04Z</time>
      </trkpt>
      <trkpt lat="46.585851553827524" lon="7.187673579901457">
        <ele>1232.5999755859375</ele>
        <time>2014-11-14T14:14:05Z</time>
      </trkpt>
      <trkpt lat="46.585940234363079" lon="7.187735438346863">
        <ele>1233.5999755859375</ele>
        <time>2014-11-14T14:14:10Z</time>
      </trkpt>
      <trkpt lat="46.585956998169422" lon="7.187742227688432">
        <ele>1233.5999755859375</ele>
        <time>2014-11-14T14:14:11Z</time>
      </trkpt>
      <trkpt lat="46.58608146943152" lon="7.187833087518811">
        <ele>1234.4000244140625</ele>
        <time>2014-11-14T14:14:17Z</time>
      </trkpt>
      <trkpt lat="46.586161013692617" lon="7.187899723649025">
        <ele>1234.5999755859375</ele>
        <time>2014-11-14T14:14:21Z</time>
      </trkpt>
      <trkpt lat="46.586219016462564" lon="7.18794490210712">
        <ele>1234.800048828125</ele>
        <time>2014-11-14T14:14:24Z</time>
      </trkpt>
      <trkpt lat="46.586327226832509" lon="7.188044395297766">
        <ele>1234.800048828125</ele>
        <time>2014-11-14T14:14:30Z</time>
      </trkpt>
      <trkpt lat="46.586378188803792" lon="7.188193509355187">
        <ele>1235</ele>
        <time>2014-11-14T14:14:35Z</time>
      </trkpt>
      <trkpt lat="46.586423451080918" lon="7.188430381938815">
        <ele>1235.199951171875</ele>
        <time>2014-11-14T14:14:42Z</time>
      </trkpt>
      <trkpt lat="46.586509365588427" lon="7.188638169318438">
        <ele>1235.800048828125</ele>
        <time>2014-11-14T14:14:48Z</time>
      </trkpt>
      <trkpt lat="46.586528727784753" lon="7.188673540949822">
        <ele>1235.800048828125</ele>
        <time>2014-11-14T14:14:49Z</time>
      </trkpt>
      <trkpt lat="46.586695360019803" lon="7.188941510394216">
        <ele>1236.5999755859375</ele>
        <time>2014-11-14T14:14:57Z</time>
      </trkpt>
      <trkpt lat="46.586753949522972" lon="7.18902725726366">
        <ele>1236.800048828125</ele>
        <time>2014-11-14T14:15:00Z</time>
      </trkpt>
      <trkpt lat="46.586820920929313" lon="7.189131444320083">
        <ele>1237.199951171875</ele>
        <time>2014-11-14T14:15:04Z</time>
      </trkpt>
      <trkpt lat="46.586900800466537" lon="7.189213922247291">
        <ele>1237.5999755859375</ele>
        <time>2014-11-14T14:15:09Z</time>
      </trkpt>
      <trkpt lat="46.586919324472547" lon="7.189214341342449">
        <ele>1237.5999755859375</ele>
        <time>2014-11-14T14:15:10Z</time>
      </trkpt>
      <trkpt lat="46.586962742730975" lon="7.189204534515739">
        <ele>1237.5999755859375</ele>
        <time>2014-11-14T14:15:15Z</time>
      </trkpt>
      <trkpt lat="46.586948158219457" lon="7.189140915870667">
        <ele>1238.199951171875</ele>
        <time>2014-11-14T14:17:34Z</time>
      </trkpt>
      <trkpt lat="46.586938016116619" lon="7.189094815403223">
        <ele>1238.199951171875</ele>
        <time>2014-11-14T14:17:36Z</time>
      </trkpt>
      <trkpt lat="46.586887054145336" lon="7.189018204808235">
        <ele>1238.4000244140625</ele>
        <time>2014-11-14T14:17:40Z</time>
      </trkpt>
      <trkpt lat="46.586832487955689" lon="7.188952993601561">
        <ele>1239.4000244140625</ele>
        <time>2014-11-14T14:17:44Z</time>
      </trkpt>
      <trkpt lat="46.586808012798429" lon="7.18892659060657">
        <ele>1239.800048828125</ele>
        <time>2014-11-14T14:17:46Z</time>
      </trkpt>
      <trkpt lat="46.586748082190752" lon="7.188863642513752">
        <ele>1240.4000244140625</ele>
        <time>2014-11-14T14:17:51Z</time>
      </trkpt>
      <trkpt lat="46.586727211251855" lon="7.188830366358161">
        <ele>1241</ele>
        <time>2014-11-14T14:17:53Z</time>
      </trkpt>
      <trkpt lat="46.586712207645178" lon="7.188786109909415">
        <ele>1241.4000244140625</ele>
        <time>2014-11-14T14:17:55Z</time>
      </trkpt>
      <trkpt lat="46.586676249280572" lon="7.188715366646648">
        <ele>1242.199951171875</ele>
        <time>2014-11-14T14:17:59Z</time>
      </trkpt>
      <trkpt lat="46.586668370291591" lon="7.188699524849653">
        <ele>1242.5999755859375</ele>
        <time>2014-11-14T14:18:00Z</time>
      </trkpt>
      <trkpt lat="46.586639871820807" lon="7.188600366935134">
        <ele>1243.4000244140625</ele>
        <time>2014-11-14T14:18:05Z</time>
      </trkpt>
      <trkpt lat="46.586624197661877" lon="7.188562899827957">
        <ele>1243.800048828125</ele>
        <time>2014-11-14T14:18:07Z</time>
      </trkpt>
      <trkpt lat="46.586595950648189" lon="7.18847799114883">
        <ele>1244.800048828125</ele>
        <time>2014-11-14T14:18:12Z</time>
      </trkpt>
      <trkpt lat="46.586590586230159" lon="7.18844136223197">
        <ele>1245.199951171875</ele>
        <time>2014-11-14T14:18:14Z</time>
      </trkpt>
      <trkpt lat="46.586592681705952" lon="7.188382102176547">
        <ele>1246</ele>
        <time>2014-11-14T14:18:17Z</time>
      </trkpt>
      <trkpt lat="46.586584886536002" lon="7.188346059992909">
        <ele>1246.4000244140625</ele>
        <time>2014-11-14T14:18:19Z</time>
      </trkpt>
      <trkpt lat="46.586580695584416" lon="7.188280345872045">
        <ele>1247.199951171875</ele>
        <time>2014-11-14T14:18:23Z</time>
      </trkpt>
      <trkpt lat="46.586577678099275" lon="7.188252182677388">
        <ele>1247.5999755859375</ele>
        <time>2014-11-14T14:18:25Z</time>
      </trkpt>
      <trkpt lat="46.586582204326987" lon="7.188203316181898">
        <ele>1248</ele>
        <time>2014-11-14T14:18:28Z</time>
      </trkpt>
      <trkpt lat="46.586585054174066" lon="7.188186133280397">
        <ele>1248.199951171875</ele>
        <time>2014-11-14T14:18:29Z</time>
      </trkpt>
      <trkpt lat="46.58658379688859" lon="7.188138943165541">
        <ele>1249</ele>
        <time>2014-11-14T14:18:32Z</time>
      </trkpt>
      <trkpt lat="46.586579689756036" lon="7.188073648139834">
        <ele>1249.5999755859375</ele>
        <time>2014-11-14T14:18:36Z</time>
      </trkpt>
      <trkpt lat="46.586574409157038" lon="7.188019417226315">
        <ele>1250.199951171875</ele>
        <time>2014-11-14T14:18:39Z</time>
      </trkpt>
      <trkpt lat="46.586567368358374" lon="7.188004748895764">
        <ele>1250.4000244140625</ele>
        <time>2014-11-14T14:18:40Z</time>
      </trkpt>
      <trkpt lat="46.586560243740678" lon="7.187992176041007">
        <ele>1250.5999755859375</ele>
        <time>2014-11-14T14:18:41Z</time>
      </trkpt>
      <trkpt lat="46.5865573938936" lon="7.187979687005281">
        <ele>1250.5999755859375</ele>
        <time>2014-11-14T14:18:42Z</time>
      </trkpt>
      <trkpt lat="46.586551526561379" lon="7.187940124422312">
        <ele>1251.199951171875</ele>
        <time>2014-11-14T14:18:45Z</time>
      </trkpt>
      <trkpt lat="46.586549431085587" lon="7.187906010076404">
        <ele>1251.5999755859375</ele>
        <time>2014-11-14T14:18:47Z</time>
      </trkpt>
      <trkpt lat="46.586524453014135" lon="7.187806935980916">
        <ele>1252.4000244140625</ele>
        <time>2014-11-14T14:18:53Z</time>
      </trkpt>
      <trkpt lat="46.586516909301281" lon="7.187791848555207">
        <ele>1252.5999755859375</ele>
        <time>2014-11-14T14:18:54Z</time>
      </trkpt>
      <trkpt lat="46.58650659956038" lon="7.187759410589933">
        <ele>1253</ele>
        <time>2014-11-14T14:18:56Z</time>
      </trkpt>
      <trkpt lat="46.586491847410798" lon="7.187700737267733">
        <ele>1253.4000244140625</ele>
        <time>2014-11-14T14:18:59Z</time>
      </trkpt>
      <trkpt lat="46.586481789126992" lon="7.187685985118151">
        <ele>1253.4000244140625</ele>
        <time>2014-11-14T14:19:00Z</time>
      </trkpt>
      <trkpt lat="46.586472233757377" lon="7.187674082815647">
        <ele>1253.800048828125</ele>
        <time>2014-11-14T14:19:01Z</time>
      </trkpt>
      <trkpt lat="46.586429988965392" lon="7.187638962641358">
        <ele>1254.4000244140625</ele>
        <time>2014-11-14T14:19:05Z</time>
      </trkpt>
      <trkpt lat="46.586414482444525" lon="7.187615660950542">
        <ele>1254.800048828125</ele>
        <time>2014-11-14T14:19:07Z</time>
      </trkpt>
      <trkpt lat="46.586404256522655" lon="7.18758774921298">
        <ele>1255.199951171875</ele>
        <time>2014-11-14T14:19:09Z</time>
      </trkpt>
      <trkpt lat="46.586370477452874" lon="7.187539720907807">
        <ele>1255.800048828125</ele>
        <time>2014-11-14T14:19:13Z</time>
      </trkpt>
      <trkpt lat="46.586319515481591" lon="7.187482640147209">
        <ele>1256.800048828125</ele>
        <time>2014-11-14T14:19:19Z</time>
      </trkpt>
      <trkpt lat="46.58631163649261" lon="7.187469229102135">
        <ele>1257.199951171875</ele>
        <time>2014-11-14T14:19:20Z</time>
      </trkpt>
      <trkpt lat="46.586302667856216" lon="7.187455398961902">
        <ele>1257.4000244140625</ele>
        <time>2014-11-14T14:19:21Z</time>
      </trkpt>
      <trkpt lat="46.586269559338689" lon="7.187398066744208">
        <ele>1258.199951171875</ele>
        <time>2014-11-14T14:19:25Z</time>
      </trkpt>
      <trkpt lat="46.586257657036185" lon="7.187391109764576">
        <ele>1258.4000244140625</ele>
        <time>2014-11-14T14:19:26Z</time>
      </trkpt>
      <trkpt lat="46.586234020069242" lon="7.187375938519836">
        <ele>1258.800048828125</ele>
        <time>2014-11-14T14:19:28Z</time>
      </trkpt>
      <trkpt lat="46.586212813854218" lon="7.187336627393961">
        <ele>1259.4000244140625</ele>
        <time>2014-11-14T14:19:31Z</time>
      </trkpt>
      <trkpt lat="46.58619630150497" lon="7.187313409522176">
        <ele>1259.800048828125</ele>
        <time>2014-11-14T14:19:33Z</time>
      </trkpt>
      <trkpt lat="46.586188925430179" lon="7.187300752848387">
        <ele>1260</ele>
        <time>2014-11-14T14:19:34Z</time>
      </trkpt>
      <trkpt lat="46.586174927651882" lon="7.18727795407176">
        <ele>1260.4000244140625</ele>
        <time>2014-11-14T14:19:36Z</time>
      </trkpt>
      <trkpt lat="46.586141316220164" lon="7.187194218859077">
        <ele>1261.5999755859375</ele>
        <time>2014-11-14T14:19:41Z</time>
      </trkpt>
      <trkpt lat="46.586131593212485" lon="7.187180891633034">
        <ele>1261.5999755859375</ele>
        <time>2014-11-14T14:19:42Z</time>
      </trkpt>
      <trkpt lat="46.586109884083271" lon="7.187146358191967">
        <ele>1262.4000244140625</ele>
        <time>2014-11-14T14:19:45Z</time>
      </trkpt>
      <trkpt lat="46.586098903790116" lon="7.187113668769598">
        <ele>1262.5999755859375</ele>
        <time>2014-11-14T14:19:47Z</time>
      </trkpt>
      <trkpt lat="46.586078871041536" lon="7.18706538900733">
        <ele>1263.199951171875</ele>
        <time>2014-11-14T14:19:50Z</time>
      </trkpt>
      <trkpt lat="46.586059425026178" lon="7.18701358884573">
        <ele>1263.5999755859375</ele>
        <time>2014-11-14T14:19:53Z</time>
      </trkpt>
      <trkpt lat="46.586048780009151" lon="7.186928344890475">
        <ele>1264.199951171875</ele>
        <time>2014-11-14T14:19:57Z</time>
      </trkpt>
      <trkpt lat="46.586021287366748" lon="7.186870342120528">
        <ele>1264.800048828125</ele>
        <time>2014-11-14T14:20:00Z</time>
      </trkpt>
      <trkpt lat="46.585992285981774" lon="7.186829270794988">
        <ele>1265.4000244140625</ele>
        <time>2014-11-14T14:20:03Z</time>
      </trkpt>
      <trkpt lat="46.585954651236534" lon="7.186767663806677">
        <ele>1265.800048828125</ele>
        <time>2014-11-14T14:20:07Z</time>
      </trkpt>
      <trkpt lat="46.585945598781109" lon="7.186758192256093">
        <ele>1266.199951171875</ele>
        <time>2014-11-14T14:20:08Z</time>
      </trkpt>
      <trkpt lat="46.585923051461577" lon="7.186754085123539">
        <ele>1266.4000244140625</ele>
        <time>2014-11-14T14:20:10Z</time>
      </trkpt>
      <trkpt lat="46.585899163037539" lon="7.186749977990985">
        <ele>1266.800048828125</ele>
        <time>2014-11-14T14:20:12Z</time>
      </trkpt>
      <trkpt lat="46.585847279056907" lon="7.1867301966995">
        <ele>1267.5999755859375</ele>
        <time>2014-11-14T14:20:17Z</time>
      </trkpt>
      <trkpt lat="46.585835292935371" lon="7.186721647158265">
        <ele>1267.800048828125</ele>
        <time>2014-11-14T14:20:18Z</time>
      </trkpt>
      <trkpt lat="46.585818193852901" lon="7.186715276911855">
        <ele>1268</ele>
        <time>2014-11-14T14:20:19Z</time>
      </trkpt>
      <trkpt lat="46.585722304880619" lon="7.186697758734226">
        <ele>1269.199951171875</ele>
        <time>2014-11-14T14:20:24Z</time>
      </trkpt>
      <trkpt lat="46.585624068975449" lon="7.186666494235396">
        <ele>1270.199951171875</ele>
        <time>2014-11-14T14:20:30Z</time>
      </trkpt>
      <trkpt lat="46.585591631010175" lon="7.186652664095163">
        <ele>1270.5999755859375</ele>
        <time>2014-11-14T14:20:32Z</time>
      </trkpt>
      <trkpt lat="46.585496831685305" lon="7.186542944982648">
        <ele>1271.199951171875</ele>
        <time>2014-11-14T14:20:38Z</time>
      </trkpt>
      <trkpt lat="46.585364481434226" lon="7.18636080622673">
        <ele>1271.199951171875</ele>
        <time>2014-11-14T14:20:44Z</time>
      </trkpt>
      <trkpt lat="46.585157616063952" lon="7.186013208702207">
        <ele>1271</ele>
        <time>2014-11-14T14:20:52Z</time>
      </trkpt>
      <trkpt lat="46.58491269685328" lon="7.185598472133279">
        <ele>1270.800048828125</ele>
        <time>2014-11-14T14:21:00Z</time>
      </trkpt>
      <trkpt lat="46.58474262803793" lon="7.185290437191725">
        <ele>1271.4000244140625</ele>
        <time>2014-11-14T14:21:06Z</time>
      </trkpt>
      <trkpt lat="46.584723265841603" lon="7.185246516019106">
        <ele>1271.4000244140625</ele>
        <time>2014-11-14T14:21:07Z</time>
      </trkpt>
      <trkpt lat="46.584641207009554" lon="7.185082985088229">
        <ele>1272.5999755859375</ele>
        <time>2014-11-14T14:21:12Z</time>
      </trkpt>
      <trkpt lat="46.584632406011224" lon="7.185055911540985">
        <ele>1272.800048828125</ele>
        <time>2014-11-14T14:21:13Z</time>
      </trkpt>
      <trkpt lat="46.584599632769823" lon="7.184978295117617">
        <ele>1273.5999755859375</ele>
        <time>2014-11-14T14:21:17Z</time>
      </trkpt>
      <trkpt lat="46.584589825943112" lon="7.184960525482893">
        <ele>1273.800048828125</ele>
        <time>2014-11-14T14:21:18Z</time>
      </trkpt>
      <trkpt lat="46.58456233330071" lon="7.184852734208107">
        <ele>1274.5999755859375</ele>
        <time>2014-11-14T14:21:23Z</time>
      </trkpt>
      <trkpt lat="46.584547916427255" lon="7.184809232130647">
        <ele>1275</ele>
        <time>2014-11-14T14:21:25Z</time>
      </trkpt>
      <trkpt lat="46.584519753232598" lon="7.184758186340332">
        <ele>1275.5999755859375</ele>
        <time>2014-11-14T14:21:28Z</time>
      </trkpt>
      <trkpt lat="46.584500558674335" lon="7.184699177742004">
        <ele>1276.199951171875</ele>
        <time>2014-11-14T14:21:31Z</time>
      </trkpt>
      <trkpt lat="46.584472646936774" lon="7.184640923514962">
        <ele>1276.800048828125</ele>
        <time>2014-11-14T14:21:34Z</time>
      </trkpt>
      <trkpt lat="46.584434257820249" lon="7.184538245201111">
        <ele>1277.800048828125</ele>
        <time>2014-11-14T14:21:39Z</time>
      </trkpt>
      <trkpt lat="46.584430653601885" lon="7.184515697881579">
        <ele>1277.800048828125</ele>
        <time>2014-11-14T14:21:40Z</time>
      </trkpt>
      <trkpt lat="46.584414811804891" lon="7.184428358450532">
        <ele>1278.800048828125</ele>
        <time>2014-11-14T14:21:44Z</time>
      </trkpt>
      <trkpt lat="46.584405926987529" lon="7.184409331530333">
        <ele>1279</ele>
        <time>2014-11-14T14:21:45Z</time>
      </trkpt>
      <trkpt lat="46.584391761571169" lon="7.184372032061219">
        <ele>1279.5999755859375</ele>
        <time>2014-11-14T14:21:47Z</time>
      </trkpt>
      <trkpt lat="46.584373572841287" lon="7.184325009584427">
        <ele>1280.199951171875</ele>
        <time>2014-11-14T14:21:50Z</time>
      </trkpt>
      <trkpt lat="46.584358988329768" lon="7.184296092018485">
        <ele>1280.5999755859375</ele>
        <time>2014-11-14T14:21:52Z</time>
      </trkpt>
      <trkpt lat="46.584341051056981" lon="7.184270946308971">
        <ele>1280.800048828125</ele>
        <time>2014-11-14T14:21:54Z</time>
      </trkpt>
      <trkpt lat="46.584336021915078" lon="7.184254517778754">
        <ele>1281.199951171875</ele>
        <time>2014-11-14T14:21:55Z</time>
      </trkpt>
      <trkpt lat="46.584316994994879" lon="7.18417807482183">
        <ele>1282</ele>
        <time>2014-11-14T14:22:00Z</time>
      </trkpt>
      <trkpt lat="46.584304003044963" lon="7.184152510017157">
        <ele>1282.199951171875</ele>
        <time>2014-11-14T14:22:02Z</time>
      </trkpt>
      <trkpt lat="46.584286903962493" lon="7.184094171971083">
        <ele>1282.800048828125</ele>
        <time>2014-11-14T14:22:06Z</time>
      </trkpt>
      <trkpt lat="46.584282796829939" lon="7.184061063453555">
        <ele>1283.4000244140625</ele>
        <time>2014-11-14T14:22:08Z</time>
      </trkpt>
      <trkpt lat="46.584253460168839" lon="7.18398604542017">
        <ele>1284.199951171875</ele>
        <time>2014-11-14T14:22:14Z</time>
      </trkpt>
      <trkpt lat="46.584247844293714" lon="7.183974478393793">
        <ele>1284.4000244140625</ele>
        <time>2014-11-14T14:22:15Z</time>
      </trkpt>
      <trkpt lat="46.584218172356486" lon="7.183873476460576">
        <ele>1285.5999755859375</ele>
        <time>2014-11-14T14:22:21Z</time>
      </trkpt>
      <trkpt lat="46.584218507632613" lon="7.183839697390795">
        <ele>1285.800048828125</ele>
        <time>2014-11-14T14:22:23Z</time>
      </trkpt>
      <trkpt lat="46.584188751876354" lon="7.183742467314005">
        <ele>1286.800048828125</ele>
        <time>2014-11-14T14:22:29Z</time>
      </trkpt>
      <trkpt lat="46.584172071889043" lon="7.183714136481285">
        <ele>1287</ele>
        <time>2014-11-14T14:22:31Z</time>
      </trkpt>
      <trkpt lat="46.584154637530446" lon="7.183660911396146">
        <ele>1287.800048828125</ele>
        <time>2014-11-14T14:22:35Z</time>
      </trkpt>
      <trkpt lat="46.584115913137794" lon="7.183606009930372">
        <ele>1288.4000244140625</ele>
        <time>2014-11-14T14:22:40Z</time>
      </trkpt>
      <trkpt lat="46.584095126017928" lon="7.18359125778079">
        <ele>1288.800048828125</ele>
        <time>2014-11-14T14:22:42Z</time>
      </trkpt>
      <trkpt lat="46.584079032763839" lon="7.183545492589474">
        <ele>1289.199951171875</ele>
        <time>2014-11-14T14:22:45Z</time>
      </trkpt>
      <trkpt lat="46.584065034985542" lon="7.183516910299659">
        <ele>1289.800048828125</ele>
        <time>2014-11-14T14:22:48Z</time>
      </trkpt>
      <trkpt lat="46.584050701931119" lon="7.183490926399827">
        <ele>1290.4000244140625</ele>
        <time>2014-11-14T14:22:51Z</time>
      </trkpt>
      <trkpt lat="46.584043242037296" lon="7.183482963591814">
        <ele>1290.5999755859375</ele>
        <time>2014-11-14T14:22:52Z</time>
      </trkpt>
      <trkpt lat="46.584030417725444" lon="7.18345639295876">
        <ele>1291</ele>
        <time>2014-11-14T14:22:54Z</time>
      </trkpt>
      <trkpt lat="46.584025388583541" lon="7.183442730456591">
        <ele>1291</ele>
        <time>2014-11-14T14:22:55Z</time>
      </trkpt>
      <trkpt lat="46.584005942568183" lon="7.183399563655257">
        <ele>1292</ele>
        <time>2014-11-14T14:22:58Z</time>
      </trkpt>
      <trkpt lat="46.583998063579202" lon="7.183360671624541">
        <ele>1292.199951171875</ele>
        <time>2014-11-14T14:23:00Z</time>
      </trkpt>
      <trkpt lat="46.583990855142474" lon="7.183342315256596">
        <ele>1292.199951171875</ele>
        <time>2014-11-14T14:23:01Z</time>
      </trkpt>
      <trkpt lat="46.583954393863678" lon="7.183261513710022">
        <ele>1293</ele>
        <time>2014-11-14T14:23:07Z</time>
      </trkpt>
      <trkpt lat="46.58394617959857" lon="7.183247851207852">
        <ele>1293.199951171875</ele>
        <time>2014-11-14T14:23:08Z</time>
      </trkpt>
      <trkpt lat="46.583893289789557" lon="7.183179119601846">
        <ele>1294.199951171875</ele>
        <time>2014-11-14T14:23:14Z</time>
      </trkpt>
      <trkpt lat="46.583884404972196" lon="7.1831641998142">
        <ele>1294.4000244140625</ele>
        <time>2014-11-14T14:23:15Z</time>
      </trkpt>
      <trkpt lat="46.583837131038308" lon="7.183068646118045">
        <ele>1295.4000244140625</ele>
        <time>2014-11-14T14:23:20Z</time>
      </trkpt>
      <trkpt lat="46.583802346140146" lon="7.183024222031236">
        <ele>1295.5999755859375</ele>
        <time>2014-11-14T14:23:23Z</time>
      </trkpt>
      <trkpt lat="46.583741325885057" lon="7.182967560365796">
        <ele>1296.4000244140625</ele>
        <time>2014-11-14T14:23:28Z</time>
      </trkpt>
      <trkpt lat="46.583685670047998" lon="7.182929087430239">
        <ele>1297</ele>
        <time>2014-11-14T14:23:32Z</time>
      </trkpt>
      <trkpt lat="46.583655243739486" lon="7.182919615879655">
        <ele>1297.4000244140625</ele>
        <time>2014-11-14T14:23:34Z</time>
      </trkpt>
      <trkpt lat="46.583586931228638" lon="7.182825822383165">
        <ele>1298.199951171875</ele>
        <time>2014-11-14T14:23:39Z</time>
      </trkpt>
      <trkpt lat="46.58356798812747" lon="7.182805789634585">
        <ele>1298.4000244140625</ele>
        <time>2014-11-14T14:23:40Z</time>
      </trkpt>
      <trkpt lat="46.583480061963201" lon="7.182702189311385">
        <ele>1299.5999755859375</ele>
        <time>2014-11-14T14:23:45Z</time>
      </trkpt>
      <trkpt lat="46.583389537408948" lon="7.182638319209218">
        <ele>1300.800048828125</ele>
        <time>2014-11-14T14:23:51Z</time>
      </trkpt>
      <trkpt lat="46.583379227668047" lon="7.182621974498034">
        <ele>1301</ele>
        <time>2014-11-14T14:23:52Z</time>
      </trkpt>
      <trkpt lat="46.583369672298431" lon="7.182604959234595">
        <ele>1301.199951171875</ele>
        <time>2014-11-14T14:23:53Z</time>
      </trkpt>
      <trkpt lat="46.583301946520805" lon="7.182543016970158">
        <ele>1302</ele>
        <time>2014-11-14T14:23:58Z</time>
      </trkpt>
      <trkpt lat="46.583257773891091" lon="7.182519128546119">
        <ele>1302.4000244140625</ele>
        <time>2014-11-14T14:24:01Z</time>
      </trkpt>
      <trkpt lat="46.583206057548523" lon="7.182456683367491">
        <ele>1303</ele>
        <time>2014-11-14T14:24:05Z</time>
      </trkpt>
      <trkpt lat="46.583148976787925" lon="7.182412846013904">
        <ele>1304</ele>
        <time>2014-11-14T14:24:09Z</time>
      </trkpt>
      <trkpt lat="46.583136739209294" lon="7.182398261502385">
        <ele>1304.199951171875</ele>
        <time>2014-11-14T14:24:10Z</time>
      </trkpt>
      <trkpt lat="46.583050237968564" lon="7.182336738333106">
        <ele>1305.199951171875</ele>
        <time>2014-11-14T14:24:16Z</time>
      </trkpt>
      <trkpt lat="46.583028864115477" lon="7.182315280660987">
        <ele>1305.5999755859375</ele>
        <time>2014-11-14T14:24:18Z</time>
      </trkpt>
      <trkpt lat="46.582969687879086" lon="7.182244202122092">
        <ele>1306.4000244140625</ele>
        <time>2014-11-14T14:24:24Z</time>
      </trkpt>
      <trkpt lat="46.582899279892445" lon="7.182212686166167">
        <ele>1307.4000244140625</ele>
        <time>2014-11-14T14:24:31Z</time>
      </trkpt>
      <trkpt lat="46.582819567993283" lon="7.182175219058991">
        <ele>1308.5999755859375</ele>
        <time>2014-11-14T14:24:38Z</time>
      </trkpt>
      <trkpt lat="46.582738934084773" lon="7.18214931897819">
        <ele>1309.5999755859375</ele>
        <time>2014-11-14T14:24:45Z</time>
      </trkpt>
      <trkpt lat="46.582696940749884" lon="7.182135488837957">
        <ele>1310</ele>
        <time>2014-11-14T14:24:49Z</time>
      </trkpt>
      <trkpt lat="46.582665592432022" lon="7.182137416675687">
        <ele>1310.800048828125</ele>
        <time>2014-11-14T14:24:52Z</time>
      </trkpt>
      <trkpt lat="46.58260490745306" lon="7.182093746960163">
        <ele>1311.800048828125</ele>
        <time>2014-11-14T14:24:58Z</time>
      </trkpt>
      <trkpt lat="46.582574816420674" lon="7.18203155323863">
        <ele>1312.4000244140625</ele>
        <time>2014-11-14T14:25:02Z</time>
      </trkpt>
      <trkpt lat="46.582565261051059" lon="7.181998528540134">
        <ele>1312.800048828125</ele>
        <time>2014-11-14T14:25:04Z</time>
      </trkpt>
      <trkpt lat="46.582531398162246" lon="7.181954020634294">
        <ele>1313.4000244140625</ele>
        <time>2014-11-14T14:25:08Z</time>
      </trkpt>
      <trkpt lat="46.582511533051729" lon="7.181919403374195">
        <ele>1313.800048828125</ele>
        <time>2014-11-14T14:25:11Z</time>
      </trkpt>
      <trkpt lat="46.582516143098474" lon="7.181899705901742">
        <ele>1314</ele>
        <time>2014-11-14T14:25:12Z</time>
      </trkpt>
      <trkpt lat="46.582522261887789" lon="7.181880930438638">
        <ele>1314.199951171875</ele>
        <time>2014-11-14T14:25:13Z</time>
      </trkpt>
      <trkpt lat="46.582518657669425" lon="7.181765008717775">
        <ele>1315</ele>
        <time>2014-11-14T14:25:19Z</time>
      </trkpt>
      <trkpt lat="46.582514215260744" lon="7.181734079495072">
        <ele>1315.800048828125</ele>
        <time>2014-11-14T14:25:21Z</time>
      </trkpt>
      <trkpt lat="46.582528883591294" lon="7.181676244363189">
        <ele>1316.199951171875</ele>
        <time>2014-11-14T14:25:25Z</time>
      </trkpt>
      <trkpt lat="46.582564422860742" lon="7.181589156389237">
        <ele>1317.4000244140625</ele>
        <time>2014-11-14T14:25:31Z</time>
      </trkpt>
      <trkpt lat="46.582572050392628" lon="7.181561663746834">
        <ele>1317.5999755859375</ele>
        <time>2014-11-14T14:25:33Z</time>
      </trkpt>
      <trkpt lat="46.582591664046049" lon="7.181492932140827">
        <ele>1318.4000244140625</ele>
        <time>2014-11-14T14:25:37Z</time>
      </trkpt>
      <trkpt lat="46.582596357911825" lon="7.181428475305438">
        <ele>1319.199951171875</ele>
        <time>2014-11-14T14:25:41Z</time>
      </trkpt>
      <trkpt lat="46.582606080919504" lon="7.181396624073386">
        <ele>1319.5999755859375</ele>
        <time>2014-11-14T14:25:43Z</time>
      </trkpt>
      <trkpt lat="46.582615301012993" lon="7.18132789246738">
        <ele>1320.199951171875</ele>
        <time>2014-11-14T14:25:47Z</time>
      </trkpt>
      <trkpt lat="46.582621419802308" lon="7.181293275207281">
        <ele>1320.5999755859375</ele>
        <time>2014-11-14T14:25:49Z</time>
      </trkpt>
      <trkpt lat="46.582649918273091" lon="7.181179281324148">
        <ele>1321.5999755859375</ele>
        <time>2014-11-14T14:25:56Z</time>
      </trkpt>
      <trkpt lat="46.582670621573925" lon="7.181070065125823">
        <ele>1322.800048828125</ele>
        <time>2014-11-14T14:26:02Z</time>
      </trkpt>
      <trkpt lat="46.582671878859401" lon="7.181050702929497">
        <ele>1323</ele>
        <time>2014-11-14T14:26:03Z</time>
      </trkpt>
      <trkpt lat="46.58267380669713" lon="7.180963950231671">
        <ele>1324</ele>
        <time>2014-11-14T14:26:08Z</time>
      </trkpt>
      <trkpt lat="46.582676153630018" lon="7.180927405133843">
        <ele>1324.4000244140625</ele>
        <time>2014-11-14T14:26:10Z</time>
      </trkpt>
      <trkpt lat="46.582666765898466" lon="7.180875185877085">
        <ele>1325</ele>
        <time>2014-11-14T14:26:13Z</time>
      </trkpt>
      <trkpt lat="46.582662491127849" lon="7.180858254432678">
        <ele>1325.4000244140625</ele>
        <time>2014-11-14T14:26:14Z</time>
      </trkpt>
      <trkpt lat="46.582664083689451" lon="7.180839311331511">
        <ele>1325.5999755859375</ele>
        <time>2014-11-14T14:26:15Z</time>
      </trkpt>
      <trkpt lat="46.582674141973257" lon="7.180777201429009">
        <ele>1326</ele>
        <time>2014-11-14T14:26:18Z</time>
      </trkpt>
      <trkpt lat="46.582638099789619" lon="7.180661950260401">
        <ele>1327</ele>
        <time>2014-11-14T14:26:24Z</time>
      </trkpt>
      <trkpt lat="46.582634327933192" lon="7.180641749873757">
        <ele>1327</ele>
        <time>2014-11-14T14:26:25Z</time>
      </trkpt>
      <trkpt lat="46.58263030461967" lon="7.18054267577827">
        <ele>1328</ele>
        <time>2014-11-14T14:26:30Z</time>
      </trkpt>
      <trkpt lat="46.582622174173594" lon="7.180529851466417">
        <ele>1328.199951171875</ele>
        <time>2014-11-14T14:26:31Z</time>
      </trkpt>
      <trkpt lat="46.582595268264413" lon="7.180430693551898">
        <ele>1329.199951171875</ele>
        <time>2014-11-14T14:26:37Z</time>
      </trkpt>
      <trkpt lat="46.582575989887118" lon="7.180380402132869">
        <ele>1329.5999755859375</ele>
        <time>2014-11-14T14:26:40Z</time>
      </trkpt>
      <trkpt lat="46.582562327384949" lon="7.180326925590634">
        <ele>1330.4000244140625</ele>
        <time>2014-11-14T14:26:43Z</time>
      </trkpt>
      <trkpt lat="46.582538522779942" lon="7.180274371057749">
        <ele>1330.199951171875</ele>
        <time>2014-11-14T14:26:46Z</time>
      </trkpt>
      <trkpt lat="46.582500301301479" lon="7.180197844281793">
        <ele>1331.5999755859375</ele>
        <time>2014-11-14T14:26:51Z</time>
      </trkpt>
      <trkpt lat="46.582480268552899" lon="7.180124586448073">
        <ele>1332.4000244140625</ele>
        <time>2014-11-14T14:26:55Z</time>
      </trkpt>
      <trkpt lat="46.582467863336205" lon="7.180092483758926">
        <ele>1332.800048828125</ele>
        <time>2014-11-14T14:26:57Z</time>
      </trkpt>
      <trkpt lat="46.582434922456741" lon="7.180005814880133">
        <ele>1333.5999755859375</ele>
        <time>2014-11-14T14:27:02Z</time>
      </trkpt>
      <trkpt lat="46.58241874538362" lon="7.179970778524876">
        <ele>1333.800048828125</ele>
        <time>2014-11-14T14:27:04Z</time>
      </trkpt>
      <trkpt lat="46.582385888323188" lon="7.179893581196666">
        <ele>1334.5999755859375</ele>
        <time>2014-11-14T14:27:09Z</time>
      </trkpt>
      <trkpt lat="46.582382200285792" lon="7.179874889552593">
        <ele>1334.800048828125</ele>
        <time>2014-11-14T14:27:10Z</time>
      </trkpt>
      <trkpt lat="46.582371974363923" lon="7.179794758558273">
        <ele>1335.5999755859375</ele>
        <time>2014-11-14T14:27:14Z</time>
      </trkpt>
      <trkpt lat="46.582366609945893" lon="7.179773384705186">
        <ele>1335.5999755859375</ele>
        <time>2014-11-14T14:27:15Z</time>
      </trkpt>
      <trkpt lat="46.582361748442054" lon="7.179710520431399">
        <ele>1336</ele>
        <time>2014-11-14T14:27:18Z</time>
      </trkpt>
      <trkpt lat="46.582338195294142" lon="7.179617062211037">
        <ele>1336.800048828125</ele>
        <time>2014-11-14T14:27:22Z</time>
      </trkpt>
      <trkpt lat="46.582327047362924" lon="7.179567022249103">
        <ele>1337.199951171875</ele>
        <time>2014-11-14T14:27:24Z</time>
      </trkpt>
      <trkpt lat="46.582316569983959" lon="7.179408436641097">
        <ele>1337.800048828125</ele>
        <time>2014-11-14T14:27:30Z</time>
      </trkpt>
      <trkpt lat="46.582314809784293" lon="7.179353283718228">
        <ele>1338.199951171875</ele>
        <time>2014-11-14T14:27:32Z</time>
      </trkpt>
      <trkpt lat="46.582294777035713" lon="7.17917307280004">
        <ele>1338.5999755859375</ele>
        <time>2014-11-14T14:27:38Z</time>
      </trkpt>
      <trkpt lat="46.582259992137551" lon="7.178959669545293">
        <ele>1339.4000244140625</ele>
        <time>2014-11-14T14:27:45Z</time>
      </trkpt>
      <trkpt lat="46.582240713760257" lon="7.178896637633443">
        <ele>1339.800048828125</ele>
        <time>2014-11-14T14:27:47Z</time>
      </trkpt>
      <trkpt lat="46.5821832139045" lon="7.178773172199726">
        <ele>1340.5999755859375</ele>
        <time>2014-11-14T14:27:52Z</time>
      </trkpt>
      <trkpt lat="46.582167288288474" lon="7.178722461685538">
        <ele>1341</ele>
        <time>2014-11-14T14:27:54Z</time>
      </trkpt>
      <trkpt lat="46.582138286903501" lon="7.178649203851819">
        <ele>1341.5999755859375</ele>
        <time>2014-11-14T14:27:57Z</time>
      </trkpt>
      <trkpt lat="46.58208254724741" lon="7.178529929369688">
        <ele>1342.5999755859375</ele>
        <time>2014-11-14T14:28:03Z</time>
      </trkpt>
      <trkpt lat="46.582076177000999" lon="7.178514339029789">
        <ele>1342.5999755859375</ele>
        <time>2014-11-14T14:28:04Z</time>
      </trkpt>
      <trkpt lat="46.582039212808013" lon="7.178432028740645">
        <ele>1344</ele>
        <time>2014-11-14T14:28:09Z</time>
      </trkpt>
      <trkpt lat="46.582028651610017" lon="7.178417695686221">
        <ele>1344.4000244140625</ele>
        <time>2014-11-14T14:28:10Z</time>
      </trkpt>
      <trkpt lat="46.582019096240401" lon="7.178386766463518">
        <ele>1344.5999755859375</ele>
        <time>2014-11-14T14:28:12Z</time>
      </trkpt>
      <trkpt lat="46.582014737650752" lon="7.178333709016442">
        <ele>1345.199951171875</ele>
        <time>2014-11-14T14:28:15Z</time>
      </trkpt>
      <trkpt lat="46.582009959965944" lon="7.178315436467528">
        <ele>1345.4000244140625</ele>
        <time>2014-11-14T14:28:16Z</time>
      </trkpt>
      <trkpt lat="46.582003338262439" lon="7.178300516679883">
        <ele>1345.5999755859375</ele>
        <time>2014-11-14T14:28:17Z</time>
      </trkpt>
      <trkpt lat="46.581977941095829" lon="7.178242849186063">
        <ele>1346.4000244140625</ele>
        <time>2014-11-14T14:28:21Z</time>
      </trkpt>
      <trkpt lat="46.581975342705846" lon="7.178225833922625">
        <ele>1346.5999755859375</ele>
        <time>2014-11-14T14:28:22Z</time>
      </trkpt>
      <trkpt lat="46.581960758194327" lon="7.178149474784732">
        <ele>1347.199951171875</ele>
        <time>2014-11-14T14:28:26Z</time>
      </trkpt>
      <trkpt lat="46.5819569863379" lon="7.178129442036152">
        <ele>1347.4000244140625</ele>
        <time>2014-11-14T14:28:27Z</time>
      </trkpt>
      <trkpt lat="46.581951370462775" lon="7.178112678229809">
        <ele>1347.4000244140625</ele>
        <time>2014-11-14T14:28:28Z</time>
      </trkpt>
      <trkpt lat="46.581947263330221" lon="7.178096333518624">
        <ele>1347.5999755859375</ele>
        <time>2014-11-14T14:28:29Z</time>
      </trkpt>
      <trkpt lat="46.581937372684479" lon="7.178025422617793">
        <ele>1348.4000244140625</ele>
        <time>2014-11-14T14:28:33Z</time>
      </trkpt>
      <trkpt lat="46.581928990781307" lon="7.177974293008447">
        <ele>1349</ele>
        <time>2014-11-14T14:28:36Z</time>
      </trkpt>
      <trkpt lat="46.58190275542438" lon="7.17790748924017">
        <ele>1349.4000244140625</ele>
        <time>2014-11-14T14:28:40Z</time>
      </trkpt>
      <trkpt lat="46.581896217539907" lon="7.177873123437166">
        <ele>1349.800048828125</ele>
        <time>2014-11-14T14:28:42Z</time>
      </trkpt>
      <trkpt lat="46.581901917234063" lon="7.177842613309622">
        <ele>1350</ele>
        <time>2014-11-14T14:28:44Z</time>
      </trkpt>
      <trkpt lat="46.581895798444748" lon="7.177791399881244">
        <ele>1350.4000244140625</ele>
        <time>2014-11-14T14:28:47Z</time>
      </trkpt>
      <trkpt lat="46.581885488703847" lon="7.177780587226152">
        <ele>1350.5999755859375</ele>
        <time>2014-11-14T14:28:48Z</time>
      </trkpt>
      <trkpt lat="46.581863611936569" lon="7.177698612213135">
        <ele>1351.5999755859375</ele>
        <time>2014-11-14T14:28:54Z</time>
      </trkpt>
      <trkpt lat="46.581860342994332" lon="7.177627701312304">
        <ele>1352.4000244140625</ele>
        <time>2014-11-14T14:28:58Z</time>
      </trkpt>
      <trkpt lat="46.581857576966286" lon="7.177609344944358">
        <ele>1352.800048828125</ele>
        <time>2014-11-14T14:28:59Z</time>
      </trkpt>
      <trkpt lat="46.581853721290827" lon="7.177594089880586">
        <ele>1352.800048828125</ele>
        <time>2014-11-14T14:29:00Z</time>
      </trkpt>
      <trkpt lat="46.581830084323883" lon="7.177511025220156">
        <ele>1353.800048828125</ele>
        <time>2014-11-14T14:29:06Z</time>
      </trkpt>
      <trkpt lat="46.581826396286488" lon="7.177496189251542">
        <ele>1354</ele>
        <time>2014-11-14T14:29:07Z</time>
      </trkpt>
      <trkpt lat="46.581799322739244" lon="7.177401222288609">
        <ele>1355</ele>
        <time>2014-11-14T14:29:13Z</time>
      </trkpt>
      <trkpt lat="46.581799322739244" lon="7.177385967224836">
        <ele>1355.199951171875</ele>
        <time>2014-11-14T14:29:14Z</time>
      </trkpt>
      <trkpt lat="46.581802843138576" lon="7.177342297509313">
        <ele>1355.5999755859375</ele>
        <time>2014-11-14T14:29:17Z</time>
      </trkpt>
      <trkpt lat="46.581792030483484" lon="7.177311452105641">
        <ele>1356</ele>
        <time>2014-11-14T14:29:19Z</time>
      </trkpt>
      <trkpt lat="46.581785576418042" lon="7.177296616137028">
        <ele>1356.199951171875</ele>
        <time>2014-11-14T14:29:20Z</time>
      </trkpt>
      <trkpt lat="46.581760011613369" lon="7.177240708842874">
        <ele>1357</ele>
        <time>2014-11-14T14:29:24Z</time>
      </trkpt>
      <trkpt lat="46.581758251413703" lon="7.177223693579435">
        <ele>1357.199951171875</ele>
        <time>2014-11-14T14:29:25Z</time>
      </trkpt>
      <trkpt lat="46.581755317747593" lon="7.177191926166415">
        <ele>1357.5999755859375</ele>
        <time>2014-11-14T14:29:27Z</time>
      </trkpt>
      <trkpt lat="46.581748025491834" lon="7.17712763696909">
        <ele>1358.199951171875</ele>
        <time>2014-11-14T14:29:31Z</time>
      </trkpt>
      <trkpt lat="46.581727908924222" lon="7.177062509581447">
        <ele>1358.800048828125</ele>
        <time>2014-11-14T14:29:35Z</time>
      </trkpt>
      <trkpt lat="46.581703349947929" lon="7.177026299759746">
        <ele>1359.199951171875</ele>
        <time>2014-11-14T14:29:38Z</time>
      </trkpt>
      <trkpt lat="46.581691363826394" lon="7.176950862631202">
        <ele>1359.800048828125</ele>
        <time>2014-11-14T14:29:42Z</time>
      </trkpt>
      <trkpt lat="46.581686586141586" lon="7.176914736628532">
        <ele>1360.199951171875</ele>
        <time>2014-11-14T14:29:44Z</time>
      </trkpt>
      <trkpt lat="46.581663703545928" lon="7.176802838221192">
        <ele>1361.199951171875</ele>
        <time>2014-11-14T14:29:49Z</time>
      </trkpt>
      <trkpt lat="46.58165548928082" lon="7.176784398034215">
        <ele>1361.4000244140625</ele>
        <time>2014-11-14T14:29:50Z</time>
      </trkpt>
      <trkpt lat="46.581629840657115" lon="7.176666213199496">
        <ele>1362.4000244140625</ele>
        <time>2014-11-14T14:29:56Z</time>
      </trkpt>
      <trkpt lat="46.581626739352942" lon="7.17664978466928">
        <ele>1362.4000244140625</ele>
        <time>2014-11-14T14:29:57Z</time>
      </trkpt>
      <trkpt lat="46.581624560058117" lon="7.176606534048915">
        <ele>1362.800048828125</ele>
        <time>2014-11-14T14:29:59Z</time>
      </trkpt>
      <trkpt lat="46.581613160669804" lon="7.176539730280638">
        <ele>1363.4000244140625</ele>
        <time>2014-11-14T14:30:03Z</time>
      </trkpt>
      <trkpt lat="46.581608550623059" lon="7.176519529893994">
        <ele>1363.5999755859375</ele>
        <time>2014-11-14T14:30:04Z</time>
      </trkpt>
      <trkpt lat="46.581588601693511" lon="7.176392460241914">
        <ele>1364.4000244140625</ele>
        <time>2014-11-14T14:30:10Z</time>
      </trkpt>
      <trkpt lat="46.581569658592343" lon="7.176327249035239">
        <ele>1365</ele>
        <time>2014-11-14T14:30:13Z</time>
      </trkpt>
      <trkpt lat="46.581556834280491" lon="7.176234545186162">
        <ele>1365.4000244140625</ele>
        <time>2014-11-14T14:30:17Z</time>
      </trkpt>
      <trkpt lat="46.581550380215049" lon="7.1761445235461">
        <ele>1366.199951171875</ele>
        <time>2014-11-14T14:30:21Z</time>
      </trkpt>
      <trkpt lat="46.581543507054448" lon="7.176050813868642">
        <ele>1366.800048828125</ele>
        <time>2014-11-14T14:30:25Z</time>
      </trkpt>
      <trkpt lat="46.581535208970308" lon="7.175986189395189">
        <ele>1367.199951171875</ele>
        <time>2014-11-14T14:30:28Z</time>
      </trkpt>
      <trkpt lat="46.581510063260794" lon="7.175883259624243">
        <ele>1368</ele>
        <time>2014-11-14T14:30:33Z</time>
      </trkpt>
      <trkpt lat="46.581502603366971" lon="7.175814779475331">
        <ele>1368.4000244140625</ele>
        <time>2014-11-14T14:30:36Z</time>
      </trkpt>
      <trkpt lat="46.581482570618391" lon="7.175708916038275">
        <ele>1369.199951171875</ele>
        <time>2014-11-14T14:30:41Z</time>
      </trkpt>
      <trkpt lat="46.581451389938593" lon="7.175627024844289">
        <ele>1369.800048828125</ele>
        <time>2014-11-14T14:30:46Z</time>
      </trkpt>
      <trkpt lat="46.581433452665806" lon="7.175587546080351">
        <ele>1370.199951171875</ele>
        <time>2014-11-14T14:30:48Z</time>
      </trkpt>
      <trkpt lat="46.581393387168646" lon="7.175473384559155">
        <ele>1371.199951171875</ele>
        <time>2014-11-14T14:30:54Z</time>
      </trkpt>
      <trkpt lat="46.581386514008045" lon="7.175455112010241">
        <ele>1371.4000244140625</ele>
        <time>2014-11-14T14:30:55Z</time>
      </trkpt>
      <trkpt lat="46.581367738544941" lon="7.175381267443299">
        <ele>1372.4000244140625</ele>
        <time>2014-11-14T14:30:59Z</time>
      </trkpt>
      <trkpt lat="46.581355333328247" lon="7.175301220268011">
        <ele>1373.199951171875</ele>
        <time>2014-11-14T14:31:03Z</time>
      </trkpt>
      <trkpt lat="46.581344017758965" lon="7.175269201397896">
        <ele>1373.5999755859375</ele>
        <time>2014-11-14T14:31:05Z</time>
      </trkpt>
      <trkpt lat="46.581318201497197" lon="7.175154201686382">
        <ele>1374.800048828125</ele>
        <time>2014-11-14T14:31:11Z</time>
      </trkpt>
      <trkpt lat="46.581298252567649" lon="7.175050601363182">
        <ele>1375.800048828125</ele>
        <time>2014-11-14T14:31:17Z</time>
      </trkpt>
      <trkpt lat="46.581295905634761" lon="7.175032747909427">
        <ele>1375.800048828125</ele>
        <time>2014-11-14T14:31:18Z</time>
      </trkpt>
      <trkpt lat="46.581290038302541" lon="7.174936188384891">
        <ele>1376.800048828125</ele>
        <time>2014-11-14T14:31:23Z</time>
      </trkpt>
      <trkpt lat="46.581284925341606" lon="7.174898721277714">
        <ele>1377.199951171875</ele>
        <time>2014-11-14T14:31:25Z</time>
      </trkpt>
      <trkpt lat="46.581284170970321" lon="7.174814650788903">
        <ele>1378</ele>
        <time>2014-11-14T14:31:29Z</time>
      </trkpt>
      <trkpt lat="46.581290457397699" lon="7.17474658973515">
        <ele>1378.5999755859375</ele>
        <time>2014-11-14T14:31:32Z</time>
      </trkpt>
      <trkpt lat="46.581311328336596" lon="7.174682468175888">
        <ele>1379.199951171875</ele>
        <time>2014-11-14T14:31:35Z</time>
      </trkpt>
      <trkpt lat="46.581362625584006" lon="7.174616837874055">
        <ele>1379.800048828125</ele>
        <time>2014-11-14T14:31:39Z</time>
      </trkpt>
      <trkpt lat="46.581414928659797" lon="7.174584567546845">
        <ele>1380.199951171875</ele>
        <time>2014-11-14T14:31:42Z</time>
      </trkpt>
      <trkpt lat="46.581466728821397" lon="7.17455942183733">
        <ele>1380.5999755859375</ele>
        <time>2014-11-14T14:31:45Z</time>
      </trkpt>
      <trkpt lat="46.581599246710539" lon="7.174557074904442">
        <ele>1381.199951171875</ele>
        <time>2014-11-14T14:31:52Z</time>
      </trkpt>
      <trkpt lat="46.581617603078485" lon="7.174560343846679">
        <ele>1381.199951171875</ele>
        <time>2014-11-14T14:31:53Z</time>
      </trkpt>
      <trkpt lat="46.581713743507862" lon="7.174648437649012">
        <ele>1382</ele>
        <time>2014-11-14T14:31:59Z</time>
      </trkpt>
      <trkpt lat="46.581808794289827" lon="7.174720438197255">
        <ele>1382.4000244140625</ele>
        <time>2014-11-14T14:32:04Z</time>
      </trkpt>
      <trkpt lat="46.581828156486154" lon="7.174736447632313">
        <ele>1382.4000244140625</ele>
        <time>2014-11-14T14:32:05Z</time>
      </trkpt>
      <trkpt lat="46.581968888640404" lon="7.1748804487288">
        <ele>1383.4000244140625</ele>
        <time>2014-11-14T14:32:13Z</time>
      </trkpt>
      <trkpt lat="46.582063687965274" lon="7.174966027960181">
        <ele>1384.199951171875</ele>
        <time>2014-11-14T14:32:19Z</time>
      </trkpt>
      <trkpt lat="46.58208891749382" lon="7.174988491460681">
        <ele>1384.4000244140625</ele>
        <time>2014-11-14T14:32:21Z</time>
      </trkpt>
      <trkpt lat="46.582144740968943" lon="7.175042470917106">
        <ele>1385</ele>
        <time>2014-11-14T14:32:25Z</time>
      </trkpt>
      <trkpt lat="46.582189332693815" lon="7.175107346847653">
        <ele>1385.5999755859375</ele>
        <time>2014-11-14T14:32:29Z</time>
      </trkpt>
      <trkpt lat="46.582237360998988" lon="7.175159566104412">
        <ele>1386.199951171875</ele>
        <time>2014-11-14T14:32:33Z</time>
      </trkpt>
      <trkpt lat="46.582276504486799" lon="7.175184627994895">
        <ele>1386.5999755859375</ele>
        <time>2014-11-14T14:32:36Z</time>
      </trkpt>
      <trkpt lat="46.582315396517515" lon="7.175213294103742">
        <ele>1387</ele>
        <time>2014-11-14T14:32:39Z</time>
      </trkpt>
      <trkpt lat="46.582364179193974" lon="7.175255119800568">
        <ele>1387.800048828125</ele>
        <time>2014-11-14T14:32:43Z</time>
      </trkpt>
      <trkpt lat="46.582407094538212" lon="7.175306919962168">
        <ele>1388.5999755859375</ele>
        <time>2014-11-14T14:32:47Z</time>
      </trkpt>
      <trkpt lat="46.582415644079447" lon="7.175321504473686">
        <ele>1388.800048828125</ele>
        <time>2014-11-14T14:32:48Z</time>
      </trkpt>
      <trkpt lat="46.582430144771934" lon="7.175351344048977">
        <ele>1389</ele>
        <time>2014-11-14T14:32:50Z</time>
      </trkpt>
      <trkpt lat="46.58245881088078" lon="7.175383949652314">
        <ele>1389.5999755859375</ele>
        <time>2014-11-14T14:32:53Z</time>
      </trkpt>
      <trkpt lat="46.582468617707491" lon="7.175394762307406">
        <ele>1389.800048828125</ele>
        <time>2014-11-14T14:32:54Z</time>
      </trkpt>
      <trkpt lat="46.582477334886789" lon="7.175408005714417">
        <ele>1390.199951171875</ele>
        <time>2014-11-14T14:32:55Z</time>
      </trkpt>
      <trkpt lat="46.582507593557239" lon="7.175440108403564">
        <ele>1390.5999755859375</ele>
        <time>2014-11-14T14:32:58Z</time>
      </trkpt>
      <trkpt lat="46.582516059279442" lon="7.175473468378186">
        <ele>1391</ele>
        <time>2014-11-14T14:33:00Z</time>
      </trkpt>
      <trkpt lat="46.582572469487786" lon="7.175573632121086">
        <ele>1392</ele>
        <time>2014-11-14T14:33:07Z</time>
      </trkpt>
      <trkpt lat="46.582636758685112" lon="7.175698103383184">
        <ele>1393.199951171875</ele>
        <time>2014-11-14T14:33:14Z</time>
      </trkpt>
      <trkpt lat="46.582660228013992" lon="7.175727691501379">
        <ele>1393.4000244140625</ele>
        <time>2014-11-14T14:33:16Z</time>
      </trkpt>
      <trkpt lat="46.582693755626678" lon="7.175859538838267">
        <ele>1394.4000244140625</ele>
        <time>2014-11-14T14:33:22Z</time>
      </trkpt>
      <trkpt lat="46.582703897729516" lon="7.175877224653959">
        <ele>1395</ele>
        <time>2014-11-14T14:33:23Z</time>
      </trkpt>
      <trkpt lat="46.582732060924172" lon="7.175943776965141">
        <ele>1395.4000244140625</ele>
        <time>2014-11-14T14:33:27Z</time>
      </trkpt>
      <trkpt lat="46.582763325423002" lon="7.175987279042602">
        <ele>1396</ele>
        <time>2014-11-14T14:33:30Z</time>
      </trkpt>
      <trkpt lat="46.582783106714487" lon="7.176020639017224">
        <ele>1396.5999755859375</ele>
        <time>2014-11-14T14:33:32Z</time>
      </trkpt>
      <trkpt lat="46.582833817228675" lon="7.176126334816217">
        <ele>1397.199951171875</ele>
        <time>2014-11-14T14:33:38Z</time>
      </trkpt>
      <trkpt lat="46.582859717309475" lon="7.176178218796849">
        <ele>1397.800048828125</ele>
        <time>2014-11-14T14:33:41Z</time>
      </trkpt>
      <trkpt lat="46.582900620996952" lon="7.176264384761453">
        <ele>1398.800048828125</ele>
        <time>2014-11-14T14:33:46Z</time>
      </trkpt>
      <trkpt lat="46.582977483049035" lon="7.176432944834232">
        <ele>1399.800048828125</ele>
        <time>2014-11-14T14:33:55Z</time>
      </trkpt>
      <trkpt lat="46.582995001226664" lon="7.176470579579473">
        <ele>1400</ele>
        <time>2014-11-14T14:33:57Z</time>
      </trkpt>
      <trkpt lat="46.583045544102788" lon="7.176564540714026">
        <ele>1400.800048828125</ele>
        <time>2014-11-14T14:34:03Z</time>
      </trkpt>
      <trkpt lat="46.58305493183434" lon="7.176580717787147">
        <ele>1401</ele>
        <time>2014-11-14T14:34:04Z</time>
      </trkpt>
      <trkpt lat="46.583097763359547" lon="7.176676355302334">
        <ele>1402</ele>
        <time>2014-11-14T14:34:10Z</time>
      </trkpt>
      <trkpt lat="46.583102205768228" lon="7.176696304231882">
        <ele>1402.199951171875</ele>
        <time>2014-11-14T14:34:11Z</time>
      </trkpt>
      <trkpt lat="46.58317169174552" lon="7.176810717210174">
        <ele>1402.800048828125</ele>
        <time>2014-11-14T14:34:18Z</time>
      </trkpt>
      <trkpt lat="46.583214607089758" lon="7.176854135468602">
        <ele>1403.199951171875</ele>
        <time>2014-11-14T14:34:21Z</time>
      </trkpt>
      <trkpt lat="46.583259869366884" lon="7.17692144215107">
        <ele>1403.800048828125</ele>
        <time>2014-11-14T14:34:25Z</time>
      </trkpt>
      <trkpt lat="46.583292474970222" lon="7.176970895379782">
        <ele>1404.4000244140625</ele>
        <time>2014-11-14T14:34:28Z</time>
      </trkpt>
      <trkpt lat="46.583368331193924" lon="7.17706460505724">
        <ele>1404.800048828125</ele>
        <time>2014-11-14T14:34:34Z</time>
      </trkpt>
      <trkpt lat="46.583426166325808" lon="7.17711690813303">
        <ele>1405.4000244140625</ele>
        <time>2014-11-14T14:34:38Z</time>
      </trkpt>
      <trkpt lat="46.583474697545171" lon="7.177171474322677">
        <ele>1405.800048828125</ele>
        <time>2014-11-14T14:34:42Z</time>
      </trkpt>
      <trkpt lat="46.583572598174214" lon="7.177284630015492">
        <ele>1406.5999755859375</ele>
        <time>2014-11-14T14:34:50Z</time>
      </trkpt>
      <trkpt lat="46.583586260676384" lon="7.177297370508313">
        <ele>1406.5999755859375</ele>
        <time>2014-11-14T14:34:51Z</time>
      </trkpt>
      <trkpt lat="46.583679215982556" lon="7.17738663777709">
        <ele>1407.199951171875</ele>
        <time>2014-11-14T14:34:58Z</time>
      </trkpt>
      <trkpt lat="46.583715174347162" lon="7.177418069913983">
        <ele>1407.5999755859375</ele>
        <time>2014-11-14T14:35:01Z</time>
      </trkpt>
      <trkpt lat="46.583757838234305" lon="7.177475150674582">
        <ele>1408.199951171875</ele>
        <time>2014-11-14T14:35:05Z</time>
      </trkpt>
      <trkpt lat="46.583832856267691" lon="7.177553772926331">
        <ele>1408.800048828125</ele>
        <time>2014-11-14T14:35:11Z</time>
      </trkpt>
      <trkpt lat="46.583896474912763" lon="7.1776157990098">
        <ele>1409.4000244140625</ele>
        <time>2014-11-14T14:35:17Z</time>
      </trkpt>
      <trkpt lat="46.583931259810925" lon="7.177647147327662">
        <ele>1409.800048828125</ele>
        <time>2014-11-14T14:35:20Z</time>
      </trkpt>
      <trkpt lat="46.58394861035049" lon="7.177693080157042">
        <ele>1410.199951171875</ele>
        <time>2014-11-14T14:35:23Z</time>
      </trkpt>
      <trkpt lat="46.584005691111088" lon="7.177742784842849">
        <ele>1410.800048828125</ele>
        <time>2014-11-14T14:35:28Z</time>
      </trkpt>
      <trkpt lat="46.584023963660002" lon="7.177763655781746">
        <ele>1411</ele>
        <time>2014-11-14T14:35:30Z</time>
      </trkpt>
      <trkpt lat="46.584098394960165" lon="7.177809169515967">
        <ele>1412</ele>
        <time>2014-11-14T14:35:37Z</time>
      </trkpt>
      <trkpt lat="46.584157990291715" lon="7.177883014082909">
        <ele>1412.800048828125</ele>
        <time>2014-11-14T14:35:43Z</time>
      </trkpt>
      <trkpt lat="46.584187159314752" lon="7.177886702120304">
        <ele>1413</ele>
        <time>2014-11-14T14:35:45Z</time>
      </trkpt>
      <trkpt lat="46.58425010740757" lon="7.177925258874893">
        <ele>1414.199951171875</ele>
        <time>2014-11-14T14:35:50Z</time>
      </trkpt>
      <trkpt lat="46.584313726052642" lon="7.177975801751018">
        <ele>1415.4000244140625</ele>
        <time>2014-11-14T14:35:55Z</time>
      </trkpt>
      <trkpt lat="46.584337614476681" lon="7.178000193089247">
        <ele>1416</ele>
        <time>2014-11-14T14:35:57Z</time>
      </trkpt>
      <trkpt lat="46.584377428516746" lon="7.17801402322948">
        <ele>1416.4000244140625</ele>
        <time>2014-11-14T14:36:00Z</time>
      </trkpt>
      <trkpt lat="46.584418499842286" lon="7.178044281899929">
        <ele>1417.199951171875</ele>
        <time>2014-11-14T14:36:04Z</time>
      </trkpt>
      <trkpt lat="46.584428139030933" lon="7.178052831441164">
        <ele>1417.4000244140625</ele>
        <time>2014-11-14T14:36:05Z</time>
      </trkpt>
      <trkpt lat="46.584469377994537" lon="7.178097004070878">
        <ele>1418.4000244140625</ele>
        <time>2014-11-14T14:36:10Z</time>
      </trkpt>
      <trkpt lat="46.584484716877341" lon="7.178120892494917">
        <ele>1418.5999755859375</ele>
        <time>2014-11-14T14:36:12Z</time>
      </trkpt>
      <trkpt lat="46.584493769332767" lon="7.178130112588406">
        <ele>1418.800048828125</ele>
        <time>2014-11-14T14:36:13Z</time>
      </trkpt>
      <trkpt lat="46.584530146792531" lon="7.178158359602094">
        <ele>1419.4000244140625</ele>
        <time>2014-11-14T14:36:17Z</time>
      </trkpt>
      <trkpt lat="46.584538612514734" lon="7.178166909143329">
        <ele>1419.4000244140625</ele>
        <time>2014-11-14T14:36:18Z</time>
      </trkpt>
      <trkpt lat="46.584567781537771" lon="7.178189372643828">
        <ele>1419.800048828125</ele>
        <time>2014-11-14T14:36:21Z</time>
      </trkpt>
      <trkpt lat="46.584589742124081" lon="7.178229689598084">
        <ele>1420.199951171875</ele>
        <time>2014-11-14T14:36:24Z</time>
      </trkpt>
      <trkpt lat="46.584601812064648" lon="7.178240083158016">
        <ele>1420.5999755859375</ele>
        <time>2014-11-14T14:36:25Z</time>
      </trkpt>
      <trkpt lat="46.584633411839604" lon="7.178257182240486">
        <ele>1421</ele>
        <time>2014-11-14T14:36:28Z</time>
      </trkpt>
      <trkpt lat="46.584677416831255" lon="7.178280567750335">
        <ele>1421.5999755859375</ele>
        <time>2014-11-14T14:36:32Z</time>
      </trkpt>
      <trkpt lat="46.584690408781171" lon="7.178297163918614">
        <ele>1422.199951171875</ele>
        <time>2014-11-14T14:36:34Z</time>
      </trkpt>
      <trkpt lat="46.584717398509383" lon="7.178341755643487">
        <ele>1422.5999755859375</ele>
        <time>2014-11-14T14:36:38Z</time>
      </trkpt>
      <trkpt lat="46.584759475663304" lon="7.178364638239145">
        <ele>1423.4000244140625</ele>
        <time>2014-11-14T14:36:42Z</time>
      </trkpt>
      <trkpt lat="46.584768444299698" lon="7.178374696522951">
        <ele>1423.4000244140625</ele>
        <time>2014-11-14T14:36:43Z</time>
      </trkpt>
      <trkpt lat="46.584783783182502" lon="7.178400093689561">
        <ele>1423.800048828125</ele>
        <time>2014-11-14T14:36:45Z</time>
      </trkpt>
      <trkpt lat="46.584839941933751" lon="7.178432699292898">
        <ele>1424.5999755859375</ele>
        <time>2014-11-14T14:36:50Z</time>
      </trkpt>
      <trkpt lat="46.584872882813215" lon="7.178453402593732">
        <ele>1424.800048828125</ele>
        <time>2014-11-14T14:36:53Z</time>
      </trkpt>
      <trkpt lat="46.584924096241593" lon="7.178493551909924">
        <ele>1425.5999755859375</ele>
        <time>2014-11-14T14:36:57Z</time>
      </trkpt>
      <trkpt lat="46.584949409589171" lon="7.178508639335632">
        <ele>1426</ele>
        <time>2014-11-14T14:36:59Z</time>
      </trkpt>
      <trkpt lat="46.585019733756781" lon="7.17857301235199">
        <ele>1427.199951171875</ele>
        <time>2014-11-14T14:37:05Z</time>
      </trkpt>
      <trkpt lat="46.585050411522388" lon="7.17859648168087">
        <ele>1427.5999755859375</ele>
        <time>2014-11-14T14:37:08Z</time>
      </trkpt>
      <trkpt lat="46.585086872801185" lon="7.178627494722605">
        <ele>1428.199951171875</ele>
        <time>2014-11-14T14:37:11Z</time>
      </trkpt>
      <trkpt lat="46.585136074572802" lon="7.178662028163672">
        <ele>1429</ele>
        <time>2014-11-14T14:37:15Z</time>
      </trkpt>
      <trkpt lat="46.585157532244921" lon="7.178687173873186">
        <ele>1429.4000244140625</ele>
        <time>2014-11-14T14:37:17Z</time>
      </trkpt>
      <trkpt lat="46.585167171433568" lon="7.178702261298895">
        <ele>1429.5999755859375</ele>
        <time>2014-11-14T14:37:18Z</time>
      </trkpt>
      <trkpt lat="46.585219390690327" lon="7.178717767819762">
        <ele>1430.5999755859375</ele>
        <time>2014-11-14T14:37:22Z</time>
      </trkpt>
      <trkpt lat="46.585228946059942" lon="7.178732603788376">
        <ele>1430.5999755859375</ele>
        <time>2014-11-14T14:37:23Z</time>
      </trkpt>
      <trkpt lat="46.585235400125384" lon="7.178742745891213">
        <ele>1430.800048828125</ele>
        <time>2014-11-14T14:37:24Z</time>
      </trkpt>
      <trkpt lat="46.585302874445915" lon="7.178794294595718">
        <ele>1431.5999755859375</ele>
        <time>2014-11-14T14:37:30Z</time>
      </trkpt>
      <trkpt lat="46.585328942164779" lon="7.178804604336619">
        <ele>1432</ele>
        <time>2014-11-14T14:37:32Z</time>
      </trkpt>
      <trkpt lat="46.585396332666278" lon="7.178858499974012">
        <ele>1432.800048828125</ele>
        <time>2014-11-14T14:37:38Z</time>
      </trkpt>
      <trkpt lat="46.585423070937395" lon="7.178864451125264">
        <ele>1433</ele>
        <time>2014-11-14T14:37:40Z</time>
      </trkpt>
      <trkpt lat="46.585432793945074" lon="7.17887744307518">
        <ele>1433.199951171875</ele>
        <time>2014-11-14T14:37:41Z</time>
      </trkpt>
      <trkpt lat="46.585484594106674" lon="7.178933098912239">
        <ele>1433.800048828125</ele>
        <time>2014-11-14T14:37:46Z</time>
      </trkpt>
      <trkpt lat="46.585492976009846" lon="7.178944665938616">
        <ele>1434</ele>
        <time>2014-11-14T14:37:47Z</time>
      </trkpt>
      <trkpt lat="46.585558103397489" lon="7.179001914337277">
        <ele>1435</ele>
        <time>2014-11-14T14:37:53Z</time>
      </trkpt>
      <trkpt lat="46.585588278248906" lon="7.179036112502217">
        <ele>1435.4000244140625</ele>
        <time>2014-11-14T14:37:56Z</time>
      </trkpt>
      <trkpt lat="46.585620129480958" lon="7.179063856601715">
        <ele>1436</ele>
        <time>2014-11-14T14:37:59Z</time>
      </trkpt>
      <trkpt lat="46.585649382323027" lon="7.179092774167657">
        <ele>1436.5999755859375</ele>
        <time>2014-11-14T14:38:02Z</time>
      </trkpt>
      <trkpt lat="46.585680060088634" lon="7.17911884188652">
        <ele>1437</ele>
        <time>2014-11-14T14:38:05Z</time>
      </trkpt>
      <trkpt lat="46.585745606571436" lon="7.179154884070158">
        <ele>1437.800048828125</ele>
        <time>2014-11-14T14:38:10Z</time>
      </trkpt>
      <trkpt lat="46.585758766159415" lon="7.179162763059139">
        <ele>1437.800048828125</ele>
        <time>2014-11-14T14:38:11Z</time>
      </trkpt>
      <trkpt lat="46.585787180811167" lon="7.179174330085516">
        <ele>1438</ele>
        <time>2014-11-14T14:38:13Z</time>
      </trkpt>
      <trkpt lat="46.585865216329694" lon="7.179227471351624">
        <ele>1439.199951171875</ele>
        <time>2014-11-14T14:38:19Z</time>
      </trkpt>
      <trkpt lat="46.585928164422512" lon="7.179301399737597">
        <ele>1440.4000244140625</ele>
        <time>2014-11-14T14:38:25Z</time>
      </trkpt>
      <trkpt lat="46.58595540560782" lon="7.179314391687512">
        <ele>1440.5999755859375</ele>
        <time>2014-11-14T14:38:27Z</time>
      </trkpt>
      <trkpt lat="46.585998991504312" lon="7.179347416386008">
        <ele>1441.4000244140625</ele>
        <time>2014-11-14T14:38:31Z</time>
      </trkpt>
      <trkpt lat="46.58604777418077" lon="7.179378680884838">
        <ele>1442.199951171875</ele>
        <time>2014-11-14T14:38:35Z</time>
      </trkpt>
      <trkpt lat="46.586058922111988" lon="7.179386643692851">
        <ele>1442.4000244140625</ele>
        <time>2014-11-14T14:38:36Z</time>
      </trkpt>
      <trkpt lat="46.586065711453557" lon="7.17940173111856">
        <ele>1442.5999755859375</ele>
        <time>2014-11-14T14:38:37Z</time>
      </trkpt>
      <trkpt lat="46.586101502180099" lon="7.179437102749944">
        <ele>1443.5999755859375</ele>
        <time>2014-11-14T14:38:41Z</time>
      </trkpt>
      <trkpt lat="46.586142238229513" lon="7.179475072771311">
        <ele>1444</ele>
        <time>2014-11-14T14:38:46Z</time>
      </trkpt>
      <trkpt lat="46.586160762235522" lon="7.179491249844432">
        <ele>1444.4000244140625</ele>
        <time>2014-11-14T14:38:48Z</time>
      </trkpt>
      <trkpt lat="46.58618020825088" lon="7.17949703335762">
        <ele>1444.5999755859375</ele>
        <time>2014-11-14T14:38:50Z</time>
      </trkpt>
      <trkpt lat="46.586227985098958" lon="7.179535925388336">
        <ele>1445.5999755859375</ele>
        <time>2014-11-14T14:38:55Z</time>
      </trkpt>
      <trkpt lat="46.586288921535015" lon="7.179601471871138">
        <ele>1446.800048828125</ele>
        <time>2014-11-14T14:39:01Z</time>
      </trkpt>
      <trkpt lat="46.586315575987101" lon="7.17961672693491">
        <ele>1447.199951171875</ele>
        <time>2014-11-14T14:39:03Z</time>
      </trkpt>
      <trkpt lat="46.586353210732341" lon="7.179643046110869">
        <ele>1447.800048828125</ele>
        <time>2014-11-14T14:39:06Z</time>
      </trkpt>
      <trkpt lat="46.586362263187766" lon="7.179661234840751">
        <ele>1447.800048828125</ele>
        <time>2014-11-14T14:39:07Z</time>
      </trkpt>
      <trkpt lat="46.586389923468232" lon="7.179673723876476">
        <ele>1448.199951171875</ele>
        <time>2014-11-14T14:39:09Z</time>
      </trkpt>
      <trkpt lat="46.586426300927997" lon="7.179689900949597">
        <ele>1448.800048828125</ele>
        <time>2014-11-14T14:39:12Z</time>
      </trkpt>
      <trkpt lat="46.586465276777744" lon="7.179740024730563">
        <ele>1449.5999755859375</ele>
        <time>2014-11-14T14:39:16Z</time>
      </trkpt>
      <trkpt lat="46.586487656459212" lon="7.179757710546255">
        <ele>1450</ele>
        <time>2014-11-14T14:39:18Z</time>
      </trkpt>
      <trkpt lat="46.586542390286922" lon="7.179820826277137">
        <ele>1451.5999755859375</ele>
        <time>2014-11-14T14:39:23Z</time>
      </trkpt>
      <trkpt lat="46.586622437462211" lon="7.17986986041069">
        <ele>1452.4000244140625</ele>
        <time>2014-11-14T14:39:30Z</time>
      </trkpt>
      <trkpt lat="46.586630903184414" lon="7.179884109646082">
        <ele>1452.5999755859375</ele>
        <time>2014-11-14T14:39:31Z</time>
      </trkpt>
      <trkpt lat="46.586642889305949" lon="7.179893162101507">
        <ele>1452.5999755859375</ele>
        <time>2014-11-14T14:39:32Z</time>
      </trkpt>
      <trkpt lat="46.586690749973059" lon="7.179940519854426">
        <ele>1453.800048828125</ele>
        <time>2014-11-14T14:39:37Z</time>
      </trkpt>
      <trkpt lat="46.586716063320637" lon="7.179950913414359">
        <ele>1454.199951171875</ele>
        <time>2014-11-14T14:39:39Z</time>
      </trkpt>
      <trkpt lat="46.586769456043839" lon="7.179988715797663">
        <ele>1454.800048828125</ele>
        <time>2014-11-14T14:39:44Z</time>
      </trkpt>
      <trkpt lat="46.586781945079565" lon="7.179993912577629">
        <ele>1455</ele>
        <time>2014-11-14T14:39:45Z</time>
      </trkpt>
      <trkpt lat="46.586800217628479" lon="7.180018723011017">
        <ele>1455.5999755859375</ele>
        <time>2014-11-14T14:39:47Z</time>
      </trkpt>
      <trkpt lat="46.586837181821465" lon="7.180041102692485">
        <ele>1456</ele>
        <time>2014-11-14T14:39:50Z</time>
      </trkpt>
      <trkpt lat="46.58687892369926" lon="7.180079240351915">
        <ele>1457</ele>
        <time>2014-11-14T14:39:54Z</time>
      </trkpt>
      <trkpt lat="46.586889903992414" lon="7.180088795721531">
        <ele>1457.199951171875</ele>
        <time>2014-11-14T14:39:55Z</time>
      </trkpt>
      <trkpt lat="46.58690826036036" lon="7.180117545649409">
        <ele>1457.5999755859375</ele>
        <time>2014-11-14T14:39:57Z</time>
      </trkpt>
      <trkpt lat="46.586955450475216" lon="7.180153839290142">
        <ele>1458</ele>
        <time>2014-11-14T14:40:01Z</time>
      </trkpt>
      <trkpt lat="46.586966095492244" lon="7.180159538984299">
        <ele>1458.199951171875</ele>
        <time>2014-11-14T14:40:02Z</time>
      </trkpt>
      <trkpt lat="46.587020745500922" lon="7.180193234235048">
        <ele>1459</ele>
        <time>2014-11-14T14:40:07Z</time>
      </trkpt>
      <trkpt lat="46.587047567591071" lon="7.180205723270774">
        <ele>1459.4000244140625</ele>
        <time>2014-11-14T14:40:09Z</time>
      </trkpt>
      <trkpt lat="46.587079586461186" lon="7.180250314995647">
        <ele>1460.4000244140625</ele>
        <time>2014-11-14T14:40:13Z</time>
      </trkpt>
      <trkpt lat="46.5870909858495" lon="7.180257020518184">
        <ele>1460.5999755859375</ele>
        <time>2014-11-14T14:40:14Z</time>
      </trkpt>
      <trkpt lat="46.58714915625751" lon="7.180304042994976">
        <ele>1461.4000244140625</ele>
        <time>2014-11-14T14:40:20Z</time>
      </trkpt>
      <trkpt lat="46.587160807102919" lon="7.180307311937213">
        <ele>1461.5999755859375</ele>
        <time>2014-11-14T14:40:21Z</time>
      </trkpt>
      <trkpt lat="46.587198106572032" lon="7.180348550900817">
        <ele>1462.4000244140625</ele>
        <time>2014-11-14T14:40:25Z</time>
      </trkpt>
      <trkpt lat="46.587209505960345" lon="7.180378055199981">
        <ele>1462.5999755859375</ele>
        <time>2014-11-14T14:40:27Z</time>
      </trkpt>
      <trkpt lat="46.587219228968024" lon="7.180389957502484">
        <ele>1463</ele>
        <time>2014-11-14T14:40:28Z</time>
      </trkpt>
      <trkpt lat="46.587289469316602" lon="7.180433627218008">
        <ele>1463.800048828125</ele>
        <time>2014-11-14T14:40:34Z</time>
      </trkpt>
      <trkpt lat="46.587293576449156" lon="7.180449888110161">
        <ele>1464.199951171875</ele>
        <time>2014-11-14T14:40:35Z</time>
      </trkpt>
      <trkpt lat="46.587338838726282" lon="7.180500850081444">
        <ele>1465.199951171875</ele>
        <time>2014-11-14T14:40:40Z</time>
      </trkpt>
      <trkpt lat="46.587348226457834" lon="7.180515350773931">
        <ele>1465.4000244140625</ele>
        <time>2014-11-14T14:40:41Z</time>
      </trkpt>
      <trkpt lat="46.587390387430787" lon="7.180573437362909">
        <ele>1466</ele>
        <time>2014-11-14T14:40:46Z</time>
      </trkpt>
      <trkpt lat="46.587402205914259" lon="7.180580561980605">
        <ele>1466.199951171875</ele>
        <time>2014-11-14T14:40:47Z</time>
      </trkpt>
      <trkpt lat="46.587410168722272" lon="7.180591206997633">
        <ele>1466.5999755859375</ele>
        <time>2014-11-14T14:40:48Z</time>
      </trkpt>
      <trkpt lat="46.587451323866844" lon="7.180658262223005">
        <ele>1467.4000244140625</ele>
        <time>2014-11-14T14:40:53Z</time>
      </trkpt>
      <trkpt lat="46.587459035217762" lon="7.180673098191619">
        <ele>1467.5999755859375</ele>
        <time>2014-11-14T14:40:54Z</time>
      </trkpt>
      <trkpt lat="46.587508991360664" lon="7.180727245286107">
        <ele>1468.5999755859375</ele>
        <time>2014-11-14T14:41:00Z</time>
      </trkpt>
      <trkpt lat="46.58757571130991" lon="7.180807879194617">
        <ele>1469.800048828125</ele>
        <time>2014-11-14T14:41:07Z</time>
      </trkpt>
      <trkpt lat="46.587647711858153" lon="7.180867306888104">
        <ele>1470.800048828125</ele>
        <time>2014-11-14T14:41:13Z</time>
      </trkpt>
      <trkpt lat="46.587669169530272" lon="7.180898822844029">
        <ele>1471.199951171875</ele>
        <time>2014-11-14T14:41:15Z</time>
      </trkpt>
      <trkpt lat="46.587728094309568" lon="7.180955652147532">
        <ele>1472</ele>
        <time>2014-11-14T14:41:20Z</time>
      </trkpt>
      <trkpt lat="46.587733877822757" lon="7.180975433439016">
        <ele>1472.199951171875</ele>
        <time>2014-11-14T14:41:21Z</time>
      </trkpt>
      <trkpt lat="46.587752485647798" lon="7.181011643260717">
        <ele>1472.5999755859375</ele>
        <time>2014-11-14T14:41:23Z</time>
      </trkpt>
      <trkpt lat="46.587778553366661" lon="7.181035196408629">
        <ele>1473</ele>
        <time>2014-11-14T14:41:25Z</time>
      </trkpt>
      <trkpt lat="46.587825743481517" lon="7.181055312976241">
        <ele>1473.5999755859375</ele>
        <time>2014-11-14T14:41:29Z</time>
      </trkpt>
      <trkpt lat="46.587868826463819" lon="7.181103928014636">
        <ele>1474.199951171875</ele>
        <time>2014-11-14T14:41:33Z</time>
      </trkpt>
      <trkpt lat="46.587902940809727" lon="7.18114759773016">
        <ele>1474.800048828125</ele>
        <time>2014-11-14T14:41:37Z</time>
      </trkpt>
      <trkpt lat="46.587936300784349" lon="7.181168971583247">
        <ele>1475.4000244140625</ele>
        <time>2014-11-14T14:41:40Z</time>
      </trkpt>
      <trkpt lat="46.587998829782009" lon="7.181229740381241">
        <ele>1476</ele>
        <time>2014-11-14T14:41:45Z</time>
      </trkpt>
      <trkpt lat="46.588023053482175" lon="7.181257652118802">
        <ele>1476.5999755859375</ele>
        <time>2014-11-14T14:41:47Z</time>
      </trkpt>
      <trkpt lat="46.588067645207047" lon="7.18131959438324">
        <ele>1477.4000244140625</ele>
        <time>2014-11-14T14:41:51Z</time>
      </trkpt>
      <trkpt lat="46.588081307709217" lon="7.181333256885409">
        <ele>1477.5999755859375</ele>
        <time>2014-11-14T14:41:52Z</time>
      </trkpt>
      <trkpt lat="46.58818599767983" lon="7.181359324604273">
        <ele>1480</ele>
        <time>2014-11-14T14:44:31Z</time>
      </trkpt>
      <trkpt lat="46.588238468393683" lon="7.181272907182574">
        <ele>1480.4000244140625</ele>
        <time>2014-11-14T14:44:36Z</time>
      </trkpt>
      <trkpt lat="46.588214747607708" lon="7.181184813380241">
        <ele>1481.199951171875</ele>
        <time>2014-11-14T14:44:41Z</time>
      </trkpt>
      <trkpt lat="46.588196223601699" lon="7.18110216781497">
        <ele>1482</ele>
        <time>2014-11-14T14:44:46Z</time>
      </trkpt>
      <trkpt lat="46.588192619383335" lon="7.1810850687325">
        <ele>1482.199951171875</ele>
        <time>2014-11-14T14:44:47Z</time>
      </trkpt>
      <trkpt lat="46.588172586634755" lon="7.180998316034675">
        <ele>1483.199951171875</ele>
        <time>2014-11-14T14:44:53Z</time>
      </trkpt>
      <trkpt lat="46.588153475895524" lon="7.180913239717484">
        <ele>1484.199951171875</ele>
        <time>2014-11-14T14:44:59Z</time>
      </trkpt>
      <trkpt lat="46.588154733181" lon="7.180897649377585">
        <ele>1484.4000244140625</ele>
        <time>2014-11-14T14:45:00Z</time>
      </trkpt>
      <trkpt lat="46.588123636320233" lon="7.180823804810643">
        <ele>1485.4000244140625</ele>
        <time>2014-11-14T14:45:05Z</time>
      </trkpt>
      <trkpt lat="46.58812154084444" lon="7.18080461025238">
        <ele>1485.5999755859375</ele>
        <time>2014-11-14T14:45:06Z</time>
      </trkpt>
      <trkpt lat="46.588121792301536" lon="7.180785583332181">
        <ele>1485.800048828125</ele>
        <time>2014-11-14T14:45:07Z</time>
      </trkpt>
      <trkpt lat="46.588102011010051" lon="7.180722299963236">
        <ele>1486.4000244140625</ele>
        <time>2014-11-14T14:45:11Z</time>
      </trkpt>
      <trkpt lat="46.588097987696528" lon="7.180686928331852">
        <ele>1486.800048828125</ele>
        <time>2014-11-14T14:45:13Z</time>
      </trkpt>
      <trkpt lat="46.588091533631086" lon="7.180672427639365">
        <ele>1487</ele>
        <time>2014-11-14T14:45:14Z</time>
      </trkpt>
      <trkpt lat="46.588073931634426" lon="7.18061207793653">
        <ele>1487.5999755859375</ele>
        <time>2014-11-14T14:45:18Z</time>
      </trkpt>
      <trkpt lat="46.588049875572324" lon="7.180550554767251">
        <ele>1488.4000244140625</ele>
        <time>2014-11-14T14:45:22Z</time>
      </trkpt>
      <trkpt lat="46.588046103715897" lon="7.180516356602311">
        <ele>1488.800048828125</ele>
        <time>2014-11-14T14:45:24Z</time>
      </trkpt>
      <trkpt lat="46.588034369051456" lon="7.180441087111831">
        <ele>1489.4000244140625</ele>
        <time>2014-11-14T14:45:28Z</time>
      </trkpt>
      <trkpt lat="46.588034201413393" lon="7.180418539792299">
        <ele>1489.5999755859375</ele>
        <time>2014-11-14T14:45:29Z</time>
      </trkpt>
      <trkpt lat="46.588031519204378" lon="7.180394819006324">
        <ele>1489.800048828125</ele>
        <time>2014-11-14T14:45:30Z</time>
      </trkpt>
      <trkpt lat="46.588011151179671" lon="7.180286692455411">
        <ele>1490.800048828125</ele>
        <time>2014-11-14T14:45:35Z</time>
      </trkpt>
      <trkpt lat="46.588005200028419" lon="7.180242771282792">
        <ele>1491.4000244140625</ele>
        <time>2014-11-14T14:45:37Z</time>
      </trkpt>
      <trkpt lat="46.587997572496533" lon="7.180180912837386">
        <ele>1492</ele>
        <time>2014-11-14T14:45:40Z</time>
      </trkpt>
      <trkpt lat="46.587964128702879" lon="7.18005551956594">
        <ele>1493</ele>
        <time>2014-11-14T14:45:46Z</time>
      </trkpt>
      <trkpt lat="46.587937893345952" lon="7.179936664178968">
        <ele>1494</ele>
        <time>2014-11-14T14:45:52Z</time>
      </trkpt>
      <trkpt lat="46.587936133146286" lon="7.179918475449085">
        <ele>1494.199951171875</ele>
        <time>2014-11-14T14:45:53Z</time>
      </trkpt>
      <trkpt lat="46.587908389046788" lon="7.179812444373965">
        <ele>1495.199951171875</ele>
        <time>2014-11-14T14:45:59Z</time>
      </trkpt>
      <trkpt lat="46.587901432067156" lon="7.179777910932899">
        <ele>1495.4000244140625</ele>
        <time>2014-11-14T14:46:01Z</time>
      </trkpt>
      <trkpt lat="46.587878549471498" lon="7.179683614522219">
        <ele>1496.199951171875</ele>
        <time>2014-11-14T14:46:07Z</time>
      </trkpt>
      <trkpt lat="46.587875615805387" lon="7.179647572338581">
        <ele>1496.4000244140625</ele>
        <time>2014-11-14T14:46:09Z</time>
      </trkpt>
      <trkpt lat="46.587857343256474" lon="7.179568447172642">
        <ele>1497.4000244140625</ele>
        <time>2014-11-14T14:46:14Z</time>
      </trkpt>
      <trkpt lat="46.587846782058477" lon="7.179540619254112">
        <ele>1497.5999755859375</ele>
        <time>2014-11-14T14:46:16Z</time>
      </trkpt>
      <trkpt lat="46.587827336043119" lon="7.179447580128908">
        <ele>1498.4000244140625</ele>
        <time>2014-11-14T14:46:22Z</time>
      </trkpt>
      <trkpt lat="46.587818618863821" lon="7.179433582350612">
        <ele>1498.5999755859375</ele>
        <time>2014-11-14T14:46:23Z</time>
      </trkpt>
      <trkpt lat="46.587816523388028" lon="7.179341465234757">
        <ele>1499.4000244140625</ele>
        <time>2014-11-14T14:46:29Z</time>
      </trkpt>
      <trkpt lat="46.58781317062676" lon="7.179323527961969">
        <ele>1499.5999755859375</ele>
        <time>2014-11-14T14:46:30Z</time>
      </trkpt>
      <trkpt lat="46.587781570851803" lon="7.179256305098534">
        <ele>1500.800048828125</ele>
        <time>2014-11-14T14:46:35Z</time>
      </trkpt>
      <trkpt lat="46.58777360804379" lon="7.179222190752626">
        <ele>1501.199951171875</ele>
        <time>2014-11-14T14:46:37Z</time>
      </trkpt>
      <trkpt lat="46.587768830358982" lon="7.179144155234098">
        <ele>1501.800048828125</ele>
        <time>2014-11-14T14:46:42Z</time>
      </trkpt>
      <trkpt lat="46.587749049067497" lon="7.179089337587357">
        <ele>1502.800048828125</ele>
        <time>2014-11-14T14:46:46Z</time>
      </trkpt>
      <trkpt lat="46.587746534496546" lon="7.179073076695204">
        <ele>1503</ele>
        <time>2014-11-14T14:46:47Z</time>
      </trkpt>
      <trkpt lat="46.587745528668165" lon="7.179003171622753">
        <ele>1503.4000244140625</ele>
        <time>2014-11-14T14:46:51Z</time>
      </trkpt>
      <trkpt lat="46.587736560031772" lon="7.178994622081518">
        <ele>1503.5999755859375</ele>
        <time>2014-11-14T14:46:52Z</time>
      </trkpt>
      <trkpt lat="46.587722646072507" lon="7.178968722000718">
        <ele>1504</ele>
        <time>2014-11-14T14:46:54Z</time>
      </trkpt>
      <trkpt lat="46.587716778740287" lon="7.17893804423511">
        <ele>1504.199951171875</ele>
        <time>2014-11-14T14:46:56Z</time>
      </trkpt>
      <trkpt lat="46.587722646072507" lon="7.178921112790704">
        <ele>1504.199951171875</ele>
        <time>2014-11-14T14:46:57Z</time>
      </trkpt>
      <trkpt lat="46.587722562253475" lon="7.178889513015747">
        <ele>1504.800048828125</ele>
        <time>2014-11-14T14:46:59Z</time>
      </trkpt>
      <trkpt lat="46.587714431807399" lon="7.17884810641408">
        <ele>1505.199951171875</ele>
        <time>2014-11-14T14:47:02Z</time>
      </trkpt>
      <trkpt lat="46.587709067389369" lon="7.178835701197386">
        <ele>1505.4000244140625</ele>
        <time>2014-11-14T14:47:03Z</time>
      </trkpt>
      <trkpt lat="46.587686687707901" lon="7.178798737004399">
        <ele>1506</ele>
        <time>2014-11-14T14:47:06Z</time>
      </trkpt>
      <trkpt lat="46.587691130116582" lon="7.178751965984702">
        <ele>1506.199951171875</ele>
        <time>2014-11-14T14:47:09Z</time>
      </trkpt>
      <trkpt lat="46.58769054338336" lon="7.178704021498561">
        <ele>1506.800048828125</ele>
        <time>2014-11-14T14:47:12Z</time>
      </trkpt>
      <trkpt lat="46.587669756263494" lon="7.178664961829782">
        <ele>1507.4000244140625</ele>
        <time>2014-11-14T14:47:15Z</time>
      </trkpt>
      <trkpt lat="46.587655926123261" lon="7.178608132526279">
        <ele>1508.199951171875</ele>
        <time>2014-11-14T14:47:19Z</time>
      </trkpt>
      <trkpt lat="46.587665230035782" lon="7.178572174161673">
        <ele>1508.4000244140625</ele>
        <time>2014-11-14T14:47:21Z</time>
      </trkpt>
      <trkpt lat="46.587672270834446" lon="7.178475698456168">
        <ele>1509.5999755859375</ele>
        <time>2014-11-14T14:47:27Z</time>
      </trkpt>
      <trkpt lat="46.587664978578687" lon="7.178467148914933">
        <ele>1509.5999755859375</ele>
        <time>2014-11-14T14:47:28Z</time>
      </trkpt>
      <trkpt lat="46.587635641917586" lon="7.178413001820445">
        <ele>1510.4000244140625</ele>
        <time>2014-11-14T14:47:33Z</time>
      </trkpt>
      <trkpt lat="46.587653160095215" lon="7.178356340155006">
        <ele>1510.5999755859375</ele>
        <time>2014-11-14T14:47:36Z</time>
      </trkpt>
      <trkpt lat="46.587642347440124" lon="7.178299762308598">
        <ele>1511</ele>
        <time>2014-11-14T14:47:39Z</time>
      </trkpt>
      <trkpt lat="46.587632121518254" lon="7.178279561921954">
        <ele>1511.5999755859375</ele>
        <time>2014-11-14T14:47:41Z</time>
      </trkpt>
      <trkpt lat="46.587628433480859" lon="7.178268749266863">
        <ele>1511.800048828125</ele>
        <time>2014-11-14T14:47:42Z</time>
      </trkpt>
      <trkpt lat="46.587599432095885" lon="7.178197586908937">
        <ele>1512.800048828125</ele>
        <time>2014-11-14T14:47:47Z</time>
      </trkpt>
      <trkpt lat="46.587593732401729" lon="7.178088873624802">
        <ele>1514</ele>
        <time>2014-11-14T14:47:54Z</time>
      </trkpt>
      <trkpt lat="46.587583422660828" lon="7.178080659359694">
        <ele>1514.199951171875</ele>
        <time>2014-11-14T14:47:55Z</time>
      </trkpt>
      <trkpt lat="46.587562384083867" lon="7.178015280514956">
        <ele>1515.199951171875</ele>
        <time>2014-11-14T14:47:59Z</time>
      </trkpt>
      <trkpt lat="46.587554169818759" lon="7.177959121763706">
        <ele>1515.800048828125</ele>
        <time>2014-11-14T14:48:02Z</time>
      </trkpt>
      <trkpt lat="46.587549895048141" lon="7.17792559415102">
        <ele>1516.199951171875</ele>
        <time>2014-11-14T14:48:04Z</time>
      </trkpt>
      <trkpt lat="46.58752977848053" lon="7.177846552804112">
        <ele>1517.4000244140625</ele>
        <time>2014-11-14T14:48:09Z</time>
      </trkpt>
      <trkpt lat="46.587526006624103" lon="7.177827693521977">
        <ele>1517.5999755859375</ele>
        <time>2014-11-14T14:48:10Z</time>
      </trkpt>
      <trkpt lat="46.587505973875523" lon="7.177759883925319">
        <ele>1518.5999755859375</ele>
        <time>2014-11-14T14:48:14Z</time>
      </trkpt>
      <trkpt lat="46.587479570880532" lon="7.177683440968394">
        <ele>1519.5999755859375</ele>
        <time>2014-11-14T14:48:19Z</time>
      </trkpt>
      <trkpt lat="46.587473703548312" lon="7.177667850628495">
        <ele>1519.800048828125</ele>
        <time>2014-11-14T14:48:20Z</time>
      </trkpt>
      <trkpt lat="46.587456520646811" lon="7.17758453451097">
        <ele>1520.800048828125</ele>
        <time>2014-11-14T14:48:25Z</time>
      </trkpt>
      <trkpt lat="46.587454676628113" lon="7.177566764876247">
        <ele>1521</ele>
        <time>2014-11-14T14:48:26Z</time>
      </trkpt>
      <trkpt lat="46.587448054924607" lon="7.177542960271239">
        <ele>1521.4000244140625</ele>
        <time>2014-11-14T14:48:28Z</time>
      </trkpt>
      <trkpt lat="46.587431207299232" lon="7.177491579204798">
        <ele>1522</ele>
        <time>2014-11-14T14:48:31Z</time>
      </trkpt>
      <trkpt lat="46.587425256147981" lon="7.177475653588772">
        <ele>1522.4000244140625</ele>
        <time>2014-11-14T14:48:32Z</time>
      </trkpt>
      <trkpt lat="46.587419556453824" lon="7.177462410181761">
        <ele>1522.5999755859375</ele>
        <time>2014-11-14T14:48:33Z</time>
      </trkpt>
      <trkpt lat="46.587402960285544" lon="7.177432989701629">
        <ele>1523.199951171875</ele>
        <time>2014-11-14T14:48:35Z</time>
      </trkpt>
      <trkpt lat="46.587403882294893" lon="7.17741739936173">
        <ele>1523.199951171875</ele>
        <time>2014-11-14T14:48:36Z</time>
      </trkpt>
      <trkpt lat="46.587404301390052" lon="7.177384626120329">
        <ele>1523.4000244140625</ele>
        <time>2014-11-14T14:48:38Z</time>
      </trkpt>
      <trkpt lat="46.587388878688216" lon="7.177360402420163">
        <ele>1523.800048828125</ele>
        <time>2014-11-14T14:48:40Z</time>
      </trkpt>
      <trkpt lat="46.587378652766347" lon="7.177333077415824">
        <ele>1524.199951171875</ele>
        <time>2014-11-14T14:48:42Z</time>
      </trkpt>
      <trkpt lat="46.58737488090992" lon="7.177320756018162">
        <ele>1524.4000244140625</ele>
        <time>2014-11-14T14:48:43Z</time>
      </trkpt>
      <trkpt lat="46.587356356903911" lon="7.177280858159065">
        <ele>1525.4000244140625</ele>
        <time>2014-11-14T14:48:46Z</time>
      </trkpt>
      <trkpt lat="46.587344538420439" lon="7.177224447950721">
        <ele>1526.199951171875</ele>
        <time>2014-11-14T14:48:50Z</time>
      </trkpt>
      <trkpt lat="46.587338922545314" lon="7.177196200937033">
        <ele>1526.5999755859375</ele>
        <time>2014-11-14T14:48:52Z</time>
      </trkpt>
      <trkpt lat="46.58732651732862" lon="7.177175246179104">
        <ele>1527.4000244140625</ele>
        <time>2014-11-14T14:48:54Z</time>
      </trkpt>
      <trkpt lat="46.587323499843478" lon="7.177164349704981">
        <ele>1528</ele>
        <time>2014-11-14T14:48:55Z</time>
      </trkpt>
      <trkpt lat="46.587314531207085" lon="7.177136773243547">
        <ele>1528.4000244140625</ele>
        <time>2014-11-14T14:48:57Z</time>
      </trkpt>
      <trkpt lat="46.587300701066852" lon="7.177110789343715">
        <ele>1529.199951171875</ele>
        <time>2014-11-14T14:48:59Z</time>
      </trkpt>
      <trkpt lat="46.587267592549324" lon="7.177024707198143">
        <ele>1530.4000244140625</ele>
        <time>2014-11-14T14:49:05Z</time>
      </trkpt>
      <trkpt lat="46.587262144312263" lon="7.177009871229529">
        <ele>1530.800048828125</ele>
        <time>2014-11-14T14:49:06Z</time>
      </trkpt>
      <trkpt lat="46.587255354970694" lon="7.1768853161484">
        <ele>1531.199951171875</ele>
        <time>2014-11-14T14:49:13Z</time>
      </trkpt>
      <trkpt lat="46.587248062714934" lon="7.176860002800822">
        <ele>1531.800048828125</ele>
        <time>2014-11-14T14:49:15Z</time>
      </trkpt>
      <trkpt lat="46.587235070765018" lon="7.176791690289974">
        <ele>1533</ele>
        <time>2014-11-14T14:49:19Z</time>
      </trkpt>
      <trkpt lat="46.587232472375035" lon="7.176736705005169">
        <ele>1534</ele>
        <time>2014-11-14T14:49:22Z</time>
      </trkpt>
      <trkpt lat="46.587241105735302" lon="7.176695801317692">
        <ele>1534.5999755859375</ele>
        <time>2014-11-14T14:49:24Z</time>
      </trkpt>
      <trkpt lat="46.587260719388723" lon="7.17664442025125">
        <ele>1535.4000244140625</ele>
        <time>2014-11-14T14:49:27Z</time>
      </trkpt>
      <trkpt lat="46.587306568399072" lon="7.176581220701337">
        <ele>1535.5999755859375</ele>
        <time>2014-11-14T14:49:31Z</time>
      </trkpt>
      <trkpt lat="46.587319644168019" lon="7.176585327833891">
        <ele>1535.800048828125</ele>
        <time>2014-11-14T14:49:32Z</time>
      </trkpt>
      <trkpt lat="46.58736364915967" lon="7.176626231521368">
        <ele>1535.4000244140625</ele>
        <time>2014-11-14T14:49:35Z</time>
      </trkpt>
      <trkpt lat="46.587416203692555" lon="7.17671474441886">
        <ele>1536.4000244140625</ele>
        <time>2014-11-14T14:49:41Z</time>
      </trkpt>
      <trkpt lat="46.587426094338298" lon="7.176729328930378">
        <ele>1536.5999755859375</ele>
        <time>2014-11-14T14:49:42Z</time>
      </trkpt>
      <trkpt lat="46.587449060752988" lon="7.176752630621195">
        <ele>1537</ele>
        <time>2014-11-14T14:49:44Z</time>
      </trkpt>
      <trkpt lat="46.58750387839973" lon="7.176796216517687">
        <ele>1537.5999755859375</ele>
        <time>2014-11-14T14:49:48Z</time>
      </trkpt>
      <trkpt lat="46.587584344670177" lon="7.176877101883292">
        <ele>1538.800048828125</ele>
        <time>2014-11-14T14:49:54Z</time>
      </trkpt>
      <trkpt lat="46.58762164413929" lon="7.176930578425527">
        <ele>1539.4000244140625</ele>
        <time>2014-11-14T14:49:57Z</time>
      </trkpt>
      <trkpt lat="46.587671767920256" lon="7.176968716084957">
        <ele>1540</ele>
        <time>2014-11-14T14:50:01Z</time>
      </trkpt>
      <trkpt lat="46.587717700749636" lon="7.177022360265255">
        <ele>1540.5999755859375</ele>
        <time>2014-11-14T14:50:05Z</time>
      </trkpt>
      <trkpt lat="46.587761454284191" lon="7.177081871777773">
        <ele>1541</ele>
        <time>2014-11-14T14:50:09Z</time>
      </trkpt>
      <trkpt lat="46.58781761303544" lon="7.17717507854104">
        <ele>1541.800048828125</ele>
        <time>2014-11-14T14:50:14Z</time>
      </trkpt>
      <trkpt lat="46.587846698239446" lon="7.177217407152057">
        <ele>1542.199951171875</ele>
        <time>2014-11-14T14:50:16Z</time>
      </trkpt>
      <trkpt lat="46.587948286905885" lon="7.177356798201799">
        <ele>1543.199951171875</ele>
        <time>2014-11-14T14:50:23Z</time>
      </trkpt>
      <trkpt lat="46.587980305776" lon="7.177391666918993">
        <ele>1544</ele>
        <time>2014-11-14T14:50:25Z</time>
      </trkpt>
      <trkpt lat="46.588012911379337" lon="7.177431313320994">
        <ele>1544.5999755859375</ele>
        <time>2014-11-14T14:50:27Z</time>
      </trkpt>
      <trkpt lat="46.58804090693593" lon="7.17747213318944">
        <ele>1545.800048828125</ele>
        <time>2014-11-14T14:50:29Z</time>
      </trkpt>
      <trkpt lat="46.588086085394025" lon="7.177544301375747">
        <ele>1546.4000244140625</ele>
        <time>2014-11-14T14:50:33Z</time>
      </trkpt>
      <trkpt lat="46.588110644370317" lon="7.177568189799786">
        <ele>1548.800048828125</ele>
        <time>2014-11-14T14:50:35Z</time>
      </trkpt>
      <trkpt lat="46.588176190853119" lon="7.177664916962385">
        <ele>1549</ele>
        <time>2014-11-14T14:50:41Z</time>
      </trkpt>
      <trkpt lat="46.588217932730913" lon="7.177730714902282">
        <ele>1549.4000244140625</ele>
        <time>2014-11-14T14:50:45Z</time>
      </trkpt>
      <trkpt lat="46.588278030976653" lon="7.177815707400441">
        <ele>1548.5999755859375</ele>
        <time>2014-11-14T14:50:50Z</time>
      </trkpt>
      <trkpt lat="46.588299488648772" lon="7.177844038233161">
        <ele>1549.800048828125</ele>
        <time>2014-11-14T14:50:52Z</time>
      </trkpt>
      <trkpt lat="46.588320024311543" lon="7.177871279418469">
        <ele>1551.199951171875</ele>
        <time>2014-11-14T14:50:54Z</time>
      </trkpt>
      <trkpt lat="46.588394874706864" lon="7.177972113713622">
        <ele>1551.800048828125</ele>
        <time>2014-11-14T14:51:00Z</time>
      </trkpt>
      <trkpt lat="46.588473916053772" lon="7.17806339263916">
        <ele>1552.5999755859375</ele>
        <time>2014-11-14T14:51:06Z</time>
      </trkpt>
      <trkpt lat="46.588565027341247" lon="7.178185684606433">
        <ele>1551.800048828125</ele>
        <time>2014-11-14T14:51:13Z</time>
      </trkpt>
      <trkpt lat="46.588613139465451" lon="7.178255002945662">
        <ele>1553.800048828125</ele>
        <time>2014-11-14T14:51:17Z</time>
      </trkpt>
      <trkpt lat="46.588639207184315" lon="7.178288698196411">
        <ele>1552.5999755859375</ele>
        <time>2014-11-14T14:51:19Z</time>
      </trkpt>
      <trkpt lat="46.588651780039072" lon="7.178306970745325">
        <ele>1552</ele>
        <time>2014-11-14T14:51:20Z</time>
      </trkpt>
      <trkpt lat="46.588661586865783" lon="7.178330020979047">
        <ele>1551.5999755859375</ele>
        <time>2014-11-14T14:51:21Z</time>
      </trkpt>
      <trkpt lat="46.588742807507515" lon="7.178413672372699">
        <ele>1551.4000244140625</ele>
        <time>2014-11-14T14:51:26Z</time>
      </trkpt>
      <trkpt lat="46.588836684823036" lon="7.178502939641476">
        <ele>1552.800048828125</ele>
        <time>2014-11-14T14:51:30Z</time>
      </trkpt>
      <trkpt lat="46.588892089203" lon="7.178567983210087">
        <ele>1555.199951171875</ele>
        <time>2014-11-14T14:51:32Z</time>
      </trkpt>
      <trkpt lat="46.589074311777949" lon="7.178740063682199">
        <ele>1554.199951171875</ele>
        <time>2014-11-14T14:51:38Z</time>
      </trkpt>
      <trkpt lat="46.589122004806995" lon="7.178769651800394">
        <ele>1552.4000244140625</ele>
        <time>2014-11-14T14:51:40Z</time>
      </trkpt>
      <trkpt lat="46.589196184650064" lon="7.178815500810742">
        <ele>1551.4000244140625</ele>
        <time>2014-11-14T14:51:44Z</time>
      </trkpt>
      <trkpt lat="46.589237591251731" lon="7.178832516074181">
        <ele>1551.199951171875</ele>
        <time>2014-11-14T14:51:46Z</time>
      </trkpt>
      <trkpt lat="46.58929861150682" lon="7.178882975131273">
        <ele>1552.5999755859375</ele>
        <time>2014-11-14T14:51:50Z</time>
      </trkpt>
      <trkpt lat="46.589349741116166" lon="7.178907282650471">
        <ele>1552.5999755859375</ele>
        <time>2014-11-14T14:51:53Z</time>
      </trkpt>
      <trkpt lat="46.589513858780265" lon="7.178947012871504">
        <ele>1553.800048828125</ele>
        <time>2014-11-14T14:52:02Z</time>
      </trkpt>
      <trkpt lat="46.589553589001298" lon="7.178941983729601">
        <ele>1554.199951171875</ele>
        <time>2014-11-14T14:52:04Z</time>
      </trkpt>
      <trkpt lat="46.589635061100125" lon="7.178873922675848">
        <ele>1554.4000244140625</ele>
        <time>2014-11-14T14:52:09Z</time>
      </trkpt>
      <trkpt lat="46.589671606197953" lon="7.178850369527936">
        <ele>1554.800048828125</ele>
        <time>2014-11-14T14:52:12Z</time>
      </trkpt>
      <trkpt lat="46.589686190709472" lon="7.178825056180358">
        <ele>1554.199951171875</ele>
        <time>2014-11-14T14:52:37Z</time>
      </trkpt>
      <trkpt lat="46.589719969779253" lon="7.178815752267838">
        <ele>1553.5999755859375</ele>
        <time>2014-11-14T14:52:39Z</time>
      </trkpt>
      <trkpt lat="46.589782498776913" lon="7.178782057017088">
        <ele>1553.4000244140625</ele>
        <time>2014-11-14T14:52:42Z</time>
      </trkpt>
      <trkpt lat="46.58993043936789" lon="7.178756827488542">
        <ele>1553.199951171875</ele>
        <time>2014-11-14T14:52:48Z</time>
      </trkpt>
      <trkpt lat="46.590094473212957" lon="7.178809884935617">
        <ele>1553.199951171875</ele>
        <time>2014-11-14T14:52:55Z</time>
      </trkpt>
      <trkpt lat="46.590309217572212" lon="7.178852297365665">
        <ele>1552.800048828125</ele>
        <time>2014-11-14T14:53:01Z</time>
      </trkpt>
      <trkpt lat="46.59042589366436" lon="7.178883561864495">
        <ele>1552.4000244140625</ele>
        <time>2014-11-14T14:53:04Z</time>
      </trkpt>
      <trkpt lat="46.590585401281714" lon="7.17891113832593">
        <ele>1552.199951171875</ele>
        <time>2014-11-14T14:53:08Z</time>
      </trkpt>
      <trkpt lat="46.59078455530107" lon="7.178968554362655">
        <ele>1551.800048828125</ele>
        <time>2014-11-14T14:53:14Z</time>
      </trkpt>
      <trkpt lat="46.591026037931442" lon="7.179066454991698">
        <ele>1552.5999755859375</ele>
        <time>2014-11-14T14:53:23Z</time>
      </trkpt>
      <trkpt lat="46.59114858135581" lon="7.179117249324918">
        <ele>1553.5999755859375</ele>
        <time>2014-11-14T14:53:28Z</time>
      </trkpt>
      <trkpt lat="46.591220162808895" lon="7.179140886291862">
        <ele>1554</ele>
        <time>2014-11-14T14:53:31Z</time>
      </trkpt>
      <trkpt lat="46.591362403705716" lon="7.179183214902878">
        <ele>1554.5999755859375</ele>
        <time>2014-11-14T14:53:37Z</time>
      </trkpt>
      <trkpt lat="46.59138411283493" lon="7.179192267358303">
        <ele>1554.800048828125</ele>
        <time>2014-11-14T14:53:38Z</time>
      </trkpt>
      <trkpt lat="46.591533059254289" lon="7.179195787757635">
        <ele>1555.5999755859375</ele>
        <time>2014-11-14T14:53:44Z</time>
      </trkpt>
      <trkpt lat="46.591560635715723" lon="7.179188327863812">
        <ele>1555.800048828125</ele>
        <time>2014-11-14T14:53:45Z</time>
      </trkpt>
      <trkpt lat="46.591770350933075" lon="7.179159913212061">
        <ele>1556.199951171875</ele>
        <time>2014-11-14T14:53:53Z</time>
      </trkpt>
      <trkpt lat="46.592009989544749" lon="7.179128648713231">
        <ele>1555.5999755859375</ele>
        <time>2014-11-14T14:54:01Z</time>
      </trkpt>
      <trkpt lat="46.592223392799497" lon="7.179078692570329">
        <ele>1555.4000244140625</ele>
        <time>2014-11-14T14:54:09Z</time>
      </trkpt>
      <trkpt lat="46.59230419434607" lon="7.179044997319579">
        <ele>1556.5999755859375</ele>
        <time>2014-11-14T14:54:12Z</time>
      </trkpt>
      <trkpt lat="46.592385331168771" lon="7.179007111117244">
        <ele>1555.5999755859375</ele>
        <time>2014-11-14T14:54:15Z</time>
      </trkpt>
      <trkpt lat="46.592426905408502" lon="7.178972074761987">
        <ele>1555.5999755859375</ele>
        <time>2014-11-14T14:54:17Z</time>
      </trkpt>
      <trkpt lat="46.592537127435207" lon="7.178804436698556">
        <ele>1554.5999755859375</ele>
        <time>2014-11-14T14:54:23Z</time>
      </trkpt>
      <trkpt lat="46.592553053051233" lon="7.17876898124814">
        <ele>1554.4000244140625</ele>
        <time>2014-11-14T14:54:24Z</time>
      </trkpt>
      <trkpt lat="46.592654976993799" lon="7.178642079234123">
        <ele>1554</ele>
        <time>2014-11-14T14:54:29Z</time>
      </trkpt>
      <trkpt lat="46.59273661673069" lon="7.178565887734294">
        <ele>1554.4000244140625</ele>
        <time>2014-11-14T14:54:35Z</time>
      </trkpt>
      <trkpt lat="46.592813227325678" lon="7.178469747304916">
        <ele>1556.5999755859375</ele>
        <time>2014-11-14T14:54:59Z</time>
      </trkpt>
      <trkpt lat="46.592856729403138" lon="7.178326332941651">
        <ele>1557</ele>
        <time>2014-11-14T14:55:05Z</time>
      </trkpt>
      <trkpt lat="46.592862512916327" lon="7.178299259394407">
        <ele>1557.199951171875</ele>
        <time>2014-11-14T14:55:06Z</time>
      </trkpt>
      <trkpt lat="46.592873157933354" lon="7.178248716518283">
        <ele>1557.5999755859375</ele>
        <time>2014-11-14T14:55:08Z</time>
      </trkpt>
      <trkpt lat="46.592911379411817" lon="7.178139751777053">
        <ele>1558.4000244140625</ele>
        <time>2014-11-14T14:55:14Z</time>
      </trkpt>
      <trkpt lat="46.59292277880013" lon="7.178065655753017">
        <ele>1558.5999755859375</ele>
        <time>2014-11-14T14:55:21Z</time>
      </trkpt>
      <trkpt lat="46.592933926731348" lon="7.178042102605104">
        <ele>1558.800048828125</ele>
        <time>2014-11-14T14:55:23Z</time>
      </trkpt>
      <trkpt lat="46.5929623413831" lon="7.177973119542003">
        <ele>1559.199951171875</ele>
        <time>2014-11-14T14:55:29Z</time>
      </trkpt>
      <trkpt lat="46.592977428808808" lon="7.177897514775395">
        <ele>1559.5999755859375</ele>
        <time>2014-11-14T14:55:45Z</time>
      </trkpt>
      <trkpt lat="46.592978434637189" lon="7.177874548360705">
        <ele>1559.5999755859375</ele>
        <time>2014-11-14T14:55:46Z</time>
      </trkpt>
      <trkpt lat="46.592984804883599" lon="7.177846049889922">
        <ele>1559.800048828125</ele>
        <time>2014-11-14T14:55:47Z</time>
      </trkpt>
      <trkpt lat="46.592998886480927" lon="7.177737085148692">
        <ele>1560.800048828125</ele>
        <time>2014-11-14T14:55:51Z</time>
      </trkpt>
      <trkpt lat="46.593009866774082" lon="7.177717052400112">
        <ele>1561</ele>
        <time>2014-11-14T14:55:52Z</time>
      </trkpt>
      <trkpt lat="46.59303417429328" lon="7.177616804838181">
        <ele>1561.800048828125</ele>
        <time>2014-11-14T14:55:57Z</time>
      </trkpt>
      <trkpt lat="46.593041885644197" lon="7.177461991086602">
        <ele>1562.4000244140625</ele>
        <time>2014-11-14T14:56:09Z</time>
      </trkpt>
      <trkpt lat="46.593049094080925" lon="7.177378507331014">
        <ele>1563.199951171875</ele>
        <time>2014-11-14T14:56:12Z</time>
      </trkpt>
      <trkpt lat="46.593053033575416" lon="7.177304746583104">
        <ele>1563.5999755859375</ele>
        <time>2014-11-14T14:56:15Z</time>
      </trkpt>
      <trkpt lat="46.593064852058887" lon="7.17717113904655">
        <ele>1564.199951171875</ele>
        <time>2014-11-14T14:56:21Z</time>
      </trkpt>
      <trkpt lat="46.593069294467568" lon="7.177118752151728">
        <ele>1564.800048828125</ele>
        <time>2014-11-14T14:56:24Z</time>
      </trkpt>
      <trkpt lat="46.593085387721658" lon="7.177041890099645">
        <ele>1565.199951171875</ele>
        <time>2014-11-14T14:56:28Z</time>
      </trkpt>
      <trkpt lat="46.593087147921324" lon="7.177008194848895">
        <ele>1565.4000244140625</ele>
        <time>2014-11-14T14:56:30Z</time>
      </trkpt>
      <trkpt lat="46.593102402985096" lon="7.176868887618184">
        <ele>1566.4000244140625</ele>
        <time>2014-11-14T14:56:37Z</time>
      </trkpt>
      <trkpt lat="46.593117155134678" lon="7.176691275089979">
        <ele>1567.199951171875</ele>
        <time>2014-11-14T14:56:45Z</time>
      </trkpt>
      <trkpt lat="46.59312310628593" lon="7.176629584282637">
        <ele>1567.4000244140625</ele>
        <time>2014-11-14T14:56:48Z</time>
      </trkpt>
      <trkpt lat="46.59311874769628" lon="7.17654618434608">
        <ele>1567.800048828125</ele>
        <time>2014-11-14T14:56:52Z</time>
      </trkpt>
      <trkpt lat="46.593130147084594" lon="7.176406960934401">
        <ele>1568.5999755859375</ele>
        <time>2014-11-14T14:56:59Z</time>
      </trkpt>
      <trkpt lat="46.593131236732006" lon="7.176324902102351">
        <ele>1568.800048828125</ele>
        <time>2014-11-14T14:57:03Z</time>
      </trkpt>
      <trkpt lat="46.593150682747364" lon="7.176184840500355">
        <ele>1569.199951171875</ele>
        <time>2014-11-14T14:57:10Z</time>
      </trkpt>
      <trkpt lat="46.593153700232506" lon="7.176096243783832">
        <ele>1569.5999755859375</ele>
        <time>2014-11-14T14:57:15Z</time>
      </trkpt>
      <trkpt lat="46.593157388269901" lon="7.176036732271314">
        <ele>1569.5999755859375</ele>
        <time>2014-11-14T14:57:18Z</time>
      </trkpt>
      <trkpt lat="46.593163590878248" lon="7.175868088379502">
        <ele>1569.800048828125</ele>
        <time>2014-11-14T14:57:25Z</time>
      </trkpt>
      <trkpt lat="46.593162333592772" lon="7.175666755065322">
        <ele>1569.800048828125</ele>
        <time>2014-11-14T14:57:32Z</time>
      </trkpt>
      <trkpt lat="46.593173146247864" lon="7.17545410618186">
        <ele>1569.800048828125</ele>
        <time>2014-11-14T14:57:39Z</time>
      </trkpt>
      <trkpt lat="46.593187814578414" lon="7.175173563882709">
        <ele>1569</ele>
        <time>2014-11-14T14:57:47Z</time>
      </trkpt>
      <trkpt lat="46.593190412968397" lon="7.174982707947493">
        <ele>1568.5999755859375</ele>
        <time>2014-11-14T14:57:53Z</time>
      </trkpt>
      <trkpt lat="46.59318907186389" lon="7.174947587773204">
        <ele>1568.5999755859375</ele>
        <time>2014-11-14T14:57:54Z</time>
      </trkpt>
      <trkpt lat="46.59320474602282" lon="7.174787325784564">
        <ele>1568.199951171875</ele>
        <time>2014-11-14T14:57:59Z</time>
      </trkpt>
      <trkpt lat="46.59323500469327" lon="7.174525475129485">
        <ele>1567.800048828125</ele>
        <time>2014-11-14T14:58:06Z</time>
      </trkpt>
      <trkpt lat="46.59326140768826" lon="7.174355490133166">
        <ele>1567.800048828125</ele>
        <time>2014-11-14T14:58:11Z</time>
      </trkpt>
      <trkpt lat="46.593280266970396" lon="7.17426429502666">
        <ele>1567</ele>
        <time>2014-11-14T14:58:13Z</time>
      </trkpt>
      <trkpt lat="46.593315303325653" lon="7.174131022766233">
        <ele>1567.199951171875</ele>
        <time>2014-11-14T14:58:17Z</time>
      </trkpt>
      <trkpt lat="46.593447653576732" lon="7.174045275896788">
        <ele>1568</ele>
        <time>2014-11-14T14:58:37Z</time>
      </trkpt>
      <trkpt lat="46.593521917238832" lon="7.174062207341194">
        <ele>1567.800048828125</ele>
        <time>2014-11-14T14:58:46Z</time>
      </trkpt>
      <trkpt lat="46.593553349375725" lon="7.174077462404966">
        <ele>1568</ele>
        <time>2014-11-14T14:58:49Z</time>
      </trkpt>
      <trkpt lat="46.593562737107277" lon="7.174082826822996">
        <ele>1568</ele>
        <time>2014-11-14T14:58:50Z</time>
      </trkpt>
      <trkpt lat="46.593626607209444" lon="7.174109648913145">
        <ele>1568.800048828125</ele>
        <time>2014-11-14T14:58:57Z</time>
      </trkpt>
      <trkpt lat="46.593728950247169" lon="7.174107972532511">
        <ele>1568.5999755859375</ele>
        <time>2014-11-14T14:59:05Z</time>
      </trkpt>
      <trkpt lat="46.593781001865864" lon="7.174112414941192">
        <ele>1568.4000244140625</ele>
        <time>2014-11-14T14:59:09Z</time>
      </trkpt>
      <trkpt lat="46.59381452947855" lon="7.174107972532511">
        <ele>1568.4000244140625</ele>
        <time>2014-11-14T14:59:12Z</time>
      </trkpt>
      <trkpt lat="46.593856774270535" lon="7.174093220382929">
        <ele>1568.5999755859375</ele>
        <time>2014-11-14T15:00:25Z</time>
      </trkpt>
      <trkpt lat="46.593884266912937" lon="7.174095064401627">
        <ele>1568.5999755859375</ele>
        <time>2014-11-14T15:00:26Z</time>
      </trkpt>
      <trkpt lat="46.594047881662846" lon="7.174144936725497">
        <ele>1568</ele>
        <time>2014-11-14T15:00:33Z</time>
      </trkpt>
      <trkpt lat="46.594103118404746" lon="7.174167651683092">
        <ele>1566.5999755859375</ele>
        <time>2014-11-14T15:00:37Z</time>
      </trkpt>
      <trkpt lat="46.594145949929953" lon="7.174173267558217">
        <ele>1565.199951171875</ele>
        <time>2014-11-14T15:00:39Z</time>
      </trkpt>
      <trkpt lat="46.594173442572355" lon="7.174173016101122">
        <ele>1564.4000244140625</ele>
        <time>2014-11-14T15:00:40Z</time>
      </trkpt>
      <trkpt lat="46.594203114509583" lon="7.174169663339853">
        <ele>1563.5999755859375</ele>
        <time>2014-11-14T15:00:41Z</time>
      </trkpt>
      <trkpt lat="46.594279892742634" lon="7.174180392175913">
        <ele>1562.5999755859375</ele>
        <time>2014-11-14T15:00:43Z</time>
      </trkpt>
      <trkpt lat="46.594363208860159" lon="7.174201598390937">
        <ele>1562</ele>
        <time>2014-11-14T15:00:45Z</time>
      </trkpt>
      <trkpt lat="46.594435209408402" lon="7.174222972244024">
        <ele>1561.4000244140625</ele>
        <time>2014-11-14T15:00:47Z</time>
      </trkpt>
      <trkpt lat="46.594529505819082" lon="7.174254739657044">
        <ele>1561</ele>
        <time>2014-11-14T15:00:51Z</time>
      </trkpt>
      <trkpt lat="46.594907864928246" lon="7.174484571442008">
        <ele>1565.4000244140625</ele>
        <time>2014-11-14T15:01:47Z</time>
      </trkpt>
      <trkpt lat="46.594923036172986" lon="7.174487924203277">
        <ele>1565.4000244140625</ele>
        <time>2014-11-14T15:01:48Z</time>
      </trkpt>
      <trkpt lat="46.595004424452782" lon="7.174496138468385">
        <ele>1564.800048828125</ele>
        <time>2014-11-14T15:01:53Z</time>
      </trkpt>
      <trkpt lat="46.595091344788671" lon="7.174563612788916">
        <ele>1565</ele>
        <time>2014-11-14T15:02:07Z</time>
      </trkpt>
      <trkpt lat="46.595103833824396" lon="7.174570569768548">
        <ele>1565</ele>
        <time>2014-11-14T15:02:08Z</time>
      </trkpt>
      <trkpt lat="46.595215480774641" lon="7.174609545618296">
        <ele>1564.800048828125</ele>
        <time>2014-11-14T15:02:17Z</time>
      </trkpt>
      <trkpt lat="46.595301730558276" lon="7.174635613337159">
        <ele>1565.199951171875</ele>
        <time>2014-11-14T15:02:25Z</time>
      </trkpt>
      <trkpt lat="46.595320422202349" lon="7.174636535346508">
        <ele>1565.199951171875</ele>
        <time>2014-11-14T15:02:27Z</time>
      </trkpt>
      <trkpt lat="46.595368953421712" lon="7.174648772925139">
        <ele>1565.4000244140625</ele>
        <time>2014-11-14T15:02:32Z</time>
      </trkpt>
      <trkpt lat="46.595462495461106" lon="7.174714654684067">
        <ele>1566.5999755859375</ele>
        <time>2014-11-14T15:02:52Z</time>
      </trkpt>
      <trkpt lat="46.595586547628045" lon="7.17471725307405">
        <ele>1567.199951171875</ele>
        <time>2014-11-14T15:02:58Z</time>
      </trkpt>
      <trkpt lat="46.595618398860097" lon="7.174718175083399">
        <ele>1567.800048828125</ele>
        <time>2014-11-14T15:03:00Z</time>
      </trkpt>
      <trkpt lat="46.59567472524941" lon="7.174737872555852">
        <ele>1567.800048828125</ele>
        <time>2014-11-14T15:03:04Z</time>
      </trkpt>
      <trkpt lat="46.595807494595647" lon="7.17479545623064">
        <ele>1567.199951171875</ele>
        <time>2014-11-14T15:03:10Z</time>
      </trkpt>
      <trkpt lat="46.595894247293472" lon="7.174873491749167">
        <ele>1568.4000244140625</ele>
        <time>2014-11-14T15:03:15Z</time>
      </trkpt>
      <trkpt lat="46.595990052446723" lon="7.174990503117442">
        <ele>1567</ele>
        <time>2014-11-14T15:03:21Z</time>
      </trkpt>
      <trkpt lat="46.596006983891129" lon="7.175000142306089">
        <ele>1566.5999755859375</ele>
        <time>2014-11-14T15:03:22Z</time>
      </trkpt>
      <trkpt lat="46.596049563959241" lon="7.175028808414936">
        <ele>1566.199951171875</ele>
        <time>2014-11-14T15:03:26Z</time>
      </trkpt>
      <trkpt lat="46.5961311198771" lon="7.17509594745934">
        <ele>1565.800048828125</ele>
        <time>2014-11-14T15:03:32Z</time>
      </trkpt>
      <trkpt lat="46.596146039664745" lon="7.175110364332795">
        <ele>1565.5999755859375</ele>
        <time>2014-11-14T15:03:33Z</time>
      </trkpt>
      <trkpt lat="46.596177639439702" lon="7.175165852531791">
        <ele>1564.4000244140625</ele>
        <time>2014-11-14T15:03:37Z</time>
      </trkpt>
      <trkpt lat="46.59631434828043" lon="7.175641776993871">
        <ele>1550.4000244140625</ele>
        <time>2014-11-14T15:04:38Z</time>
      </trkpt>
      <trkpt lat="46.596327843144536" lon="7.175657786428928">
        <ele>1550</ele>
        <time>2014-11-14T15:04:39Z</time>
      </trkpt>
      <trkpt lat="46.596367657184601" lon="7.17570967040956">
        <ele>1548.800048828125</ele>
        <time>2014-11-14T15:04:41Z</time>
      </trkpt>
      <trkpt lat="46.596409985795617" lon="7.175773289054632">
        <ele>1547.199951171875</ele>
        <time>2014-11-14T15:04:43Z</time>
      </trkpt>
      <trkpt lat="46.596436388790607" lon="7.175843361765146">
        <ele>1545.4000244140625</ele>
        <time>2014-11-14T15:04:45Z</time>
      </trkpt>
      <trkpt lat="46.5964609477669" lon="7.175918044522405">
        <ele>1543.800048828125</ele>
        <time>2014-11-14T15:04:47Z</time>
      </trkpt>
      <trkpt lat="46.596480393782258" lon="7.175989039242268">
        <ele>1542.199951171875</ele>
        <time>2014-11-14T15:04:49Z</time>
      </trkpt>
      <trkpt lat="46.596490116789937" lon="7.176021644845605">
        <ele>1541.4000244140625</ele>
        <time>2014-11-14T15:04:50Z</time>
      </trkpt>
      <trkpt lat="46.596497241407633" lon="7.176054334267974">
        <ele>1540.4000244140625</ele>
        <time>2014-11-14T15:04:51Z</time>
      </trkpt>
      <trkpt lat="46.596511406823993" lon="7.176120299845934">
        <ele>1538.800048828125</ele>
        <time>2014-11-14T15:04:53Z</time>
      </trkpt>
      <trkpt lat="46.596533702686429" lon="7.176184086129069">
        <ele>1537.199951171875</ele>
        <time>2014-11-14T15:04:55Z</time>
      </trkpt>
      <trkpt lat="46.596545604988933" lon="7.176218284294009">
        <ele>1536.4000244140625</ele>
        <time>2014-11-14T15:04:56Z</time>
      </trkpt>
      <trkpt lat="46.596556752920151" lon="7.176243513822556">
        <ele>1535.800048828125</ele>
        <time>2014-11-14T15:04:57Z</time>
      </trkpt>
      <trkpt lat="46.596653228625655" lon="7.176445685327053">
        <ele>1528.800048828125</ele>
        <time>2014-11-14T15:05:17Z</time>
      </trkpt>
      <trkpt lat="46.596687342971563" lon="7.176526989787817">
        <ele>1527.5999755859375</ele>
        <time>2014-11-14T15:05:20Z</time>
      </trkpt>
      <trkpt lat="46.596720535308123" lon="7.176600582897663">
        <ele>1526</ele>
        <time>2014-11-14T15:05:22Z</time>
      </trkpt>
      <trkpt lat="46.596765462309122" lon="7.176663279533386">
        <ele>1523.800048828125</ele>
        <time>2014-11-14T15:05:24Z</time>
      </trkpt>
      <trkpt lat="46.596790440380573" lon="7.176689431071281">
        <ele>1522.199951171875</ele>
        <time>2014-11-14T15:05:25Z</time>
      </trkpt>
      <trkpt lat="46.596839139238" lon="7.176745673641563">
        <ele>1521</ele>
        <time>2014-11-14T15:05:27Z</time>
      </trkpt>
      <trkpt lat="46.59688507206738" lon="7.176799485459924">
        <ele>1519.800048828125</ele>
        <time>2014-11-14T15:05:29Z</time>
      </trkpt>
      <trkpt lat="46.596905356273055" lon="7.176822116598487">
        <ele>1519</ele>
        <time>2014-11-14T15:05:30Z</time>
      </trkpt>
      <trkpt lat="46.596921784803271" lon="7.176834270358086">
        <ele>1518.5999755859375</ele>
        <time>2014-11-14T15:05:31Z</time>
      </trkpt>
      <trkpt lat="46.596974339336157" lon="7.176905097439885">
        <ele>1517.800048828125</ele>
        <time>2014-11-14T15:05:36Z</time>
      </trkpt>
      <trkpt lat="46.596991773694754" lon="7.176945162937045">
        <ele>1517.4000244140625</ele>
        <time>2014-11-14T15:05:38Z</time>
      </trkpt>
      <trkpt lat="46.597016165032983" lon="7.17701724730432">
        <ele>1516.4000244140625</ele>
        <time>2014-11-14T15:05:42Z</time>
      </trkpt>
      <trkpt lat="46.597014153376222" lon="7.177039124071598">
        <ele>1516.199951171875</ele>
        <time>2014-11-14T15:05:43Z</time>
      </trkpt>
      <trkpt lat="46.59711180254817" lon="7.177235009148717">
        <ele>1509.800048828125</ele>
        <time>2014-11-14T15:06:13Z</time>
      </trkpt>
      <trkpt lat="46.597153125330806" lon="7.177283875644207">
        <ele>1508.199951171875</ele>
        <time>2014-11-14T15:06:16Z</time>
      </trkpt>
      <trkpt lat="46.597184473648667" lon="7.177324863150716">
        <ele>1506.800048828125</ele>
        <time>2014-11-14T15:06:18Z</time>
      </trkpt>
      <trkpt lat="46.597201321274042" lon="7.177347829565406">
        <ele>1506</ele>
        <time>2014-11-14T15:06:19Z</time>
      </trkpt>
      <trkpt lat="46.59721146337688" lon="7.177376076579094">
        <ele>1505.199951171875</ele>
        <time>2014-11-14T15:06:20Z</time>
      </trkpt>
      <trkpt lat="46.597231160849333" lon="7.177441455423832">
        <ele>1503.800048828125</ele>
        <time>2014-11-14T15:06:22Z</time>
      </trkpt>
      <trkpt lat="46.597264353185892" lon="7.177511863410473">
        <ele>1502.199951171875</ele>
        <time>2014-11-14T15:06:24Z</time>
      </trkpt>
      <trkpt lat="46.597285643219948" lon="7.177571877837181">
        <ele>1500.5999755859375</ele>
        <time>2014-11-14T15:06:26Z</time>
      </trkpt>
      <trkpt lat="46.597298886626959" lon="7.177575482055545">
        <ele>1499.199951171875</ele>
        <time>2014-11-14T15:06:56Z</time>
      </trkpt>
      <trkpt lat="46.597346663475037" lon="7.177509348839521">
        <ele>1498.5999755859375</ele>
        <time>2014-11-14T15:07:01Z</time>
      </trkpt>
      <trkpt lat="46.597366193309426" lon="7.177514964714646">
        <ele>1498.199951171875</ele>
        <time>2014-11-14T15:07:02Z</time>
      </trkpt>
      <trkpt lat="46.597421430051327" lon="7.177573721855879">
        <ele>1496.800048828125</ele>
        <time>2014-11-14T15:07:05Z</time>
      </trkpt>
      <trkpt lat="46.597452526912093" lon="7.177615547552705">
        <ele>1495.4000244140625</ele>
        <time>2014-11-14T15:07:07Z</time>
      </trkpt>
      <trkpt lat="46.597486222162843" lon="7.177649913355708">
        <ele>1493.800048828125</ele>
        <time>2014-11-14T15:07:09Z</time>
      </trkpt>
      <trkpt lat="46.597525114193559" lon="7.177701713517308">
        <ele>1492.199951171875</ele>
        <time>2014-11-14T15:07:11Z</time>
      </trkpt>
      <trkpt lat="46.597551181912422" lon="7.177729541435838">
        <ele>1491.4000244140625</ele>
        <time>2014-11-14T15:07:12Z</time>
      </trkpt>
      <trkpt lat="46.597580099478364" lon="7.177759297192097">
        <ele>1490.4000244140625</ele>
        <time>2014-11-14T15:07:13Z</time>
      </trkpt>
      <trkpt lat="46.597628798335791" lon="7.177808498963714">
        <ele>1489</ele>
        <time>2014-11-14T15:07:15Z</time>
      </trkpt>
      <trkpt lat="46.597676826640964" lon="7.177853006869555">
        <ele>1487.800048828125</ele>
        <time>2014-11-14T15:07:17Z</time>
      </trkpt>
      <trkpt lat="46.597721753641963" lon="7.177906148135662">
        <ele>1486.5999755859375</ele>
        <time>2014-11-14T15:07:19Z</time>
      </trkpt>
      <trkpt lat="46.597769698128104" lon="7.177962390705943">
        <ele>1485.4000244140625</ele>
        <time>2014-11-14T15:07:21Z</time>
      </trkpt>
      <trkpt lat="46.59781051799655" lon="7.178013939410448">
        <ele>1484.800048828125</ele>
        <time>2014-11-14T15:07:23Z</time>
      </trkpt>
      <trkpt lat="46.597835160791874" lon="7.178057190030813">
        <ele>1483.800048828125</ele>
        <time>2014-11-14T15:07:25Z</time>
      </trkpt>
      <trkpt lat="46.597854187712073" lon="7.178118461742997">
        <ele>1483.800048828125</ele>
        <time>2014-11-14T15:07:36Z</time>
      </trkpt>
      <trkpt lat="46.597888302057981" lon="7.178203454241157">
        <ele>1483.199951171875</ele>
        <time>2014-11-14T15:07:39Z</time>
      </trkpt>
      <trkpt lat="46.597916129976511" lon="7.17827838845551">
        <ele>1482.5999755859375</ele>
        <time>2014-11-14T15:07:41Z</time>
      </trkpt>
      <trkpt lat="46.59794052131474" lon="7.178346700966358">
        <ele>1482.4000244140625</ele>
        <time>2014-11-14T15:07:44Z</time>
      </trkpt>
      <trkpt lat="46.597977988421917" lon="7.178481062874198">
        <ele>1482.800048828125</ele>
        <time>2014-11-14T15:07:49Z</time>
      </trkpt>
      <trkpt lat="46.598002295941114" lon="7.17854811809957">
        <ele>1483.5999755859375</ele>
        <time>2014-11-14T15:07:52Z</time>
      </trkpt>
      <trkpt lat="46.598030123859644" lon="7.178572677075863">
        <ele>1483.4000244140625</ele>
        <time>2014-11-14T15:08:10Z</time>
      </trkpt>
      <trkpt lat="46.598044037818909" lon="7.178598577156663">
        <ele>1482.5999755859375</ele>
        <time>2014-11-14T15:08:12Z</time>
      </trkpt>
      <trkpt lat="46.598063232377172" lon="7.178625147789717">
        <ele>1481.5999755859375</ele>
        <time>2014-11-14T15:08:16Z</time>
      </trkpt>
      <trkpt lat="46.59806901589036" lon="7.178636966273189">
        <ele>1481.4000244140625</ele>
        <time>2014-11-14T15:08:17Z</time>
      </trkpt>
      <trkpt lat="46.598118133842945" lon="7.178727742284536">
        <ele>1479.4000244140625</ele>
        <time>2014-11-14T15:08:28Z</time>
      </trkpt>
      <trkpt lat="46.598145375028253" lon="7.178787756711245">
        <ele>1477.800048828125</ele>
        <time>2014-11-14T15:08:34Z</time>
      </trkpt>
      <trkpt lat="46.598153673112392" lon="7.17880024574697">
        <ele>1477.4000244140625</ele>
        <time>2014-11-14T15:08:35Z</time>
      </trkpt>
      <trkpt lat="46.598168676719069" lon="7.17881198041141">
        <ele>1476.5999755859375</ele>
        <time>2014-11-14T15:08:37Z</time>
      </trkpt>
      <trkpt lat="46.598205054178834" lon="7.178828744217753">
        <ele>1475.4000244140625</ele>
        <time>2014-11-14T15:08:40Z</time>
      </trkpt>
      <trkpt lat="46.598212011158466" lon="7.178813572973013">
        <ele>1474.4000244140625</ele>
        <time>2014-11-14T15:08:49Z</time>
      </trkpt>
      <trkpt lat="46.598227517679334" lon="7.178761605173349">
        <ele>1474.199951171875</ele>
        <time>2014-11-14T15:08:51Z</time>
      </trkpt>
      <trkpt lat="46.598237659782171" lon="7.178609054535627">
        <ele>1473.5999755859375</ele>
        <time>2014-11-14T15:08:57Z</time>
      </trkpt>
      <trkpt lat="46.598235061392188" lon="7.178543927147985">
        <ele>1473.199951171875</ele>
        <time>2014-11-14T15:08:59Z</time>
      </trkpt>
      <trkpt lat="46.598228774964809" lon="7.17847284860909">
        <ele>1472.199951171875</ele>
        <time>2014-11-14T15:09:01Z</time>
      </trkpt>
      <trkpt lat="46.598223326727748" lon="7.178396321833134">
        <ele>1470.800048828125</ele>
        <time>2014-11-14T15:09:03Z</time>
      </trkpt>
      <trkpt lat="46.598215866833925" lon="7.178352484479547">
        <ele>1470.4000244140625</ele>
        <time>2014-11-14T15:09:04Z</time>
      </trkpt>
      <trkpt lat="46.598208155483007" lon="7.178310742601752">
        <ele>1469.800048828125</ele>
        <time>2014-11-14T15:09:05Z</time>
      </trkpt>
      <trkpt lat="46.59820094704628" lon="7.178202532231808">
        <ele>1468.5999755859375</ele>
        <time>2014-11-14T15:09:08Z</time>
      </trkpt>
      <trkpt lat="46.598201869055629" lon="7.178141847252846">
        <ele>1467.800048828125</ele>
        <time>2014-11-14T15:09:10Z</time>
      </trkpt>
      <trkpt lat="46.598199522122741" lon="7.178113348782063">
        <ele>1467.4000244140625</ele>
        <time>2014-11-14T15:09:11Z</time>
      </trkpt>
      <trkpt lat="46.598197007551789" lon="7.17804042622447">
        <ele>1466.199951171875</ele>
        <time>2014-11-14T15:09:14Z</time>
      </trkpt>
      <trkpt lat="46.598194744437933" lon="7.178017795085907">
        <ele>1465.800048828125</ele>
        <time>2014-11-14T15:09:15Z</time>
      </trkpt>
      <trkpt lat="46.598184602335095" lon="7.177970353513956">
        <ele>1465</ele>
        <time>2014-11-14T15:09:17Z</time>
      </trkpt>
      <trkpt lat="46.59816088154912" lon="7.177884019911289">
        <ele>1463.5999755859375</ele>
        <time>2014-11-14T15:09:20Z</time>
      </trkpt>
      <trkpt lat="46.598145123571157" lon="7.177824089303613">
        <ele>1462.5999755859375</ele>
        <time>2014-11-14T15:09:22Z</time>
      </trkpt>
      <trkpt lat="46.598133472725749" lon="7.177728535607457">
        <ele>1461</ele>
        <time>2014-11-14T15:09:25Z</time>
      </trkpt>
      <trkpt lat="46.59811545163393" lon="7.177647734060884">
        <ele>1459.5999755859375</ele>
        <time>2014-11-14T15:09:28Z</time>
      </trkpt>
      <trkpt lat="46.598109751939774" lon="7.177617559209466">
        <ele>1459</ele>
        <time>2014-11-14T15:09:29Z</time>
      </trkpt>
      <trkpt lat="46.598105728626251" lon="7.177592916414142">
        <ele>1458.199951171875</ele>
        <time>2014-11-14T15:09:30Z</time>
      </trkpt>
      <trkpt lat="46.598100615665317" lon="7.177545726299286">
        <ele>1456.800048828125</ele>
        <time>2014-11-14T15:09:32Z</time>
      </trkpt>
      <trkpt lat="46.598090808838606" lon="7.177109699696302">
        <ele>1444.800048828125</ele>
        <time>2014-11-14T15:10:46Z</time>
      </trkpt>
      <trkpt lat="46.598066166043282" lon="7.17703334055841">
        <ele>1443.4000244140625</ele>
        <time>2014-11-14T15:10:49Z</time>
      </trkpt>
      <trkpt lat="46.598057197406888" lon="7.176988245919347">
        <ele>1442.199951171875</ele>
        <time>2014-11-14T15:10:51Z</time>
      </trkpt>
      <trkpt lat="46.598050324246287" lon="7.176946084946394">
        <ele>1441</ele>
        <time>2014-11-14T15:10:53Z</time>
      </trkpt>
      <trkpt lat="46.598046720027924" lon="7.176924124360085">
        <ele>1440.4000244140625</ele>
        <time>2014-11-14T15:10:54Z</time>
      </trkpt>
      <trkpt lat="46.59804118797183" lon="7.176903672516346">
        <ele>1439.800048828125</ele>
        <time>2014-11-14T15:10:55Z</time>
      </trkpt>
      <trkpt lat="46.598039679229259" lon="7.176861595362425">
        <ele>1438.4000244140625</ele>
        <time>2014-11-14T15:10:57Z</time>
      </trkpt>
      <trkpt lat="46.597962817177176" lon="7.176387598738074">
        <ele>1423.4000244140625</ele>
        <time>2014-11-14T15:11:51Z</time>
      </trkpt>
      <trkpt lat="46.597957536578178" lon="7.176317106932402">
        <ele>1422</ele>
        <time>2014-11-14T15:11:54Z</time>
      </trkpt>
      <trkpt lat="46.597962733358145" lon="7.176249967887998">
        <ele>1420.800048828125</ele>
        <time>2014-11-14T15:11:56Z</time>
      </trkpt>
      <trkpt lat="46.597973043099046" lon="7.1761479601264">
        <ele>1419.4000244140625</ele>
        <time>2014-11-14T15:11:58Z</time>
      </trkpt>
      <trkpt lat="46.597979916259646" lon="7.176085263490677">
        <ele>1419</ele>
        <time>2014-11-14T15:11:59Z</time>
      </trkpt>
      <trkpt lat="46.597985196858644" lon="7.176021728664637">
        <ele>1418.199951171875</ele>
        <time>2014-11-14T15:12:00Z</time>
      </trkpt>
      <trkpt lat="46.597995506599545" lon="7.175911925733089">
        <ele>1416.800048828125</ele>
        <time>2014-11-14T15:12:02Z</time>
      </trkpt>
      <trkpt lat="46.598004894331098" lon="7.17580983415246">
        <ele>1415.800048828125</ele>
        <time>2014-11-14T15:12:05Z</time>
      </trkpt>
      <trkpt lat="46.598025597631931" lon="7.175694080069661">
        <ele>1414.5999755859375</ele>
        <time>2014-11-14T15:12:09Z</time>
      </trkpt>
      <trkpt lat="46.598022496327758" lon="7.175651667639613">
        <ele>1414</ele>
        <time>2014-11-14T15:12:11Z</time>
      </trkpt>
      <trkpt lat="46.59801428206265" lon="7.175636161118746">
        <ele>1413.800048828125</ele>
        <time>2014-11-14T15:12:12Z</time>
      </trkpt>
      <trkpt lat="46.59800891764462" lon="7.175617385655642">
        <ele>1413.199951171875</ele>
        <time>2014-11-14T15:12:13Z</time>
      </trkpt>
      <trkpt lat="46.597995590418577" lon="7.175564579665661">
        <ele>1412.4000244140625</ele>
        <time>2014-11-14T15:12:15Z</time>
      </trkpt>
      <trkpt lat="46.597989639267325" lon="7.175528956577182">
        <ele>1412</ele>
        <time>2014-11-14T15:12:16Z</time>
      </trkpt>
      <trkpt lat="46.597983855754137" lon="7.175455447286367">
        <ele>1410.800048828125</ele>
        <time>2014-11-14T15:12:18Z</time>
      </trkpt>
      <trkpt lat="46.597986118867993" lon="7.175371209159493">
        <ele>1409.4000244140625</ele>
        <time>2014-11-14T15:12:20Z</time>
      </trkpt>
      <trkpt lat="46.597980922088027" lon="7.175289066508412">
        <ele>1408.4000244140625</ele>
        <time>2014-11-14T15:12:22Z</time>
      </trkpt>
      <trkpt lat="46.597979329526424" lon="7.175249084830284">
        <ele>1407.5999755859375</ele>
        <time>2014-11-14T15:12:23Z</time>
      </trkpt>
      <trkpt lat="46.597982598468661" lon="7.175207594409585">
        <ele>1407</ele>
        <time>2014-11-14T15:12:24Z</time>
      </trkpt>
      <trkpt lat="46.59799475222826" lon="7.175136683508754">
        <ele>1405.5999755859375</ele>
        <time>2014-11-14T15:12:26Z</time>
      </trkpt>
      <trkpt lat="46.598013862967491" lon="7.175074657425284">
        <ele>1404</ele>
        <time>2014-11-14T15:12:28Z</time>
      </trkpt>
      <trkpt lat="46.598018137738109" lon="7.175052277743816">
        <ele>1403.199951171875</ele>
        <time>2014-11-14T15:12:29Z</time>
      </trkpt>
      <trkpt lat="46.59802014939487" lon="7.175029143691063">
        <ele>1402.5999755859375</ele>
        <time>2014-11-14T15:12:30Z</time>
      </trkpt>
      <trkpt lat="46.598033141344786" lon="7.17493761330843">
        <ele>1401.5999755859375</ele>
        <time>2014-11-14T15:12:34Z</time>
      </trkpt>
      <trkpt lat="46.598043953999877" lon="7.17489511705935">
        <ele>1400.800048828125</ele>
        <time>2014-11-14T15:12:36Z</time>
      </trkpt>
      <trkpt lat="46.598051162436604" lon="7.174873827025294">
        <ele>1400.199951171875</ele>
        <time>2014-11-14T15:12:37Z</time>
      </trkpt>
      <trkpt lat="46.59809198230505" lon="7.174747176468372">
        <ele>1399</ele>
        <time>2014-11-14T15:12:42Z</time>
      </trkpt>
      <trkpt lat="46.598108913749456" lon="7.174686910584569">
        <ele>1398.199951171875</ele>
        <time>2014-11-14T15:12:44Z</time>
      </trkpt>
      <trkpt lat="46.598112266510725" lon="7.174654807895422">
        <ele>1397.800048828125</ele>
        <time>2014-11-14T15:12:45Z</time>
      </trkpt>
      <trkpt lat="46.598119223490357" lon="7.174546932801604">
        <ele>1396.4000244140625</ele>
        <time>2014-11-14T15:12:48Z</time>
      </trkpt>
      <trkpt lat="46.598127353936434" lon="7.174476105719805">
        <ele>1395.4000244140625</ele>
        <time>2014-11-14T15:12:50Z</time>
      </trkpt>
      <trkpt lat="46.598129952326417" lon="7.174443164840341">
        <ele>1395</ele>
        <time>2014-11-14T15:12:51Z</time>
      </trkpt>
      <trkpt lat="46.598132131621242" lon="7.174265217036009">
        <ele>1393.5999755859375</ele>
        <time>2014-11-14T15:12:56Z</time>
      </trkpt>
      <trkpt lat="46.59813548438251" lon="7.17421350069344">
        <ele>1393</ele>
        <time>2014-11-14T15:12:57Z</time>
      </trkpt>
      <trkpt lat="46.598142022266984" lon="7.17414946295321">
        <ele>1392.5999755859375</ele>
        <time>2014-11-14T15:12:58Z</time>
      </trkpt>
      <trkpt lat="46.598149817436934" lon="7.174039157107472">
        <ele>1391.4000244140625</ele>
        <time>2014-11-14T15:13:00Z</time>
      </trkpt>
      <trkpt lat="46.598170520737767" lon="7.173957014456391">
        <ele>1390.199951171875</ele>
        <time>2014-11-14T15:13:01Z</time>
      </trkpt>
      <trkpt lat="46.598181501030922" lon="7.173876632004976">
        <ele>1389.4000244140625</ele>
        <time>2014-11-14T15:13:02Z</time>
      </trkpt>
      <trkpt lat="46.598192229866982" lon="7.173811169341207">
        <ele>1388.5999755859375</ele>
        <time>2014-11-14T15:13:03Z</time>
      </trkpt>
      <trkpt lat="46.598213603720069" lon="7.173714190721512">
        <ele>1387.5999755859375</ele>
        <time>2014-11-14T15:13:05Z</time>
      </trkpt>
      <trkpt lat="46.598232630640268" lon="7.17357823625207">
        <ele>1386.4000244140625</ele>
        <time>2014-11-14T15:13:08Z</time>
      </trkpt>
      <trkpt lat="46.598239587619901" lon="7.173253102228046">
        <ele>1388</ele>
        <time>2014-11-14T15:13:16Z</time>
      </trkpt>
      <trkpt lat="46.598274121060967" lon="7.173109268769622">
        <ele>1389.199951171875</ele>
        <time>2014-11-14T15:13:21Z</time>
      </trkpt>
      <trkpt lat="46.598283844068646" lon="7.173084709793329">
        <ele>1389.199951171875</ele>
        <time>2014-11-14T15:13:22Z</time>
      </trkpt>
      <trkpt lat="46.598378978669643" lon="7.173001058399677">
        <ele>1390.199951171875</ele>
        <time>2014-11-14T15:13:27Z</time>
      </trkpt>
      <trkpt lat="46.598443435505033" lon="7.172877509146929">
        <ele>1391</ele>
        <time>2014-11-14T15:13:32Z</time>
      </trkpt>
      <trkpt lat="46.598457181826234" lon="7.172820763662458">
        <ele>1391.199951171875</ele>
        <time>2014-11-14T15:13:34Z</time>
      </trkpt>
      <trkpt lat="46.598525661975145" lon="7.172695370391011">
        <ele>1391.4000244140625</ele>
        <time>2014-11-14T15:13:39Z</time>
      </trkpt>
      <trkpt lat="46.598633285611868" lon="7.172561511397362">
        <ele>1391.5999755859375</ele>
        <time>2014-11-14T15:13:45Z</time>
      </trkpt>
      <trkpt lat="46.598751218989491" lon="7.172430083155632">
        <ele>1392</ele>
        <time>2014-11-14T15:14:15Z</time>
      </trkpt>
      <trkpt lat="46.598786171525717" lon="7.172353053465486">
        <ele>1391.4000244140625</ele>
        <time>2014-11-14T15:14:17Z</time>
      </trkpt>
      <trkpt lat="46.598809557035565" lon="7.172314412891865">
        <ele>1390.800048828125</ele>
        <time>2014-11-14T15:14:18Z</time>
      </trkpt>
      <trkpt lat="46.598858842626214" lon="7.172273006290197">
        <ele>1389.5999755859375</ele>
        <time>2014-11-14T15:14:20Z</time>
      </trkpt>
      <trkpt lat="46.598889520391822" lon="7.172273509204388">
        <ele>1389</ele>
        <time>2014-11-14T15:14:21Z</time>
      </trkpt>
      <trkpt lat="46.59892413765192" lon="7.172280382364988">
        <ele>1388.4000244140625</ele>
        <time>2014-11-14T15:14:22Z</time>
      </trkpt>
      <trkpt lat="46.599028492346406" lon="7.17230929993093">
        <ele>1387.4000244140625</ele>
        <time>2014-11-14T15:14:25Z</time>
      </trkpt>
      <trkpt lat="46.599056487902999" lon="7.17232002876699">
        <ele>1386.800048828125</ele>
        <time>2014-11-14T15:14:26Z</time>
      </trkpt>
      <trkpt lat="46.599083477631211" lon="7.172328997403383">
        <ele>1386.199951171875</ele>
        <time>2014-11-14T15:14:27Z</time>
      </trkpt>
      <trkpt lat="46.599131925031543" lon="7.172335786744952">
        <ele>1385</ele>
        <time>2014-11-14T15:14:29Z</time>
      </trkpt>
      <trkpt lat="46.599192274734378" lon="7.172347018495202">
        <ele>1383.800048828125</ele>
        <time>2014-11-14T15:14:32Z</time>
      </trkpt>
      <trkpt lat="46.599239967763424" lon="7.172364369034767">
        <ele>1382.800048828125</ele>
        <time>2014-11-14T15:14:35Z</time>
      </trkpt>
      <trkpt lat="46.599299479275942" lon="7.172398148104549">
        <ele>1381.199951171875</ele>
        <time>2014-11-14T15:14:38Z</time>
      </trkpt>
      <trkpt lat="46.599354296922684" lon="7.172442991286516">
        <ele>1380.199951171875</ele>
        <time>2014-11-14T15:14:41Z</time>
      </trkpt>
      <trkpt lat="46.59939075820148" lon="7.172470316290855">
        <ele>1379.4000244140625</ele>
        <time>2014-11-14T15:14:43Z</time>
      </trkpt>
      <trkpt lat="46.599409114569426" lon="7.172483140602708">
        <ele>1378.4000244140625</ele>
        <time>2014-11-14T15:14:44Z</time>
      </trkpt>
      <trkpt lat="46.59942495636642" lon="7.172498144209385">
        <ele>1377.4000244140625</ele>
        <time>2014-11-14T15:14:45Z</time>
      </trkpt>
      <trkpt lat="46.599485892802477" lon="7.172539131715894">
        <ele>1376</ele>
        <time>2014-11-14T15:14:48Z</time>
      </trkpt>
      <trkpt lat="46.599509781226516" lon="7.172550363466144">
        <ele>1374.800048828125</ele>
        <time>2014-11-14T15:14:49Z</time>
      </trkpt>
      <trkpt lat="46.599553031846881" lon="7.172570480033755">
        <ele>1373.199951171875</ele>
        <time>2014-11-14T15:14:51Z</time>
      </trkpt>
      <trkpt lat="46.599588738754392" lon="7.172581627964973">
        <ele>1371.800048828125</ele>
        <time>2014-11-14T15:14:53Z</time>
      </trkpt>
      <trkpt lat="46.599623439833522" lon="7.17259805649519">
        <ele>1370.4000244140625</ele>
        <time>2014-11-14T15:14:55Z</time>
      </trkpt>
      <trkpt lat="46.599641125649214" lon="7.172600738704205">
        <ele>1369.800048828125</ele>
        <time>2014-11-14T15:14:56Z</time>
      </trkpt>
      <trkpt lat="46.599659649655223" lon="7.172603001818061">
        <ele>1369.199951171875</ele>
        <time>2014-11-14T15:14:57Z</time>
      </trkpt>
      <trkpt lat="46.599692674353719" lon="7.172604678198695">
        <ele>1367.800048828125</ele>
        <time>2014-11-14T15:14:59Z</time>
      </trkpt>
      <trkpt lat="46.599803902208805" lon="7.172565953806043">
        <ele>1362</ele>
        <time>2014-11-14T15:15:23Z</time>
      </trkpt>
      <trkpt lat="46.599830975756049" lon="7.172556314617395">
        <ele>1361.800048828125</ele>
        <time>2014-11-14T15:15:24Z</time>
      </trkpt>
      <trkpt lat="46.599903060123324" lon="7.172532845288515">
        <ele>1359.5999755859375</ele>
        <time>2014-11-14T15:15:26Z</time>
      </trkpt>
      <trkpt lat="46.599963409826159" lon="7.172524379566312">
        <ele>1358</ele>
        <time>2014-11-14T15:15:28Z</time>
      </trkpt>
      <trkpt lat="46.599987968802452" lon="7.172532174736261">
        <ele>1357.4000244140625</ele>
        <time>2014-11-14T15:15:29Z</time>
      </trkpt>
      <trkpt lat="46.600020825862885" lon="7.172543574124575">
        <ele>1356.800048828125</ele>
        <time>2014-11-14T15:15:30Z</time>
      </trkpt>
      <trkpt lat="46.600111601874232" lon="7.172565534710884">
        <ele>1355.5999755859375</ele>
        <time>2014-11-14T15:15:33Z</time>
      </trkpt>
      <trkpt lat="46.600152673199773" lon="7.17256486415863">
        <ele>1355.199951171875</ele>
        <time>2014-11-14T15:15:34Z</time>
      </trkpt>
      <trkpt lat="46.600241353735328" lon="7.17254139482975">
        <ele>1354</ele>
        <time>2014-11-14T15:15:36Z</time>
      </trkpt>
      <trkpt lat="46.600285610184073" lon="7.172519601881504">
        <ele>1353.199951171875</ele>
        <time>2014-11-14T15:15:37Z</time>
      </trkpt>
      <trkpt lat="46.600334560498595" lon="7.172493534162641">
        <ele>1352.4000244140625</ele>
        <time>2014-11-14T15:15:38Z</time>
      </trkpt>
      <trkpt lat="46.600414859130979" lon="7.172451037913561">
        <ele>1350.5999755859375</ele>
        <time>2014-11-14T15:15:40Z</time>
      </trkpt>
      <trkpt lat="46.600448889657855" lon="7.172437123954296">
        <ele>1350</ele>
        <time>2014-11-14T15:15:41Z</time>
      </trkpt>
      <trkpt lat="46.600474957376719" lon="7.172430921345949">
        <ele>1349.5999755859375</ele>
        <time>2014-11-14T15:15:42Z</time>
      </trkpt>
      <trkpt lat="46.600500270724297" lon="7.172423545271158">
        <ele>1348.5999755859375</ele>
        <time>2014-11-14T15:16:11Z</time>
      </trkpt>
      <trkpt lat="46.600547460839152" lon="7.172399489209056">
        <ele>1348.800048828125</ele>
        <time>2014-11-14T15:16:13Z</time>
      </trkpt>
      <trkpt lat="46.600575624033809" lon="7.172376941889525">
        <ele>1348.199951171875</ele>
        <time>2014-11-14T15:16:14Z</time>
      </trkpt>
      <trkpt lat="46.600652737542987" lon="7.172269904986024">
        <ele>1347</ele>
        <time>2014-11-14T15:16:17Z</time>
      </trkpt>
      <trkpt lat="46.600659610703588" lon="7.172222882509232">
        <ele>1346.800048828125</ele>
        <time>2014-11-14T15:16:18Z</time>
      </trkpt>
      <trkpt lat="46.600621808320284" lon="7.172097740694881">
        <ele>1346</ele>
        <time>2014-11-14T15:16:21Z</time>
      </trkpt>
      <trkpt lat="46.600603787228465" lon="7.172057842835784">
        <ele>1345.5999755859375</ele>
        <time>2014-11-14T15:16:22Z</time>
      </trkpt>
      <trkpt lat="46.600568499416113" lon="7.171989362686873">
        <ele>1344.800048828125</ele>
        <time>2014-11-14T15:16:24Z</time>
      </trkpt>
      <trkpt lat="46.600525751709938" lon="7.171909483149648">
        <ele>1343.5999755859375</ele>
        <time>2014-11-14T15:16:26Z</time>
      </trkpt>
      <trkpt lat="46.600505635142326" lon="7.171861873939633">
        <ele>1342.800048828125</ele>
        <time>2014-11-14T15:16:27Z</time>
      </trkpt>
      <trkpt lat="46.600485518574715" lon="7.171812672168016">
        <ele>1342.4000244140625</ele>
        <time>2014-11-14T15:16:28Z</time>
      </trkpt>
      <trkpt lat="46.600449057295918" lon="7.171717369928956">
        <ele>1341</ele>
        <time>2014-11-14T15:16:30Z</time>
      </trkpt>
      <trkpt lat="46.600396251305938" lon="7.171651152893901">
        <ele>1339</ele>
        <time>2014-11-14T15:16:32Z</time>
      </trkpt>
      <trkpt lat="46.600358365103602" lon="7.171630281955004">
        <ele>1338.199951171875</ele>
        <time>2014-11-14T15:16:33Z</time>
      </trkpt>
      <trkpt lat="46.600318467244506" lon="7.1716149430722">
        <ele>1337.5999755859375</ele>
        <time>2014-11-14T15:16:34Z</time>
      </trkpt>
      <trkpt lat="46.600254597142339" lon="7.171563729643822">
        <ele>1336.4000244140625</ele>
        <time>2014-11-14T15:16:36Z</time>
      </trkpt>
      <trkpt lat="46.60024244338274" lon="7.171527603641152">
        <ele>1335.800048828125</ele>
        <time>2014-11-14T15:16:37Z</time>
      </trkpt>
      <trkpt lat="46.600243281573057" lon="7.171494578942657">
        <ele>1334.4000244140625</ele>
        <time>2014-11-14T15:16:38Z</time>
      </trkpt>
      <trkpt lat="46.600270438939333" lon="7.171392068266869">
        <ele>1333</ele>
        <time>2014-11-14T15:16:40Z</time>
      </trkpt>
      <trkpt lat="46.600315533578396" lon="7.171236416324973">
        <ele>1331</ele>
        <time>2014-11-14T15:16:42Z</time>
      </trkpt>
      <trkpt lat="46.600335147231817" lon="7.171163326129317">
        <ele>1329.800048828125</ele>
        <time>2014-11-14T15:16:43Z</time>
      </trkpt>
      <trkpt lat="46.600357862189412" lon="7.171099791303277">
        <ele>1328.4000244140625</ele>
        <time>2014-11-14T15:16:44Z</time>
      </trkpt>
      <trkpt lat="46.600380325689912" lon="7.171051511541009">
        <ele>1327.4000244140625</ele>
        <time>2014-11-14T15:16:45Z</time>
      </trkpt>
      <trkpt lat="46.600386444479227" lon="7.170982528477907">
        <ele>1326.4000244140625</ele>
        <time>2014-11-14T15:16:47Z</time>
      </trkpt>
      <trkpt lat="46.600329782813787" lon="7.170951934531331">
        <ele>1324.800048828125</ele>
        <time>2014-11-14T15:16:50Z</time>
      </trkpt>
      <trkpt lat="46.60029080696404" lon="7.170961489900947">
        <ele>1324.199951171875</ele>
        <time>2014-11-14T15:16:51Z</time>
      </trkpt>
      <trkpt lat="46.600252082571387" lon="7.170974649488926">
        <ele>1323.199951171875</ele>
        <time>2014-11-14T15:16:52Z</time>
      </trkpt>
      <trkpt lat="46.600188463926315" lon="7.170954868197441">
        <ele>1321.199951171875</ele>
        <time>2014-11-14T15:16:54Z</time>
      </trkpt>
      <trkpt lat="46.600170526653528" lon="7.170918406918645">
        <ele>1320.199951171875</ele>
        <time>2014-11-14T15:16:55Z</time>
      </trkpt>
      <trkpt lat="46.600164072588086" lon="7.170871468260884">
        <ele>1319.199951171875</ele>
        <time>2014-11-14T15:16:56Z</time>
      </trkpt>
      <trkpt lat="46.600160719826818" lon="7.170824026688933">
        <ele>1318.199951171875</ele>
        <time>2014-11-14T15:16:57Z</time>
      </trkpt>
      <trkpt lat="46.600154517218471" lon="7.170770382508636">
        <ele>1317.4000244140625</ele>
        <time>2014-11-14T15:16:58Z</time>
      </trkpt>
      <trkpt lat="46.600149152800441" lon="7.170717073604465">
        <ele>1316.4000244140625</ele>
        <time>2014-11-14T15:16:59Z</time>
      </trkpt>
      <trkpt lat="46.600145297124982" lon="7.170666782185435">
        <ele>1315.4000244140625</ele>
        <time>2014-11-14T15:17:00Z</time>
      </trkpt>
      <trkpt lat="46.600134233012795" lon="7.170618250966072">
        <ele>1314.4000244140625</ele>
        <time>2014-11-14T15:17:01Z</time>
      </trkpt>
      <trkpt lat="46.600118139758706" lon="7.170574078336358">
        <ele>1312.4000244140625</ele>
        <time>2014-11-14T15:17:02Z</time>
      </trkpt>
      <trkpt lat="46.600087126716971" lon="7.170500233769417">
        <ele>1310.5999755859375</ele>
        <time>2014-11-14T15:17:04Z</time>
      </trkpt>
      <trkpt lat="46.600071284919977" lon="7.17043980024755">
        <ele>1309.4000244140625</ele>
        <time>2014-11-14T15:17:06Z</time>
      </trkpt>
      <trkpt lat="46.600049827247858" lon="7.170378612354398">
        <ele>1308.4000244140625</ele>
        <time>2014-11-14T15:17:08Z</time>
      </trkpt>
      <trkpt lat="46.600020909681916" lon="7.170315748080611">
        <ele>1306.800048828125</ele>
        <time>2014-11-14T15:17:10Z</time>
      </trkpt>
      <trkpt lat="46.599991824477911" lon="7.170255230739713">
        <ele>1305</ele>
        <time>2014-11-14T15:17:12Z</time>
      </trkpt>
      <trkpt lat="46.599957458674908" lon="7.170199574902654">
        <ele>1303.4000244140625</ele>
        <time>2014-11-14T15:17:14Z</time>
      </trkpt>
      <trkpt lat="46.599914710968733" lon="7.170138554647565">
        <ele>1301.5999755859375</ele>
        <time>2014-11-14T15:17:16Z</time>
      </trkpt>
      <trkpt lat="46.599886883050203" lon="7.17010460793972">
        <ele>1300.5999755859375</ele>
        <time>2014-11-14T15:17:17Z</time>
      </trkpt>
      <trkpt lat="46.599857797846198" lon="7.170072505250573">
        <ele>1299.5999755859375</ele>
        <time>2014-11-14T15:17:18Z</time>
      </trkpt>
      <trkpt lat="46.599834244698286" lon="7.170045766979456">
        <ele>1298.199951171875</ele>
        <time>2014-11-14T15:17:19Z</time>
      </trkpt>
      <trkpt lat="46.599817732349038" lon="7.170029170811176">
        <ele>1297.199951171875</ele>
        <time>2014-11-14T15:17:20Z</time>
      </trkpt>
      <trkpt lat="46.599793005734682" lon="7.17000737786293">
        <ele>1294.800048828125</ele>
        <time>2014-11-14T15:17:27Z</time>
      </trkpt>
      <trkpt lat="46.599776577204466" lon="7.169984662905335">
        <ele>1294.4000244140625</ele>
        <time>2014-11-14T15:17:28Z</time>
      </trkpt>
      <trkpt lat="46.599756292998791" lon="7.169957337900996">
        <ele>1293.800048828125</ele>
        <time>2014-11-14T15:17:29Z</time>
      </trkpt>
      <trkpt lat="46.599737601354718" lon="7.1699208766222">
        <ele>1293.199951171875</ele>
        <time>2014-11-14T15:17:30Z</time>
      </trkpt>
      <trkpt lat="46.599708180874586" lon="7.169832950457931">
        <ele>1291.5999755859375</ele>
        <time>2014-11-14T15:17:32Z</time>
      </trkpt>
      <trkpt lat="46.599700804799795" lon="7.169789867475629">
        <ele>1290.4000244140625</ele>
        <time>2014-11-14T15:17:33Z</time>
      </trkpt>
      <trkpt lat="46.59969761967659" lon="7.169745191931725">
        <ele>1289.4000244140625</ele>
        <time>2014-11-14T15:17:34Z</time>
      </trkpt>
      <trkpt lat="46.599695021286607" lon="7.169698672369123">
        <ele>1288.5999755859375</ele>
        <time>2014-11-14T15:17:35Z</time>
      </trkpt>
      <trkpt lat="46.599671803414822" lon="7.169633461162448">
        <ele>1286.800048828125</ele>
        <time>2014-11-14T15:17:37Z</time>
      </trkpt>
      <trkpt lat="46.599649172276258" lon="7.169618625193834">
        <ele>1285.800048828125</ele>
        <time>2014-11-14T15:17:38Z</time>
      </trkpt>
      <trkpt lat="46.599618578329682" lon="7.169606303796172">
        <ele>1285.199951171875</ele>
        <time>2014-11-14T15:17:39Z</time>
      </trkpt>
      <trkpt lat="46.599547080695629" lon="7.169578392058611">
        <ele>1283.199951171875</ele>
        <time>2014-11-14T15:17:41Z</time>
      </trkpt>
      <trkpt lat="46.599507685750723" lon="7.169566405937076">
        <ele>1282.199951171875</ele>
        <time>2014-11-14T15:17:42Z</time>
      </trkpt>
      <trkpt lat="46.599473990499973" lon="7.169543774798513">
        <ele>1281</ele>
        <time>2014-11-14T15:17:43Z</time>
      </trkpt>
      <trkpt lat="46.599450185894966" lon="7.169508319348097">
        <ele>1279.5999755859375</ele>
        <time>2014-11-14T15:17:44Z</time>
      </trkpt>
      <trkpt lat="46.599441971629858" lon="7.16946548782289">
        <ele>1278.4000244140625</ele>
        <time>2014-11-14T15:17:45Z</time>
      </trkpt>
      <trkpt lat="46.599447252228856" lon="7.169418213889003">
        <ele>1277.199951171875</ele>
        <time>2014-11-14T15:17:46Z</time>
      </trkpt>
      <trkpt lat="46.599484551697969" lon="7.16933355666697">
        <ele>1275.4000244140625</ele>
        <time>2014-11-14T15:17:48Z</time>
      </trkpt>
      <trkpt lat="46.599488407373428" lon="7.16925929300487">
        <ele>1273.4000244140625</ele>
        <time>2014-11-14T15:17:50Z</time>
      </trkpt>
      <trkpt lat="46.599472649395466" lon="7.169241355732083">
        <ele>1272.5999755859375</ele>
        <time>2014-11-14T15:17:51Z</time>
      </trkpt>
      <trkpt lat="46.599445911124349" lon="7.169235991314054">
        <ele>1272</ele>
        <time>2014-11-14T15:17:52Z</time>
      </trkpt>
      <trkpt lat="46.599390003830194" lon="7.169186286628246">
        <ele>1270.4000244140625</ele>
        <time>2014-11-14T15:17:54Z</time>
      </trkpt>
      <trkpt lat="46.599378017708659" lon="7.169129541143775">
        <ele>1269.4000244140625</ele>
        <time>2014-11-14T15:17:55Z</time>
      </trkpt>
      <trkpt lat="46.5993741620332" lon="7.16901202686131">
        <ele>1267.199951171875</ele>
        <time>2014-11-14T15:17:57Z</time>
      </trkpt>
      <trkpt lat="46.599365193396807" lon="7.168968692421913">
        <ele>1266.199951171875</ele>
        <time>2014-11-14T15:17:58Z</time>
      </trkpt>
      <trkpt lat="46.599350944161415" lon="7.168934242799878">
        <ele>1265</ele>
        <time>2014-11-14T15:17:59Z</time>
      </trkpt>
      <trkpt lat="46.599310040473938" lon="7.168881772086024">
        <ele>1263.199951171875</ele>
        <time>2014-11-14T15:18:01Z</time>
      </trkpt>
      <trkpt lat="46.599265281111002" lon="7.168845813721418">
        <ele>1261.4000244140625</ele>
        <time>2014-11-14T15:18:03Z</time>
      </trkpt>
      <trkpt lat="46.59924223087728" lon="7.168852770701051">
        <ele>1260.5999755859375</ele>
        <time>2014-11-14T15:18:04Z</time>
      </trkpt>
      <trkpt lat="46.59922705963254" lon="7.168864756822586">
        <ele>1260</ele>
        <time>2014-11-14T15:18:05Z</time>
      </trkpt>
      <trkpt lat="46.599220521748066" lon="7.168871043249965">
        <ele>1259.5999755859375</ele>
        <time>2014-11-14T15:18:06Z</time>
      </trkpt>
      <trkpt lat="46.599213061854243" lon="7.168889986351132">
        <ele>1259.5999755859375</ele>
        <time>2014-11-14T15:18:34Z</time>
      </trkpt>
      <trkpt lat="46.59917090088129" lon="7.168930554762483">
        <ele>1259.4000244140625</ele>
        <time>2014-11-14T15:18:36Z</time>
      </trkpt>
      <trkpt lat="46.599097810685635" lon="7.168931728228927">
        <ele>1258.800048828125</ele>
        <time>2014-11-14T15:18:38Z</time>
      </trkpt>
      <trkpt lat="46.599065205082297" lon="7.168905241414905">
        <ele>1258.4000244140625</ele>
        <time>2014-11-14T15:18:39Z</time>
      </trkpt>
      <trkpt lat="46.599011560901999" lon="7.1688536927104">
        <ele>1257.4000244140625</ele>
        <time>2014-11-14T15:18:41Z</time>
      </trkpt>
      <trkpt lat="46.598976776003838" lon="7.16879460029304">
        <ele>1256.199951171875</ele>
        <time>2014-11-14T15:18:43Z</time>
      </trkpt>
      <trkpt lat="46.598959174007177" lon="7.168764006346464">
        <ele>1255.4000244140625</ele>
        <time>2014-11-14T15:18:44Z</time>
      </trkpt>
      <trkpt lat="46.598939644172788" lon="7.168724946677685">
        <ele>1254.4000244140625</ele>
        <time>2014-11-14T15:18:46Z</time>
      </trkpt>
      <trkpt lat="46.598890945315361" lon="7.168639451265335">
        <ele>1252.4000244140625</ele>
        <time>2014-11-14T15:18:48Z</time>
      </trkpt>
      <trkpt lat="46.598862027749419" lon="7.16858790256083">
        <ele>1251.4000244140625</ele>
        <time>2014-11-14T15:18:49Z</time>
      </trkpt>
      <trkpt lat="46.598830930888653" lon="7.168536689132452">
        <ele>1250.4000244140625</ele>
        <time>2014-11-14T15:18:50Z</time>
      </trkpt>
      <trkpt lat="46.598799247294664" lon="7.168485391885042">
        <ele>1249</ele>
        <time>2014-11-14T15:18:51Z</time>
      </trkpt>
      <trkpt lat="46.59876387566328" lon="7.16843300499022">
        <ele>1247.800048828125</ele>
        <time>2014-11-14T15:18:52Z</time>
      </trkpt>
      <trkpt lat="46.598725570365787" lon="7.16837340965867">
        <ele>1246.4000244140625</ele>
        <time>2014-11-14T15:18:53Z</time>
      </trkpt>
      <trkpt lat="46.598687851801515" lon="7.168314317241311">
        <ele>1245.199951171875</ele>
        <time>2014-11-14T15:18:54Z</time>
      </trkpt>
      <trkpt lat="46.598648792132735" lon="7.168258242309094">
        <ele>1243.5999755859375</ele>
        <time>2014-11-14T15:18:55Z</time>
      </trkpt>
      <trkpt lat="46.598612749949098" lon="7.168204179033637">
        <ele>1242.199951171875</ele>
        <time>2014-11-14T15:18:56Z</time>
      </trkpt>
      <trkpt lat="46.598575115203857" lon="7.168151456862688">
        <ele>1240.5999755859375</ele>
        <time>2014-11-14T15:18:57Z</time>
      </trkpt>
      <trkpt lat="46.598535133525729" lon="7.16810560785234">
        <ele>1239.4000244140625</ele>
        <time>2014-11-14T15:18:58Z</time>
      </trkpt>
      <trkpt lat="46.598493978381157" lon="7.168066464364529">
        <ele>1237.800048828125</ele>
        <time>2014-11-14T15:18:59Z</time>
      </trkpt>
      <trkpt lat="46.598457768559456" lon="7.168039893731475">
        <ele>1236.5999755859375</ele>
        <time>2014-11-14T15:19:00Z</time>
      </trkpt>
      <trkpt lat="46.598423654213548" lon="7.168025309219956">
        <ele>1235.199951171875</ele>
        <time>2014-11-14T15:19:01Z</time>
      </trkpt>
      <trkpt lat="46.598383337259293" lon="7.168013909831643">
        <ele>1233.800048828125</ele>
        <time>2014-11-14T15:19:02Z</time>
      </trkpt>
      <trkpt lat="46.598351318389177" lon="7.167982812970877">
        <ele>1231.5999755859375</ele>
        <time>2014-11-14T15:19:03Z</time>
      </trkpt>
      <trkpt lat="46.598342685028911" lon="7.167946351692081">
        <ele>1230.800048828125</ele>
        <time>2014-11-14T15:19:04Z</time>
      </trkpt>
      <trkpt lat="46.598357185721397" lon="7.16791114769876">
        <ele>1230.199951171875</ele>
        <time>2014-11-14T15:19:05Z</time>
      </trkpt>
      <trkpt lat="46.598397251218557" lon="7.167879799380899">
        <ele>1229.4000244140625</ele>
        <time>2014-11-14T15:19:06Z</time>
      </trkpt>
      <trkpt lat="46.598449135199189" lon="7.167864125221968">
        <ele>1228.800048828125</ele>
        <time>2014-11-14T15:19:07Z</time>
      </trkpt>
      <trkpt lat="46.598503114655614" lon="7.167844763025641">
        <ele>1228.199951171875</ele>
        <time>2014-11-14T15:19:08Z</time>
      </trkpt>
      <trkpt lat="46.598552064970136" lon="7.167826574295759">
        <ele>1227.4000244140625</ele>
        <time>2014-11-14T15:19:09Z</time>
      </trkpt>
      <trkpt lat="46.598593220114708" lon="7.167800003662705">
        <ele>1226.4000244140625</ele>
        <time>2014-11-14T15:19:10Z</time>
      </trkpt>
      <trkpt lat="46.598623478785157" lon="7.167764296755195">
        <ele>1225.199951171875</ele>
        <time>2014-11-14T15:19:11Z</time>
      </trkpt>
      <trkpt lat="46.598644685000181" lon="7.167718866840005">
        <ele>1224</ele>
        <time>2014-11-14T15:19:12Z</time>
      </trkpt>
      <trkpt lat="46.598664801567793" lon="7.167664468288422">
        <ele>1223.4000244140625</ele>
        <time>2014-11-14T15:19:13Z</time>
      </trkpt>
      <trkpt lat="46.59868223592639" lon="7.167602106928825">
        <ele>1222.800048828125</ele>
        <time>2014-11-14T15:19:14Z</time>
      </trkpt>
      <trkpt lat="46.598685504868627" lon="7.167497333139181">
        <ele>1221.4000244140625</ele>
        <time>2014-11-14T15:19:16Z</time>
      </trkpt>
      <trkpt lat="46.598672764375806" lon="7.167445700615645">
        <ele>1220.5999755859375</ele>
        <time>2014-11-14T15:19:17Z</time>
      </trkpt>
      <trkpt lat="46.598655665293336" lon="7.167393062263727">
        <ele>1219.800048828125</ele>
        <time>2014-11-14T15:19:18Z</time>
      </trkpt>
      <trkpt lat="46.598638650029898" lon="7.167339082807303">
        <ele>1218.5999755859375</ele>
        <time>2014-11-14T15:19:19Z</time>
      </trkpt>
      <trkpt lat="46.598619539290667" lon="7.167280158028007">
        <ele>1217.5999755859375</ele>
        <time>2014-11-14T15:19:20Z</time>
      </trkpt>
      <trkpt lat="46.598598165437579" lon="7.167211594060063">
        <ele>1216.199951171875</ele>
        <time>2014-11-14T15:19:21Z</time>
      </trkpt>
      <trkpt lat="46.598577713593841" lon="7.167141605168581">
        <ele>1214.5999755859375</ele>
        <time>2014-11-14T15:19:22Z</time>
      </trkpt>
      <trkpt lat="46.598556423559785" lon="7.16706876643002">
        <ele>1213</ele>
        <time>2014-11-14T15:19:23Z</time>
      </trkpt>
      <trkpt lat="46.598533289507031" lon="7.166995843872428">
        <ele>1211.5999755859375</ele>
        <time>2014-11-14T15:19:24Z</time>
      </trkpt>
      <trkpt lat="46.598513927310705" lon="7.166921831667423">
        <ele>1209.800048828125</ele>
        <time>2014-11-14T15:19:25Z</time>
      </trkpt>
      <trkpt lat="46.598500851541758" lon="7.166845723986626">
        <ele>1208</ele>
        <time>2014-11-14T15:19:26Z</time>
      </trkpt>
      <trkpt lat="46.598492050543427" lon="7.166770538315177">
        <ele>1204.800048828125</ele>
        <time>2014-11-14T15:19:27Z</time>
      </trkpt>
      <trkpt lat="46.598486267030239" lon="7.1667002979666">
        <ele>1203.4000244140625</ele>
        <time>2014-11-14T15:19:28Z</time>
      </trkpt>
      <trkpt lat="46.598475789651275" lon="7.166628465056419">
        <ele>1202</ele>
        <time>2014-11-14T15:19:29Z</time>
      </trkpt>
      <trkpt lat="46.598456092178822" lon="7.166560990735889">
        <ele>1200.199951171875</ele>
        <time>2014-11-14T15:19:30Z</time>
      </trkpt>
      <trkpt lat="46.598429856821895" lon="7.166489074006677">
        <ele>1198.5999755859375</ele>
        <time>2014-11-14T15:19:31Z</time>
      </trkpt>
      <trkpt lat="46.598400603979826" lon="7.166408691555262">
        <ele>1197.199951171875</ele>
        <time>2014-11-14T15:19:32Z</time>
      </trkpt>
      <trkpt lat="46.598374452441931" lon="7.166320513933897">
        <ele>1196.199951171875</ele>
        <time>2014-11-14T15:19:33Z</time>
      </trkpt>
      <trkpt lat="46.598350312560797" lon="7.166233928874135">
        <ele>1194.800048828125</ele>
        <time>2014-11-14T15:19:34Z</time>
      </trkpt>
      <trkpt lat="46.598327681422234" lon="7.166147846728563">
        <ele>1193.199951171875</ele>
        <time>2014-11-14T15:19:35Z</time>
      </trkpt>
      <trkpt lat="46.598303457722068" lon="7.166066374629736">
        <ele>1191.5999755859375</ele>
        <time>2014-11-14T15:19:36Z</time>
      </trkpt>
      <trkpt lat="46.598275629803538" lon="7.165990434587002">
        <ele>1190</ele>
        <time>2014-11-14T15:19:37Z</time>
      </trkpt>
      <trkpt lat="46.598244365304708" lon="7.165913907811046">
        <ele>1188.199951171875</ele>
        <time>2014-11-14T15:19:38Z</time>
      </trkpt>
      <trkpt lat="46.598214274272323" lon="7.165836542844772">
        <ele>1186.5999755859375</ele>
        <time>2014-11-14T15:19:39Z</time>
      </trkpt>
      <trkpt lat="46.598188374191523" lon="7.165756747126579">
        <ele>1184.800048828125</ele>
        <time>2014-11-14T15:19:40Z</time>
      </trkpt>
      <trkpt lat="46.598167922347784" lon="7.165679298341274">
        <ele>1183</ele>
        <time>2014-11-14T15:19:41Z</time>
      </trkpt>
      <trkpt lat="46.598149733617902" lon="7.165613416582346">
        <ele>1181</ele>
        <time>2014-11-14T15:19:42Z</time>
      </trkpt>
      <trkpt lat="46.598131796345115" lon="7.165562622249126">
        <ele>1179.4000244140625</ele>
        <time>2014-11-14T15:19:43Z</time>
      </trkpt>
      <trkpt lat="46.598112853243947" lon="7.165537560358644">
        <ele>1177.5999755859375</ele>
        <time>2014-11-14T15:19:44Z</time>
      </trkpt>
      <trkpt lat="46.598089719191194" lon="7.165540158748627">
        <ele>1176.199951171875</ele>
        <time>2014-11-14T15:19:45Z</time>
      </trkpt>
      <trkpt lat="46.598067004233599" lon="7.165565304458141">
        <ele>1175.199951171875</ele>
        <time>2014-11-14T15:19:46Z</time>
      </trkpt>
      <trkpt lat="46.598025932908058" lon="7.165644848719239">
        <ele>1174</ele>
        <time>2014-11-14T15:19:48Z</time>
      </trkpt>
      <trkpt lat="46.597980419173837" lon="7.1657401509583">
        <ele>1172.800048828125</ele>
        <time>2014-11-14T15:19:50Z</time>
      </trkpt>
      <trkpt lat="46.597956866025925" lon="7.165776947513223">
        <ele>1170.5999755859375</ele>
        <time>2014-11-14T15:19:51Z</time>
      </trkpt>
      <trkpt lat="46.597926188260317" lon="7.165795722976327">
        <ele>1169.800048828125</ele>
        <time>2014-11-14T15:19:52Z</time>
      </trkpt>
      <trkpt lat="46.597891990095377" lon="7.165793040767312">
        <ele>1169.4000244140625</ele>
        <time>2014-11-14T15:19:53Z</time>
      </trkpt>
      <trkpt lat="46.597862485796213" lon="7.165779378265142">
        <ele>1169.199951171875</ele>
        <time>2014-11-14T15:19:54Z</time>
      </trkpt>
      <trkpt lat="46.597789311781526" lon="7.16570989228785">
        <ele>1167.800048828125</ele>
        <time>2014-11-14T15:19:57Z</time>
      </trkpt>
      <trkpt lat="46.597745222970843" lon="7.16566982679069">
        <ele>1166.5999755859375</ele>
        <time>2014-11-14T15:19:59Z</time>
      </trkpt>
      <trkpt lat="46.597724435850978" lon="7.165643256157637">
        <ele>1166</ele>
        <time>2014-11-14T15:20:00Z</time>
      </trkpt>
      <trkpt lat="46.597703229635954" lon="7.165617775171995">
        <ele>1165.4000244140625</ele>
        <time>2014-11-14T15:20:01Z</time>
      </trkpt>
      <trkpt lat="46.597669031471014" lon="7.165564298629761">
        <ele>1164.199951171875</ele>
        <time>2014-11-14T15:20:03Z</time>
      </trkpt>
      <trkpt lat="46.597646400332451" lon="7.165495818480849">
        <ele>1162.5999755859375</ele>
        <time>2014-11-14T15:20:05Z</time>
      </trkpt>
      <trkpt lat="46.597636006772518" lon="7.165453908964992">
        <ele>1162</ele>
        <time>2014-11-14T15:20:06Z</time>
      </trkpt>
      <trkpt lat="46.597621757537127" lon="7.16541325673461">
        <ele>1161.4000244140625</ele>
        <time>2014-11-14T15:20:07Z</time>
      </trkpt>
      <trkpt lat="46.597575070336461" lon="7.165336981415749">
        <ele>1159.800048828125</ele>
        <time>2014-11-14T15:20:09Z</time>
      </trkpt>
      <trkpt lat="46.597509607672691" lon="7.165236566215754">
        <ele>1158.4000244140625</ele>
        <time>2014-11-14T15:20:11Z</time>
      </trkpt>
      <trkpt lat="46.59748069010675" lon="7.165180994197726">
        <ele>1157.5999755859375</ele>
        <time>2014-11-14T15:20:12Z</time>
      </trkpt>
      <trkpt lat="46.597457807511091" lon="7.165120225399733">
        <ele>1156.5999755859375</ele>
        <time>2014-11-14T15:20:13Z</time>
      </trkpt>
      <trkpt lat="46.597432997077703" lon="7.165055014193058">
        <ele>1155.4000244140625</ele>
        <time>2014-11-14T15:20:14Z</time>
      </trkpt>
      <trkpt lat="46.597409443929791" lon="7.164989300072193">
        <ele>1153.4000244140625</ele>
        <time>2014-11-14T15:20:15Z</time>
      </trkpt>
      <trkpt lat="46.597384298220277" lon="7.164925765246153">
        <ele>1152.4000244140625</ele>
        <time>2014-11-14T15:20:16Z</time>
      </trkpt>
      <trkpt lat="46.597362672910094" lon="7.164870360866189">
        <ele>1151.4000244140625</ele>
        <time>2014-11-14T15:20:17Z</time>
      </trkpt>
      <trkpt lat="46.597345406189561" lon="7.164817303419113">
        <ele>1150.199951171875</ele>
        <time>2014-11-14T15:20:18Z</time>
      </trkpt>
      <trkpt lat="46.597328810021281" lon="7.164757708087564">
        <ele>1149</ele>
        <time>2014-11-14T15:20:19Z</time>
      </trkpt>
      <trkpt lat="46.597313554957509" lon="7.164699118584395">
        <ele>1147.5999755859375</ele>
        <time>2014-11-14T15:20:20Z</time>
      </trkpt>
      <trkpt lat="46.597299389541149" lon="7.164639104157686">
        <ele>1146.4000244140625</ele>
        <time>2014-11-14T15:20:21Z</time>
      </trkpt>
      <trkpt lat="46.597278267145157" lon="7.164578251540661">
        <ele>1145</ele>
        <time>2014-11-14T15:20:22Z</time>
      </trkpt>
      <trkpt lat="46.597250523045659" lon="7.164518991485238">
        <ele>1143.800048828125</ele>
        <time>2014-11-14T15:20:23Z</time>
      </trkpt>
      <trkpt lat="46.597218923270702" lon="7.164460066705942">
        <ele>1142.4000244140625</ele>
        <time>2014-11-14T15:20:24Z</time>
      </trkpt>
      <trkpt lat="46.597174583002925" lon="7.164398208260536">
        <ele>1141.199951171875</ele>
        <time>2014-11-14T15:20:25Z</time>
      </trkpt>
      <trkpt lat="46.597120855003595" lon="7.164335679262877">
        <ele>1140</ele>
        <time>2014-11-14T15:20:26Z</time>
      </trkpt>
      <trkpt lat="46.597063606604934" lon="7.164277257397771">
        <ele>1139</ele>
        <time>2014-11-14T15:20:27Z</time>
      </trkpt>
      <trkpt lat="46.597005017101765" lon="7.164218835532665">
        <ele>1138.199951171875</ele>
        <time>2014-11-14T15:20:28Z</time>
      </trkpt>
      <trkpt lat="46.596945840865374" lon="7.164162173867226">
        <ele>1137.4000244140625</ele>
        <time>2014-11-14T15:20:29Z</time>
      </trkpt>
      <trkpt lat="46.596886413171887" lon="7.164105093106628">
        <ele>1136.4000244140625</ele>
        <time>2014-11-14T15:20:30Z</time>
      </trkpt>
      <trkpt lat="46.596823548898101" lon="7.164038708433509">
        <ele>1135.199951171875</ele>
        <time>2014-11-14T15:20:31Z</time>
      </trkpt>
      <trkpt lat="46.596749369055033" lon="7.163972072303295">
        <ele>1133.800048828125</ele>
        <time>2014-11-14T15:20:32Z</time>
      </trkpt>
      <trkpt lat="46.596667310222983" lon="7.163907028734684">
        <ele>1132.5999755859375</ele>
        <time>2014-11-14T15:20:33Z</time>
      </trkpt>
      <trkpt lat="46.596583239734173" lon="7.163841901347041">
        <ele>1131.199951171875</ele>
        <time>2014-11-14T15:20:34Z</time>
      </trkpt>
      <trkpt lat="46.596503611654043" lon="7.163775349035859">
        <ele>1130</ele>
        <time>2014-11-14T15:20:35Z</time>
      </trkpt>
      <trkpt lat="46.596432784572244" lon="7.163716591894627">
        <ele>1128.5999755859375</ele>
        <time>2014-11-14T15:20:36Z</time>
      </trkpt>
      <trkpt lat="46.596367070451379" lon="7.16366546228528">
        <ele>1127.4000244140625</ele>
        <time>2014-11-14T15:20:37Z</time>
      </trkpt>
      <trkpt lat="46.596301607787609" lon="7.163618439808488">
        <ele>1126.199951171875</ele>
        <time>2014-11-14T15:20:38Z</time>
      </trkpt>
      <trkpt lat="46.596239330247045" lon="7.163577200844884">
        <ele>1124.5999755859375</ele>
        <time>2014-11-14T15:20:39Z</time>
      </trkpt>
      <trkpt lat="46.59610329195857" lon="7.163498578593135">
        <ele>1123.4000244140625</ele>
        <time>2014-11-14T15:20:41Z</time>
      </trkpt>
      <trkpt lat="46.595980748534203" lon="7.163422638550401">
        <ele>1122.4000244140625</ele>
        <time>2014-11-14T15:20:43Z</time>
      </trkpt>
      <trkpt lat="46.595922326669097" lon="7.163393637165427">
        <ele>1121.5999755859375</ele>
        <time>2014-11-14T15:20:44Z</time>
      </trkpt>
      <trkpt lat="46.595865748822689" lon="7.163385171443224">
        <ele>1121.199951171875</ele>
        <time>2014-11-14T15:20:45Z</time>
      </trkpt>
      <trkpt lat="46.595758544281125" lon="7.163375532254577">
        <ele>1120.800048828125</ele>
        <time>2014-11-14T15:20:47Z</time>
      </trkpt>
      <trkpt lat="46.595661230385303" lon="7.163360780104995">
        <ele>1120.199951171875</ele>
        <time>2014-11-14T15:20:49Z</time>
      </trkpt>
      <trkpt lat="46.595613537356257" lon="7.163344100117683">
        <ele>1120</ele>
        <time>2014-11-14T15:20:50Z</time>
      </trkpt>
      <trkpt lat="46.595468111336231" lon="7.163255922496319">
        <ele>1119.199951171875</ele>
        <time>2014-11-14T15:20:53Z</time>
      </trkpt>
      <trkpt lat="46.595423519611359" lon="7.163223987445235">
        <ele>1119</ele>
        <time>2014-11-14T15:20:54Z</time>
      </trkpt>
      <trkpt lat="46.595336263999343" lon="7.163163721561432">
        <ele>1117.800048828125</ele>
        <time>2014-11-14T15:20:56Z</time>
      </trkpt>
      <trkpt lat="46.595264095813036" lon="7.163114519789815">
        <ele>1116.5999755859375</ele>
        <time>2014-11-14T15:20:58Z</time>
      </trkpt>
      <trkpt lat="46.595232915133238" lon="7.163090379908681">
        <ele>1115.800048828125</ele>
        <time>2014-11-14T15:20:59Z</time>
      </trkpt>
      <trkpt lat="46.595206176862121" lon="7.163071436807513">
        <ele>1115</ele>
        <time>2014-11-14T15:21:00Z</time>
      </trkpt>
      <trkpt lat="46.595151359215379" lon="7.163023157045245">
        <ele>1113.5999755859375</ele>
        <time>2014-11-14T15:21:02Z</time>
      </trkpt>
      <trkpt lat="46.595127386972308" lon="7.162993736565113">
        <ele>1112</ele>
        <time>2014-11-14T15:21:03Z</time>
      </trkpt>
      <trkpt lat="46.595074916258454" lon="7.162943612784147">
        <ele>1110.5999755859375</ele>
        <time>2014-11-14T15:21:05Z</time>
      </trkpt>
      <trkpt lat="46.595005178824067" lon="7.162908408790827">
        <ele>1109.199951171875</ele>
        <time>2014-11-14T15:21:07Z</time>
      </trkpt>
      <trkpt lat="46.594923790544271" lon="7.162914862856269">
        <ele>1107.800048828125</ele>
        <time>2014-11-14T15:21:09Z</time>
      </trkpt>
      <trkpt lat="46.594876516610384" lon="7.162910085171461">
        <ele>1107.199951171875</ele>
        <time>2014-11-14T15:21:10Z</time>
      </trkpt>
      <trkpt lat="46.594833768904209" lon="7.162903379648924">
        <ele>1106.5999755859375</ele>
        <time>2014-11-14T15:21:11Z</time>
      </trkpt>
      <trkpt lat="46.59476587548852" lon="7.162870774045587">
        <ele>1104.5999755859375</ele>
        <time>2014-11-14T15:21:13Z</time>
      </trkpt>
      <trkpt lat="46.594752548262477" lon="7.16283867135644">
        <ele>1104</ele>
        <time>2014-11-14T15:21:14Z</time>
      </trkpt>
      <trkpt lat="46.594749614596367" lon="7.162807239219546">
        <ele>1103.4000244140625</ele>
        <time>2014-11-14T15:21:15Z</time>
      </trkpt>
      <trkpt lat="46.594747016206384" lon="7.162787541747093">
        <ele>1103</ele>
        <time>2014-11-14T15:21:16Z</time>
      </trkpt>
      <trkpt lat="46.594735449180007" lon="7.162779495120049">
        <ele>1102.199951171875</ele>
        <time>2014-11-14T15:22:01Z</time>
      </trkpt>
      <trkpt lat="46.594716925173998" lon="7.162786368280649">
        <ele>1102</ele>
        <time>2014-11-14T15:22:02Z</time>
      </trkpt>
      <trkpt lat="46.594662442803383" lon="7.162798186764121">
        <ele>1101</ele>
        <time>2014-11-14T15:22:04Z</time>
      </trkpt>
      <trkpt lat="46.594591531902552" lon="7.162784356623888">
        <ele>1099.5999755859375</ele>
        <time>2014-11-14T15:22:06Z</time>
      </trkpt>
      <trkpt lat="46.594512490555644" lon="7.162758205085993">
        <ele>1097.800048828125</ele>
        <time>2014-11-14T15:22:08Z</time>
      </trkpt>
      <trkpt lat="46.594468737021089" lon="7.162736495956779">
        <ele>1096.4000244140625</ele>
        <time>2014-11-14T15:22:09Z</time>
      </trkpt>
      <trkpt lat="46.594420289620757" lon="7.162714116275311">
        <ele>1095.199951171875</ele>
        <time>2014-11-14T15:22:10Z</time>
      </trkpt>
      <trkpt lat="46.594367735087872" lon="7.162701124325395">
        <ele>1093.800048828125</ele>
        <time>2014-11-14T15:22:11Z</time>
      </trkpt>
      <trkpt lat="46.594316437840462" lon="7.162692826241255">
        <ele>1092.5999755859375</ele>
        <time>2014-11-14T15:22:12Z</time>
      </trkpt>
      <trkpt lat="46.594264386221766" lon="7.162681259214878">
        <ele>1091.199951171875</ele>
        <time>2014-11-14T15:22:13Z</time>
      </trkpt>
      <trkpt lat="46.594210071489215" lon="7.162674302235246">
        <ele>1089.5999755859375</ele>
        <time>2014-11-14T15:22:14Z</time>
      </trkpt>
      <trkpt lat="46.594160534441471" lon="7.16265837661922">
        <ele>1086.199951171875</ele>
        <time>2014-11-14T15:22:15Z</time>
      </trkpt>
      <trkpt lat="46.594125078991055" lon="7.162628285586834">
        <ele>1084.800048828125</ele>
        <time>2014-11-14T15:22:16Z</time>
      </trkpt>
      <trkpt lat="46.594096999615431" lon="7.162601882591844">
        <ele>1083.4000244140625</ele>
        <time>2014-11-14T15:22:17Z</time>
      </trkpt>
      <trkpt lat="46.594042265787721" lon="7.162537006661296">
        <ele>1081.800048828125</ele>
        <time>2014-11-14T15:22:19Z</time>
      </trkpt>
      <trkpt lat="46.593960793688893" lon="7.162491157650948">
        <ele>1080</ele>
        <time>2014-11-14T15:22:21Z</time>
      </trkpt>
      <trkpt lat="46.593912849202752" lon="7.162486799061298">
        <ele>1078.800048828125</ele>
        <time>2014-11-14T15:22:22Z</time>
      </trkpt>
      <trkpt lat="46.593860127031803" lon="7.162487637251616">
        <ele>1077.4000244140625</ele>
        <time>2014-11-14T15:22:23Z</time>
      </trkpt>
      <trkpt lat="46.593805393204093" lon="7.162489062175155">
        <ele>1076.5999755859375</ele>
        <time>2014-11-14T15:22:24Z</time>
      </trkpt>
      <trkpt lat="46.593754515051842" lon="7.162489648908377">
        <ele>1075.4000244140625</ele>
        <time>2014-11-14T15:22:25Z</time>
      </trkpt>
      <trkpt lat="46.593708330765367" lon="7.162490151822567">
        <ele>1074</ele>
        <time>2014-11-14T15:22:26Z</time>
      </trkpt>
      <trkpt lat="46.593664661049843" lon="7.162485290318728">
        <ele>1072.800048828125</ele>
        <time>2014-11-14T15:22:27Z</time>
      </trkpt>
      <trkpt lat="46.593621158972383" lon="7.162475986406207">
        <ele>1071.4000244140625</ele>
        <time>2014-11-14T15:22:28Z</time>
      </trkpt>
      <trkpt lat="46.593577992171049" lon="7.162467520684004">
        <ele>1070.199951171875</ele>
        <time>2014-11-14T15:22:29Z</time>
      </trkpt>
      <trkpt lat="46.593536166474223" lon="7.162460563704372">
        <ele>1069</ele>
        <time>2014-11-14T15:22:30Z</time>
      </trkpt>
      <trkpt lat="46.593488892540336" lon="7.162450756877661">
        <ele>1067.4000244140625</ele>
        <time>2014-11-14T15:22:31Z</time>
      </trkpt>
      <trkpt lat="46.593444049358368" lon="7.162451092153788">
        <ele>1066.199951171875</ele>
        <time>2014-11-14T15:22:32Z</time>
      </trkpt>
      <trkpt lat="46.593406246975064" lon="7.162447739392519">
        <ele>1065</ele>
        <time>2014-11-14T15:22:33Z</time>
      </trkpt>
      <trkpt lat="46.59331614151597" lon="7.162448326125741">
        <ele>1063</ele>
        <time>2014-11-14T15:22:35Z</time>
      </trkpt>
      <trkpt lat="46.593244476243854" lon="7.162444889545441">
        <ele>1061.199951171875</ele>
        <time>2014-11-14T15:22:37Z</time>
      </trkpt>
      <trkpt lat="46.59320960752666" lon="7.162437848746777">
        <ele>1060.199951171875</ele>
        <time>2014-11-14T15:22:38Z</time>
      </trkpt>
      <trkpt lat="46.593170883134007" lon="7.162424605339766">
        <ele>1058</ele>
        <time>2014-11-14T15:22:39Z</time>
      </trkpt>
      <trkpt lat="46.593135008588433" lon="7.16240574605763">
        <ele>1057</ele>
        <time>2014-11-14T15:22:40Z</time>
      </trkpt>
      <trkpt lat="46.593097373843193" lon="7.162387305870652">
        <ele>1055.800048828125</ele>
        <time>2014-11-14T15:22:41Z</time>
      </trkpt>
      <trkpt lat="46.593057895079255" lon="7.162367692217231">
        <ele>1054.4000244140625</ele>
        <time>2014-11-14T15:22:42Z</time>
      </trkpt>
      <trkpt lat="46.593023864552379" lon="7.162352772429586">
        <ele>1053.199951171875</ele>
        <time>2014-11-14T15:22:43Z</time>
      </trkpt>
      <trkpt lat="46.592994360253215" lon="7.162342462688685">
        <ele>1051.800048828125</ele>
        <time>2014-11-14T15:22:44Z</time>
      </trkpt>
      <trkpt lat="46.592937530949712" lon="7.162314131855965">
        <ele>1049.800048828125</ele>
        <time>2014-11-14T15:22:46Z</time>
      </trkpt>
      <trkpt lat="46.592874834313989" lon="7.162293596193194">
        <ele>1047.800048828125</ele>
        <time>2014-11-14T15:22:48Z</time>
      </trkpt>
      <trkpt lat="46.592845665290952" lon="7.162285465747118">
        <ele>1046.800048828125</ele>
        <time>2014-11-14T15:22:49Z</time>
      </trkpt>
      <trkpt lat="46.592783471569419" lon="7.162255123257637">
        <ele>1044.800048828125</ele>
        <time>2014-11-14T15:22:51Z</time>
      </trkpt>
      <trkpt lat="46.592749105766416" lon="7.162235844880343">
        <ele>1043.800048828125</ele>
        <time>2014-11-14T15:22:52Z</time>
      </trkpt>
      <trkpt lat="46.592714739963412" lon="7.162215560674667">
        <ele>1042.800048828125</ele>
        <time>2014-11-14T15:22:53Z</time>
      </trkpt>
      <trkpt lat="46.592678697779775" lon="7.16219712048769">
        <ele>1041.5999755859375</ele>
        <time>2014-11-14T15:22:54Z</time>
      </trkpt>
      <trkpt lat="46.592640224844217" lon="7.162179853767157">
        <ele>1040.4000244140625</ele>
        <time>2014-11-14T15:22:55Z</time>
      </trkpt>
      <trkpt lat="46.592601165175438" lon="7.162165101617575">
        <ele>1039.199951171875</ele>
        <time>2014-11-14T15:22:56Z</time>
      </trkpt>
      <trkpt lat="46.592562356963754" lon="7.162157222628593">
        <ele>1038</ele>
        <time>2014-11-14T15:22:57Z</time>
      </trkpt>
      <trkpt lat="46.59252941608429" lon="7.162158479914069">
        <ele>1036.5999755859375</ele>
        <time>2014-11-14T15:22:58Z</time>
      </trkpt>
      <trkpt lat="46.592499408870935" lon="7.162155462428927">
        <ele>1035.4000244140625</ele>
        <time>2014-11-14T15:22:59Z</time>
      </trkpt>
      <trkpt lat="46.592469736933708" lon="7.162148337811232">
        <ele>1034.199951171875</ele>
        <time>2014-11-14T15:23:00Z</time>
      </trkpt>
      <trkpt lat="46.592419110238552" lon="7.162120928987861">
        <ele>1032.5999755859375</ele>
        <time>2014-11-14T15:23:02Z</time>
      </trkpt>
      <trkpt lat="46.592400167137384" lon="7.162108523771167">
        <ele>1030.800048828125</ele>
        <time>2014-11-14T15:23:03Z</time>
      </trkpt>
      <trkpt lat="46.592386839911342" lon="7.16209352016449">
        <ele>1030.199951171875</ele>
        <time>2014-11-14T15:23:04Z</time>
      </trkpt>
      <trkpt lat="46.592375105246902" lon="7.162076169624925">
        <ele>1029.5999755859375</ele>
        <time>2014-11-14T15:23:05Z</time>
      </trkpt>
      <trkpt lat="46.592346774414182" lon="7.162058232352138">
        <ele>1028.199951171875</ele>
        <time>2014-11-14T15:23:07Z</time>
      </trkpt>
      <trkpt lat="46.592306289821863" lon="7.16204758733511">
        <ele>1026.800048828125</ele>
        <time>2014-11-14T15:23:09Z</time>
      </trkpt>
      <trkpt lat="46.59228122793138" lon="7.162045575678349">
        <ele>1026.199951171875</ele>
        <time>2014-11-14T15:23:10Z</time>
      </trkpt>
      <trkpt lat="46.592253483831882" lon="7.162044234573841">
        <ele>1025.4000244140625</ele>
        <time>2014-11-14T15:23:11Z</time>
      </trkpt>
      <trkpt lat="46.592192379757762" lon="7.162029901519418">
        <ele>1024.199951171875</ele>
        <time>2014-11-14T15:23:13Z</time>
      </trkpt>
      <trkpt lat="46.592081738635898" lon="7.162008360028267">
        <ele>1022.5999755859375</ele>
        <time>2014-11-14T15:23:16Z</time>
      </trkpt>
      <trkpt lat="46.591994147747755" lon="7.16201439499855">
        <ele>1020.7999877929687</ele>
        <time>2014-11-14T15:23:18Z</time>
      </trkpt>
      <trkpt lat="46.591959614306688" lon="7.162018166854978">
        <ele>1019.7999877929687</ele>
        <time>2014-11-14T15:23:19Z</time>
      </trkpt>
      <trkpt lat="46.591932037845254" lon="7.162021603435278">
        <ele>1018.7999877929687</ele>
        <time>2014-11-14T15:23:20Z</time>
      </trkpt>
      <trkpt lat="46.591904796659946" lon="7.16202462092042">
        <ele>1018</ele>
        <time>2014-11-14T15:23:21Z</time>
      </trkpt>
      <trkpt lat="46.591878393664956" lon="7.162030572071672">
        <ele>1017.4000244140625</ele>
        <time>2014-11-14T15:23:22Z</time>
      </trkpt>
      <trkpt lat="46.591782420873642" lon="7.162036104127765">
        <ele>1016</ele>
        <time>2014-11-14T15:23:25Z</time>
      </trkpt>
      <trkpt lat="46.591669516637921" lon="7.162056220695376">
        <ele>1013.2000122070312</ele>
        <time>2014-11-14T15:23:27Z</time>
      </trkpt>
      <trkpt lat="46.591633642092347" lon="7.162049096077681">
        <ele>1012.5999755859375</ele>
        <time>2014-11-14T15:23:28Z</time>
      </trkpt>
      <trkpt lat="46.591595504432917" lon="7.162040546536446">
        <ele>1012</ele>
        <time>2014-11-14T15:23:29Z</time>
      </trkpt>
      <trkpt lat="46.591560551896691" lon="7.162014646455646">
        <ele>1011.4000244140625</ele>
        <time>2014-11-14T15:23:31Z</time>
      </trkpt>
      <trkpt lat="46.591562982648611" lon="7.161991596221924">
        <ele>1010.7999877929687</ele>
        <time>2014-11-14T15:23:32Z</time>
      </trkpt>
      <trkpt lat="46.591581087559462" lon="7.161970306187868">
        <ele>1010</ele>
        <time>2014-11-14T15:23:34Z</time>
      </trkpt>
      <trkpt lat="46.591594498604536" lon="7.161958403885365">
        <ele>1009.5999755859375</ele>
        <time>2014-11-14T15:23:35Z</time>
      </trkpt>
      <trkpt lat="46.591631630435586" lon="7.161934766918421">
        <ele>1008.2000122070312</ele>
        <time>2014-11-14T15:23:37Z</time>
      </trkpt>
      <trkpt lat="46.591676473617554" lon="7.161900065839291">
        <ele>1006.5999755859375</ele>
        <time>2014-11-14T15:23:39Z</time>
      </trkpt>
      <trkpt lat="46.591727687045932" lon="7.161851283162832">
        <ele>1005</ele>
        <time>2014-11-14T15:23:41Z</time>
      </trkpt>
      <trkpt lat="46.591787785291672" lon="7.161788754165173">
        <ele>1003</ele>
        <time>2014-11-14T15:23:43Z</time>
      </trkpt>
      <trkpt lat="46.591815026476979" lon="7.161754220724106">
        <ele>1001.7999877929687</ele>
        <time>2014-11-14T15:23:44Z</time>
      </trkpt>
      <trkpt lat="46.591859618201852" lon="7.161695463582873">
        <ele>1000.4000244140625</ele>
        <time>2014-11-14T15:23:46Z</time>
      </trkpt>
      <trkpt lat="46.591910244897008" lon="7.161627570167184">
        <ele>999</ele>
        <time>2014-11-14T15:23:48Z</time>
      </trkpt>
      <trkpt lat="46.59193723462522" lon="7.161588342860341">
        <ele>998.4000244140625</ele>
        <time>2014-11-14T15:23:49Z</time>
      </trkpt>
      <trkpt lat="46.591964391991496" lon="7.16154626570642">
        <ele>997.79998779296875</ele>
        <time>2014-11-14T15:23:50Z</time>
      </trkpt>
      <trkpt lat="46.591986604034901" lon="7.161518940702081">
        <ele>996</ele>
        <time>2014-11-14T15:23:51Z</time>
      </trkpt>
      <trkpt lat="46.592006552964449" lon="7.161459010094404">
        <ele>994.5999755859375</ele>
        <time>2014-11-14T15:23:53Z</time>
      </trkpt>
      <trkpt lat="46.592007391154766" lon="7.161441240459681">
        <ele>994</ele>
        <time>2014-11-14T15:23:54Z</time>
      </trkpt>
      <trkpt lat="46.591996075585485" lon="7.16138793155551">
        <ele>992</ele>
        <time>2014-11-14T15:23:59Z</time>
      </trkpt>
      <trkpt lat="46.591980988159776" lon="7.16132833622396">
        <ele>991.20001220703125</ele>
        <time>2014-11-14T15:24:01Z</time>
      </trkpt>
      <trkpt lat="46.591987945139408" lon="7.161255413666368">
        <ele>990.79998779296875</ele>
        <time>2014-11-14T15:24:03Z</time>
      </trkpt>
      <trkpt lat="46.592026669532061" lon="7.161190705373883">
        <ele>990.4000244140625</ele>
        <time>2014-11-14T15:24:05Z</time>
      </trkpt>
      <trkpt lat="46.592186260968447" lon="7.161067239940167">
        <ele>989.79998779296875</ele>
        <time>2014-11-14T15:24:10Z</time>
      </trkpt>
      <trkpt lat="46.592226075008512" lon="7.16104787774384">
        <ele>989.5999755859375</ele>
        <time>2014-11-14T15:24:11Z</time>
      </trkpt>
      <trkpt lat="46.592270415276289" lon="7.161017786711454">
        <ele>989</ele>
        <time>2014-11-14T15:24:13Z</time>
      </trkpt>
      <trkpt lat="46.592282485216856" lon="7.161008231341839">
        <ele>988.79998779296875</ele>
        <time>2014-11-14T15:24:14Z</time>
      </trkpt>
      <trkpt lat="46.592442998662591" lon="7.160923825576901">
        <ele>988.5999755859375</ele>
        <time>2014-11-14T15:25:08Z</time>
      </trkpt>
      <trkpt lat="46.592464791610837" lon="7.1609325427562">
        <ele>988.5999755859375</ele>
        <time>2014-11-14T15:25:09Z</time>
      </trkpt>
      <trkpt lat="46.592609882354736" lon="7.160976212471724">
        <ele>988.4000244140625</ele>
        <time>2014-11-14T15:25:16Z</time>
      </trkpt>
      <trkpt lat="46.592767462134361" lon="7.160897254943848">
        <ele>988.20001220703125</ele>
        <time>2014-11-14T15:25:21Z</time>
      </trkpt>
      <trkpt lat="46.592948762699962" lon="7.160787284374237">
        <ele>987.4000244140625</ele>
        <time>2014-11-14T15:25:26Z</time>
      </trkpt>
      <trkpt lat="46.593015231192112" lon="7.160733975470066">
        <ele>986.4000244140625</ele>
        <time>2014-11-14T15:25:28Z</time>
      </trkpt>
      <trkpt lat="46.593047082424164" lon="7.160699525848031">
        <ele>986.20001220703125</ele>
        <time>2014-11-14T15:25:29Z</time>
      </trkpt>
      <trkpt lat="46.593183120712638" lon="7.160556614398956">
        <ele>985.20001220703125</ele>
        <time>2014-11-14T15:25:33Z</time>
      </trkpt>
      <trkpt lat="46.593253780156374" lon="7.160477573052049">
        <ele>984.20001220703125</ele>
        <time>2014-11-14T15:25:35Z</time>
      </trkpt>
      <trkpt lat="46.593290828168392" lon="7.160438764840365">
        <ele>983.79998779296875</ele>
        <time>2014-11-14T15:25:36Z</time>
      </trkpt>
      <trkpt lat="46.593584362417459" lon="7.160132825374603">
        <ele>983</ele>
        <time>2014-11-14T15:25:38Z</time>
      </trkpt>
      <trkpt lat="46.593704894185066" lon="7.160009192302823">
        <ele>982.4000244140625</ele>
        <time>2014-11-14T15:25:39Z</time>
      </trkpt>
      <trkpt lat="46.593896672129631" lon="7.159810708835721">
        <ele>980.79998779296875</ele>
        <time>2014-11-14T15:25:41Z</time>
      </trkpt>
      <trkpt lat="46.593973031267524" lon="7.159714652225375">
        <ele>980.4000244140625</ele>
        <time>2014-11-14T15:25:42Z</time>
      </trkpt>
      <trkpt lat="46.594054251909256" lon="7.159607028588653">
        <ele>980</ele>
        <time>2014-11-14T15:25:43Z</time>
      </trkpt>
      <trkpt lat="46.594116194173694" lon="7.159520862624049">
        <ele>979.4000244140625</ele>
        <time>2014-11-14T15:25:44Z</time>
      </trkpt>
      <trkpt lat="46.594179309904575" lon="7.159453891217709">
        <ele>979</ele>
        <time>2014-11-14T15:25:45Z</time>
      </trkpt>
      <trkpt lat="46.59430855885148" lon="7.159347021952272">
        <ele>978.4000244140625</ele>
        <time>2014-11-14T15:25:47Z</time>
      </trkpt>
      <trkpt lat="46.594372009858489" lon="7.159298155456781">
        <ele>978</ele>
        <time>2014-11-14T15:25:48Z</time>
      </trkpt>
      <trkpt lat="46.594505785033107" lon="7.159220287576318">
        <ele>977</ele>
        <time>2014-11-14T15:25:50Z</time>
      </trkpt>
      <trkpt lat="46.594570158049464" lon="7.159182820469141">
        <ele>976</ele>
        <time>2014-11-14T15:25:51Z</time>
      </trkpt>
      <trkpt lat="46.594754476100206" lon="7.159021804109216">
        <ele>974.79998779296875</ele>
        <time>2014-11-14T15:25:53Z</time>
      </trkpt>
      <trkpt lat="46.594855394214392" lon="7.158907055854797">
        <ele>974.20001220703125</ele>
        <time>2014-11-14T15:25:54Z</time>
      </trkpt>
      <trkpt lat="46.594940721988678" lon="7.15878794901073">
        <ele>973.79998779296875</ele>
        <time>2014-11-14T15:25:55Z</time>
      </trkpt>
      <trkpt lat="46.595017164945602" lon="7.158667584881187">
        <ele>973.4000244140625</ele>
        <time>2014-11-14T15:25:56Z</time>
      </trkpt>
      <trkpt lat="46.595177594572306" lon="7.158344546332955">
        <ele>972.4000244140625</ele>
        <time>2014-11-14T15:25:59Z</time>
      </trkpt>
      <trkpt lat="46.595255294814706" lon="7.158132484182715">
        <ele>971.79998779296875</ele>
        <time>2014-11-14T15:26:01Z</time>
      </trkpt>
      <trkpt lat="46.595287816599011" lon="7.158023603260517">
        <ele>971</ele>
        <time>2014-11-14T15:26:02Z</time>
      </trkpt>
      <trkpt lat="46.595319248735905" lon="7.157928887754679">
        <ele>970</ele>
        <time>2014-11-14T15:26:03Z</time>
      </trkpt>
      <trkpt lat="46.595358559861779" lon="7.157851187512279">
        <ele>969.20001220703125</ele>
        <time>2014-11-14T15:26:04Z</time>
      </trkpt>
      <trkpt lat="46.595398206263781" lon="7.157772146165371">
        <ele>968.79998779296875</ele>
        <time>2014-11-14T15:26:05Z</time>
      </trkpt>
      <trkpt lat="46.595545643940568" lon="7.157550947740674">
        <ele>967.79998779296875</ele>
        <time>2014-11-14T15:26:08Z</time>
      </trkpt>
      <trkpt lat="46.595681766048074" lon="7.157381717115641">
        <ele>966.79998779296875</ele>
        <time>2014-11-14T15:26:10Z</time>
      </trkpt>
      <trkpt lat="46.595758628100157" lon="7.157296389341354">
        <ele>965.5999755859375</ele>
        <time>2014-11-14T15:26:11Z</time>
      </trkpt>
      <trkpt lat="46.59582668915391" lon="7.157217431813479">
        <ele>963.5999755859375</ele>
        <time>2014-11-14T15:26:12Z</time>
      </trkpt>
      <trkpt lat="46.595882764086127" lon="7.157149873673916">
        <ele>961.79998779296875</ele>
        <time>2014-11-14T15:26:13Z</time>
      </trkpt>
      <trkpt lat="46.595934228971601" lon="7.157088350504637">
        <ele>960.4000244140625</ele>
        <time>2014-11-14T15:26:14Z</time>
      </trkpt>
      <trkpt lat="46.595996506512165" lon="7.157030934467912">
        <ele>959.4000244140625</ele>
        <time>2014-11-14T15:26:15Z</time>
      </trkpt>
      <trkpt lat="46.596215190365911" lon="7.156910570338368">
        <ele>957.79998779296875</ele>
        <time>2014-11-14T15:26:18Z</time>
      </trkpt>
      <trkpt lat="46.596291214227676" lon="7.156876707449555">
        <ele>956.5999755859375</ele>
        <time>2014-11-14T15:26:19Z</time>
      </trkpt>
      <trkpt lat="46.596376458182931" lon="7.156852316111326">
        <ele>955.4000244140625</ele>
        <time>2014-11-14T15:26:20Z</time>
      </trkpt>
      <trkpt lat="46.59646337851882" lon="7.156826332211494">
        <ele>954</ele>
        <time>2014-11-14T15:26:21Z</time>
      </trkpt>
      <trkpt lat="46.596547784283757" lon="7.156792301684618">
        <ele>952.79998779296875</ele>
        <time>2014-11-14T15:26:22Z</time>
      </trkpt>
      <trkpt lat="46.59661928191781" lon="7.156750727444887">
        <ele>951.5999755859375</ele>
        <time>2014-11-14T15:26:23Z</time>
      </trkpt>
      <trkpt lat="46.596787422895432" lon="7.156584179028869">
        <ele>950.20001220703125</ele>
        <time>2014-11-14T15:26:25Z</time>
      </trkpt>
      <trkpt lat="46.596877360716462" lon="7.156489212065935">
        <ele>949.20001220703125</ele>
        <time>2014-11-14T15:26:26Z</time>
      </trkpt>
      <trkpt lat="46.596966041252017" lon="7.156398855149746">
        <ele>947.79998779296875</ele>
        <time>2014-11-14T15:26:27Z</time>
      </trkpt>
      <trkpt lat="46.59705069847405" lon="7.1563252620399">
        <ele>946.20001220703125</ele>
        <time>2014-11-14T15:26:28Z</time>
      </trkpt>
      <trkpt lat="46.59713719971478" lon="7.156264996156097">
        <ele>944.79998779296875</ele>
        <time>2014-11-14T15:26:29Z</time>
      </trkpt>
      <trkpt lat="46.597323026508093" lon="7.156161312013865">
        <ele>942.79998779296875</ele>
        <time>2014-11-14T15:26:31Z</time>
      </trkpt>
      <trkpt lat="46.597517402842641" lon="7.156093753874302">
        <ele>940.79998779296875</ele>
        <time>2014-11-14T15:26:33Z</time>
      </trkpt>
      <trkpt lat="46.597610525786877" lon="7.156060393899679">
        <ele>939.5999755859375</ele>
        <time>2014-11-14T15:26:34Z</time>
      </trkpt>
      <trkpt lat="46.597693087533116" lon="7.156041702255607">
        <ele>938.20001220703125</ele>
        <time>2014-11-14T15:26:35Z</time>
      </trkpt>
      <trkpt lat="46.597772715613246" lon="7.15602963231504">
        <ele>937.20001220703125</ele>
        <time>2014-11-14T15:26:36Z</time>
      </trkpt>
      <trkpt lat="46.597927110269666" lon="7.156021082773805">
        <ele>935.79998779296875</ele>
        <time>2014-11-14T15:26:38Z</time>
      </trkpt>
      <trkpt lat="46.598081002011895" lon="7.155996859073639">
        <ele>934.4000244140625</ele>
        <time>2014-11-14T15:26:40Z</time>
      </trkpt>
      <trkpt lat="46.598243359476328" lon="7.15605603531003">
        <ele>933</ele>
        <time>2014-11-14T15:26:42Z</time>
      </trkpt>
      <trkpt lat="46.598333716392517" lon="7.156119653955102">
        <ele>932.20001220703125</ele>
        <time>2014-11-14T15:26:43Z</time>
      </trkpt>
      <trkpt lat="46.59841937944293" lon="7.15617036446929">
        <ele>931.5999755859375</ele>
        <time>2014-11-14T15:26:44Z</time>
      </trkpt>
      <trkpt lat="46.598546029999852" lon="7.156281173229218">
        <ele>930.20001220703125</ele>
        <time>2014-11-14T15:26:46Z</time>
      </trkpt>
      <trkpt lat="46.598590454086661" lon="7.156328279525042">
        <ele>929.79998779296875</ele>
        <time>2014-11-14T15:26:47Z</time>
      </trkpt>
      <trkpt lat="46.598679888993502" lon="7.156376810744405">
        <ele>929</ele>
        <time>2014-11-14T15:26:49Z</time>
      </trkpt>
      <trkpt lat="46.598724564537406" lon="7.156351245939732">
        <ele>928.5999755859375</ele>
        <time>2014-11-14T15:26:50Z</time>
      </trkpt>
      <trkpt lat="46.598861776292324" lon="7.156164329499006">
        <ele>927.79998779296875</ele>
        <time>2014-11-14T15:26:53Z</time>
      </trkpt>
      <trkpt lat="46.598978200927377" lon="7.155995098873973">
        <ele>926.20001220703125</ele>
        <time>2014-11-14T15:26:55Z</time>
      </trkpt>
      <trkpt lat="46.599024804309011" lon="7.155906418338418">
        <ele>924.79998779296875</ele>
        <time>2014-11-14T15:26:56Z</time>
      </trkpt>
      <trkpt lat="46.599075431004167" lon="7.155828634276986">
        <ele>923.5999755859375</ele>
        <time>2014-11-14T15:26:57Z</time>
      </trkpt>
      <trkpt lat="46.599134188145399" lon="7.155761579051614">
        <ele>922.79998779296875</ele>
        <time>2014-11-14T15:26:58Z</time>
      </trkpt>
      <trkpt lat="46.59919336438179" lon="7.155716232955456">
        <ele>922</ele>
        <time>2014-11-14T15:26:59Z</time>
      </trkpt>
      <trkpt lat="46.599307106807828" lon="7.155614057555795">
        <ele>921</ele>
        <time>2014-11-14T15:27:01Z</time>
      </trkpt>
      <trkpt lat="46.599355805665255" lon="7.155573237687349">
        <ele>920.5999755859375</ele>
        <time>2014-11-14T15:27:02Z</time>
      </trkpt>
      <trkpt lat="46.599393859505653" lon="7.155562341213226">
        <ele>920</ele>
        <time>2014-11-14T15:27:04Z</time>
      </trkpt>
      <trkpt lat="46.599416574463248" lon="7.155564017593861">
        <ele>919.79998779296875</ele>
        <time>2014-11-14T15:27:05Z</time>
      </trkpt>
      <trkpt lat="46.599508188664913" lon="7.155632078647614">
        <ele>919.4000244140625</ele>
        <time>2014-11-14T15:27:08Z</time>
      </trkpt>
      <trkpt lat="46.599565101787448" lon="7.155675496906042">
        <ele>919.4000244140625</ele>
        <time>2014-11-14T15:27:09Z</time>
      </trkpt>
      <trkpt lat="46.599719412624836" lon="7.155740121379495">
        <ele>918.5999755859375</ele>
        <time>2014-11-14T15:27:12Z</time>
      </trkpt>
      <trkpt lat="46.599795939400792" lon="7.155710533261299">
        <ele>917.4000244140625</ele>
        <time>2014-11-14T15:27:14Z</time>
      </trkpt>
      <trkpt lat="46.599999871104956" lon="7.155557731166482">
        <ele>916.4000244140625</ele>
        <time>2014-11-14T15:27:18Z</time>
      </trkpt>
      <trkpt lat="46.600073967128992" lon="7.155512804165483">
        <ele>915.79998779296875</ele>
        <time>2014-11-14T15:27:19Z</time>
      </trkpt>
      <trkpt lat="46.600245041772723" lon="7.155418759211898">
        <ele>914.20001220703125</ele>
        <time>2014-11-14T15:27:21Z</time>
      </trkpt>
      <trkpt lat="46.600316539406776" lon="7.155374586582184">
        <ele>913.4000244140625</ele>
        <time>2014-11-14T15:27:22Z</time>
      </trkpt>
      <trkpt lat="46.600428186357021" lon="7.155276099219918">
        <ele>912.5999755859375</ele>
        <time>2014-11-14T15:27:23Z</time>
      </trkpt>
      <trkpt lat="46.600530194118619" lon="7.155186831951141">
        <ele>911.4000244140625</ele>
        <time>2014-11-14T15:27:24Z</time>
      </trkpt>
      <trkpt lat="46.600625244900584" lon="7.155106030404568">
        <ele>910.20001220703125</ele>
        <time>2014-11-14T15:27:25Z</time>
      </trkpt>
      <trkpt lat="46.600793050602078" lon="7.154953395947814">
        <ele>908.4000244140625</ele>
        <time>2014-11-14T15:27:27Z</time>
      </trkpt>
      <trkpt lat="46.600907044485211" lon="7.154873684048653">
        <ele>907.79998779296875</ele>
        <time>2014-11-14T15:27:28Z</time>
      </trkpt>
      <trkpt lat="46.601104019209743" lon="7.154783075675368">
        <ele>906.79998779296875</ele>
        <time>2014-11-14T15:27:30Z</time>
      </trkpt>
      <trkpt lat="46.601275932043791" lon="7.154673943296075">
        <ele>905.4000244140625</ele>
        <time>2014-11-14T15:27:32Z</time>
      </trkpt>
      <trkpt lat="46.601392859593034" lon="7.154563050717115">
        <ele>904</ele>
        <time>2014-11-14T15:27:34Z</time>
      </trkpt>
      <trkpt lat="46.601459579542279" lon="7.154391389340162">
        <ele>902.20001220703125</ele>
        <time>2014-11-14T15:27:36Z</time>
      </trkpt>
      <trkpt lat="46.601453209295869" lon="7.154338331893086">
        <ele>901.20001220703125</ele>
        <time>2014-11-14T15:27:37Z</time>
      </trkpt>
      <trkpt lat="46.601460250094533" lon="7.154292818158865">
        <ele>900.4000244140625</ele>
        <time>2014-11-14T15:27:38Z</time>
      </trkpt>
      <trkpt lat="46.601503249257803" lon="7.154185026884079">
        <ele>899</ele>
        <time>2014-11-14T15:27:40Z</time>
      </trkpt>
      <trkpt lat="46.601641299203038" lon="7.153998110443354">
        <ele>898</ele>
        <time>2014-11-14T15:27:43Z</time>
      </trkpt>
      <trkpt lat="46.601915471255779" lon="7.153766769915819">
        <ele>896.5999755859375</ele>
        <time>2014-11-14T15:27:46Z</time>
      </trkpt>
      <trkpt lat="46.602011108770967" lon="7.153687560930848">
        <ele>895.4000244140625</ele>
        <time>2014-11-14T15:27:47Z</time>
      </trkpt>
      <trkpt lat="46.602104483172297" lon="7.153606424108148">
        <ele>894</ele>
        <time>2014-11-14T15:27:48Z</time>
      </trkpt>
      <trkpt lat="46.60219844430685" lon="7.153530567884445">
        <ele>892.79998779296875</ele>
        <time>2014-11-14T15:27:49Z</time>
      </trkpt>
      <trkpt lat="46.602291399613023" lon="7.153453957289457">
        <ele>891.5999755859375</ele>
        <time>2014-11-14T15:27:50Z</time>
      </trkpt>
      <trkpt lat="46.60238167271018" lon="7.153381453827024">
        <ele>889.5999755859375</ele>
        <time>2014-11-14T15:27:51Z</time>
      </trkpt>
      <trkpt lat="46.602470520883799" lon="7.153301322832704">
        <ele>889</ele>
        <time>2014-11-14T15:27:52Z</time>
      </trkpt>
      <trkpt lat="46.602546293288469" lon="7.15321272611618">
        <ele>888.4000244140625</ele>
        <time>2014-11-14T15:27:53Z</time>
      </trkpt>
      <trkpt lat="46.602662801742554" lon="7.153043579310179">
        <ele>887.5999755859375</ele>
        <time>2014-11-14T15:27:55Z</time>
      </trkpt>
      <trkpt lat="46.602710410952568" lon="7.152963196858764">
        <ele>887.20001220703125</ele>
        <time>2014-11-14T15:27:56Z</time>
      </trkpt>
      <trkpt lat="46.602897075936198" lon="7.152667650952935">
        <ele>886.5999755859375</ele>
        <time>2014-11-14T15:28:00Z</time>
      </trkpt>
      <trkpt lat="46.602977961301804" lon="7.15256622992456">
        <ele>886.5999755859375</ele>
        <time>2014-11-14T15:28:02Z</time>
      </trkpt>
      <trkpt lat="46.603030851110816" lon="7.152504958212376">
        <ele>886.5999755859375</ele>
        <time>2014-11-14T15:28:04Z</time>
      </trkpt>
      <trkpt lat="46.60310679115355" lon="7.152398340404034">
        <ele>887.79998779296875</ele>
        <time>2014-11-14T15:28:09Z</time>
      </trkpt>
      <trkpt lat="46.603143671527505" lon="7.152355592697859">
        <ele>888.4000244140625</ele>
        <time>2014-11-14T15:28:11Z</time>
      </trkpt>
      <trkpt lat="46.603220701217651" lon="7.152249729260802">
        <ele>889.5999755859375</ele>
        <time>2014-11-14T15:28:15Z</time>
      </trkpt>
      <trkpt lat="46.603236459195614" lon="7.15222273953259">
        <ele>890</ele>
        <time>2014-11-14T15:28:16Z</time>
      </trkpt>
      <trkpt lat="46.603260599076748" lon="7.152158450335264">
        <ele>891</ele>
        <time>2014-11-14T15:28:19Z</time>
      </trkpt>
      <trkpt lat="46.603286331519485" lon="7.152107739821076">
        <ele>891.4000244140625</ele>
        <time>2014-11-14T15:28:21Z</time>
      </trkpt>
      <trkpt lat="46.603313572704792" lon="7.152046719565988">
        <ele>892.20001220703125</ele>
        <time>2014-11-14T15:28:23Z</time>
      </trkpt>
      <trkpt lat="46.60336528904736" lon="7.151936665177345">
        <ele>893.20001220703125</ele>
        <time>2014-11-14T15:28:26Z</time>
      </trkpt>
      <trkpt lat="46.603394458070397" lon="7.151882937178016">
        <ele>894</ele>
        <time>2014-11-14T15:28:28Z</time>
      </trkpt>
      <trkpt lat="46.603411557152867" lon="7.151850666850805">
        <ele>894.20001220703125</ele>
        <time>2014-11-14T15:28:29Z</time>
      </trkpt>
      <trkpt lat="46.603461010381579" lon="7.151728626340628">
        <ele>895.20001220703125</ele>
        <time>2014-11-14T15:28:33Z</time>
      </trkpt>
      <trkpt lat="46.603475930169225" lon="7.151684788987041">
        <ele>896</ele>
        <time>2014-11-14T15:28:35Z</time>
      </trkpt>
      <trkpt lat="46.603503003716469" lon="7.151640197262168">
        <ele>896.4000244140625</ele>
        <time>2014-11-14T15:28:37Z</time>
      </trkpt>
      <trkpt lat="46.603590594604611" lon="7.151574902236462">
        <ele>897.5999755859375</ele>
        <time>2014-11-14T15:28:41Z</time>
      </trkpt>
      <trkpt lat="46.60361104644835" lon="7.151556964963675">
        <ele>897.79998779296875</ele>
        <time>2014-11-14T15:28:42Z</time>
      </trkpt>
      <trkpt lat="46.603718670085073" lon="7.151421681046486">
        <ele>898.79998779296875</ele>
        <time>2014-11-14T15:28:48Z</time>
      </trkpt>
      <trkpt lat="46.603727387264371" lon="7.151400307193399">
        <ele>898.79998779296875</ele>
        <time>2014-11-14T15:28:49Z</time>
      </trkpt>
      <trkpt lat="46.603788658976555" lon="7.151297209784389">
        <ele>899.79998779296875</ele>
        <time>2014-11-14T15:28:53Z</time>
      </trkpt>
      <trkpt lat="46.603804752230644" lon="7.15122495777905">
        <ele>900.4000244140625</ele>
        <time>2014-11-14T15:28:56Z</time>
      </trkpt>
      <trkpt lat="46.604042882099748" lon="7.150855902582407">
        <ele>904.4000244140625</ele>
        <time>2014-11-14T15:29:49Z</time>
      </trkpt>
      <trkpt lat="46.604167856276035" lon="7.150730257853866">
        <ele>905.20001220703125</ele>
        <time>2014-11-14T15:29:53Z</time>
      </trkpt>
      <trkpt lat="46.604271372780204" lon="7.150660185143352">
        <ele>905.5999755859375</ele>
        <time>2014-11-14T15:29:56Z</time>
      </trkpt>
      <trkpt lat="46.604292076081038" lon="7.150629255920649">
        <ele>905.5999755859375</ele>
        <time>2014-11-14T15:29:57Z</time>
      </trkpt>
      <trkpt lat="46.604395592585206" lon="7.150481399148703">
        <ele>906.5999755859375</ele>
        <time>2014-11-14T15:30:02Z</time>
      </trkpt>
      <trkpt lat="46.604441609233618" lon="7.150446195155382">
        <ele>907</ele>
        <time>2014-11-14T15:30:04Z</time>
      </trkpt>
      <trkpt lat="46.604519058018923" lon="7.150348210707307">
        <ele>907.5999755859375</ele>
        <time>2014-11-14T15:30:07Z</time>
      </trkpt>
      <trkpt lat="46.604611091315746" lon="7.150221560150385">
        <ele>908</ele>
        <time>2014-11-14T15:30:10Z</time>
      </trkpt>
      <trkpt lat="46.604768084362149" lon="7.149930205196142">
        <ele>908.5999755859375</ele>
        <time>2014-11-14T15:30:16Z</time>
      </trkpt>
      <trkpt lat="46.604902949184179" lon="7.149751922115684">
        <ele>909</ele>
        <time>2014-11-14T15:30:22Z</time>
      </trkpt>
      <trkpt lat="46.605126578360796" lon="7.149666845798492">
        <ele>908.4000244140625</ele>
        <time>2014-11-14T15:30:27Z</time>
      </trkpt>
      <trkpt lat="46.605176702141762" lon="7.149637928232551">
        <ele>908</ele>
        <time>2014-11-14T15:30:28Z</time>
      </trkpt>
      <trkpt lat="46.605262449011207" lon="7.149499794468284">
        <ele>907.5999755859375</ele>
        <time>2014-11-14T15:30:29Z</time>
      </trkpt>
      <trkpt lat="46.605317769572139" lon="7.149378340691328">
        <ele>907</ele>
        <time>2014-11-14T15:30:30Z</time>
      </trkpt>
      <trkpt lat="46.605362445116043" lon="7.149259150028229">
        <ele>906.4000244140625</ele>
        <time>2014-11-14T15:30:31Z</time>
      </trkpt>
      <trkpt lat="46.605407372117043" lon="7.149141132831574">
        <ele>905.79998779296875</ele>
        <time>2014-11-14T15:30:32Z</time>
      </trkpt>
      <trkpt lat="46.60544685088098" lon="7.149019427597523">
        <ele>905.4000244140625</ele>
        <time>2014-11-14T15:30:33Z</time>
      </trkpt>
      <trkpt lat="46.605507871136069" lon="7.148795882239938">
        <ele>904.79998779296875</ele>
        <time>2014-11-14T15:30:35Z</time>
      </trkpt>
      <trkpt lat="46.605525221675634" lon="7.148688593879342">
        <ele>904.79998779296875</ele>
        <time>2014-11-14T15:30:36Z</time>
      </trkpt>
      <trkpt lat="46.605556150898337" lon="7.148371925577521">
        <ele>905</ele>
        <time>2014-11-14T15:30:39Z</time>
      </trkpt>
      <trkpt lat="46.605553720146418" lon="7.148294141516089">
        <ele>905.20001220703125</ele>
        <time>2014-11-14T15:30:40Z</time>
      </trkpt>
      <trkpt lat="46.605562185868621" lon="7.14815391227603">
        <ele>905.4000244140625</ele>
        <time>2014-11-14T15:30:42Z</time>
      </trkpt>
      <trkpt lat="46.605622870847583" lon="7.147845290601254">
        <ele>904.4000244140625</ele>
        <time>2014-11-14T15:30:47Z</time>
      </trkpt>
      <trkpt lat="46.60562613978982" lon="7.14778108522296">
        <ele>904</ele>
        <time>2014-11-14T15:30:48Z</time>
      </trkpt>
      <trkpt lat="46.605595629662275" lon="7.147563826292753">
        <ele>902.5999755859375</ele>
        <time>2014-11-14T15:30:51Z</time>
      </trkpt>
      <trkpt lat="46.605513570830226" lon="7.147441701963544">
        <ele>901</ele>
        <time>2014-11-14T15:30:53Z</time>
      </trkpt>
      <trkpt lat="46.605462189763784" lon="7.14737992733717">
        <ele>900.20001220703125</ele>
        <time>2014-11-14T15:30:54Z</time>
      </trkpt>
      <trkpt lat="46.605426734313369" lon="7.147307088598609">
        <ele>899.79998779296875</ele>
        <time>2014-11-14T15:30:55Z</time>
      </trkpt>
      <trkpt lat="46.60533051006496" lon="7.147128051146865">
        <ele>898.79998779296875</ele>
        <time>2014-11-14T15:30:58Z</time>
      </trkpt>
      <trkpt lat="46.605239398777485" lon="7.146946666762233">
        <ele>897.5999755859375</ele>
        <time>2014-11-14T15:31:01Z</time>
      </trkpt>
      <trkpt lat="46.60515557974577" lon="7.146751619875431">
        <ele>895.5999755859375</ele>
        <time>2014-11-14T15:31:04Z</time>
      </trkpt>
      <trkpt lat="46.605141498148441" lon="7.146679619327188">
        <ele>895.20001220703125</ele>
        <time>2014-11-14T15:31:05Z</time>
      </trkpt>
      <trkpt lat="46.605119034647942" lon="7.146527906879783">
        <ele>894.5999755859375</ele>
        <time>2014-11-14T15:31:07Z</time>
      </trkpt>
      <trkpt lat="46.605198746547103" lon="7.146364711225033">
        <ele>894.4000244140625</ele>
        <time>2014-11-14T15:31:09Z</time>
      </trkpt>
      <trkpt lat="46.605782462283969" lon="7.145614866167307">
        <ele>894.4000244140625</ele>
        <time>2014-11-14T15:31:10Z</time>
      </trkpt>
      <trkpt lat="46.605778187513351" lon="7.145375395193696">
        <ele>894</ele>
        <time>2014-11-14T15:31:12Z</time>
      </trkpt>
      <trkpt lat="46.605797633528709" lon="7.145277075469494">
        <ele>893.4000244140625</ele>
        <time>2014-11-14T15:31:13Z</time>
      </trkpt>
      <trkpt lat="46.605846332386136" lon="7.144942637532949">
        <ele>892.79998779296875</ele>
        <time>2014-11-14T15:31:17Z</time>
      </trkpt>
      <trkpt lat="46.605862844735384" lon="7.144567631185055">
        <ele>893.20001220703125</ele>
        <time>2014-11-14T15:31:22Z</time>
      </trkpt>
      <trkpt lat="46.605933923274279" lon="7.144403178244829">
        <ele>893.5999755859375</ele>
        <time>2014-11-14T15:31:26Z</time>
      </trkpt>
      <trkpt lat="46.606022268533707" lon="7.144338637590408">
        <ele>894.5999755859375</ele>
        <time>2014-11-14T15:31:29Z</time>
      </trkpt>
      <trkpt lat="46.606108015403152" lon="7.144287005066872">
        <ele>895.20001220703125</ele>
        <time>2014-11-14T15:31:31Z</time>
      </trkpt>
      <trkpt lat="46.60616216249764" lon="7.144228499382734">
        <ele>895.5999755859375</ele>
        <time>2014-11-14T15:31:32Z</time>
      </trkpt>
      <trkpt lat="46.606213711202145" lon="7.144170496612787">
        <ele>895.79998779296875</ele>
        <time>2014-11-14T15:31:33Z</time>
      </trkpt>
      <trkpt lat="46.606307001784444" lon="7.144015096127987">
        <ele>896.5999755859375</ele>
        <time>2014-11-14T15:31:36Z</time>
      </trkpt>
      <trkpt lat="46.606374559924006" lon="7.143843602389097">
        <ele>897.79998779296875</ele>
        <time>2014-11-14T15:31:40Z</time>
      </trkpt>
      <trkpt lat="46.606390904635191" lon="7.143802111968398">
        <ele>898.20001220703125</ele>
        <time>2014-11-14T15:31:41Z</time>
      </trkpt>
      <trkpt lat="46.606438094750047" lon="7.143701864406467">
        <ele>899</ele>
        <time>2014-11-14T15:31:44Z</time>
      </trkpt>
      <trkpt lat="46.60649006254971" lon="7.143557025119662">
        <ele>899.5999755859375</ele>
        <time>2014-11-14T15:31:48Z</time>
      </trkpt>
      <trkpt lat="46.606503473594785" lon="7.143529951572418">
        <ele>900</ele>
        <time>2014-11-14T15:31:49Z</time>
      </trkpt>
      <trkpt lat="46.606552926823497" lon="7.143417382612824">
        <ele>901</ele>
        <time>2014-11-14T15:31:53Z</time>
      </trkpt>
      <trkpt lat="46.60657019354403" lon="7.143388548865914">
        <ele>901.20001220703125</ele>
        <time>2014-11-14T15:31:54Z</time>
      </trkpt>
      <trkpt lat="46.606665831059217" lon="7.143273716792464">
        <ele>901.79998779296875</ele>
        <time>2014-11-14T15:32:00Z</time>
      </trkpt>
      <trkpt lat="46.606776472181082" lon="7.143214289098978">
        <ele>901.4000244140625</ele>
        <time>2014-11-14T15:32:04Z</time>
      </trkpt>
      <trkpt lat="46.606822488829494" lon="7.143180510029197">
        <ele>901.20001220703125</ele>
        <time>2014-11-14T15:32:05Z</time>
      </trkpt>
      <trkpt lat="46.606884011998773" lon="7.142989318817854">
        <ele>900.79998779296875</ele>
        <time>2014-11-14T15:32:07Z</time>
      </trkpt>
      <trkpt lat="46.606888370588422" lon="7.142550023272634">
        <ele>899.79998779296875</ele>
        <time>2014-11-14T15:32:11Z</time>
      </trkpt>
      <trkpt lat="46.606857776641846" lon="7.142213322222233">
        <ele>898.4000244140625</ele>
        <time>2014-11-14T15:32:14Z</time>
      </trkpt>
      <trkpt lat="46.606802539899945" lon="7.141879890114069">
        <ele>897.4000244140625</ele>
        <time>2014-11-14T15:32:17Z</time>
      </trkpt>
      <trkpt lat="46.606776053085923" lon="7.141765896230936">
        <ele>896.79998779296875</ele>
        <time>2014-11-14T15:32:18Z</time>
      </trkpt>
      <trkpt lat="46.606725761666894" lon="7.14152860455215">
        <ele>896</ele>
        <time>2014-11-14T15:32:20Z</time>
      </trkpt>
      <trkpt lat="46.606657030060887" lon="7.141177989542484">
        <ele>894.79998779296875</ele>
        <time>2014-11-14T15:32:23Z</time>
      </trkpt>
      <trkpt lat="46.606634482741356" lon="7.141069276258349">
        <ele>894.4000244140625</ele>
        <time>2014-11-14T15:32:24Z</time>
      </trkpt>
      <trkpt lat="46.606543203815818" lon="7.140585137531161">
        <ele>894</ele>
        <time>2014-11-14T15:32:29Z</time>
      </trkpt>
      <trkpt lat="46.606542952358723" lon="7.140424875542522">
        <ele>894</ele>
        <time>2014-11-14T15:32:31Z</time>
      </trkpt>
      <trkpt lat="46.606564661487937" lon="7.140285484492779">
        <ele>893.79998779296875</ele>
        <time>2014-11-14T15:32:33Z</time>
      </trkpt>
      <trkpt lat="46.60664789378643" lon="7.140009719878435">
        <ele>893.20001220703125</ele>
        <time>2014-11-14T15:32:37Z</time>
      </trkpt>
      <trkpt lat="46.606673458591104" lon="7.139930762350559">
        <ele>892.79998779296875</ele>
        <time>2014-11-14T15:32:38Z</time>
      </trkpt>
      <trkpt lat="46.606694832444191" lon="7.139842500910163">
        <ele>892.4000244140625</ele>
        <time>2014-11-14T15:32:39Z</time>
      </trkpt>
      <trkpt lat="46.60674118436873" lon="7.139662373811007">
        <ele>891.4000244140625</ele>
        <time>2014-11-14T15:32:41Z</time>
      </trkpt>
      <trkpt lat="46.606761133298278" lon="7.139477049931884">
        <ele>891</ele>
        <time>2014-11-14T15:32:43Z</time>
      </trkpt>
      <trkpt lat="46.606700699776411" lon="7.139246882870793">
        <ele>890.5999755859375</ele>
        <time>2014-11-14T15:32:46Z</time>
      </trkpt>
      <trkpt lat="46.606665998697281" lon="7.139192065224052">
        <ele>890.4000244140625</ele>
        <time>2014-11-14T15:32:47Z</time>
      </trkpt>
      <trkpt lat="46.606633476912975" lon="7.139138001948595">
        <ele>890.20001220703125</ele>
        <time>2014-11-14T15:32:48Z</time>
      </trkpt>
      <trkpt lat="46.606542784720659" lon="7.139006238430738">
        <ele>890.4000244140625</ele>
        <time>2014-11-14T15:32:51Z</time>
      </trkpt>
      <trkpt lat="46.606357879936695" lon="7.13873952627182">
        <ele>890.5999755859375</ele>
        <time>2014-11-14T15:32:58Z</time>
      </trkpt>
      <trkpt lat="46.606156127527356" lon="7.138447668403387">
        <ele>891</ele>
        <time>2014-11-14T15:33:06Z</time>
      </trkpt>
      <trkpt lat="46.60600139759481" lon="7.13819419965148">
        <ele>891</ele>
        <time>2014-11-14T15:33:12Z</time>
      </trkpt>
      <trkpt lat="46.605979185551405" lon="7.138141728937626">
        <ele>891.20001220703125</ele>
        <time>2014-11-14T15:33:13Z</time>
      </trkpt>
      <trkpt lat="46.605806015431881" lon="7.137698829174042">
        <ele>890.5999755859375</ele>
        <time>2014-11-14T15:33:21Z</time>
      </trkpt>
      <trkpt lat="46.605702163651586" lon="7.13739825412631">
        <ele>891</ele>
        <time>2014-11-14T15:33:27Z</time>
      </trkpt>
      <trkpt lat="46.605631671845913" lon="7.13720572181046">
        <ele>891.4000244140625</ele>
        <time>2014-11-14T15:33:32Z</time>
      </trkpt>
      <trkpt lat="46.60551818087697" lon="7.136925347149372">
        <ele>891</ele>
        <time>2014-11-14T15:33:38Z</time>
      </trkpt>
      <trkpt lat="46.605373760685325" lon="7.136558638885617">
        <ele>890.20001220703125</ele>
        <time>2014-11-14T15:33:44Z</time>
      </trkpt>
      <trkpt lat="46.605304442346096" lon="7.136378260329366">
        <ele>890</ele>
        <time>2014-11-14T15:33:47Z</time>
      </trkpt>
      <trkpt lat="46.605224562808871" lon="7.136142812669277">
        <ele>889.4000244140625</ele>
        <time>2014-11-14T15:33:51Z</time>
      </trkpt>
      <trkpt lat="46.605202769860625" lon="7.136085396632552">
        <ele>889.20001220703125</ele>
        <time>2014-11-14T15:33:52Z</time>
      </trkpt>
      <trkpt lat="46.605104617774487" lon="7.135807452723384">
        <ele>889.4000244140625</ele>
        <time>2014-11-14T15:33:57Z</time>
      </trkpt>
      <trkpt lat="46.60508768633008" lon="7.135749198496342">
        <ele>889.5999755859375</ele>
        <time>2014-11-14T15:33:58Z</time>
      </trkpt>
      <trkpt lat="46.605025324970484" lon="7.13558005169034">
        <ele>889.4000244140625</ele>
        <time>2014-11-14T15:34:01Z</time>
      </trkpt>
      <trkpt lat="46.604945110157132" lon="7.135412665084004">
        <ele>889.20001220703125</ele>
        <time>2014-11-14T15:34:04Z</time>
      </trkpt>
      <trkpt lat="46.604701699689031" lon="7.134935902431607">
        <ele>889</ele>
        <time>2014-11-14T15:34:12Z</time>
      </trkpt>
      <trkpt lat="46.6045081615448" lon="7.134537342935801">
        <ele>889.20001220703125</ele>
        <time>2014-11-14T15:34:19Z</time>
      </trkpt>
      <trkpt lat="46.604448147118092" lon="7.134437179192901">
        <ele>888.79998779296875</ele>
        <time>2014-11-14T15:34:21Z</time>
      </trkpt>
      <trkpt lat="46.604341864585876" lon="7.134223273023963">
        <ele>888.20001220703125</ele>
        <time>2014-11-14T15:34:24Z</time>
      </trkpt>
      <trkpt lat="46.604165341705084" lon="7.133856732398272">
        <ele>886.79998779296875</ele>
        <time>2014-11-14T15:34:28Z</time>
      </trkpt>
      <trkpt lat="46.604125192388892" lon="7.133753718808293">
        <ele>886.5999755859375</ele>
        <time>2014-11-14T15:34:29Z</time>
      </trkpt>
      <trkpt lat="46.604067943990231" lon="7.133546266704798">
        <ele>886.20001220703125</ele>
        <time>2014-11-14T15:34:31Z</time>
      </trkpt>
      <trkpt lat="46.604033159092069" lon="7.13334308937192">
        <ele>886.20001220703125</ele>
        <time>2014-11-14T15:34:33Z</time>
      </trkpt>
      <trkpt lat="46.604020837694407" lon="7.133014602586627">
        <ele>886.4000244140625</ele>
        <time>2014-11-14T15:34:37Z</time>
      </trkpt>
      <trkpt lat="46.604023016989231" lon="7.132791560143232">
        <ele>885.79998779296875</ele>
        <time>2014-11-14T15:34:40Z</time>
      </trkpt>
      <trkpt lat="46.604019999504089" lon="7.132721738889813">
        <ele>885.79998779296875</ele>
        <time>2014-11-14T15:34:41Z</time>
      </trkpt>
      <trkpt lat="46.604001810774207" lon="7.132568685337901">
        <ele>885.4000244140625</ele>
        <time>2014-11-14T15:34:43Z</time>
      </trkpt>
      <trkpt lat="46.603959901258349" lon="7.132357629016042">
        <ele>884.5999755859375</ele>
        <time>2014-11-14T15:34:46Z</time>
      </trkpt>
      <trkpt lat="46.603905083611608" lon="7.132164845243096">
        <ele>884.4000244140625</ele>
        <time>2014-11-14T15:34:49Z</time>
      </trkpt>
      <trkpt lat="46.603783881291747" lon="7.131765196099877">
        <ele>884.4000244140625</ele>
        <time>2014-11-14T15:34:55Z</time>
      </trkpt>
      <trkpt lat="46.603773068636656" lon="7.131692441180348">
        <ele>884.20001220703125</ele>
        <time>2014-11-14T15:34:56Z</time>
      </trkpt>
      <trkpt lat="46.603644490242004" lon="7.131229927763343">
        <ele>884.20001220703125</ele>
        <time>2014-11-14T15:35:02Z</time>
      </trkpt>
      <trkpt lat="46.603553965687752" lon="7.131069581955671">
        <ele>883.4000244140625</ele>
        <time>2014-11-14T15:35:04Z</time>
      </trkpt>
      <trkpt lat="46.60344198346138" lon="7.13092633523047">
        <ele>882.79998779296875</ele>
        <time>2014-11-14T15:35:06Z</time>
      </trkpt>
      <trkpt lat="46.603115424513817" lon="7.13047144934535">
        <ele>882.20001220703125</ele>
        <time>2014-11-14T15:35:12Z</time>
      </trkpt>
      <trkpt lat="46.603058762848377" lon="7.130139358341694">
        <ele>881.79998779296875</ele>
        <time>2014-11-14T15:35:15Z</time>
      </trkpt>
      <trkpt lat="46.603086506947875" lon="7.129792347550392">
        <ele>881</ele>
        <time>2014-11-14T15:35:18Z</time>
      </trkpt>
      <trkpt lat="46.603108048439026" lon="7.129686316475272">
        <ele>880.79998779296875</ele>
        <time>2014-11-14T15:35:19Z</time>
      </trkpt>
      <trkpt lat="46.603064797818661" lon="7.129263114184141">
        <ele>880.20001220703125</ele>
        <time>2014-11-14T15:35:23Z</time>
      </trkpt>
      <trkpt lat="46.603042585775256" lon="7.129166889935732">
        <ele>880</ele>
        <time>2014-11-14T15:35:24Z</time>
      </trkpt>
      <trkpt lat="46.602911241352558" lon="7.128702700138092">
        <ele>878.79998779296875</ele>
        <time>2014-11-14T15:35:29Z</time>
      </trkpt>
      <trkpt lat="46.602841001003981" lon="7.128387959674001">
        <ele>877.79998779296875</ele>
        <time>2014-11-14T15:35:32Z</time>
      </trkpt>
      <trkpt lat="46.602784590795636" lon="7.128193080425263">
        <ele>877.20001220703125</ele>
        <time>2014-11-14T15:35:34Z</time>
      </trkpt>
      <trkpt lat="46.602760618552566" lon="7.128097778186202">
        <ele>876.79998779296875</ele>
        <time>2014-11-14T15:35:35Z</time>
      </trkpt>
      <trkpt lat="46.6026396676898" lon="7.127534095197916">
        <ele>876.20001220703125</ele>
        <time>2014-11-14T15:35:41Z</time>
      </trkpt>
      <trkpt lat="46.602557357400656" lon="7.127019446343184">
        <ele>875.79998779296875</ele>
        <time>2014-11-14T15:35:47Z</time>
      </trkpt>
      <trkpt lat="46.602521482855082" lon="7.126863710582256">
        <ele>875.79998779296875</ele>
        <time>2014-11-14T15:35:49Z</time>
      </trkpt>
      <trkpt lat="46.602434478700161" lon="7.126564141362906">
        <ele>875.4000244140625</ele>
        <time>2014-11-14T15:35:53Z</time>
      </trkpt>
      <trkpt lat="46.602426515892148" lon="7.126400778070092">
        <ele>875</ele>
        <time>2014-11-14T15:35:55Z</time>
      </trkpt>
      <trkpt lat="46.602444117888808" lon="7.126219561323524">
        <ele>874.79998779296875</ele>
        <time>2014-11-14T15:35:57Z</time>
      </trkpt>
      <trkpt lat="46.60245593637228" lon="7.126119481399655">
        <ele>874.4000244140625</ele>
        <time>2014-11-14T15:35:58Z</time>
      </trkpt>
      <trkpt lat="46.602477561682463" lon="7.126017641276121">
        <ele>874</ele>
        <time>2014-11-14T15:35:59Z</time>
      </trkpt>
      <trkpt lat="46.602502120658755" lon="7.125912113115192">
        <ele>873.79998779296875</ele>
        <time>2014-11-14T15:36:00Z</time>
      </trkpt>
      <trkpt lat="46.602625837549567" lon="7.12559443898499">
        <ele>872.20001220703125</ele>
        <time>2014-11-14T15:36:03Z</time>
      </trkpt>
      <trkpt lat="46.602706387639046" lon="7.12535060942173">
        <ele>870.5999755859375</ele>
        <time>2014-11-14T15:36:05Z</time>
      </trkpt>
      <trkpt lat="46.602784842252731" lon="7.125101918354631">
        <ele>868.79998779296875</ele>
        <time>2014-11-14T15:36:07Z</time>
      </trkpt>
      <trkpt lat="46.602878216654062" lon="7.124841660261154">
        <ele>866.79998779296875</ele>
        <time>2014-11-14T15:36:09Z</time>
      </trkpt>
      <trkpt lat="46.602918365970254" lon="7.124724229797721">
        <ele>865.79998779296875</ele>
        <time>2014-11-14T15:36:10Z</time>
      </trkpt>
      <trkpt lat="46.602957509458065" lon="7.124607050791383">
        <ele>864.5999755859375</ele>
        <time>2014-11-14T15:36:11Z</time>
      </trkpt>
      <trkpt lat="46.60299732349813" lon="7.124484842643142">
        <ele>863.4000244140625</ele>
        <time>2014-11-14T15:36:12Z</time>
      </trkpt>
      <trkpt lat="46.603056164458394" lon="7.124370513483882">
        <ele>862.4000244140625</ele>
        <time>2014-11-14T15:36:13Z</time>
      </trkpt>
      <trkpt lat="46.603134032338858" lon="7.124265320599079">
        <ele>861.5999755859375</ele>
        <time>2014-11-14T15:36:14Z</time>
      </trkpt>
      <trkpt lat="46.603222126141191" lon="7.12416909635067">
        <ele>861</ele>
        <time>2014-11-14T15:36:15Z</time>
      </trkpt>
      <trkpt lat="46.603314578533173" lon="7.124069267883897">
        <ele>858.20001220703125</ele>
        <time>2014-11-14T15:36:16Z</time>
      </trkpt>
      <trkpt lat="46.603405606001616" lon="7.123982096090913">
        <ele>856.5999755859375</ele>
        <time>2014-11-14T15:36:17Z</time>
      </trkpt>
      <trkpt lat="46.603489760309458" lon="7.123892745003104">
        <ele>855.20001220703125</ele>
        <time>2014-11-14T15:36:18Z</time>
      </trkpt>
      <trkpt lat="46.60356318578124" lon="7.123802220448852">
        <ele>854</ele>
        <time>2014-11-14T15:36:19Z</time>
      </trkpt>
      <trkpt lat="46.603632336482406" lon="7.123709600418806">
        <ele>852.79998779296875</ele>
        <time>2014-11-14T15:36:20Z</time>
      </trkpt>
      <trkpt lat="46.603694027289748" lon="7.123613627627492">
        <ele>851.4000244140625</ele>
        <time>2014-11-14T15:36:21Z</time>
      </trkpt>
      <trkpt lat="46.603754460811615" lon="7.123511619865894">
        <ele>850</ele>
        <time>2014-11-14T15:36:22Z</time>
      </trkpt>
      <trkpt lat="46.603795113041997" lon="7.123403158038855">
        <ele>848.5999755859375</ele>
        <time>2014-11-14T15:36:23Z</time>
      </trkpt>
      <trkpt lat="46.603829227387905" lon="7.123294277116656">
        <ele>847.4000244140625</ele>
        <time>2014-11-14T15:36:24Z</time>
      </trkpt>
      <trkpt lat="46.603852529078722" lon="7.123190173879266">
        <ele>846.20001220703125</ele>
        <time>2014-11-14T15:36:25Z</time>
      </trkpt>
      <trkpt lat="46.60387541167438" lon="7.123089171946049">
        <ele>845</ele>
        <time>2014-11-14T15:36:26Z</time>
      </trkpt>
      <trkpt lat="46.60389443859458" lon="7.122991941869259">
        <ele>844</ele>
        <time>2014-11-14T15:36:27Z</time>
      </trkpt>
      <trkpt lat="46.603904329240322" lon="7.122893705964088">
        <ele>843</ele>
        <time>2014-11-14T15:36:28Z</time>
      </trkpt>
      <trkpt lat="46.603897623717785" lon="7.122789770364761">
        <ele>842.20001220703125</ele>
        <time>2014-11-14T15:36:29Z</time>
      </trkpt>
      <trkpt lat="46.60387977026403" lon="7.122685331851244">
        <ele>841.4000244140625</ele>
        <time>2014-11-14T15:36:30Z</time>
      </trkpt>
      <trkpt lat="46.603860324248672" lon="7.122584413737059">
        <ele>840.4000244140625</ele>
        <time>2014-11-14T15:36:31Z</time>
      </trkpt>
      <trkpt lat="46.603808775544167" lon="7.122397664934397">
        <ele>838.79998779296875</ele>
        <time>2014-11-14T15:36:33Z</time>
      </trkpt>
      <trkpt lat="46.603769799694419" lon="7.122317031025887">
        <ele>837.79998779296875</ele>
        <time>2014-11-14T15:36:34Z</time>
      </trkpt>
      <trkpt lat="46.603718418627977" lon="7.122245449572802">
        <ele>837.20001220703125</ele>
        <time>2014-11-14T15:36:35Z</time>
      </trkpt>
      <trkpt lat="46.603608950972557" lon="7.122119469568133">
        <ele>836</ele>
        <time>2014-11-14T15:36:37Z</time>
      </trkpt>
      <trkpt lat="46.603552959859371" lon="7.122057359665632">
        <ele>835.20001220703125</ele>
        <time>2014-11-14T15:36:38Z</time>
      </trkpt>
      <trkpt lat="46.603486994281411" lon="7.12199030444026">
        <ele>834.20001220703125</ele>
        <time>2014-11-14T15:36:39Z</time>
      </trkpt>
      <trkpt lat="46.603422034531832" lon="7.121915956959128">
        <ele>831.79998779296875</ele>
        <time>2014-11-14T15:36:40Z</time>
      </trkpt>
      <trkpt lat="46.603359505534172" lon="7.121823588386178">
        <ele>830.5999755859375</ele>
        <time>2014-11-14T15:36:41Z</time>
      </trkpt>
      <trkpt lat="46.603312566876411" lon="7.121703727170825">
        <ele>829.5999755859375</ele>
        <time>2014-11-14T15:36:42Z</time>
      </trkpt>
      <trkpt lat="46.603265795856714" lon="7.121584536507726">
        <ele>828.4000244140625</ele>
        <time>2014-11-14T15:36:43Z</time>
      </trkpt>
      <trkpt lat="46.603233274072409" lon="7.121455539017916">
        <ele>827.20001220703125</ele>
        <time>2014-11-14T15:36:44Z</time>
      </trkpt>
      <trkpt lat="46.603218019008636" lon="7.121311454102397">
        <ele>825.5999755859375</ele>
        <time>2014-11-14T15:36:45Z</time>
      </trkpt>
      <trkpt lat="46.603213408961892" lon="7.121145324781537">
        <ele>824.20001220703125</ele>
        <time>2014-11-14T15:36:46Z</time>
      </trkpt>
      <trkpt lat="46.603208044543862" lon="7.120970226824284">
        <ele>823</ele>
        <time>2014-11-14T15:36:47Z</time>
      </trkpt>
      <trkpt lat="46.603211397305131" lon="7.1207863278687">
        <ele>821.79998779296875</ele>
        <time>2014-11-14T15:36:48Z</time>
      </trkpt>
      <trkpt lat="46.603219443932176" lon="7.120595471933484">
        <ele>820.79998779296875</ele>
        <time>2014-11-14T15:36:49Z</time>
      </trkpt>
      <trkpt lat="46.603227825835347" lon="7.120403274893761">
        <ele>819.5999755859375</ele>
        <time>2014-11-14T15:36:50Z</time>
      </trkpt>
      <trkpt lat="46.603234615176916" lon="7.12020680308342">
        <ele>818.20001220703125</ele>
        <time>2014-11-14T15:36:51Z</time>
      </trkpt>
      <trkpt lat="46.603233609348536" lon="7.120007481426001">
        <ele>816.79998779296875</ele>
        <time>2014-11-14T15:36:52Z</time>
      </trkpt>
      <trkpt lat="46.603227071464062" lon="7.119805561378598">
        <ele>815.4000244140625</ele>
        <time>2014-11-14T15:36:53Z</time>
      </trkpt>
      <trkpt lat="46.603207793086767" lon="7.119597773998976">
        <ele>813.79998779296875</ele>
        <time>2014-11-14T15:36:54Z</time>
      </trkpt>
      <trkpt lat="46.603174265474081" lon="7.119391076266766">
        <ele>812.4000244140625</ele>
        <time>2014-11-14T15:36:55Z</time>
      </trkpt>
      <trkpt lat="46.603120034560561" lon="7.119191586971283">
        <ele>810.4000244140625</ele>
        <time>2014-11-14T15:36:56Z</time>
      </trkpt>
      <trkpt lat="46.603058092296124" lon="7.118997042998672">
        <ele>808.79998779296875</ele>
        <time>2014-11-14T15:36:57Z</time>
      </trkpt>
      <trkpt lat="46.602996150031686" lon="7.11880149319768">
        <ele>807</ele>
        <time>2014-11-14T15:36:58Z</time>
      </trkpt>
      <trkpt lat="46.602942422032356" lon="7.118603345006704">
        <ele>805.5999755859375</ele>
        <time>2014-11-14T15:36:59Z</time>
      </trkpt>
      <trkpt lat="46.602899003773928" lon="7.11840134114027">
        <ele>804.20001220703125</ele>
        <time>2014-11-14T15:37:00Z</time>
      </trkpt>
      <trkpt lat="46.602871343493462" lon="7.118200594559312">
        <ele>802.79998779296875</ele>
        <time>2014-11-14T15:37:01Z</time>
      </trkpt>
      <trkpt lat="46.602846533060074" lon="7.118005296215415">
        <ele>801.5999755859375</ele>
        <time>2014-11-14T15:37:02Z</time>
      </trkpt>
      <trkpt lat="46.602836139500141" lon="7.117818044498563">
        <ele>800.5999755859375</ele>
        <time>2014-11-14T15:37:03Z</time>
      </trkpt>
      <trkpt lat="46.602834044024348" lon="7.117452677339315">
        <ele>798.4000244140625</ele>
        <time>2014-11-14T15:37:05Z</time>
      </trkpt>
      <trkpt lat="46.602841252461076" lon="7.117092674598098">
        <ele>797</ele>
        <time>2014-11-14T15:37:07Z</time>
      </trkpt>
      <trkpt lat="46.602827589958906" lon="7.116733007133007">
        <ele>795</ele>
        <time>2014-11-14T15:37:09Z</time>
      </trkpt>
      <trkpt lat="46.602819124236703" lon="7.116554556414485">
        <ele>794.20001220703125</ele>
        <time>2014-11-14T15:37:10Z</time>
      </trkpt>
      <trkpt lat="46.602813759818673" lon="7.116378536447883">
        <ele>793.20001220703125</ele>
        <time>2014-11-14T15:37:11Z</time>
      </trkpt>
      <trkpt lat="46.60281359218061" lon="7.116202432662249">
        <ele>792</ele>
        <time>2014-11-14T15:37:12Z</time>
      </trkpt>
      <trkpt lat="46.6028175316751" lon="7.11602758616209">
        <ele>790.79998779296875</ele>
        <time>2014-11-14T15:37:13Z</time>
      </trkpt>
      <trkpt lat="46.602822812274098" lon="7.115686191245914">
        <ele>789.4000244140625</ele>
        <time>2014-11-14T15:37:15Z</time>
      </trkpt>
      <trkpt lat="46.602823734283447" lon="7.115517212077975">
        <ele>789</ele>
        <time>2014-11-14T15:37:16Z</time>
      </trkpt>
      <trkpt lat="46.602809317409992" lon="7.115183528512716">
        <ele>788</ele>
        <time>2014-11-14T15:37:18Z</time>
      </trkpt>
      <trkpt lat="46.602748464792967" lon="7.114861831068993">
        <ele>786.5999755859375</ele>
        <time>2014-11-14T15:37:20Z</time>
      </trkpt>
      <trkpt lat="46.60260396078229" lon="7.114600818604231">
        <ele>785</ele>
        <time>2014-11-14T15:37:22Z</time>
      </trkpt>
      <trkpt lat="46.602444536983967" lon="7.114360174164176">
        <ele>783.79998779296875</ele>
        <time>2014-11-14T15:37:24Z</time>
      </trkpt>
      <trkpt lat="46.60230103880167" lon="7.11410528048873">
        <ele>782.20001220703125</ele>
        <time>2014-11-14T15:37:26Z</time>
      </trkpt>
      <trkpt lat="46.602240689098835" lon="7.113966392353177">
        <ele>781.5999755859375</ele>
        <time>2014-11-14T15:37:27Z</time>
      </trkpt>
      <trkpt lat="46.602193163707852" lon="7.113819792866707">
        <ele>780.79998779296875</ele>
        <time>2014-11-14T15:37:28Z</time>
      </trkpt>
      <trkpt lat="46.602149996906519" lon="7.113668164238334">
        <ele>779.4000244140625</ele>
        <time>2014-11-14T15:37:29Z</time>
      </trkpt>
      <trkpt lat="46.602074140682817" lon="7.113366080448031">
        <ele>778</ele>
        <time>2014-11-14T15:37:31Z</time>
      </trkpt>
      <trkpt lat="46.601999374106526" lon="7.113063493743539">
        <ele>776.5999755859375</ele>
        <time>2014-11-14T15:37:33Z</time>
      </trkpt>
      <trkpt lat="46.601891163736582" lon="7.112773563712835">
        <ele>775</ele>
        <time>2014-11-14T15:37:35Z</time>
      </trkpt>
      <trkpt lat="46.601832658052444" lon="7.112650852650404">
        <ele>774</ele>
        <time>2014-11-14T15:37:36Z</time>
      </trkpt>
      <trkpt lat="46.601773984730244" lon="7.112538786605001">
        <ele>772.79998779296875</ele>
        <time>2014-11-14T15:37:37Z</time>
      </trkpt>
      <trkpt lat="46.601717574521899" lon="7.112427726387978">
        <ele>771.20001220703125</ele>
        <time>2014-11-14T15:37:38Z</time>
      </trkpt>
      <trkpt lat="46.601667702198029" lon="7.112316582351923">
        <ele>769.79998779296875</ele>
        <time>2014-11-14T15:37:39Z</time>
      </trkpt>
      <trkpt lat="46.601621434092522" lon="7.112203175202012">
        <ele>768.5999755859375</ele>
        <time>2014-11-14T15:37:40Z</time>
      </trkpt>
      <trkpt lat="46.601594695821404" lon="7.112069986760616">
        <ele>767.5999755859375</ele>
        <time>2014-11-14T15:37:41Z</time>
      </trkpt>
      <trkpt lat="46.601586565375328" lon="7.111915005370975">
        <ele>766.79998779296875</ele>
        <time>2014-11-14T15:37:42Z</time>
      </trkpt>
      <trkpt lat="46.601580446586013" lon="7.111755665391684">
        <ele>766</ele>
        <time>2014-11-14T15:37:43Z</time>
      </trkpt>
      <trkpt lat="46.60157784819603" lon="7.111587021499872">
        <ele>765.20001220703125</ele>
        <time>2014-11-14T15:37:44Z</time>
      </trkpt>
      <trkpt lat="46.601572651416063" lon="7.111415946856141">
        <ele>764.20001220703125</ele>
        <time>2014-11-14T15:37:45Z</time>
      </trkpt>
      <trkpt lat="46.601550690829754" lon="7.111062481999397">
        <ele>762</ele>
        <time>2014-11-14T15:37:47Z</time>
      </trkpt>
      <trkpt lat="46.601543398573995" lon="7.110877661034465">
        <ele>761</ele>
        <time>2014-11-14T15:37:48Z</time>
      </trkpt>
      <trkpt lat="46.601535100489855" lon="7.110694097355008">
        <ele>760</ele>
        <time>2014-11-14T15:37:49Z</time>
      </trkpt>
      <trkpt lat="46.601520851254463" lon="7.110338201746345">
        <ele>758</ele>
        <time>2014-11-14T15:37:51Z</time>
      </trkpt>
      <trkpt lat="46.601518588140607" lon="7.11017182096839">
        <ele>756.5999755859375</ele>
        <time>2014-11-14T15:37:52Z</time>
      </trkpt>
      <trkpt lat="46.601524874567986" lon="7.110014157369733">
        <ele>753.79998779296875</ele>
        <time>2014-11-14T15:37:53Z</time>
      </trkpt>
      <trkpt lat="46.601542644202709" lon="7.109861690551043">
        <ele>752.79998779296875</ele>
        <time>2014-11-14T15:37:54Z</time>
      </trkpt>
      <trkpt lat="46.60156661644578" lon="7.109711989760399">
        <ele>751.5999755859375</ele>
        <time>2014-11-14T15:37:55Z</time>
      </trkpt>
      <trkpt lat="46.601596623659134" lon="7.109563797712326">
        <ele>750.5999755859375</ele>
        <time>2014-11-14T15:37:56Z</time>
      </trkpt>
      <trkpt lat="46.601677509024739" lon="7.109280405566096">
        <ele>749</ele>
        <time>2014-11-14T15:37:58Z</time>
      </trkpt>
      <trkpt lat="46.601761411875486" lon="7.109001288190484">
        <ele>747.20001220703125</ele>
        <time>2014-11-14T15:38:00Z</time>
      </trkpt>
      <trkpt lat="46.601800974458456" lon="7.108873380348086">
        <ele>746.20001220703125</ele>
        <time>2014-11-14T15:38:01Z</time>
      </trkpt>
      <trkpt lat="46.601840537041426" lon="7.108753183856607">
        <ele>745.20001220703125</ele>
        <time>2014-11-14T15:38:02Z</time>
      </trkpt>
      <trkpt lat="46.601882111281157" lon="7.108644051477313">
        <ele>744.20001220703125</ele>
        <time>2014-11-14T15:38:03Z</time>
      </trkpt>
      <trkpt lat="46.60192234441638" lon="7.108541540801525">
        <ele>743.20001220703125</ele>
        <time>2014-11-14T15:38:04Z</time>
      </trkpt>
      <trkpt lat="46.601989483460784" lon="7.108379267156124">
        <ele>741.5999755859375</ele>
        <time>2014-11-14T15:38:06Z</time>
      </trkpt>
      <trkpt lat="46.602006917819381" lon="7.108317073434591">
        <ele>741</ele>
        <time>2014-11-14T15:38:07Z</time>
      </trkpt>
      <trkpt lat="46.601999709382653" lon="7.108247838914394">
        <ele>740.4000244140625</ele>
        <time>2014-11-14T15:38:08Z</time>
      </trkpt>
      <trkpt lat="46.601918656378984" lon="7.108148094266653">
        <ele>740</ele>
        <time>2014-11-14T15:38:10Z</time>
      </trkpt>
      <trkpt lat="46.601780438795686" lon="7.108028400689364">
        <ele>739.4000244140625</ele>
        <time>2014-11-14T15:38:13Z</time>
      </trkpt>
      <trkpt lat="46.601744061335921" lon="7.107976181432605">
        <ele>739.20001220703125</ele>
        <time>2014-11-14T15:38:14Z</time>
      </trkpt>
      <trkpt lat="46.601705923676491" lon="7.107926812022924">
        <ele>739.20001220703125</ele>
        <time>2014-11-14T15:38:15Z</time>
      </trkpt>
      <trkpt lat="46.601661751046777" lon="7.107882723212242">
        <ele>739.20001220703125</ele>
        <time>2014-11-14T15:38:16Z</time>
      </trkpt>
      <trkpt lat="46.601516576483846" lon="7.107642078772187">
        <ele>739</ele>
        <time>2014-11-14T15:38:20Z</time>
      </trkpt>
      <trkpt lat="46.601252378895879" lon="7.107232455164194">
        <ele>738.20001220703125</ele>
        <time>2014-11-14T15:38:27Z</time>
      </trkpt>
      <trkpt lat="46.60089522600174" lon="7.106721661984921">
        <ele>737.79998779296875</ele>
        <time>2014-11-14T15:38:36Z</time>
      </trkpt>
      <trkpt lat="46.600616024807096" lon="7.106341710314155">
        <ele>737.20001220703125</ele>
        <time>2014-11-14T15:38:43Z</time>
      </trkpt>
      <trkpt lat="46.600577803328633" lon="7.106288904324174">
        <ele>737</ele>
        <time>2014-11-14T15:38:44Z</time>
      </trkpt>
      <trkpt lat="46.600545533001423" lon="7.106231236830354">
        <ele>737</ele>
        <time>2014-11-14T15:38:45Z</time>
      </trkpt>
      <trkpt lat="46.600403124466538" lon="7.106169210746884">
        <ele>737</ele>
        <time>2014-11-14T15:38:48Z</time>
      </trkpt>
      <trkpt lat="46.600273037329316" lon="7.106277253478766">
        <ele>736.79998779296875</ele>
        <time>2014-11-14T15:38:51Z</time>
      </trkpt>
      <trkpt lat="46.600127695128322" lon="7.106246240437031">
        <ele>736.5999755859375</ele>
        <time>2014-11-14T15:38:54Z</time>
      </trkpt>
      <trkpt lat="46.600077403709292" lon="7.106235511600971">
        <ele>736.5999755859375</ele>
        <time>2014-11-14T15:38:55Z</time>
      </trkpt>
      <trkpt lat="46.599878501147032" lon="7.106159403920174">
        <ele>736.4000244140625</ele>
        <time>2014-11-14T15:38:59Z</time>
      </trkpt>
      <trkpt lat="46.599825192242861" lon="7.106146160513163">
        <ele>736.4000244140625</ele>
        <time>2014-11-14T15:39:00Z</time>
      </trkpt>
      <trkpt lat="46.599670294672251" lon="7.106106514111161">
        <ele>736.20001220703125</ele>
        <time>2014-11-14T15:39:03Z</time>
      </trkpt>
      <trkpt lat="46.599632911384106" lon="7.106048678979278">
        <ele>736.20001220703125</ele>
        <time>2014-11-14T15:39:04Z</time>
      </trkpt>
      <trkpt lat="46.599602736532688" lon="7.105985479429364">
        <ele>735.4000244140625</ele>
        <time>2014-11-14T15:39:05Z</time>
      </trkpt>
      <trkpt lat="46.59951196052134" lon="7.105785654857755">
        <ele>735.5999755859375</ele>
        <time>2014-11-14T15:39:08Z</time>
      </trkpt>
      <trkpt lat="46.599232004955411" lon="7.105162041261792">
        <ele>734.79998779296875</ele>
        <time>2014-11-14T15:39:17Z</time>
      </trkpt>
      <trkpt lat="46.599165117368102" lon="7.105018794536591">
        <ele>734.20001220703125</ele>
        <time>2014-11-14T15:39:19Z</time>
      </trkpt>
      <trkpt lat="46.599069815129042" lon="7.104811174795032">
        <ele>735.4000244140625</ele>
        <time>2014-11-14T15:39:22Z</time>
      </trkpt>
      <trkpt lat="46.599043412134051" lon="7.104750908911228">
        <ele>734.20001220703125</ele>
        <time>2014-11-14T15:39:23Z</time>
      </trkpt>
      <trkpt lat="46.599028743803501" lon="7.104677315801382">
        <ele>734</ele>
        <time>2014-11-14T15:39:24Z</time>
      </trkpt>
      <trkpt lat="46.599092027172446" lon="7.104463912546635">
        <ele>733.79998779296875</ele>
        <time>2014-11-14T15:39:27Z</time>
      </trkpt>
      <trkpt lat="46.599159082397819" lon="7.104340698570013">
        <ele>733.20001220703125</ele>
        <time>2014-11-14T15:39:29Z</time>
      </trkpt>
      <trkpt lat="46.599218510091305" lon="7.104229973629117">
        <ele>733.4000244140625</ele>
        <time>2014-11-14T15:39:31Z</time>
      </trkpt>
      <trkpt lat="46.59928279928863" lon="7.104140957817435">
        <ele>733.20001220703125</ele>
        <time>2014-11-14T15:39:33Z</time>
      </trkpt>
      <trkpt lat="46.599525455385447" lon="7.103768633678556">
        <ele>733</ele>
        <time>2014-11-14T15:39:42Z</time>
      </trkpt>
      <trkpt lat="46.599687477573752" lon="7.103518517687917">
        <ele>732.79998779296875</ele>
        <time>2014-11-14T15:39:48Z</time>
      </trkpt>
      <trkpt lat="46.59980658441782" lon="7.103347526863217">
        <ele>732.79998779296875</ele>
        <time>2014-11-14T15:39:52Z</time>
      </trkpt>
      <trkpt lat="46.599848661571741" lon="7.103346521034837">
        <ele>732.79998779296875</ele>
        <time>2014-11-14T15:39:53Z</time>
      </trkpt>
      <trkpt lat="46.60003574565053" lon="7.103329757228494">
        <ele>732.4000244140625</ele>
        <time>2014-11-14T15:39:57Z</time>
      </trkpt>
      <trkpt lat="46.600086120888591" lon="7.103321710601449">
        <ele>732.20001220703125</ele>
        <time>2014-11-14T15:39:58Z</time>
      </trkpt>
      <trkpt lat="46.600446878001094" lon="7.103201178833842">
        <ele>732</ele>
        <time>2014-11-14T15:40:05Z</time>
      </trkpt>
      <trkpt lat="46.600498929619789" lon="7.103165807202458">
        <ele>732</ele>
        <time>2014-11-14T15:40:06Z</time>
      </trkpt>
      <trkpt lat="46.600736221298575" lon="7.102995403110981">
        <ele>732.4000244140625</ele>
        <time>2014-11-14T15:40:11Z</time>
      </trkpt>
      <trkpt lat="46.600888185203075" lon="7.102878978475928">
        <ele>732.5999755859375</ele>
        <time>2014-11-14T15:40:15Z</time>
      </trkpt>
      <trkpt lat="46.600914839655161" lon="7.102838829159737">
        <ele>732.5999755859375</ele>
        <time>2014-11-14T15:40:16Z</time>
      </trkpt>
      <trkpt lat="46.601006705313921" lon="7.1026645693928">
        <ele>732.5999755859375</ele>
        <time>2014-11-14T15:40:20Z</time>
      </trkpt>
      <trkpt lat="46.601045848801732" lon="7.102590892463923">
        <ele>732.5999755859375</ele>
        <time>2014-11-14T15:40:22Z</time>
      </trkpt>
      <trkpt lat="46.601135451346636" lon="7.102398360148072">
        <ele>733</ele>
        <time>2014-11-14T15:40:28Z</time>
      </trkpt>
      <trkpt lat="46.601239806041121" lon="7.102178502827883">
        <ele>732.20001220703125</ele>
        <time>2014-11-14T15:40:34Z</time>
      </trkpt>
      <trkpt lat="46.601236537098885" lon="7.102157464250922">
        <ele>732</ele>
        <time>2014-11-14T15:40:35Z</time>
      </trkpt>
      <trkpt lat="46.601199992001057" lon="7.102163415402174">
        <ele>731.4000244140625</ele>
        <time>2014-11-14T15:40:38Z</time>
      </trkpt>
      <trkpt lat="46.601170152425766" lon="7.10221747867763">
        <ele>731</ele>
        <time>2014-11-14T15:40:40Z</time>
      </trkpt>
      <trkpt lat="46.601101839914918" lon="7.10230297408998">
        <ele>730.4000244140625</ele>
        <time>2014-11-14T15:40:42Z</time>
      </trkpt>
      <trkpt lat="46.600998071953654" lon="7.102441610768437">
        <ele>729.5999755859375</ele>
        <time>2014-11-14T15:40:44Z</time>
      </trkpt>
      <trkpt lat="46.600891286507249" lon="7.102588964626193">
        <ele>728.4000244140625</ele>
        <time>2014-11-14T15:40:46Z</time>
      </trkpt>
      <trkpt lat="46.600740412250161" lon="7.102720979601145">
        <ele>727</ele>
        <time>2014-11-14T15:40:48Z</time>
      </trkpt>
      <trkpt lat="46.60064603202045" lon="7.102775378152728">
        <ele>726.4000244140625</ele>
        <time>2014-11-14T15:40:49Z</time>
      </trkpt>
      <trkpt lat="46.600553663447499" lon="7.102833883836865">
        <ele>725.79998779296875</ele>
        <time>2014-11-14T15:40:50Z</time>
      </trkpt>
      <trkpt lat="46.60037973895669" lon="7.102935388684273">
        <ele>724.20001220703125</ele>
        <time>2014-11-14T15:40:52Z</time>
      </trkpt>
      <trkpt lat="46.600294495001435" lon="7.102962881326675">
        <ele>723.4000244140625</ele>
        <time>2014-11-14T15:40:53Z</time>
      </trkpt>
      <trkpt lat="46.600211430341005" lon="7.102974699810147">
        <ele>722.5999755859375</ele>
        <time>2014-11-14T15:40:54Z</time>
      </trkpt>
      <trkpt lat="46.600056700408459" lon="7.102972939610481">
        <ele>720.79998779296875</ele>
        <time>2014-11-14T15:40:56Z</time>
      </trkpt>
      <trkpt lat="46.599906580522656" lon="7.102897083386779">
        <ele>719.5999755859375</ele>
        <time>2014-11-14T15:40:58Z</time>
      </trkpt>
      <trkpt lat="46.599783366546035" lon="7.102743191644549">
        <ele>718.5999755859375</ele>
        <time>2014-11-14T15:41:00Z</time>
      </trkpt>
      <trkpt lat="46.59971128217876" lon="7.102664485573769">
        <ele>718</ele>
        <time>2014-11-14T15:41:01Z</time>
      </trkpt>
      <trkpt lat="46.599640119820833" lon="7.102588545531035">
        <ele>717.20001220703125</ele>
        <time>2014-11-14T15:41:02Z</time>
      </trkpt>
      <trkpt lat="46.599514055997133" lon="7.102457955479622">
        <ele>716</ele>
        <time>2014-11-14T15:41:04Z</time>
      </trkpt>
      <trkpt lat="46.599458483979106" lon="7.102396180853248">
        <ele>715</ele>
        <time>2014-11-14T15:41:05Z</time>
      </trkpt>
      <trkpt lat="46.599398301914334" lon="7.102361647412181">
        <ele>714.4000244140625</ele>
        <time>2014-11-14T15:41:06Z</time>
      </trkpt>
      <trkpt lat="46.599342478439212" lon="7.102344799786806">
        <ele>714</ele>
        <time>2014-11-14T15:41:07Z</time>
      </trkpt>
      <trkpt lat="46.599240638315678" lon="7.102411855012178">
        <ele>712.79998779296875</ele>
        <time>2014-11-14T15:41:09Z</time>
      </trkpt>
      <trkpt lat="46.599166207015514" lon="7.102575553581119">
        <ele>711.79998779296875</ele>
        <time>2014-11-14T15:41:11Z</time>
      </trkpt>
      <trkpt lat="46.599148856475949" lon="7.102673538029194">
        <ele>711.20001220703125</ele>
        <time>2014-11-14T15:41:12Z</time>
      </trkpt>
      <trkpt lat="46.599142234772444" lon="7.102769762277603">
        <ele>710.4000244140625</ele>
        <time>2014-11-14T15:41:13Z</time>
      </trkpt>
      <trkpt lat="46.599134523421526" lon="7.102861627936363">
        <ele>709.79998779296875</ele>
        <time>2014-11-14T15:41:14Z</time>
      </trkpt>
      <trkpt lat="46.599120106548071" lon="7.102942932397127">
        <ele>709.20001220703125</ele>
        <time>2014-11-14T15:41:15Z</time>
      </trkpt>
      <trkpt lat="46.599093871191144" lon="7.103004371747375">
        <ele>708.4000244140625</ele>
        <time>2014-11-14T15:41:16Z</time>
      </trkpt>
      <trkpt lat="46.599045339971781" lon="7.103025326505303">
        <ele>707.79998779296875</ele>
        <time>2014-11-14T15:41:17Z</time>
      </trkpt>
      <trkpt lat="46.598992785438895" lon="7.103003282099962">
        <ele>707.20001220703125</ele>
        <time>2014-11-14T15:41:18Z</time>
      </trkpt>
      <trkpt lat="46.598961437121034" lon="7.102927844971418">
        <ele>706.5999755859375</ele>
        <time>2014-11-14T15:41:19Z</time>
      </trkpt>
      <trkpt lat="46.59895297139883" lon="7.102841008454561">
        <ele>706</ele>
        <time>2014-11-14T15:41:20Z</time>
      </trkpt>
      <trkpt lat="46.598941572010517" lon="7.102653002366424">
        <ele>705.4000244140625</ele>
        <time>2014-11-14T15:41:22Z</time>
      </trkpt>
      <trkpt lat="46.598923048004508" lon="7.102448148652911">
        <ele>704.79998779296875</ele>
        <time>2014-11-14T15:41:24Z</time>
      </trkpt>
      <trkpt lat="46.598907625302672" lon="7.102348823100328">
        <ele>704.20001220703125</ele>
        <time>2014-11-14T15:41:25Z</time>
      </trkpt>
      <trkpt lat="46.598852640017867" lon="7.102173892781138">
        <ele>703</ele>
        <time>2014-11-14T15:41:27Z</time>
      </trkpt>
      <trkpt lat="46.598811401054263" lon="7.102109268307686">
        <ele>702.5999755859375</ele>
        <time>2014-11-14T15:41:28Z</time>
      </trkpt>
      <trkpt lat="46.598764630034566" lon="7.102058054879308">
        <ele>701.4000244140625</ele>
        <time>2014-11-14T15:41:29Z</time>
      </trkpt>
      <trkpt lat="46.598597411066294" lon="7.101906929165125">
        <ele>700.20001220703125</ele>
        <time>2014-11-14T15:41:32Z</time>
      </trkpt>
      <trkpt lat="46.59849070943892" lon="7.101783715188503">
        <ele>699.79998779296875</ele>
        <time>2014-11-14T15:41:34Z</time>
      </trkpt>
      <trkpt lat="46.598357437178493" lon="7.101535527035594">
        <ele>699.5999755859375</ele>
        <time>2014-11-14T15:41:37Z</time>
      </trkpt>
      <trkpt lat="46.598020233213902" lon="7.100801775231957">
        <ele>700</ele>
        <time>2014-11-14T15:41:45Z</time>
      </trkpt>
      <trkpt lat="46.597690992057323" lon="7.100201044231653">
        <ele>700</ele>
        <time>2014-11-14T15:41:52Z</time>
      </trkpt>
      <trkpt lat="46.597250187769532" lon="7.09962428547442">
        <ele>700</ele>
        <time>2014-11-14T15:42:00Z</time>
      </trkpt>
      <trkpt lat="46.59695740789175" lon="7.09927199408412">
        <ele>699.79998779296875</ele>
        <time>2014-11-14T15:42:06Z</time>
      </trkpt>
      <trkpt lat="46.596919521689415" lon="7.099206950515509">
        <ele>699.79998779296875</ele>
        <time>2014-11-14T15:42:07Z</time>
      </trkpt>
      <trkpt lat="46.596894878894091" lon="7.099040234461427">
        <ele>699.4000244140625</ele>
        <time>2014-11-14T15:42:09Z</time>
      </trkpt>
      <trkpt lat="46.596915079280734" lon="7.098953314125538">
        <ele>699</ele>
        <time>2014-11-14T15:42:10Z</time>
      </trkpt>
      <trkpt lat="46.597020188346505" lon="7.098841248080134">
        <ele>698.79998779296875</ele>
        <time>2014-11-14T15:42:12Z</time>
      </trkpt>
      <trkpt lat="46.597139462828636" lon="7.098753321915865">
        <ele>698.79998779296875</ele>
        <time>2014-11-14T15:42:14Z</time>
      </trkpt>
      <trkpt lat="46.597334258258343" lon="7.098639998584986">
        <ele>699</ele>
        <time>2014-11-14T15:42:17Z</time>
      </trkpt>
      <trkpt lat="46.597849745303392" lon="7.098334981128573">
        <ele>698.5999755859375</ele>
        <time>2014-11-14T15:42:25Z</time>
      </trkpt>
      <trkpt lat="46.598385935649276" lon="7.098020743578672">
        <ele>698.5999755859375</ele>
        <time>2014-11-14T15:42:34Z</time>
      </trkpt>
      <trkpt lat="46.598785081878304" lon="7.097805663943291">
        <ele>698.20001220703125</ele>
        <time>2014-11-14T15:42:41Z</time>
      </trkpt>
      <trkpt lat="46.599274417385459" lon="7.097522607073188">
        <ele>698.4000244140625</ele>
        <time>2014-11-14T15:42:50Z</time>
      </trkpt>
      <trkpt lat="46.5997230168432" lon="7.097268803045154">
        <ele>698.20001220703125</ele>
        <time>2014-11-14T15:42:58Z</time>
      </trkpt>
      <trkpt lat="46.599936839193106" lon="7.09714793600142">
        <ele>698.20001220703125</ele>
        <time>2014-11-14T15:43:02Z</time>
      </trkpt>
      <trkpt lat="46.600047396495938" lon="7.097093285992742">
        <ele>698.20001220703125</ele>
        <time>2014-11-14T15:43:04Z</time>
      </trkpt>
      <trkpt lat="46.600101795047522" lon="7.097063781693578">
        <ele>698</ele>
        <time>2014-11-14T15:43:05Z</time>
      </trkpt>
      <trkpt lat="46.600625747814775" lon="7.096750130876899">
        <ele>698</ele>
        <time>2014-11-14T15:43:15Z</time>
      </trkpt>
      <trkpt lat="46.600954821333289" lon="7.09655080921948">
        <ele>698</ele>
        <time>2014-11-14T15:43:22Z</time>
      </trkpt>
      <trkpt lat="46.601032521575689" lon="7.096485765650868">
        <ele>698</ele>
        <time>2014-11-14T15:43:24Z</time>
      </trkpt>
      <trkpt lat="46.60103453323245" lon="7.096356013789773">
        <ele>697.79998779296875</ele>
        <time>2014-11-14T15:43:26Z</time>
      </trkpt>
      <trkpt lat="46.600948367267847" lon="7.096200613304973">
        <ele>697.79998779296875</ele>
        <time>2014-11-14T15:43:29Z</time>
      </trkpt>
      <trkpt lat="46.60078777000308" lon="7.095778081566095">
        <ele>698</ele>
        <time>2014-11-14T15:43:36Z</time>
      </trkpt>
      <trkpt lat="46.600598422810435" lon="7.095325794070959">
        <ele>698</ele>
        <time>2014-11-14T15:43:44Z</time>
      </trkpt>
      <trkpt lat="46.600565398111939" lon="7.09530383348465">
        <ele>697.79998779296875</ele>
        <time>2014-11-14T15:43:45Z</time>
      </trkpt>
      <trkpt lat="46.600413015112281" lon="7.095319759100676">
        <ele>698</ele>
        <time>2014-11-14T15:43:48Z</time>
      </trkpt>
      <trkpt lat="46.600365824997425" lon="7.095331829041243">
        <ele>698</ele>
        <time>2014-11-14T15:43:49Z</time>
      </trkpt>
      <trkpt lat="46.600319724529982" lon="7.095357645303011">
        <ele>698</ele>
        <time>2014-11-14T15:43:50Z</time>
      </trkpt>
      <trkpt lat="46.600227523595095" lon="7.095372397452593">
        <ele>698</ele>
        <time>2014-11-14T15:43:52Z</time>
      </trkpt>
      <trkpt lat="46.600185446441174" lon="7.095343228429556">
        <ele>697.79998779296875</ele>
        <time>2014-11-14T15:43:53Z</time>
      </trkpt>
      <trkpt lat="46.600114535540342" lon="7.095186235383153">
        <ele>698</ele>
        <time>2014-11-14T15:43:56Z</time>
      </trkpt>
      <trkpt lat="46.600108332931995" lon="7.095116246491671">
        <ele>698</ele>
        <time>2014-11-14T15:43:57Z</time>
      </trkpt>
      <trkpt lat="46.600113781169057" lon="7.09492027759552">
        <ele>698.20001220703125</ele>
        <time>2014-11-14T15:44:00Z</time>
      </trkpt>
      <trkpt lat="46.600102633237839" lon="7.094793124124408">
        <ele>698.4000244140625</ele>
        <time>2014-11-14T15:44:02Z</time>
      </trkpt>
      <trkpt lat="46.600067177787423" lon="7.094603357836604">
        <ele>698.5999755859375</ele>
        <time>2014-11-14T15:44:05Z</time>
      </trkpt>
      <trkpt lat="46.59996491856873" lon="7.094173366203904">
        <ele>699.20001220703125</ele>
        <time>2014-11-14T15:44:12Z</time>
      </trkpt>
      <trkpt lat="46.599951591342688" lon="7.094086278229952">
        <ele>699.5999755859375</ele>
        <time>2014-11-14T15:44:14Z</time>
      </trkpt>
      <trkpt lat="46.599929295480251" lon="7.09398309700191">
        <ele>700.20001220703125</ele>
        <time>2014-11-14T15:44:17Z</time>
      </trkpt>
      <trkpt lat="46.599926110357046" lon="7.093943618237972">
        <ele>700.4000244140625</ele>
        <time>2014-11-14T15:44:19Z</time>
      </trkpt>
      <trkpt lat="46.599909346550703" lon="7.093894751742482">
        <ele>700.5999755859375</ele>
        <time>2014-11-14T15:44:52Z</time>
      </trkpt>
      <trkpt lat="46.599903730675578" lon="7.093862565234304">
        <ele>700.4000244140625</ele>
        <time>2014-11-14T15:44:53Z</time>
      </trkpt>
      <trkpt lat="46.599866431206465" lon="7.093646144494414">
        <ele>700.4000244140625</ele>
        <time>2014-11-14T15:44:58Z</time>
      </trkpt>
      <trkpt lat="46.599793927744031" lon="7.093381360173225">
        <ele>700</ele>
        <time>2014-11-14T15:45:02Z</time>
      </trkpt>
      <trkpt lat="46.599766854196787" lon="7.093321513384581">
        <ele>699.79998779296875</ele>
        <time>2014-11-14T15:45:03Z</time>
      </trkpt>
      <trkpt lat="46.599572561681271" lon="7.092882050201297">
        <ele>699.4000244140625</ele>
        <time>2014-11-14T15:45:10Z</time>
      </trkpt>
      <trkpt lat="46.599550014361739" lon="7.092819437384605">
        <ele>699.5999755859375</ele>
        <time>2014-11-14T15:45:11Z</time>
      </trkpt>
      <trkpt lat="46.599471224471927" lon="7.092658588662744">
        <ele>699.79998779296875</ele>
        <time>2014-11-14T15:45:14Z</time>
      </trkpt>
      <trkpt lat="46.599393021315336" lon="7.09250302053988">
        <ele>700</ele>
        <time>2014-11-14T15:45:17Z</time>
      </trkpt>
      <trkpt lat="46.599104013293982" lon="7.092003794386983">
        <ele>700.4000244140625</ele>
        <time>2014-11-14T15:45:27Z</time>
      </trkpt>
      <trkpt lat="46.598876947537065" lon="7.091684276238084">
        <ele>700.79998779296875</ele>
        <time>2014-11-14T15:45:34Z</time>
      </trkpt>
      <trkpt lat="46.598845599219203" lon="7.091638427227736">
        <ele>701</ele>
        <time>2014-11-14T15:45:35Z</time>
      </trkpt>
      <trkpt lat="46.598735125735402" lon="7.091438267379999">
        <ele>701.20001220703125</ele>
        <time>2014-11-14T15:45:39Z</time>
      </trkpt>
      <trkpt lat="46.598704615607858" lon="7.091390322893858">
        <ele>701.4000244140625</ele>
        <time>2014-11-14T15:45:40Z</time>
      </trkpt>
      <trkpt lat="46.598581820726395" lon="7.091189827769995">
        <ele>701.5999755859375</ele>
        <time>2014-11-14T15:45:44Z</time>
      </trkpt>
      <trkpt lat="46.598529350012541" lon="7.091085053980351">
        <ele>701.5999755859375</ele>
        <time>2014-11-14T15:45:46Z</time>
      </trkpt>
      <trkpt lat="46.598423235118389" lon="7.090895036235452">
        <ele>701.4000244140625</ele>
        <time>2014-11-14T15:45:50Z</time>
      </trkpt>
      <trkpt lat="46.598223829641938" lon="7.090581301599741">
        <ele>702.20001220703125</ele>
        <time>2014-11-14T15:45:57Z</time>
      </trkpt>
      <trkpt lat="46.598169263452291" lon="7.090495973825455">
        <ele>702.4000244140625</ele>
        <time>2014-11-14T15:45:59Z</time>
      </trkpt>
      <trkpt lat="46.597941108047962" lon="7.090131780132651">
        <ele>702.79998779296875</ele>
        <time>2014-11-14T15:46:07Z</time>
      </trkpt>
      <trkpt lat="46.597858713939786" lon="7.089989874511957">
        <ele>703</ele>
        <time>2014-11-14T15:46:10Z</time>
      </trkpt>
      <trkpt lat="46.597766429185867" lon="7.089848220348358">
        <ele>703</ele>
        <time>2014-11-14T15:46:13Z</time>
      </trkpt>
      <trkpt lat="46.597543302923441" lon="7.089503556489945">
        <ele>703.20001220703125</ele>
        <time>2014-11-14T15:46:20Z</time>
      </trkpt>
      <trkpt lat="46.597511786967516" lon="7.089453348889947">
        <ele>703.4000244140625</ele>
        <time>2014-11-14T15:46:21Z</time>
      </trkpt>
      <trkpt lat="46.597299976274371" lon="7.089096195995808">
        <ele>703.5999755859375</ele>
        <time>2014-11-14T15:46:28Z</time>
      </trkpt>
      <trkpt lat="46.597157567739487" lon="7.08884708583355">
        <ele>704</ele>
        <time>2014-11-14T15:46:33Z</time>
      </trkpt>
      <trkpt lat="46.597103588283062" lon="7.088742479681969">
        <ele>704.20001220703125</ele>
        <time>2014-11-14T15:46:35Z</time>
      </trkpt>
      <trkpt lat="46.597040891647339" lon="7.08864382468164">
        <ele>704.20001220703125</ele>
        <time>2014-11-14T15:46:37Z</time>
      </trkpt>
      <trkpt lat="46.597003256902099" lon="7.088603423908353">
        <ele>704.4000244140625</ele>
        <time>2014-11-14T15:46:38Z</time>
      </trkpt>
      <trkpt lat="46.596898986026645" lon="7.088468642905355">
        <ele>704.4000244140625</ele>
        <time>2014-11-14T15:46:41Z</time>
      </trkpt>
      <trkpt lat="46.596836540848017" lon="7.088378202170134">
        <ele>704.79998779296875</ele>
        <time>2014-11-14T15:46:43Z</time>
      </trkpt>
      <trkpt lat="46.596750123426318" lon="7.088235793635249">
        <ele>704.79998779296875</ele>
        <time>2014-11-14T15:46:46Z</time>
      </trkpt>
      <trkpt lat="46.596664041280746" lon="7.088088020682335">
        <ele>705.20001220703125</ele>
        <time>2014-11-14T15:46:49Z</time>
      </trkpt>
      <trkpt lat="46.596599835902452" lon="7.087993556633592">
        <ele>705.5999755859375</ele>
        <time>2014-11-14T15:46:51Z</time>
      </trkpt>
      <trkpt lat="46.596536887809634" lon="7.087901439517736">
        <ele>705.5999755859375</ele>
        <time>2014-11-14T15:46:53Z</time>
      </trkpt>
      <trkpt lat="46.596363298594952" lon="7.087578568607569">
        <ele>706.5999755859375</ele>
        <time>2014-11-14T15:47:00Z</time>
      </trkpt>
      <trkpt lat="46.596207227557898" lon="7.087195431813598">
        <ele>707</ele>
        <time>2014-11-14T15:47:08Z</time>
      </trkpt>
      <trkpt lat="46.596199767664075" lon="7.086968952789903">
        <ele>707.4000244140625</ele>
        <time>2014-11-14T15:47:13Z</time>
      </trkpt>
      <trkpt lat="46.596202366054058" lon="7.086914302781224">
        <ele>707.4000244140625</ele>
        <time>2014-11-14T15:47:15Z</time>
      </trkpt>
      <trkpt lat="46.596202617511153" lon="7.086864933371544">
        <ele>707.5999755859375</ele>
        <time>2014-11-14T15:47:17Z</time>
      </trkpt>
      <trkpt lat="46.596202701330185" lon="7.086842134594917">
        <ele>707.79998779296875</ele>
        <time>2014-11-14T15:47:18Z</time>
      </trkpt>
      <trkpt lat="46.596235558390617" lon="7.086712215095758">
        <ele>708.4000244140625</ele>
        <time>2014-11-14T15:47:23Z</time>
      </trkpt>
      <trkpt lat="46.59624595195055" lon="7.086676508188248">
        <ele>708.5999755859375</ele>
        <time>2014-11-14T15:47:24Z</time>
      </trkpt>
      <trkpt lat="46.596299847587943" lon="7.086539547890425">
        <ele>708.5999755859375</ele>
        <time>2014-11-14T15:47:27Z</time>
      </trkpt>
      <trkpt lat="46.596323316916823" lon="7.086487077176571">
        <ele>708.5999755859375</ele>
        <time>2014-11-14T15:47:28Z</time>
      </trkpt>
      <trkpt lat="46.596373021602631" lon="7.086381884291768">
        <ele>708.4000244140625</ele>
        <time>2014-11-14T15:47:30Z</time>
      </trkpt>
      <trkpt lat="46.596460863947868" lon="7.086229585111141">
        <ele>708.5999755859375</ele>
        <time>2014-11-14T15:47:33Z</time>
      </trkpt>
      <trkpt lat="46.596511323004961" lon="7.086120620369911">
        <ele>708.5999755859375</ele>
        <time>2014-11-14T15:47:35Z</time>
      </trkpt>
      <trkpt lat="46.596561865881085" lon="7.086017858237028">
        <ele>708.5999755859375</ele>
        <time>2014-11-14T15:47:37Z</time>
      </trkpt>
      <trkpt lat="46.596619868651032" lon="7.085925908759236">
        <ele>708.5999755859375</ele>
        <time>2014-11-14T15:47:39Z</time>
      </trkpt>
      <trkpt lat="46.596755739301443" lon="7.085645953193307">
        <ele>708.5999755859375</ele>
        <time>2014-11-14T15:47:45Z</time>
      </trkpt>
      <trkpt lat="46.596884485334158" lon="7.08537052385509">
        <ele>709.4000244140625</ele>
        <time>2014-11-14T15:47:52Z</time>
      </trkpt>
      <trkpt lat="46.596914576366544" lon="7.085333727300167">
        <ele>709.79998779296875</ele>
        <time>2014-11-14T15:47:54Z</time>
      </trkpt>
      <trkpt lat="46.596967885270715" lon="7.085234401747584">
        <ele>710.20001220703125</ele>
        <time>2014-11-14T15:47:57Z</time>
      </trkpt>
      <trkpt lat="46.597107024863362" lon="7.084927288815379">
        <ele>710.5999755859375</ele>
        <time>2014-11-14T15:48:04Z</time>
      </trkpt>
      <trkpt lat="46.597158908843994" lon="7.084663845598698">
        <ele>710.79998779296875</ele>
        <time>2014-11-14T15:48:09Z</time>
      </trkpt>
      <trkpt lat="46.597162932157516" lon="7.084610788151622">
        <ele>711</ele>
        <time>2014-11-14T15:48:10Z</time>
      </trkpt>
      <trkpt lat="46.597154382616282" lon="7.084327731281519">
        <ele>711.79998779296875</ele>
        <time>2014-11-14T15:48:16Z</time>
      </trkpt>
      <trkpt lat="46.597093529999256" lon="7.084125643596053">
        <ele>712.20001220703125</ele>
        <time>2014-11-14T15:48:20Z</time>
      </trkpt>
      <trkpt lat="46.596889346837997" lon="7.083690036088228">
        <ele>712.5999755859375</ele>
        <time>2014-11-14T15:48:29Z</time>
      </trkpt>
      <trkpt lat="46.596767138689756" lon="7.083490127697587">
        <ele>713</ele>
        <time>2014-11-14T15:48:34Z</time>
      </trkpt>
      <trkpt lat="46.596729503944516" lon="7.083415612578392">
        <ele>713.5999755859375</ele>
        <time>2014-11-14T15:48:36Z</time>
      </trkpt>
      <trkpt lat="46.596674686297774" lon="7.083310503512621">
        <ele>714</ele>
        <time>2014-11-14T15:48:39Z</time>
      </trkpt>
      <trkpt lat="46.596603691577911" lon="7.08313699811697">
        <ele>714</ele>
        <time>2014-11-14T15:48:43Z</time>
      </trkpt>
      <trkpt lat="46.5964609477669" lon="7.082915296778083">
        <ele>714.5999755859375</ele>
        <time>2014-11-14T15:48:49Z</time>
      </trkpt>
      <trkpt lat="46.596404034644365" lon="7.082814546301961">
        <ele>715</ele>
        <time>2014-11-14T15:48:52Z</time>
      </trkpt>
      <trkpt lat="46.596334800124168" lon="7.082663169130683">
        <ele>715.5999755859375</ele>
        <time>2014-11-14T15:48:56Z</time>
      </trkpt>
      <trkpt lat="46.596238156780601" lon="7.082394026219845">
        <ele>716</ele>
        <time>2014-11-14T15:49:02Z</time>
      </trkpt>
      <trkpt lat="46.596206137910485" lon="7.082299310714006">
        <ele>716</ele>
        <time>2014-11-14T15:49:04Z</time>
      </trkpt>
      <trkpt lat="46.596148470416665" lon="7.08204441703856">
        <ele>716.4000244140625</ele>
        <time>2014-11-14T15:49:10Z</time>
      </trkpt>
      <trkpt lat="46.596138412132859" lon="7.081762533634901">
        <ele>716.5999755859375</ele>
        <time>2014-11-14T15:49:15Z</time>
      </trkpt>
      <trkpt lat="46.596111254766583" lon="7.081596152856946">
        <ele>717</ele>
        <time>2014-11-14T15:49:18Z</time>
      </trkpt>
      <trkpt lat="46.596061633899808" lon="7.08151426166296">
        <ele>717.20001220703125</ele>
        <time>2014-11-14T15:49:20Z</time>
      </trkpt>
      <trkpt lat="46.595833897590637" lon="7.081290632486343">
        <ele>717.20001220703125</ele>
        <time>2014-11-14T15:49:27Z</time>
      </trkpt>
      <trkpt lat="46.595573388040066" lon="7.081057699397206">
        <ele>717.5999755859375</ele>
        <time>2014-11-14T15:49:35Z</time>
      </trkpt>
      <trkpt lat="46.59536249935627" lon="7.080852845683694">
        <ele>718</ele>
        <time>2014-11-14T15:49:42Z</time>
      </trkpt>
      <trkpt lat="46.5950673725456" lon="7.080493262037635">
        <ele>718.79998779296875</ele>
        <time>2014-11-14T15:49:52Z</time>
      </trkpt>
      <trkpt lat="46.594877187162638" lon="7.080237278714776">
        <ele>719.20001220703125</ele>
        <time>2014-11-14T15:49:59Z</time>
      </trkpt>
      <trkpt lat="46.594713069498539" lon="7.07990032620728">
        <ele>720</ele>
        <time>2014-11-14T15:50:07Z</time>
      </trkpt>
      <trkpt lat="46.594632603228092" lon="7.079726820811629">
        <ele>720.20001220703125</ele>
        <time>2014-11-14T15:50:11Z</time>
      </trkpt>
      <trkpt lat="46.59454501233995" lon="7.079520123079419">
        <ele>720.79998779296875</ele>
        <time>2014-11-14T15:50:16Z</time>
      </trkpt>
      <trkpt lat="46.594501929357648" lon="7.079414175823331">
        <ele>721.4000244140625</ele>
        <time>2014-11-14T15:50:19Z</time>
      </trkpt>
      <trkpt lat="46.594448955729604" lon="7.079290207475424">
        <ele>722.20001220703125</ele>
        <time>2014-11-14T15:50:23Z</time>
      </trkpt>
      <trkpt lat="46.594417104497552" lon="7.079204544425011">
        <ele>722.5999755859375</ele>
        <time>2014-11-14T15:50:26Z</time>
      </trkpt>
      <trkpt lat="46.594404950737953" lon="7.079152408987284">
        <ele>722.79998779296875</ele>
        <time>2014-11-14T15:50:28Z</time>
      </trkpt>
      <trkpt lat="46.594406208023429" lon="7.079121815040708">
        <ele>723</ele>
        <time>2014-11-14T15:50:29Z</time>
      </trkpt>
      <trkpt lat="46.594487261027098" lon="7.079025004059076">
        <ele>723.20001220703125</ele>
        <time>2014-11-14T15:50:33Z</time>
      </trkpt>
      <trkpt lat="46.594621622934937" lon="7.078943280503154">
        <ele>722.4000244140625</ele>
        <time>2014-11-14T15:50:39Z</time>
      </trkpt>
      <trkpt lat="46.594625981524587" lon="7.07894311286509">
        <ele>722.20001220703125</ele>
        <time>2014-11-14T15:50:53Z</time>
      </trkpt>
      <trkpt lat="46.594662275165319" lon="7.078918470069766">
        <ele>722.4000244140625</ele>
        <time>2014-11-14T15:50:55Z</time>
      </trkpt>
      <trkpt lat="46.59476051107049" lon="7.078847642987967">
        <ele>722.20001220703125</ele>
        <time>2014-11-14T15:50:58Z</time>
      </trkpt>
      <trkpt lat="46.594809629023075" lon="7.078822245821357">
        <ele>722.20001220703125</ele>
        <time>2014-11-14T15:50:59Z</time>
      </trkpt>
      <trkpt lat="46.59515337087214" lon="7.078666174784303">
        <ele>721.79998779296875</ele>
        <time>2014-11-14T15:51:05Z</time>
      </trkpt>
      <trkpt lat="46.595289241522551" lon="7.078605489805341">
        <ele>721.5999755859375</ele>
        <time>2014-11-14T15:51:07Z</time>
      </trkpt>
      <trkpt lat="46.595643796026707" lon="7.078463835641742">
        <ele>721.20001220703125</ele>
        <time>2014-11-14T15:51:12Z</time>
      </trkpt>
      <trkpt lat="46.59618048928678" lon="7.078161081299186">
        <ele>720.79998779296875</ele>
        <time>2014-11-14T15:51:20Z</time>
      </trkpt>
      <trkpt lat="46.596665298566222" lon="7.077812980860472">
        <ele>721</ele>
        <time>2014-11-14T15:51:28Z</time>
      </trkpt>
      <trkpt lat="46.596721038222313" lon="7.077767802402377">
        <ele>721</ele>
        <time>2014-11-14T15:51:29Z</time>
      </trkpt>
      <trkpt lat="46.597133595496416" lon="7.077399250119925">
        <ele>721.79998779296875</ele>
        <time>2014-11-14T15:51:37Z</time>
      </trkpt>
      <trkpt lat="46.597563335672021" lon="7.076997254043818">
        <ele>722.5999755859375</ele>
        <time>2014-11-14T15:51:46Z</time>
      </trkpt>
      <trkpt lat="46.597924008965492" lon="7.076670443639159">
        <ele>723.5999755859375</ele>
        <time>2014-11-14T15:51:54Z</time>
      </trkpt>
      <trkpt lat="46.597970025613904" lon="7.076629372313619">
        <ele>723.79998779296875</ele>
        <time>2014-11-14T15:51:55Z</time>
      </trkpt>
      <trkpt lat="46.598349306732416" lon="7.076291330158711">
        <ele>724.5999755859375</ele>
        <time>2014-11-14T15:52:03Z</time>
      </trkpt>
      <trkpt lat="46.598396329209208" lon="7.076252019032836">
        <ele>724.79998779296875</ele>
        <time>2014-11-14T15:52:04Z</time>
      </trkpt>
      <trkpt lat="46.598736299201846" lon="7.075992431491613">
        <ele>725.5999755859375</ele>
        <time>2014-11-14T15:52:11Z</time>
      </trkpt>
      <trkpt lat="46.598784411326051" lon="7.075957730412483">
        <ele>725.79998779296875</ele>
        <time>2014-11-14T15:52:12Z</time>
      </trkpt>
      <trkpt lat="46.599119603633881" lon="7.075743991881609">
        <ele>726.5999755859375</ele>
        <time>2014-11-14T15:52:19Z</time>
      </trkpt>
      <trkpt lat="46.599212475121021" lon="7.075689090415835">
        <ele>727</ele>
        <time>2014-11-14T15:52:21Z</time>
      </trkpt>
      <trkpt lat="46.599524198099971" lon="7.075515417382121">
        <ele>727.79998779296875</ele>
        <time>2014-11-14T15:52:28Z</time>
      </trkpt>
      <trkpt lat="46.59961455501616" lon="7.075466047972441">
        <ele>728</ele>
        <time>2014-11-14T15:52:30Z</time>
      </trkpt>
      <trkpt lat="46.600009761750698" lon="7.075245687738061">
        <ele>729.20001220703125</ele>
        <time>2014-11-14T15:52:38Z</time>
      </trkpt>
      <trkpt lat="46.600509071722627" lon="7.074955170974135">
        <ele>730.20001220703125</ele>
        <time>2014-11-14T15:52:48Z</time>
      </trkpt>
      <trkpt lat="46.600717697292566" lon="7.074766997247934">
        <ele>730.5999755859375</ele>
        <time>2014-11-14T15:52:54Z</time>
      </trkpt>
      <trkpt lat="46.600791458040476" lon="7.074704300612211">
        <ele>730.5999755859375</ele>
        <time>2014-11-14T15:52:58Z</time>
      </trkpt>
      <trkpt lat="46.600915845483541" lon="7.074669850990176">
        <ele>730.79998779296875</ele>
        <time>2014-11-14T15:53:01Z</time>
      </trkpt>
      <trkpt lat="46.600961778312922" lon="7.074644202366471">
        <ele>731</ele>
        <time>2014-11-14T15:53:02Z</time>
      </trkpt>
      <trkpt lat="46.601097816601396" lon="7.074525849893689">
        <ele>731</ele>
        <time>2014-11-14T15:53:05Z</time>
      </trkpt>
      <trkpt lat="46.601147186011076" lon="7.07449609413743">
        <ele>731.20001220703125</ele>
        <time>2014-11-14T15:53:06Z</time>
      </trkpt>
      <trkpt lat="46.601199321448803" lon="7.074480252340436">
        <ele>731.5999755859375</ele>
        <time>2014-11-14T15:53:07Z</time>
      </trkpt>
      <trkpt lat="46.601397637277842" lon="7.074417555704713">
        <ele>732.20001220703125</ele>
        <time>2014-11-14T15:53:11Z</time>
      </trkpt>
      <trkpt lat="46.601529819890857" lon="7.074330803006887">
        <ele>732.5999755859375</ele>
        <time>2014-11-14T15:53:14Z</time>
      </trkpt>
      <trkpt lat="46.601834753528237" lon="7.074113041162491">
        <ele>733.20001220703125</ele>
        <time>2014-11-14T15:53:21Z</time>
      </trkpt>
      <trkpt lat="46.601919075474143" lon="7.07404799759388">
        <ele>733.4000244140625</ele>
        <time>2014-11-14T15:53:23Z</time>
      </trkpt>
      <trkpt lat="46.60224630497396" lon="7.073755636811256">
        <ele>734.4000244140625</ele>
        <time>2014-11-14T15:53:31Z</time>
      </trkpt>
      <trkpt lat="46.602287208661437" lon="7.073719762265682">
        <ele>734.5999755859375</ele>
        <time>2014-11-14T15:53:32Z</time>
      </trkpt>
      <trkpt lat="46.602531038224697" lon="7.073484733700752">
        <ele>735.5999755859375</ele>
        <time>2014-11-14T15:53:38Z</time>
      </trkpt>
      <trkpt lat="46.602649139240384" lon="7.073359591886401">
        <ele>735.79998779296875</ele>
        <time>2014-11-14T15:53:41Z</time>
      </trkpt>
      <trkpt lat="46.602808479219675" lon="7.07319924607873">
        <ele>736.5999755859375</ele>
        <time>2014-11-14T15:53:45Z</time>
      </trkpt>
      <trkpt lat="46.602991539984941" lon="7.072989614680409">
        <ele>737</ele>
        <time>2014-11-14T15:53:50Z</time>
      </trkpt>
      <trkpt lat="46.603223383426666" lon="7.072690548375249">
        <ele>737.5999755859375</ele>
        <time>2014-11-14T15:53:57Z</time>
      </trkpt>
      <trkpt lat="46.60331935621798" lon="7.072571609169245">
        <ele>737.79998779296875</ele>
        <time>2014-11-14T15:54:00Z</time>
      </trkpt>
      <trkpt lat="46.603522030636668" lon="7.072281092405319">
        <ele>738.5999755859375</ele>
        <time>2014-11-14T15:54:07Z</time>
      </trkpt>
      <trkpt lat="46.603552792221308" lon="7.072239853441715">
        <ele>738.5999755859375</ele>
        <time>2014-11-14T15:54:08Z</time>
      </trkpt>
      <trkpt lat="46.603757729753852" lon="7.071924861520529">
        <ele>739.20001220703125</ele>
        <time>2014-11-14T15:54:15Z</time>
      </trkpt>
      <trkpt lat="46.603876752778888" lon="7.071747584268451">
        <ele>740</ele>
        <time>2014-11-14T15:54:19Z</time>
      </trkpt>
      <trkpt lat="46.603908352553844" lon="7.071706596761942">
        <ele>740</ele>
        <time>2014-11-14T15:54:20Z</time>
      </trkpt>
      <trkpt lat="46.603994015604258" lon="7.071577766910195">
        <ele>740.4000244140625</ele>
        <time>2014-11-14T15:54:23Z</time>
      </trkpt>
      <trkpt lat="46.604204401373863" lon="7.071276940405369">
        <ele>741</ele>
        <time>2014-11-14T15:54:31Z</time>
      </trkpt>
      <trkpt lat="46.604225607588887" lon="7.071245508268476">
        <ele>741.20001220703125</ele>
        <time>2014-11-14T15:54:32Z</time>
      </trkpt>
      <trkpt lat="46.604286795482039" lon="7.071114415302873">
        <ele>741.20001220703125</ele>
        <time>2014-11-14T15:54:36Z</time>
      </trkpt>
      <trkpt lat="46.604283191263676" lon="7.071069488301873">
        <ele>741.20001220703125</ele>
        <time>2014-11-14T15:54:37Z</time>
      </trkpt>
      <trkpt lat="46.60422770306468" lon="7.070711748674512">
        <ele>742.20001220703125</ele>
        <time>2014-11-14T15:54:44Z</time>
      </trkpt>
      <trkpt lat="46.6042335703969" lon="7.07065936177969">
        <ele>742.20001220703125</ele>
        <time>2014-11-14T15:54:45Z</time>
      </trkpt>
      <trkpt lat="46.604270366951823" lon="7.070565735921264">
        <ele>742.4000244140625</ele>
        <time>2014-11-14T15:54:47Z</time>
      </trkpt>
      <trkpt lat="46.604414619505405" lon="7.070386949926615">
        <ele>742.79998779296875</ele>
        <time>2014-11-14T15:54:52Z</time>
      </trkpt>
      <trkpt lat="46.604558285325766" lon="7.070187041535974">
        <ele>743.20001220703125</ele>
        <time>2014-11-14T15:54:57Z</time>
      </trkpt>
      <trkpt lat="46.604578737169504" lon="7.070134738460183">
        <ele>743.20001220703125</ele>
        <time>2014-11-14T15:54:58Z</time>
      </trkpt>
      <trkpt lat="46.604618886485696" lon="7.069976404309273">
        <ele>743.5999755859375</ele>
        <time>2014-11-14T15:55:01Z</time>
      </trkpt>
      <trkpt lat="46.604664986953139" lon="7.069770125672221">
        <ele>744</ele>
        <time>2014-11-14T15:55:05Z</time>
      </trkpt>
      <trkpt lat="46.604688623920083" lon="7.069670967757702">
        <ele>744.20001220703125</ele>
        <time>2014-11-14T15:55:07Z</time>
      </trkpt>
      <trkpt lat="46.604718212038279" lon="7.069381373003125">
        <ele>745</ele>
        <time>2014-11-14T15:55:13Z</time>
      </trkpt>
      <trkpt lat="46.604758948087692" lon="7.069143578410149">
        <ele>745.20001220703125</ele>
        <time>2014-11-14T15:55:18Z</time>
      </trkpt>
      <trkpt lat="46.604899261146784" lon="7.068965127691627">
        <ele>745.4000244140625</ele>
        <time>2014-11-14T15:55:23Z</time>
      </trkpt>
      <trkpt lat="46.605109646916389" lon="7.068673940375447">
        <ele>746.20001220703125</ele>
        <time>2014-11-14T15:55:31Z</time>
      </trkpt>
      <trkpt lat="46.605135295540094" lon="7.068640999495983">
        <ele>746.4000244140625</ele>
        <time>2014-11-14T15:55:32Z</time>
      </trkpt>
      <trkpt lat="46.605276027694345" lon="7.068456597626209">
        <ele>747.20001220703125</ele>
        <time>2014-11-14T15:55:38Z</time>
      </trkpt>
      <trkpt lat="46.605349872261286" lon="7.068360038101673">
        <ele>747.4000244140625</ele>
        <time>2014-11-14T15:55:41Z</time>
      </trkpt>
      <trkpt lat="46.605448108166456" lon="7.068229196593165">
        <ele>747.5999755859375</ele>
        <time>2014-11-14T15:55:45Z</time>
      </trkpt>
      <trkpt lat="46.605627983808517" lon="7.067976566031575">
        <ele>748.4000244140625</ele>
        <time>2014-11-14T15:55:53Z</time>
      </trkpt>
      <trkpt lat="46.60565547645092" lon="7.067945469170809">
        <ele>748.4000244140625</ele>
        <time>2014-11-14T15:55:54Z</time>
      </trkpt>
      <trkpt lat="46.605775756761432" lon="7.067786548286676">
        <ele>748.5999755859375</ele>
        <time>2014-11-14T15:55:58Z</time>
      </trkpt>
      <trkpt lat="46.605971055105329" lon="7.067513298243284">
        <ele>748.79998779296875</ele>
        <time>2014-11-14T15:56:05Z</time>
      </trkpt>
      <trkpt lat="46.606180937960744" lon="7.067236779257655">
        <ele>749.5999755859375</ele>
        <time>2014-11-14T15:56:13Z</time>
      </trkpt>
      <trkpt lat="46.606203988194466" lon="7.067204089835286">
        <ele>749.5999755859375</ele>
        <time>2014-11-14T15:56:14Z</time>
      </trkpt>
      <trkpt lat="46.606344552710652" lon="7.06701616756618">
        <ele>750.4000244140625</ele>
        <time>2014-11-14T15:56:20Z</time>
      </trkpt>
      <trkpt lat="46.606394592672586" lon="7.066956153139472">
        <ele>750.5999755859375</ele>
        <time>2014-11-14T15:56:22Z</time>
      </trkpt>
      <trkpt lat="46.606512358412147" lon="7.066794969141483">
        <ele>751</ele>
        <time>2014-11-14T15:56:27Z</time>
      </trkpt>
      <trkpt lat="46.606689551845193" lon="7.066582823172212">
        <ele>751.5999755859375</ele>
        <time>2014-11-14T15:56:34Z</time>
      </trkpt>
      <trkpt lat="46.606698520481586" lon="7.066538482904434">
        <ele>751.79998779296875</ele>
        <time>2014-11-14T15:56:35Z</time>
      </trkpt>
      <trkpt lat="46.60666985437274" lon="7.066450472921133">
        <ele>752</ele>
        <time>2014-11-14T15:56:37Z</time>
      </trkpt>
      <trkpt lat="46.606545634567738" lon="7.066214606165886">
        <ele>752.5999755859375</ele>
        <time>2014-11-14T15:56:43Z</time>
      </trkpt>
      <trkpt lat="46.60647195763886" lon="7.066062558442354">
        <ele>753.20001220703125</ele>
        <time>2014-11-14T15:56:47Z</time>
      </trkpt>
      <trkpt lat="46.606378750875592" lon="7.065879162400961">
        <ele>753.79998779296875</ele>
        <time>2014-11-14T15:56:52Z</time>
      </trkpt>
      <trkpt lat="46.60634002648294" lon="7.065807664766908">
        <ele>753.79998779296875</ele>
        <time>2014-11-14T15:56:54Z</time>
      </trkpt>
      <trkpt lat="46.606142465025187" lon="7.065487811341882">
        <ele>754.5999755859375</ele>
        <time>2014-11-14T15:57:03Z</time>
      </trkpt>
      <trkpt lat="46.606007684022188" lon="7.065285472199321">
        <ele>754.4000244140625</ele>
        <time>2014-11-14T15:57:09Z</time>
      </trkpt>
      <trkpt lat="46.606020592153072" lon="7.065259236842394">
        <ele>754.5999755859375</ele>
        <time>2014-11-14T15:57:10Z</time>
      </trkpt>
      <trkpt lat="46.606167275458574" lon="7.065090425312519">
        <ele>754.5999755859375</ele>
        <time>2014-11-14T15:57:16Z</time>
      </trkpt>
      <trkpt lat="46.60619392991066" lon="7.065061256289482">
        <ele>754.79998779296875</ele>
        <time>2014-11-14T15:57:17Z</time>
      </trkpt>
      <trkpt lat="46.606297278776765" lon="7.064911220222712">
        <ele>755.5999755859375</ele>
        <time>2014-11-14T15:57:22Z</time>
      </trkpt>
      <trkpt lat="46.606404567137361" lon="7.064808206632733">
        <ele>756</ele>
        <time>2014-11-14T15:57:26Z</time>
      </trkpt>
      <trkpt lat="46.606430634856224" lon="7.06477333791554">
        <ele>756</ele>
        <time>2014-11-14T15:57:27Z</time>
      </trkpt>
      <trkpt lat="46.606629956513643" lon="7.064494555816054">
        <ele>756.79998779296875</ele>
        <time>2014-11-14T15:57:35Z</time>
      </trkpt>
      <trkpt lat="46.606740681454539" lon="7.064344519749284">
        <ele>757</ele>
        <time>2014-11-14T15:57:40Z</time>
      </trkpt>
      <trkpt lat="46.60677345469594" lon="7.064295737072825">
        <ele>757</ele>
        <time>2014-11-14T15:57:42Z</time>
      </trkpt>
      <trkpt lat="46.606779741123319" lon="7.06425977870822">
        <ele>757.20001220703125</ele>
        <time>2014-11-14T15:57:43Z</time>
      </trkpt>
      <trkpt lat="46.606769766658545" lon="7.064178893342614">
        <ele>757.4000244140625</ele>
        <time>2014-11-14T15:57:45Z</time>
      </trkpt>
      <trkpt lat="46.60673531703651" lon="7.064092056825757">
        <ele>757.5999755859375</ele>
        <time>2014-11-14T15:57:47Z</time>
      </trkpt>
      <trkpt lat="46.606653090566397" lon="7.063903296366334">
        <ele>757.5999755859375</ele>
        <time>2014-11-14T15:57:51Z</time>
      </trkpt>
      <trkpt lat="46.606563655659556" lon="7.063697688281536">
        <ele>758</ele>
        <time>2014-11-14T15:57:55Z</time>
      </trkpt>
      <trkpt lat="46.606442620977759" lon="7.063456038013101">
        <ele>758.4000244140625</ele>
        <time>2014-11-14T15:58:00Z</time>
      </trkpt>
      <trkpt lat="46.606298871338367" lon="7.063183458521962">
        <ele>759</ele>
        <time>2014-11-14T15:58:06Z</time>
      </trkpt>
      <trkpt lat="46.606189906597137" lon="7.062953878194094">
        <ele>759.79998779296875</ele>
        <time>2014-11-14T15:58:11Z</time>
      </trkpt>
      <trkpt lat="46.606153780594468" lon="7.062802081927657">
        <ele>760</ele>
        <time>2014-11-14T15:58:14Z</time>
      </trkpt>
      <trkpt lat="46.60615922883153" lon="7.062759082764387">
        <ele>760.20001220703125</ele>
        <time>2014-11-14T15:58:15Z</time>
      </trkpt>
      <trkpt lat="46.606204742565751" lon="7.062608962878585">
        <ele>761.20001220703125</ele>
        <time>2014-11-14T15:58:19Z</time>
      </trkpt>
      <trkpt lat="46.606231983751059" lon="7.062534615397453">
        <ele>761.4000244140625</ele>
        <time>2014-11-14T15:58:21Z</time>
      </trkpt>
      <trkpt lat="46.606358801946044" lon="7.0622886903584">
        <ele>762.20001220703125</ele>
        <time>2014-11-14T15:58:28Z</time>
      </trkpt>
      <trkpt lat="46.606381433084607" lon="7.062254492193461">
        <ele>762.20001220703125</ele>
        <time>2014-11-14T15:58:29Z</time>
      </trkpt>
      <trkpt lat="46.606543874368072" lon="7.062097080051899">
        <ele>762.79998779296875</ele>
        <time>2014-11-14T15:58:35Z</time>
      </trkpt>
      <trkpt lat="46.606657868251204" lon="7.062001777812839">
        <ele>763.4000244140625</ele>
        <time>2014-11-14T15:58:40Z</time>
      </trkpt>
      <trkpt lat="46.606699777767062" lon="7.061968836933374">
        <ele>763.5999755859375</ele>
        <time>2014-11-14T15:58:42Z</time>
      </trkpt>
      <trkpt lat="46.606785859912634" lon="7.061913348734379">
        <ele>764.5999755859375</ele>
        <time>2014-11-14T15:58:46Z</time>
      </trkpt>
      <trkpt lat="46.606889879330993" lon="7.061830032616854">
        <ele>764.79998779296875</ele>
        <time>2014-11-14T15:58:51Z</time>
      </trkpt>
      <trkpt lat="46.607045363634825" lon="7.061703130602837">
        <ele>765.4000244140625</ele>
        <time>2014-11-14T15:58:58Z</time>
      </trkpt>
      <trkpt lat="46.60710227675736" lon="7.061630375683308">
        <ele>765.5999755859375</ele>
        <time>2014-11-14T15:59:01Z</time>
      </trkpt>
      <trkpt lat="46.607169583439827" lon="7.061553429812193">
        <ele>765.4000244140625</ele>
        <time>2014-11-14T15:59:04Z</time>
      </trkpt>
      <trkpt lat="46.607416095212102" lon="7.061356287449598">
        <ele>766.20001220703125</ele>
        <time>2014-11-14T15:59:13Z</time>
      </trkpt>
      <trkpt lat="46.607545595616102" lon="7.061270792037249">
        <ele>766.5999755859375</ele>
        <time>2014-11-14T15:59:17Z</time>
      </trkpt>
      <trkpt lat="46.607647016644478" lon="7.061197450384498">
        <ele>766.5999755859375</ele>
        <time>2014-11-14T15:59:20Z</time>
      </trkpt>
      <trkpt lat="46.607880536466837" lon="7.060995949432254">
        <ele>767</ele>
        <time>2014-11-14T15:59:27Z</time>
      </trkpt>
      <trkpt lat="46.608063094317913" lon="7.060834765434265">
        <ele>767.5999755859375</ele>
        <time>2014-11-14T15:59:33Z</time>
      </trkpt>
      <trkpt lat="46.608110871165991" lon="7.060799896717072">
        <ele>768</ele>
        <time>2014-11-14T15:59:35Z</time>
      </trkpt>
      <trkpt lat="46.608268199488521" lon="7.060709120705724">
        <ele>768.4000244140625</ele>
        <time>2014-11-14T15:59:41Z</time>
      </trkpt>
      <trkpt lat="46.608480429276824" lon="7.06057308241725">
        <ele>768</ele>
        <time>2014-11-14T15:59:46Z</time>
      </trkpt>
      <trkpt lat="46.608817046508193" lon="7.060322966426611">
        <ele>768.4000244140625</ele>
        <time>2014-11-14T15:59:54Z</time>
      </trkpt>
      <trkpt lat="46.608931040391326" lon="7.060244511812925">
        <ele>768.79998779296875</ele>
        <time>2014-11-14T15:59:57Z</time>
      </trkpt>
      <trkpt lat="46.609149891883135" lon="7.060085590928793">
        <ele>769.20001220703125</ele>
        <time>2014-11-14T16:00:03Z</time>
      </trkpt>
      <trkpt lat="46.609497657045722" lon="7.05983329564333">
        <ele>769.5999755859375</ele>
        <time>2014-11-14T16:00:12Z</time>
      </trkpt>
      <trkpt lat="46.609791610389948" lon="7.059593908488751">
        <ele>769.79998779296875</ele>
        <time>2014-11-14T16:00:20Z</time>
      </trkpt>
      <trkpt lat="46.609828993678093" lon="7.059561219066382">
        <ele>769.79998779296875</ele>
        <time>2014-11-14T16:00:21Z</time>
      </trkpt>
      <trkpt lat="46.609950447455049" lon="7.059493744745851">
        <ele>770</ele>
        <time>2014-11-14T16:00:24Z</time>
      </trkpt>
      <trkpt lat="46.609992189332843" lon="7.059468096122146">
        <ele>770</ele>
        <time>2014-11-14T16:00:25Z</time>
      </trkpt>
      <trkpt lat="46.610265942290425" lon="7.059264164417982">
        <ele>770.20001220703125</ele>
        <time>2014-11-14T16:00:32Z</time>
      </trkpt>
      <trkpt lat="46.610383875668049" lon="7.059173220768571">
        <ele>770.5999755859375</ele>
        <time>2014-11-14T16:00:35Z</time>
      </trkpt>
      <trkpt lat="46.610542880371213" lon="7.059092167764902">
        <ele>771</ele>
        <time>2014-11-14T16:00:39Z</time>
      </trkpt>
      <trkpt lat="46.610578168183565" lon="7.059071213006973">
        <ele>771</ele>
        <time>2014-11-14T16:00:40Z</time>
      </trkpt>
      <trkpt lat="46.610732059925795" lon="7.058942299336195">
        <ele>772.20001220703125</ele>
        <time>2014-11-14T16:00:45Z</time>
      </trkpt>
      <trkpt lat="46.610796013846993" lon="7.05879595130682">
        <ele>773</ele>
        <time>2014-11-14T16:00:49Z</time>
      </trkpt>
      <trkpt lat="46.610796097666025" lon="7.058639796450734">
        <ele>773.4000244140625</ele>
        <time>2014-11-14T16:00:52Z</time>
      </trkpt>
      <trkpt lat="46.610793163999915" lon="7.058429913595319">
        <ele>773.5999755859375</ele>
        <time>2014-11-14T16:00:56Z</time>
      </trkpt>
      <trkpt lat="46.610819818452001" lon="7.05808256752789">
        <ele>774.4000244140625</ele>
        <time>2014-11-14T16:01:03Z</time>
      </trkpt>
      <trkpt lat="46.610839767381549" lon="7.058000592514873">
        <ele>774.5999755859375</ele>
        <time>2014-11-14T16:01:05Z</time>
      </trkpt>
      <trkpt lat="46.610890561714768" lon="7.057836558669806">
        <ele>775.4000244140625</ele>
        <time>2014-11-14T16:01:09Z</time>
      </trkpt>
      <trkpt lat="46.610918221995234" lon="7.057710830122232">
        <ele>776</ele>
        <time>2014-11-14T16:01:12Z</time>
      </trkpt>
      <trkpt lat="46.610967256128788" lon="7.057550651952624">
        <ele>776.4000244140625</ele>
        <time>2014-11-14T16:01:16Z</time>
      </trkpt>
      <trkpt lat="46.611018218100071" lon="7.057339427992702">
        <ele>777.20001220703125</ele>
        <time>2014-11-14T16:01:21Z</time>
      </trkpt>
      <trkpt lat="46.611039759591222" lon="7.057256614789367">
        <ele>777.4000244140625</ele>
        <time>2014-11-14T16:01:23Z</time>
      </trkpt>
      <trkpt lat="46.611105892807245" lon="7.057021418586373">
        <ele>778.5999755859375</ele>
        <time>2014-11-14T16:01:29Z</time>
      </trkpt>
      <trkpt lat="46.611117292195559" lon="7.056982107460499">
        <ele>778.5999755859375</ele>
        <time>2014-11-14T16:01:30Z</time>
      </trkpt>
      <trkpt lat="46.611223490908742" lon="7.056706761941314">
        <ele>779.4000244140625</ele>
        <time>2014-11-14T16:01:37Z</time>
      </trkpt>
      <trkpt lat="46.611245032399893" lon="7.056668708100915">
        <ele>779.5999755859375</ele>
        <time>2014-11-14T16:01:38Z</time>
      </trkpt>
      <trkpt lat="46.61143496632576" lon="7.056392608210445">
        <ele>780.20001220703125</ele>
        <time>2014-11-14T16:01:46Z</time>
      </trkpt>
      <trkpt lat="46.611483581364155" lon="7.056334270164371">
        <ele>780.5999755859375</ele>
        <time>2014-11-14T16:01:48Z</time>
      </trkpt>
      <trkpt lat="46.611608806997538" lon="7.05617493018508">
        <ele>781</ele>
        <time>2014-11-14T16:01:53Z</time>
      </trkpt>
      <trkpt lat="46.611743252724409" lon="7.056000586599112">
        <ele>781.5999755859375</ele>
        <time>2014-11-14T16:01:58Z</time>
      </trkpt>
      <trkpt lat="46.611818857491016" lon="7.055895896628499">
        <ele>782</ele>
        <time>2014-11-14T16:02:01Z</time>
      </trkpt>
      <trkpt lat="46.611970737576485" lon="7.05564770847559">
        <ele>782.20001220703125</ele>
        <time>2014-11-14T16:02:07Z</time>
      </trkpt>
      <trkpt lat="46.611988674849272" lon="7.055590627714992">
        <ele>782.20001220703125</ele>
        <time>2014-11-14T16:02:08Z</time>
      </trkpt>
      <trkpt lat="46.612018849700689" lon="7.055414607748389">
        <ele>782</ele>
        <time>2014-11-14T16:02:11Z</time>
      </trkpt>
      <trkpt lat="46.612018430605531" lon="7.055296087637544">
        <ele>782</ele>
        <time>2014-11-14T16:02:13Z</time>
      </trkpt>
      <trkpt lat="46.611996721476316" lon="7.054912112653256">
        <ele>781.79998779296875</ele>
        <time>2014-11-14T16:02:20Z</time>
      </trkpt>
    </trkseg>
  </trk>

</gpx>
